Wetterdaten: Sonntag, 15.04.2018
Datum Zeit Temp. A. Pool Temp. Feuchte A. Luftdruck Regen Wind Richtung Richtung Sonnenschein ET UV Solar Taupunkt Windchill Windben Empfang
15.04.2018 00:00 12,4 C 11,1 C 66 % 1016,1 hPa 0,0 l/m 4,6 km/h (1 Bft) O-NO 69 0 min 0,000 mm 0,0 UV-I 0 W/m 6,2 C 12,4 C 6,4 km/h (2 Bft) 100,00 %
15.04.2018 00:02 12,3 C 11,1 C 66 % 1016,1 hPa 0,0 l/m 6,6 km/h (2 Bft) O-NO 61 0 min 0,000 mm 0,0 UV-I 0 W/m 6,1 C 12,2 C 8,0 km/h (2 Bft) 100,00 %
15.04.2018 00:03 12,2 C 11,1 C 66 % 1016,1 hPa 0,0 l/m 7,1 km/h (2 Bft) NO 49 0 min 0,000 mm 0,0 UV-I 0 W/m 6,0 C 11,7 C 9,7 km/h (2 Bft) 100,00 %
15.04.2018 00:04 12,1 C 11,1 C 66 % 1016,0 hPa 0,0 l/m 7,5 km/h (2 Bft) NO 42 0 min 0,000 mm 0,0 UV-I 0 W/m 5,9 C 11,4 C 9,7 km/h (2 Bft) 100,00 %
15.04.2018 00:05 12,1 C 11,1 C 67 % 1016,0 hPa 0,0 l/m 7,6 km/h (2 Bft) O-NO 63 0 min 0,000 mm 0,0 UV-I 0 W/m 6,2 C 11,3 C 9,7 km/h (2 Bft) 95,83 %
15.04.2018 00:06 12,1 C 11,1 C 67 % 1015,9 hPa 0,0 l/m 8,7 km/h (2 Bft) O-NO 65 0 min 0,000 mm 0,0 UV-I 0 W/m 6,2 C 10,6 C 12,9 km/h (3 Bft) 100,00 %
15.04.2018 00:07 12,1 C 11,1 C 67 % 1015,9 hPa 0,0 l/m 7,0 km/h (2 Bft) O-NO 67 0 min 0,000 mm 0,0 UV-I 0 W/m 6,2 C 11,7 C 12,9 km/h (3 Bft) 100,00 %
15.04.2018 00:08 12,1 C 11,1 C 66 % 1015,9 hPa 0,0 l/m 9,2 km/h (2 Bft) NO 55 0 min 0,000 mm 0,0 UV-I 0 W/m 5,9 C 10,3 C 12,9 km/h (3 Bft) 100,00 %
15.04.2018 00:09 12,1 C 11,1 C 66 % 1015,8 hPa 0,0 l/m 12,2 km/h (2 Bft) O-NO 58 0 min 0,000 mm 0,0 UV-I 0 W/m 5,9 C 8,8 C 16,1 km/h (3 Bft) 100,00 %
15.04.2018 00:10 12,1 C 11,1 C 66 % 1015,8 hPa 0,0 l/m 10,7 km/h (2 Bft) O-NO 64 0 min 0,000 mm 0,0 UV-I 0 W/m 5,9 C 9,6 C 14,5 km/h (3 Bft) 100,00 %
15.04.2018 00:11 12,1 C 11,1 C 67 % 1015,8 hPa 0,0 l/m 10,4 km/h (2 Bft) O-NO 57 0 min 0,000 mm 0,0 UV-I 0 W/m 6,2 C 9,7 C 12,9 km/h (3 Bft) 100,00 %
15.04.2018 00:12 12,1 C 11,1 C 67 % 1015,8 hPa 0,0 l/m 8,3 km/h (2 Bft) NO 52 0 min 0,000 mm 0,0 UV-I 0 W/m 6,2 C 10,9 C 9,7 km/h (2 Bft) 100,00 %
15.04.2018 00:13 12,1 C 11,1 C 67 % 1015,9 hPa 0,0 l/m 7,2 km/h (2 Bft) O-NO 62 0 min 0,000 mm 0,0 UV-I 0 W/m 6,2 C 11,6 C 9,7 km/h (2 Bft) 100,00 %
15.04.2018 00:14 12,1 C 11,1 C 67 % 1015,8 hPa 0,0 l/m 6,5 km/h (2 Bft) NO 54 0 min 0,000 mm 0,0 UV-I 0 W/m 6,2 C 12,1 C 11,3 km/h (2 Bft) 100,00 %
15.04.2018 00:15 12,1 C 11,1 C 67 % 1015,8 hPa 0,0 l/m 6,8 km/h (2 Bft) NO 49 0 min 0,000 mm 0,0 UV-I 0 W/m 6,2 C 11,8 C 9,7 km/h (2 Bft) 100,00 %
15.04.2018 00:16 12,1 C 11,1 C 67 % 1015,9 hPa 0,0 l/m 8,1 km/h (2 Bft) NO 55 0 min 0,000 mm 0,0 UV-I 0 W/m 6,2 C 11,0 C 12,9 km/h (3 Bft) 100,00 %
15.04.2018 00:17 11,9 C 11,1 C 67 % 1015,9 hPa 0,0 l/m 8,1 km/h (2 Bft) NO 48 0 min 0,000 mm 0,0 UV-I 0 W/m 6,0 C 10,8 C 11,3 km/h (2 Bft) 100,00 %
15.04.2018 00:18 11,9 C 11,1 C 68 % 1015,9 hPa 0,0 l/m 7,4 km/h (2 Bft) NO 41 0 min 0,000 mm 0,0 UV-I 0 W/m 6,2 C 11,2 C 12,9 km/h (3 Bft) 100,00 %
15.04.2018 00:19 11,8 C 11,1 C 68 % 1015,9 hPa 0,0 l/m 6,8 km/h (2 Bft) O-NO 63 0 min 0,000 mm 0,0 UV-I 0 W/m 6,1 C 11,5 C 9,7 km/h (2 Bft) 100,00 %
15.04.2018 00:20 11,8 C 11,1 C 68 % 1015,9 hPa 0,0 l/m 7,3 km/h (2 Bft) O-NO 68 0 min 0,000 mm 0,0 UV-I 0 W/m 6,1 C 11,2 C 9,7 km/h (2 Bft) 100,00 %
15.04.2018 00:21 11,8 C 11,1 C 68 % 1015,9 hPa 0,0 l/m 7,4 km/h (2 Bft) NO 50 0 min 0,000 mm 0,0 UV-I 0 W/m 6,1 C 11,1 C 9,7 km/h (2 Bft) 100,00 %
15.04.2018 00:22 11,8 C 11,1 C 68 % 1015,9 hPa 0,0 l/m 7,1 km/h (2 Bft) NO 49 0 min 0,000 mm 0,0 UV-I 0 W/m 6,1 C 11,3 C 9,7 km/h (2 Bft) 95,83 %
15.04.2018 00:23 11,8 C 11,1 C 68 % 1015,9 hPa 0,0 l/m 6,6 km/h (2 Bft) O-NO 67 0 min 0,000 mm 0,0 UV-I 0 W/m 6,1 C 11,7 C 9,7 km/h (2 Bft) 100,00 %
15.04.2018 00:24 11,8 C 11,1 C 68 % 1015,9 hPa 0,0 l/m 6,8 km/h (2 Bft) O-NO 61 0 min 0,000 mm 0,0 UV-I 0 W/m 6,1 C 11,5 C 9,7 km/h (2 Bft) 96,30 %
15.04.2018 00:25 11,8 C 11,1 C 68 % 1015,8 hPa 0,0 l/m 6,1 km/h (2 Bft) O-NO 64 0 min 0,000 mm 0,0 UV-I 0 W/m 6,1 C 11,8 C 8,0 km/h (2 Bft) 100,00 %
15.04.2018 00:26 11,9 C 11,1 C 68 % 1015,8 hPa 0,0 l/m 7,1 km/h (2 Bft) O-NO 64 0 min 0,000 mm 0,0 UV-I 0 W/m 6,2 C 11,4 C 12,9 km/h (3 Bft) 100,00 %
15.04.2018 00:27 11,9 C 11,1 C 68 % 1015,8 hPa 0,0 l/m 8,0 km/h (2 Bft) O 80 0 min 0,000 mm 0,0 UV-I 0 W/m 6,2 C 10,8 C 12,9 km/h (3 Bft) 100,00 %
15.04.2018 00:28 11,9 C 11,1 C 67 % 1015,8 hPa 0,0 l/m 7,4 km/h (2 Bft) O-NO 65 0 min 0,000 mm 0,0 UV-I 0 W/m 6,0 C 11,2 C 9,7 km/h (2 Bft) 100,00 %
15.04.2018 00:29 12,0 C 11,1 C 67 % 1015,8 hPa 0,0 l/m 6,7 km/h (2 Bft) O-NO 67 0 min 0,000 mm 0,0 UV-I 0 W/m 6,1 C 11,8 C 8,0 km/h (2 Bft) 100,00 %
15.04.2018 00:30 12,1 C 11,1 C 67 % 1015,8 hPa 0,0 l/m 6,8 km/h (2 Bft) O-NO 71 0 min 0,000 mm 0,0 UV-I 0 W/m 6,2 C 11,8 C 9,7 km/h (2 Bft) 96,15 %
15.04.2018 00:31 12,2 C 11,1 C 66 % 1015,8 hPa 0,0 l/m 6,5 km/h (2 Bft) O-NO 69 0 min 0,000 mm 0,0 UV-I 0 W/m 6,0 C 12,2 C 9,7 km/h (2 Bft) 100,00 %
15.04.2018 00:32 12,3 C 11,1 C 66 % 1015,8 hPa 0,0 l/m 6,1 km/h (2 Bft) NO 44 0 min 0,000 mm 0,0 UV-I 0 W/m 6,1 C 12,3 C 8,0 km/h (2 Bft) 100,00 %
15.04.2018 00:33 12,3 C 11,1 C 66 % 1015,8 hPa 0,0 l/m 7,3 km/h (2 Bft) O-NO 74 0 min 0,000 mm 0,0 UV-I 0 W/m 6,1 C 11,7 C 11,3 km/h (2 Bft) 100,00 %
15.04.2018 00:34 12,3 C 11,1 C 66 % 1015,8 hPa 0,0 l/m 6,8 km/h (2 Bft) O 92 0 min 0,000 mm 0,0 UV-I 0 W/m 6,1 C 12,0 C 9,7 km/h (2 Bft) 100,00 %
15.04.2018 00:35 12,3 C 11,1 C 66 % 1015,8 hPa 0,0 l/m 8,0 km/h (2 Bft) O 95 0 min 0,000 mm 0,0 UV-I 0 W/m 6,1 C 11,3 C 11,3 km/h (2 Bft) 100,00 %
15.04.2018 00:36 12,3 C 11,1 C 66 % 1015,8 hPa 0,0 l/m 7,2 km/h (2 Bft) O-NO 65 0 min 0,000 mm 0,0 UV-I 0 W/m 6,1 C 11,8 C 9,7 km/h (2 Bft) 100,00 %
15.04.2018 00:37 12,3 C 11,1 C 66 % 1015,8 hPa 0,0 l/m 9,9 km/h (2 Bft) O-NO 67 0 min 0,000 mm 0,0 UV-I 0 W/m 6,1 C 10,2 C 12,9 km/h (3 Bft) 100,00 %
15.04.2018 00:38 12,3 C 11,1 C 66 % 1015,8 hPa 0,0 l/m 10,9 km/h (2 Bft) O-NO 65 0 min 0,000 mm 0,0 UV-I 0 W/m 6,1 C 9,7 C 12,9 km/h (3 Bft) 95,65 %
15.04.2018 00:39 12,3 C 11,1 C 66 % 1015,8 hPa 0,0 l/m 9,5 km/h (2 Bft) O-NO 60 0 min 0,000 mm 0,0 UV-I 0 W/m 6,1 C 10,4 C 12,9 km/h (3 Bft) 100,00 %
15.04.2018 00:40 12,3 C 11,1 C 66 % 1015,8 hPa 0,0 l/m 9,0 km/h (2 Bft) O 80 0 min 0,000 mm 0,0 UV-I 0 W/m 6,1 C 10,7 C 12,9 km/h (3 Bft) 100,00 %
15.04.2018 00:41 12,3 C 11,1 C 66 % 1015,7 hPa 0,0 l/m 11,3 km/h (2 Bft) O-NO 73 0 min 0,000 mm 0,0 UV-I 0 W/m 6,1 C 9,5 C 14,5 km/h (3 Bft) 100,00 %
15.04.2018 00:42 12,4 C 11,1 C 65 % 1015,7 hPa 0,0 l/m 11,3 km/h (2 Bft) O-NO 57 0 min 0,000 mm 0,0 UV-I 0 W/m 6,0 C 9,6 C 14,5 km/h (3 Bft) 100,00 %
15.04.2018 00:43 12,4 C 11,1 C 65 % 1015,7 hPa 0,0 l/m 9,5 km/h (2 Bft) O-NO 63 0 min 0,000 mm 0,0 UV-I 0 W/m 6,0 C 10,5 C 11,3 km/h (2 Bft) 100,00 %
15.04.2018 00:44 12,4 C 11,1 C 66 % 1015,7 hPa 0,0 l/m 8,7 km/h (2 Bft) NO 46 0 min 0,000 mm 0,0 UV-I 0 W/m 6,2 C 11,0 C 12,9 km/h (3 Bft) 100,00 %
15.04.2018 00:45 12,3 C 11,1 C 65 % 1015,7 hPa 0,0 l/m 10,1 km/h (2 Bft) O-SO 105 0 min 0,000 mm 0,0 UV-I 0 W/m 5,9 C 10,1 C 14,5 km/h (3 Bft) 100,00 %
15.04.2018 00:46 12,3 C 11,1 C 66 % 1015,7 hPa 0,0 l/m 9,5 km/h (2 Bft) O 82 0 min 0,000 mm 0,0 UV-I 0 W/m 6,1 C 10,4 C 12,9 km/h (3 Bft) 100,00 %
15.04.2018 00:47 12,2 C 11,1 C 67 % 1015,7 hPa 0,0 l/m 9,0 km/h (2 Bft) O 87 0 min 0,000 mm 0,0 UV-I 0 W/m 6,3 C 10,6 C 11,3 km/h (2 Bft) 100,00 %
15.04.2018 00:48 12,1 C 11,1 C 67 % 1015,8 hPa 0,0 l/m 7,0 km/h (2 Bft) O 92 0 min 0,000 mm 0,0 UV-I 0 W/m 6,2 C 11,7 C 11,3 km/h (2 Bft) 100,00 %
15.04.2018 00:49 12,0 C 11,1 C 67 % 1015,8 hPa 0,0 l/m 5,2 km/h (1 Bft) O 84 0 min 0,000 mm 0,0 UV-I 0 W/m 6,1 C 12,0 C 6,4 km/h (2 Bft) 100,00 %
15.04.2018 00:50 11,9 C 11,1 C 67 % 1015,8 hPa 0,0 l/m 4,0 km/h (1 Bft) O-NO 77 0 min 0,000 mm 0,0 UV-I 0 W/m 6,0 C 11,9 C 4,8 km/h (1 Bft) 100,00 %
15.04.2018 00:51 11,9 C 11,1 C 67 % 1015,7 hPa 0,0 l/m 4,5 km/h (1 Bft) O 82 0 min 0,000 mm 0,0 UV-I 0 W/m 6,0 C 11,9 C 6,4 km/h (2 Bft) 100,00 %
15.04.2018 00:52 11,9 C 11,1 C 67 % 1015,7 hPa 0,0 l/m 4,5 km/h (1 Bft) O 79 0 min 0,000 mm 0,0 UV-I 0 W/m 6,0 C 11,9 C 6,4 km/h (2 Bft) 100,00 %
15.04.2018 00:53 12,0 C 11,1 C 67 % 1015,8 hPa 0,0 l/m 4,8 km/h (1 Bft) O-NO 78 0 min 0,000 mm 0,0 UV-I 0 W/m 6,1 C 12,0 C 6,4 km/h (2 Bft) 100,00 %
15.04.2018 00:54 12,0 C 11,1 C 67 % 1015,8 hPa 0,0 l/m 4,6 km/h (1 Bft) O-NO 77 0 min 0,000 mm 0,0 UV-I 0 W/m 6,1 C 12,0 C 6,4 km/h (2 Bft) 95,83 %
15.04.2018 00:55 12,1 C 11,1 C 67 % 1015,8 hPa 0,0 l/m 4,6 km/h (1 Bft) O-SO 103 0 min 0,000 mm 0,0 UV-I 0 W/m 6,2 C 12,1 C 6,4 km/h (2 Bft) 95,65 %
15.04.2018 00:56 12,0 C 11,1 C 66 % 1015,8 hPa 0,0 l/m 6,4 km/h (2 Bft) O 82 0 min 0,000 mm 0,0 UV-I 0 W/m 5,8 C 12,0 C 9,7 km/h (2 Bft) 96,30 %
15.04.2018 00:57 12,0 C 11,1 C 67 % 1015,8 hPa 0,0 l/m 5,3 km/h (1 Bft) O-NO 69 0 min 0,000 mm 0,0 UV-I 0 W/m 6,1 C 12,0 C 6,4 km/h (2 Bft) 100,00 %
15.04.2018 00:58 12,1 C 11,1 C 66 % 1015,8 hPa 0,0 l/m 5,9 km/h (2 Bft) O-NO 78 0 min 0,000 mm 0,0 UV-I 0 W/m 5,9 C 12,1 C 9,7 km/h (2 Bft) 100,00 %
15.04.2018 00:59 12,1 C 11,1 C 66 % 1015,8 hPa 0,0 l/m 5,1 km/h (1 Bft) O-NO 69 0 min 0,000 mm 0,0 UV-I 0 W/m 5,9 C 12,1 C 6,4 km/h (2 Bft) 100,00 %
15.04.2018 01:00 12,1 C 11,1 C 66 % 1015,8 hPa 0,0 l/m 5,8 km/h (2 Bft) O-NO 75 0 min 0,025 mm 0,0 UV-I 0 W/m 5,9 C 12,1 C 6,4 km/h (2 Bft) 100,00 %
15.04.2018 01:02 12,1 C 11,1 C 66 % 1015,7 hPa 0,0 l/m 6,8 km/h (2 Bft) O-NO 73 0 min 0,000 mm 0,0 UV-I 0 W/m 5,9 C 11,8 C 9,7 km/h (2 Bft) 100,00 %
15.04.2018 01:03 12,1 C 11,1 C 66 % 1015,7 hPa 0,0 l/m 6,4 km/h (2 Bft) O-NO 65 0 min 0,000 mm 0,0 UV-I 0 W/m 5,9 C 12,1 C 8,0 km/h (2 Bft) 100,00 %
15.04.2018 01:04 12,1 C 11,1 C 66 % 1015,7 hPa 0,0 l/m 6,2 km/h (2 Bft) O-NO 75 0 min 0,000 mm 0,0 UV-I 0 W/m 5,9 C 12,1 C 8,0 km/h (2 Bft) 95,83 %
15.04.2018 01:05 12,1 C 11,1 C 66 % 1015,8 hPa 0,0 l/m 5,7 km/h (1 Bft) O-NO 70 0 min 0,000 mm 0,0 UV-I 0 W/m 5,9 C 12,1 C 6,4 km/h (2 Bft) 95,65 %
15.04.2018 01:06 12,2 C 11,1 C 66 % 1015,8 hPa 0,0 l/m 5,2 km/h (1 Bft) O-NO 71 0 min 0,000 mm 0,0 UV-I 0 W/m 6,0 C 12,2 C 6,4 km/h (2 Bft) 100,00 %
15.04.2018 01:07 12,1 C 11,1 C 66 % 1015,8 hPa 0,0 l/m 3,9 km/h (1 Bft) O-NO 73 0 min 0,000 mm 0,0 UV-I 0 W/m 5,9 C 12,1 C 6,4 km/h (2 Bft) 91,67 %
15.04.2018 01:08 12,1 C 11,1 C 66 % 1015,7 hPa 0,0 l/m 4,2 km/h (1 Bft) O 90 0 min 0,000 mm 0,0 UV-I 0 W/m 5,9 C 12,1 C 6,4 km/h (2 Bft) 96,15 %
15.04.2018 01:09 12,1 C 11,1 C 66 % 1015,7 hPa 0,0 l/m 2,9 km/h (1 Bft) O 90 0 min 0,000 mm 0,0 UV-I 0 W/m 5,9 C 12,1 C 4,8 km/h (1 Bft) 95,83 %
15.04.2018 01:10 12,1 C 11,1 C 66 % 1015,7 hPa 0,0 l/m 3,3 km/h (1 Bft) O 89 0 min 0,000 mm 0,0 UV-I 0 W/m 5,9 C 12,1 C 4,8 km/h (1 Bft) 100,00 %
15.04.2018 01:11 11,9 C 11,1 C 67 % 1015,7 hPa 0,0 l/m 4,1 km/h (1 Bft) O 89 0 min 0,000 mm 0,0 UV-I 0 W/m 6,0 C 11,9 C 4,8 km/h (1 Bft) 95,83 %
15.04.2018 01:12 11,8 C 11,1 C 67 % 1015,7 hPa 0,0 l/m 4,4 km/h (1 Bft) O-NO 70 0 min 0,000 mm 0,0 UV-I 0 W/m 5,9 C 11,8 C 4,8 km/h (1 Bft) 92,31 %
15.04.2018 01:13 11,8 C 11,1 C 67 % 1015,6 hPa 0,0 l/m 4,6 km/h (1 Bft) O-NO 69 0 min 0,000 mm 0,0 UV-I 0 W/m 5,9 C 11,8 C 6,4 km/h (2 Bft) 100,00 %
15.04.2018 01:14 11,7 C 11,1 C 68 % 1015,6 hPa 0,0 l/m 5,2 km/h (1 Bft) O-NO 68 0 min 0,000 mm 0,0 UV-I 0 W/m 6,0 C 11,7 C 6,4 km/h (2 Bft) 91,30 %
15.04.2018 01:15 11,6 C 11,1 C 68 % 1015,6 hPa 0,0 l/m 5,8 km/h (2 Bft) O 86 0 min 0,000 mm 0,0 UV-I 0 W/m 5,9 C 11,6 C 9,7 km/h (2 Bft) 100,00 %
15.04.2018 01:16 11,7 C 11,1 C 68 % 1015,6 hPa 0,0 l/m 5,6 km/h (1 Bft) O-NO 74 0 min 0,000 mm 0,0 UV-I 0 W/m 6,0 C 11,7 C 6,4 km/h (2 Bft) 91,30 %
15.04.2018 01:17 11,8 C 11,1 C 68 % 1015,6 hPa 0,0 l/m 5,2 km/h (1 Bft) O 88 0 min 0,000 mm 0,0 UV-I 0 W/m 6,1 C 11,8 C 6,4 km/h (2 Bft) 100,00 %
15.04.2018 01:18 11,8 C 11,1 C 67 % 1015,5 hPa 0,0 l/m 4,6 km/h (1 Bft) O-SO 110 0 min 0,000 mm 0,0 UV-I 0 W/m 5,9 C 11,8 C 6,4 km/h (2 Bft) 91,30 %
15.04.2018 01:19 11,8 C 11,1 C 67 % 1015,5 hPa 0,0 l/m 4,5 km/h (1 Bft) O-SO 105 0 min 0,000 mm 0,0 UV-I 0 W/m 5,9 C 11,8 C 6,4 km/h (2 Bft) 100,00 %
15.04.2018 01:20 11,8 C 11,1 C 67 % 1015,5 hPa 0,0 l/m 4,6 km/h (1 Bft) O-SO 105 0 min 0,000 mm 0,0 UV-I 0 W/m 5,9 C 11,8 C 6,4 km/h (2 Bft) 91,30 %
15.04.2018 01:21 11,7 C 11,1 C 68 % 1015,5 hPa 0,0 l/m 4,4 km/h (1 Bft) O-SO 105 0 min 0,000 mm 0,0 UV-I 0 W/m 6,0 C 11,7 C 6,4 km/h (2 Bft) 91,67 %
15.04.2018 01:22 11,6 C 11,1 C 68 % 1015,5 hPa 0,0 l/m 4,0 km/h (1 Bft) O-SO 104 0 min 0,000 mm 0,0 UV-I 0 W/m 5,9 C 11,6 C 6,4 km/h (2 Bft) 100,00 %
15.04.2018 01:23 11,6 C 11,1 C 68 % 1015,5 hPa 0,0 l/m 3,6 km/h (1 Bft) O 94 0 min 0,000 mm 0,0 UV-I 0 W/m 5,9 C 11,6 C 6,4 km/h (2 Bft) 87,50 %
15.04.2018 01:24 11,6 C 11,1 C 68 % 1015,4 hPa 0,0 l/m 3,6 km/h (1 Bft) O 96 0 min 0,000 mm 0,0 UV-I 0 W/m 5,9 C 11,6 C 6,4 km/h (2 Bft) 95,65 %
15.04.2018 01:25 11,6 C 11,1 C 68 % 1015,4 hPa 0,0 l/m 4,1 km/h (1 Bft) O-SO 107 0 min 0,000 mm 0,0 UV-I 0 W/m 5,9 C 11,6 C 6,4 km/h (2 Bft) 91,67 %
15.04.2018 01:26 11,6 C 11,1 C 68 % 1015,4 hPa 0,0 l/m 4,1 km/h (1 Bft) O 100 0 min 0,000 mm 0,0 UV-I 0 W/m 5,9 C 11,6 C 6,4 km/h (2 Bft) 95,83 %
15.04.2018 01:27 11,6 C 11,1 C 68 % 1015,4 hPa 0,0 l/m 0,3 km/h (0 Bft) O 100 0 min 0,000 mm 0,0 UV-I 0 W/m 5,9 C 11,6 C 1,6 km/h (1 Bft) 91,67 %
15.04.2018 01:28 11,4 C 11,1 C 69 % 1015,4 hPa 0,0 l/m 0,3 km/h (0 Bft) O-SO 107 0 min 0,000 mm 0,0 UV-I 0 W/m 5,9 C 11,4 C 1,6 km/h (1 Bft) 95,83 %
15.04.2018 01:29 11,2 C 11,1 C 69 % 1015,3 hPa 0,0 l/m 0,3 km/h (0 Bft) O-SO 107 0 min 0,000 mm 0,0 UV-I 0 W/m 5,7 C 11,2 C 1,6 km/h (1 Bft) 95,83 %
15.04.2018 01:30 11,1 C 11,1 C 70 % 1015,3 hPa 0,0 l/m 0,1 km/h (0 Bft) O-SO 107 0 min 0,000 mm 0,0 UV-I 0 W/m 5,8 C 11,1 C 1,6 km/h (1 Bft) 91,67 %
15.04.2018 01:31 11,0 C 11,1 C 70 % 1015,3 hPa 0,0 l/m 0,0 km/h (0 Bft) O-SO 107 0 min 0,000 mm 0,0 UV-I 0 W/m 5,7 C 11,0 C 0,0 km/h (0 Bft) 100,00 %
15.04.2018 01:32 11,0 C 11,1 C 71 % 1015,3 hPa 0,0 l/m 0,0 km/h (0 Bft) O-SO 107 0 min 0,000 mm 0,0 UV-I 0 W/m 5,9 C 11,0 C 0,0 km/h (0 Bft) 91,67 %
15.04.2018 01:33 11,0 C 11,1 C 71 % 1015,3 hPa 0,0 l/m 0,3 km/h (0 Bft) O-SO 107 0 min 0,000 mm 0,0 UV-I 0 W/m 5,9 C 11,0 C 3,2 km/h (1 Bft) 95,65 %
15.04.2018 01:34 11,0 C 11,1 C 70 % 1015,3 hPa 0,0 l/m 1,5 km/h (1 Bft) O-SO 107 0 min 0,000 mm 0,0 UV-I 0 W/m 5,7 C 11,0 C 1,6 km/h (1 Bft) 91,67 %
15.04.2018 01:35 11,1 C 11,1 C 70 % 1015,4 hPa 0,0 l/m 1,5 km/h (1 Bft) O-SO 107 0 min 0,000 mm 0,0 UV-I 0 W/m 5,8 C 11,1 C 3,2 km/h (1 Bft) 100,00 %
15.04.2018 01:36 11,2 C 11,1 C 70 % 1015,3 hPa 0,0 l/m 2,7 km/h (1 Bft) O-SO 107 0 min 0,000 mm 0,0 UV-I 0 W/m 5,9 C 11,2 C 3,2 km/h (1 Bft) 91,67 %
15.04.2018 01:37 11,2 C 11,1 C 70 % 1015,3 hPa 0,0 l/m 2,4 km/h (1 Bft) O-SO 107 0 min 0,000 mm 0,0 UV-I 0 W/m 5,9 C 11,2 C 3,2 km/h (1 Bft) 91,30 %
15.04.2018 01:38 11,1 C 11,1 C 70 % 1015,3 hPa 0,0 l/m 3,1 km/h (1 Bft) O-SO 107 0 min 0,000 mm 0,0 UV-I 0 W/m 5,8 C 11,1 C 4,8 km/h (1 Bft) 91,67 %
15.04.2018 01:39 10,9 C 11,1 C 71 % 1015,3 hPa 0,0 l/m 1,6 km/h (1 Bft) O-SO 107 0 min 0,000 mm 0,0 UV-I 0 W/m 5,9 C 10,9 C 3,2 km/h (1 Bft) 100,00 %
15.04.2018 01:40 10,6 C 11,1 C 72 % 1015,3 hPa 0,0 l/m 0,0 km/h (0 Bft) O-SO 107 0 min 0,000 mm 0,0 UV-I 0 W/m 5,8 C 10,6 C 0,0 km/h (0 Bft) 91,67 %
15.04.2018 01:41 10,3 C 11,1 C 73 % 1015,3 hPa 0,0 l/m 2,1 km/h (1 Bft) O-SO 107 0 min 0,000 mm 0,0 UV-I 0 W/m 5,7 C 10,3 C 3,2 km/h (1 Bft) 96,55 %
15.04.2018 01:42 10,1 C 11,1 C 74 % 1015,3 hPa 0,0 l/m 3,0 km/h (1 Bft) O-SO 107 0 min 0,000 mm 0,0 UV-I 0 W/m 5,7 C 10,1 C 3,2 km/h (1 Bft) 96,30 %
15.04.2018 01:43 9,9 C 11,1 C 74 % 1015,3 hPa 0,0 l/m 1,4 km/h (1 Bft) O-SO 107 0 min 0,000 mm 0,0 UV-I 0 W/m 5,5 C 9,9 C 1,6 km/h (1 Bft) 91,67 %
15.04.2018 01:44 9,9 C 11,1 C 75 % 1015,3 hPa 0,0 l/m 1,0 km/h (0 Bft) O-SO 107 0 min 0,000 mm 0,0 UV-I 0 W/m 5,7 C 9,9 C 1,6 km/h (1 Bft) 96,15 %
15.04.2018 01:45 10,1 C 11,1 C 75 % 1015,3 hPa 0,0 l/m 0,0 km/h (0 Bft) O-SO 107 0 min 0,000 mm 0,0 UV-I 0 W/m 5,9 C 10,1 C 0,0 km/h (0 Bft) 91,67 %
15.04.2018 01:46 10,1 C 11,1 C 74 % 1015,3 hPa 0,0 l/m 0,2 km/h (0 Bft) O-SO 107 0 min 0,000 mm 0,0 UV-I 0 W/m 5,7 C 10,1 C 1,6 km/h (1 Bft) 100,00 %
15.04.2018 01:47 10,2 C 11,1 C 74 % 1015,3 hPa 0,0 l/m 2,7 km/h (1 Bft) O-SO 103 0 min 0,000 mm 0,0 UV-I 0 W/m 5,8 C 10,2 C 6,4 km/h (2 Bft) 95,83 %
15.04.2018 01:48 10,3 C 11,1 C 74 % 1015,3 hPa 0,0 l/m 4,2 km/h (1 Bft) O-SO 103 0 min 0,000 mm 0,0 UV-I 0 W/m 5,9 C 10,3 C 6,4 km/h (2 Bft) 100,00 %
15.04.2018 01:49 10,2 C 11,1 C 73 % 1015,3 hPa 0,0 l/m 4,5 km/h (1 Bft) O-SO 107 0 min 0,000 mm 0,0 UV-I 0 W/m 5,6 C 10,2 C 4,8 km/h (1 Bft) 95,83 %
15.04.2018 01:50 9,8 C 11,1 C 75 % 1015,3 hPa 0,0 l/m 3,5 km/h (1 Bft) O-SO 117 0 min 0,000 mm 0,0 UV-I 0 W/m 5,6 C 9,8 C 4,8 km/h (1 Bft) 95,65 %
15.04.2018 01:51 9,6 C 11,1 C 76 % 1015,3 hPa 0,0 l/m 3,6 km/h (1 Bft) O-SO 117 0 min 0,000 mm 0,0 UV-I 0 W/m 5,6 C 9,6 C 4,8 km/h (1 Bft) 95,83 %
15.04.2018 01:52 9,3 C 11,1 C 77 % 1015,4 hPa 0,0 l/m 5,0 km/h (1 Bft) O-SO 111 0 min 0,000 mm 0,0 UV-I 0 W/m 5,5 C 9,3 C 9,7 km/h (2 Bft) 100,00 %
15.04.2018 01:53 9,3 C 11,1 C 78 % 1015,3 hPa 0,0 l/m 3,1 km/h (1 Bft) O-SO 111 0 min 0,000 mm 0,0 UV-I 0 W/m 5,7 C 9,3 C 4,8 km/h (1 Bft) 95,83 %
15.04.2018 01:54 9,3 C 11,1 C 77 % 1015,3 hPa 0,0 l/m 3,0 km/h (1 Bft) O-SO 111 0 min 0,000 mm 0,0 UV-I 0 W/m 5,5 C 9,3 C 4,8 km/h (1 Bft) 96,15 %
15.04.2018 01:55 9,4 C 11,1 C 77 % 1015,3 hPa 0,0 l/m 5,6 km/h (1 Bft) O-SO 109 0 min 0,000 mm 0,0 UV-I 0 W/m 5,6 C 9,4 C 9,7 km/h (2 Bft) 100,00 %
15.04.2018 01:56 9,4 C 11,1 C 77 % 1015,3 hPa 0,0 l/m 2,9 km/h (1 Bft) O-SO 109 0 min 0,000 mm 0,0 UV-I 0 W/m 5,6 C 9,4 C 4,8 km/h (1 Bft) 95,83 %
15.04.2018 01:57 9,5 C 11,1 C 77 % 1015,2 hPa 0,0 l/m 3,2 km/h (1 Bft) O-SO 109 0 min 0,000 mm 0,0 UV-I 0 W/m 5,7 C 9,5 C 4,8 km/h (1 Bft) 100,00 %
15.04.2018 01:58 9,5 C 11,1 C 77 % 1015,2 hPa 0,0 l/m 3,6 km/h (1 Bft) O-SO 111 0 min 0,000 mm 0,0 UV-I 0 W/m 5,7 C 9,5 C 4,8 km/h (1 Bft) 95,83 %
15.04.2018 01:59 9,6 C 11,1 C 77 % 1015,1 hPa 0,0 l/m 3,2 km/h (1 Bft) O-SO 123 0 min 0,000 mm 0,0 UV-I 0 W/m 5,8 C 9,6 C 4,8 km/h (1 Bft) 100,00 %
15.04.2018 02:00 9,6 C 11,1 C 76 % 1015,1 hPa 0,0 l/m 1,3 km/h (1 Bft) O-SO 123 0 min 0,026 mm 0,0 UV-I 0 W/m 5,6 C 9,6 C 3,2 km/h (1 Bft) 91,67 %
15.04.2018 02:01 9,5 C 11,1 C 77 % 1015,2 hPa 0,0 l/m 2,0 km/h (1 Bft) O-SO 123 0 min 0,000 mm 0,0 UV-I 0 W/m 5,7 C 9,5 C 3,2 km/h (1 Bft) 100,00 %
15.04.2018 02:02 9,3 C 11,1 C 77 % 1015,1 hPa 0,0 l/m 1,7 km/h (1 Bft) O-SO 123 0 min 0,000 mm 0,0 UV-I 0 W/m 5,5 C 9,3 C 3,2 km/h (1 Bft) 95,83 %
15.04.2018 02:03 9,2 C 11,1 C 78 % 1015,1 hPa 0,0 l/m 1,5 km/h (1 Bft) O-SO 123 0 min 0,000 mm 0,0 UV-I 0 W/m 5,6 C 9,2 C 3,2 km/h (1 Bft) 100,00 %
15.04.2018 02:04 9,2 C 11,1 C 78 % 1015,1 hPa 0,0 l/m 2,0 km/h (1 Bft) O-SO 123 0 min 0,000 mm 0,0 UV-I 0 W/m 5,6 C 9,2 C 4,8 km/h (1 Bft) 95,83 %
15.04.2018 02:05 9,2 C 11,1 C 78 % 1015,1 hPa 0,0 l/m 2,7 km/h (1 Bft) O-SO 123 0 min 0,000 mm 0,0 UV-I 0 W/m 5,6 C 9,2 C 4,8 km/h (1 Bft) 100,00 %
15.04.2018 02:06 9,2 C 11,1 C 78 % 1015,1 hPa 0,0 l/m 2,5 km/h (1 Bft) O-SO 123 0 min 0,000 mm 0,0 UV-I 0 W/m 5,6 C 9,2 C 3,2 km/h (1 Bft) 95,83 %
15.04.2018 02:07 9,2 C 11,1 C 78 % 1015,1 hPa 0,0 l/m 0,9 km/h (0 Bft) O-SO 123 0 min 0,000 mm 0,0 UV-I 0 W/m 5,6 C 9,2 C 1,6 km/h (1 Bft) 95,65 %
15.04.2018 02:08 9,3 C 11,1 C 78 % 1015,1 hPa 0,0 l/m 0,4 km/h (0 Bft) O-SO 123 0 min 0,000 mm 0,0 UV-I 0 W/m 5,7 C 9,3 C 1,6 km/h (1 Bft) 100,00 %
15.04.2018 02:09 9,2 C 11,1 C 78 % 1015,0 hPa 0,0 l/m 0,0 km/h (0 Bft) O-SO 123 0 min 0,000 mm 0,0 UV-I 0 W/m 5,6 C 9,2 C 0,0 km/h (0 Bft) 95,65 %
15.04.2018 02:10 9,2 C 11,1 C 78 % 1015,0 hPa 0,0 l/m 0,0 km/h (0 Bft) O-SO 123 0 min 0,000 mm 0,0 UV-I 0 W/m 5,6 C 9,2 C 0,0 km/h (0 Bft) 100,00 %
15.04.2018 02:11 9,3 C 11,1 C 79 % 1015,0 hPa 0,0 l/m 0,0 km/h (0 Bft) O-SO 123 0 min 0,000 mm 0,0 UV-I 0 W/m 5,8 C 9,3 C 0,0 km/h (0 Bft) 95,65 %
15.04.2018 02:12 9,3 C 11,1 C 78 % 1014,9 hPa 0,0 l/m 0,0 km/h (0 Bft) O-SO 123 0 min 0,000 mm 0,0 UV-I 0 W/m 5,7 C 9,3 C 0,0 km/h (0 Bft) 100,00 %
15.04.2018 02:13 9,3 C 11,1 C 77 % 1014,9 hPa 0,0 l/m 1,3 km/h (1 Bft) O-SO 123 0 min 0,000 mm 0,0 UV-I 0 W/m 5,5 C 9,3 C 1,6 km/h (1 Bft) 92,31 %
15.04.2018 02:14 9,3 C 11,1 C 77 % 1014,9 hPa 0,0 l/m 2,5 km/h (1 Bft) O-SO 123 0 min 0,000 mm 0,0 UV-I 0 W/m 5,5 C 9,3 C 3,2 km/h (1 Bft) 100,00 %
15.04.2018 02:15 9,2 C 11,1 C 77 % 1014,9 hPa 0,0 l/m 2,4 km/h (1 Bft) O-SO 123 0 min 0,000 mm 0,0 UV-I 0 W/m 5,4 C 9,2 C 3,2 km/h (1 Bft) 95,65 %
15.04.2018 02:16 9,0 C 11,1 C 78 % 1014,9 hPa 0,0 l/m 2,0 km/h (1 Bft) O-SO 123 0 min 0,000 mm 0,0 UV-I 0 W/m 5,4 C 9,0 C 3,2 km/h (1 Bft) 100,00 %
15.04.2018 02:17 9,0 C 11,1 C 78 % 1014,8 hPa 0,0 l/m 2,3 km/h (1 Bft) O-SO 123 0 min 0,000 mm 0,0 UV-I 0 W/m 5,4 C 9,0 C 3,2 km/h (1 Bft) 100,00 %
15.04.2018 02:18 9,0 C 11,1 C 79 % 1014,8 hPa 0,0 l/m 2,6 km/h (1 Bft) O-SO 123 0 min 0,000 mm 0,0 UV-I 0 W/m 5,6 C 9,0 C 3,2 km/h (1 Bft) 95,83 %
15.04.2018 02:19 9,1 C 11,1 C 78 % 1014,8 hPa 0,0 l/m 1,9 km/h (1 Bft) O-SO 123 0 min 0,000 mm 0,0 UV-I 0 W/m 5,5 C 9,1 C 3,2 km/h (1 Bft) 100,00 %
15.04.2018 02:20 9,2 C 11,1 C 78 % 1014,8 hPa 0,0 l/m 2,1 km/h (1 Bft) O-SO 123 0 min 0,000 mm 0,0 UV-I 0 W/m 5,6 C 9,2 C 3,2 km/h (1 Bft) 100,00 %
15.04.2018 02:21 9,3 C 11,1 C 78 % 1014,7 hPa 0,0 l/m 1,9 km/h (1 Bft) O-SO 123 0 min 0,000 mm 0,0 UV-I 0 W/m 5,7 C 9,3 C 3,2 km/h (1 Bft) 100,00 %
15.04.2018 02:22 9,4 C 11,1 C 77 % 1014,8 hPa 0,0 l/m 1,6 km/h (1 Bft) O-SO 123 0 min 0,000 mm 0,0 UV-I 0 W/m 5,6 C 9,4 C 3,2 km/h (1 Bft) 100,00 %
15.04.2018 02:23 9,4 C 11,1 C 77 % 1014,7 hPa 0,0 l/m 1,5 km/h (1 Bft) O-SO 123 0 min 0,000 mm 0,0 UV-I 0 W/m 5,6 C 9,4 C 1,6 km/h (1 Bft) 95,83 %
15.04.2018 02:24 9,3 C 11,1 C 77 % 1014,8 hPa 0,0 l/m 1,5 km/h (1 Bft) O-SO 123 0 min 0,000 mm 0,0 UV-I 0 W/m 5,5 C 9,3 C 1,6 km/h (1 Bft) 100,00 %
15.04.2018 02:25 9,3 C 11,1 C 78 % 1014,7 hPa 0,0 l/m 0,8 km/h (0 Bft) O-SO 123 0 min 0,000 mm 0,0 UV-I 0 W/m 5,7 C 9,3 C 1,6 km/h (1 Bft) 100,00 %
15.04.2018 02:26 9,3 C 11,1 C 78 % 1014,8 hPa 0,0 l/m 0,7 km/h (0 Bft) O-SO 123 0 min 0,000 mm 0,0 UV-I 0 W/m 5,7 C 9,3 C 1,6 km/h (1 Bft) 100,00 %
15.04.2018 02:27 9,3 C 11,1 C 78 % 1014,7 hPa 0,0 l/m 0,1 km/h (0 Bft) O-SO 123 0 min 0,000 mm 0,0 UV-I 0 W/m 5,7 C 9,3 C 1,6 km/h (1 Bft) 100,00 %
15.04.2018 02:28 9,3 C 11,1 C 77 % 1014,8 hPa 0,0 l/m 0,0 km/h (0 Bft) O-SO 123 0 min 0,000 mm 0,0 UV-I 0 W/m 5,5 C 9,3 C 0,0 km/h (0 Bft) 100,00 %
15.04.2018 02:29 9,2 C 11,1 C 77 % 1014,8 hPa 0,0 l/m 1,5 km/h (1 Bft) SO 124 0 min 0,000 mm 0,0 UV-I 0 W/m 5,4 C 9,2 C 4,8 km/h (1 Bft) 100,00 %
15.04.2018 02:30 9,0 C 11,1 C 77 % 1014,8 hPa 0,0 l/m 3,1 km/h (1 Bft) SO 140 0 min 0,000 mm 0,0 UV-I 0 W/m 5,2 C 9,0 C 4,8 km/h (1 Bft) 100,00 %
15.04.2018 02:31 8,8 C 11,1 C 78 % 1014,8 hPa 0,0 l/m 2,1 km/h (1 Bft) SO 140 0 min 0,000 mm 0,0 UV-I 0 W/m 5,2 C 8,8 C 3,2 km/h (1 Bft) 100,00 %
15.04.2018 02:32 8,7 C 11,1 C 79 % 1014,8 hPa 0,0 l/m 1,7 km/h (1 Bft) SO 140 0 min 0,000 mm 0,0 UV-I 0 W/m 5,3 C 8,7 C 3,2 km/h (1 Bft) 100,00 %
15.04.2018 02:33 8,7 C 11,1 C 79 % 1014,8 hPa 0,0 l/m 1,3 km/h (1 Bft) SO 140 0 min 0,000 mm 0,0 UV-I 0 W/m 5,3 C 8,7 C 3,2 km/h (1 Bft) 100,00 %
15.04.2018 02:34 8,6 C 11,1 C 80 % 1014,7 hPa 0,0 l/m 0,1 km/h (0 Bft) SO 140 0 min 0,000 mm 0,0 UV-I 0 W/m 5,3 C 8,6 C 1,6 km/h (1 Bft) 100,00 %
15.04.2018 02:35 8,6 C 11,1 C 80 % 1014,7 hPa 0,0 l/m 0,0 km/h (0 Bft) SO 140 0 min 0,000 mm 0,0 UV-I 0 W/m 5,3 C 8,6 C 0,0 km/h (0 Bft) 100,00 %
15.04.2018 02:36 8,6 C 11,1 C 80 % 1014,7 hPa 0,0 l/m 0,0 km/h (0 Bft) SO 140 0 min 0,000 mm 0,0 UV-I 0 W/m 5,3 C 8,6 C 0,0 km/h (0 Bft) 100,00 %
15.04.2018 02:37 8,8 C 11,1 C 80 % 1014,7 hPa 0,0 l/m 2,8 km/h (1 Bft) SO 140 0 min 0,000 mm 0,0 UV-I 0 W/m 5,5 C 8,8 C 4,8 km/h (1 Bft) 100,00 %
15.04.2018 02:38 9,1 C 11,1 C 79 % 1014,7 hPa 0,0 l/m 2,5 km/h (1 Bft) SO 140 0 min 0,000 mm 0,0 UV-I 0 W/m 5,7 C 9,1 C 3,2 km/h (1 Bft) 96,15 %
15.04.2018 02:39 9,3 C 11,1 C 78 % 1014,7 hPa 0,0 l/m 2,5 km/h (1 Bft) SO 140 0 min 0,000 mm 0,0 UV-I 0 W/m 5,7 C 9,3 C 3,2 km/h (1 Bft) 100,00 %
15.04.2018 02:40 9,4 C 11,1 C 77 % 1014,7 hPa 0,0 l/m 2,8 km/h (1 Bft) SO 140 0 min 0,000 mm 0,0 UV-I 0 W/m 5,6 C 9,4 C 3,2 km/h (1 Bft) 95,65 %
15.04.2018 02:41 9,2 C 11,1 C 76 % 1014,7 hPa 0,0 l/m 2,2 km/h (1 Bft) SO 140 0 min 0,000 mm 0,0 UV-I 0 W/m 5,2 C 9,2 C 3,2 km/h (1 Bft) 95,83 %
15.04.2018 02:42 9,1 C 11,1 C 77 % 1014,6 hPa 0,0 l/m 1,7 km/h (1 Bft) SO 140 0 min 0,000 mm 0,0 UV-I 0 W/m 5,3 C 9,1 C 3,2 km/h (1 Bft) 100,00 %
15.04.2018 02:43 8,8 C 11,1 C 78 % 1014,6 hPa 0,0 l/m 0,5 km/h (0 Bft) SO 140 0 min 0,000 mm 0,0 UV-I 0 W/m 5,2 C 8,8 C 1,6 km/h (1 Bft) 100,00 %
15.04.2018 02:44 8,7 C 11,1 C 79 % 1014,7 hPa 0,0 l/m 0,1 km/h (0 Bft) SO 140 0 min 0,000 mm 0,0 UV-I 0 W/m 5,3 C 8,7 C 1,6 km/h (1 Bft) 95,83 %
15.04.2018 02:45 8,5 C 11,1 C 79 % 1014,6 hPa 0,0 l/m 1,1 km/h (1 Bft) SO 140 0 min 0,000 mm 0,0 UV-I 0 W/m 5,1 C 8,5 C 1,6 km/h (1 Bft) 100,00 %
15.04.2018 02:46 8,4 C 11,1 C 80 % 1014,6 hPa 0,0 l/m 0,2 km/h (0 Bft) SO 140 0 min 0,000 mm 0,0 UV-I 0 W/m 5,2 C 8,4 C 1,6 km/h (1 Bft) 100,00 %
15.04.2018 02:47 8,4 C 11,1 C 80 % 1014,5 hPa 0,0 l/m 0,0 km/h (0 Bft) SO 140 0 min 0,000 mm 0,0 UV-I 0 W/m 5,2 C 8,4 C 0,0 km/h (0 Bft) 100,00 %
15.04.2018 02:48 8,3 C 11,1 C 80 % 1014,6 hPa 0,0 l/m 2,6 km/h (1 Bft) S 184 0 min 0,000 mm 0,0 UV-I 0 W/m 5,1 C 8,3 C 3,2 km/h (1 Bft) 100,00 %
15.04.2018 02:49 8,3 C 11,1 C 81 % 1014,5 hPa 0,0 l/m 2,7 km/h (1 Bft) S 184 0 min 0,000 mm 0,0 UV-I 0 W/m 5,2 C 8,3 C 3,2 km/h (1 Bft) 100,00 %
15.04.2018 02:50 8,2 C 11,1 C 81 % 1014,6 hPa 0,0 l/m 2,5 km/h (1 Bft) S 184 0 min 0,000 mm 0,0 UV-I 0 W/m 5,1 C 8,2 C 4,8 km/h (1 Bft) 100,00 %
15.04.2018 02:51 8,1 C 11,1 C 81 % 1014,5 hPa 0,0 l/m 3,8 km/h (1 Bft) S 184 0 min 0,000 mm 0,0 UV-I 0 W/m 5,0 C 8,1 C 4,8 km/h (1 Bft) 100,00 %
15.04.2018 02:52 7,9 C 11,1 C 82 % 1014,6 hPa 0,0 l/m 2,8 km/h (1 Bft) S 184 0 min 0,000 mm 0,0 UV-I 0 W/m 5,0 C 7,9 C 3,2 km/h (1 Bft) 100,00 %
15.04.2018 02:53 7,9 C 11,1 C 82 % 1014,5 hPa 0,0 l/m 2,6 km/h (1 Bft) S 184 0 min 0,000 mm 0,0 UV-I 0 W/m 5,0 C 7,9 C 3,2 km/h (1 Bft) 100,00 %
15.04.2018 02:54 8,0 C 11,1 C 82 % 1014,6 hPa 0,0 l/m 2,8 km/h (1 Bft) S 184 0 min 0,000 mm 0,0 UV-I 0 W/m 5,1 C 8,0 C 3,2 km/h (1 Bft) 100,00 %
15.04.2018 02:55 8,1 C 11,1 C 82 % 1014,6 hPa 0,0 l/m 2,7 km/h (1 Bft) S 184 0 min 0,000 mm 0,0 UV-I 0 W/m 5,2 C 8,1 C 3,2 km/h (1 Bft) 100,00 %
15.04.2018 02:56 8,2 C 11,1 C 82 % 1014,5 hPa 0,0 l/m 2,3 km/h (1 Bft) S 184 0 min 0,000 mm 0,0 UV-I 0 W/m 5,3 C 8,2 C 3,2 km/h (1 Bft) 95,83 %
15.04.2018 02:57 8,4 C 11,1 C 82 % 1014,6 hPa 0,0 l/m 2,1 km/h (1 Bft) S 184 0 min 0,000 mm 0,0 UV-I 0 W/m 5,5 C 8,4 C 3,2 km/h (1 Bft) 100,00 %
15.04.2018 02:58 8,5 C 11,1 C 81 % 1014,6 hPa 0,0 l/m 1,5 km/h (1 Bft) S 184 0 min 0,000 mm 0,0 UV-I 0 W/m 5,4 C 8,5 C 1,6 km/h (1 Bft) 100,00 %
15.04.2018 02:59 8,4 C 11,1 C 81 % 1014,6 hPa 0,0 l/m 1,4 km/h (1 Bft) S 184 0 min 0,000 mm 0,0 UV-I 0 W/m 5,3 C 8,4 C 1,6 km/h (1 Bft) 100,00 %
15.04.2018 03:00 8,4 C 11,1 C 81 % 1014,6 hPa 0,0 l/m 0,1 km/h (0 Bft) S 184 0 min 0,000 mm 0,0 UV-I 0 W/m 5,3 C 8,4 C 1,6 km/h (1 Bft) 100,00 %
15.04.2018 03:01 8,4 C 11,1 C 81 % 1014,5 hPa 0,0 l/m 0,0 km/h (0 Bft) S 184 0 min 0,000 mm 0,0 UV-I 0 W/m 5,3 C 8,4 C 0,0 km/h (0 Bft) 100,00 %
15.04.2018 03:02 8,3 C 11,1 C 81 % 1014,5 hPa 0,0 l/m 0,0 km/h (0 Bft) S 184 0 min 0,000 mm 0,0 UV-I 0 W/m 5,2 C 8,3 C 0,0 km/h (0 Bft) 100,00 %
15.04.2018 03:03 8,3 C 11,1 C 81 % 1014,5 hPa 0,0 l/m 0,0 km/h (0 Bft) S 184 0 min 0,000 mm 0,0 UV-I 0 W/m 5,2 C 8,3 C 0,0 km/h (0 Bft) 100,00 %
15.04.2018 03:04 8,3 C 11,1 C 81 % 1014,4 hPa 0,0 l/m 0,0 km/h (0 Bft) S 184 0 min 0,000 mm 0,0 UV-I 0 W/m 5,2 C 8,3 C 0,0 km/h (0 Bft) 95,65 %
15.04.2018 03:05 8,3 C 11,1 C 81 % 1014,4 hPa 0,0 l/m 0,0 km/h (0 Bft) S 184 0 min 0,000 mm 0,0 UV-I 0 W/m 5,2 C 8,3 C 0,0 km/h (0 Bft) 100,00 %
15.04.2018 03:06 8,3 C 11,1 C 81 % 1014,4 hPa 0,0 l/m 0,0 km/h (0 Bft) S 184 0 min 0,000 mm 0,0 UV-I 0 W/m 5,2 C 8,3 C 0,0 km/h (0 Bft) 100,00 %
15.04.2018 03:07 8,3 C 11,1 C 81 % 1014,5 hPa 0,0 l/m 0,0 km/h (0 Bft) S 184 0 min 0,000 mm 0,0 UV-I 0 W/m 5,2 C 8,3 C 0,0 km/h (0 Bft) 100,00 %
15.04.2018 03:08 8,3 C 11,1 C 80 % 1014,5 hPa 0,0 l/m 0,0 km/h (0 Bft) S 184 0 min 0,000 mm 0,0 UV-I 0 W/m 5,1 C 8,3 C 0,0 km/h (0 Bft) 100,00 %
15.04.2018 03:09 8,3 C 11,1 C 80 % 1014,4 hPa 0,0 l/m 0,0 km/h (0 Bft) S 184 0 min 0,000 mm 0,0 UV-I 0 W/m 5,1 C 8,3 C 0,0 km/h (0 Bft) 100,00 %
15.04.2018 03:10 8,2 C 11,1 C 80 % 1014,4 hPa 0,0 l/m 0,0 km/h (0 Bft) S 184 0 min 0,000 mm 0,0 UV-I 0 W/m 5,0 C 8,2 C 0,0 km/h (0 Bft) 100,00 %
15.04.2018 03:11 8,1 C 11,1 C 81 % 1014,4 hPa 0,0 l/m 0,0 km/h (0 Bft) S 184 0 min 0,000 mm 0,0 UV-I 0 W/m 5,0 C 8,1 C 0,0 km/h (0 Bft) 100,00 %
15.04.2018 03:12 8,2 C 11,1 C 82 % 1014,5 hPa 0,0 l/m 0,0 km/h (0 Bft) S 184 0 min 0,000 mm 0,0 UV-I 0 W/m 5,3 C 8,2 C 0,0 km/h (0 Bft) 100,00 %
15.04.2018 03:13 8,2 C 11,1 C 81 % 1014,5 hPa 0,0 l/m 0,0 km/h (0 Bft) S 184 0 min 0,000 mm 0,0 UV-I 0 W/m 5,1 C 8,2 C 0,0 km/h (0 Bft) 100,00 %
15.04.2018 03:14 8,2 C 11,1 C 81 % 1014,5 hPa 0,0 l/m 0,0 km/h (0 Bft) S 184 0 min 0,000 mm 0,0 UV-I 0 W/m 5,1 C 8,2 C 0,0 km/h (0 Bft) 100,00 %
15.04.2018 03:15 8,0 C 11,1 C 81 % 1014,5 hPa 0,0 l/m 0,0 km/h (0 Bft) S 184 0 min 0,000 mm 0,0 UV-I 0 W/m 4,9 C 8,0 C 0,0 km/h (0 Bft) 100,00 %
15.04.2018 03:16 7,9 C 11,1 C 81 % 1014,5 hPa 0,0 l/m 0,0 km/h (0 Bft) S 184 0 min 0,000 mm 0,0 UV-I 0 W/m 4,8 C 7,9 C 0,0 km/h (0 Bft) 100,00 %
15.04.2018 03:17 7,8 C 11,1 C 82 % 1014,5 hPa 0,0 l/m 0,1 km/h (0 Bft) S 184 0 min 0,000 mm 0,0 UV-I 0 W/m 4,9 C 7,8 C 1,6 km/h (1 Bft) 100,00 %
15.04.2018 03:18 7,7 C 11,1 C 82 % 1014,5 hPa 0,0 l/m 2,7 km/h (1 Bft) S 184 0 min 0,000 mm 0,0 UV-I 0 W/m 4,8 C 7,7 C 3,2 km/h (1 Bft) 100,00 %
15.04.2018 03:19 7,6 C 11,1 C 83 % 1014,5 hPa 0,0 l/m 2,5 km/h (1 Bft) S 184 0 min 0,000 mm 0,0 UV-I 0 W/m 4,9 C 7,6 C 3,2 km/h (1 Bft) 100,00 %
15.04.2018 03:20 7,4 C 11,1 C 83 % 1014,4 hPa 0,0 l/m 0,8 km/h (0 Bft) S 184 0 min 0,000 mm 0,0 UV-I 0 W/m 4,7 C 7,4 C 3,2 km/h (1 Bft) 100,00 %
15.04.2018 03:21 7,2 C 11,1 C 83 % 1014,4 hPa 0,0 l/m 0,0 km/h (0 Bft) S 184 0 min 0,000 mm 0,0 UV-I 0 W/m 4,5 C 7,2 C 0,0 km/h (0 Bft) 100,00 %
15.04.2018 03:22 7,2 C 11,1 C 84 % 1014,3 hPa 0,0 l/m 0,0 km/h (0 Bft) S 184 0 min 0,000 mm 0,0 UV-I 0 W/m 4,7 C 7,2 C 0,0 km/h (0 Bft) 100,00 %
15.04.2018 03:23 7,3 C 11,1 C 85 % 1014,3 hPa 0,0 l/m 0,1 km/h (0 Bft) S 184 0 min 0,000 mm 0,0 UV-I 0 W/m 4,9 C 7,3 C 1,6 km/h (1 Bft) 100,00 %
15.04.2018 03:24 7,4 C 11,1 C 84 % 1014,3 hPa 0,0 l/m 2,1 km/h (1 Bft) S 184 0 min 0,000 mm 0,0 UV-I 0 W/m 4,9 C 7,4 C 3,2 km/h (1 Bft) 95,83 %
15.04.2018 03:25 7,6 C 11,1 C 84 % 1014,3 hPa 0,0 l/m 3,5 km/h (1 Bft) S 184 0 min 0,000 mm 0,0 UV-I 0 W/m 5,1 C 7,6 C 4,8 km/h (1 Bft) 91,30 %
15.04.2018 03:26 7,5 C 11,1 C 83 % 1014,3 hPa 0,0 l/m 3,1 km/h (1 Bft) S 184 0 min 0,000 mm 0,0 UV-I 0 W/m 4,8 C 7,5 C 3,2 km/h (1 Bft) 100,00 %
15.04.2018 03:27 7,5 C 11,1 C 83 % 1014,2 hPa 0,0 l/m 2,7 km/h (1 Bft) S 184 0 min 0,000 mm 0,0 UV-I 0 W/m 4,8 C 7,5 C 3,2 km/h (1 Bft) 91,30 %
15.04.2018 03:28 7,6 C 11,1 C 84 % 1014,3 hPa 0,0 l/m 2,6 km/h (1 Bft) S 184 0 min 0,000 mm 0,0 UV-I 0 W/m 5,1 C 7,6 C 4,8 km/h (1 Bft) 100,00 %
15.04.2018 03:29 7,6 C 11,1 C 84 % 1014,2 hPa 0,0 l/m 3,0 km/h (1 Bft) S 184 0 min 0,000 mm 0,0 UV-I 0 W/m 5,1 C 7,6 C 4,8 km/h (1 Bft) 91,30 %
15.04.2018 03:30 7,7 C 11,1 C 84 % 1014,3 hPa 0,0 l/m 3,5 km/h (1 Bft) S 184 0 min 0,000 mm 0,0 UV-I 0 W/m 5,2 C 7,7 C 4,8 km/h (1 Bft) 100,00 %
15.04.2018 03:31 7,6 C 11,1 C 83 % 1014,2 hPa 0,0 l/m 2,4 km/h (1 Bft) S 184 0 min 0,000 mm 0,0 UV-I 0 W/m 4,9 C 7,6 C 3,2 km/h (1 Bft) 95,65 %
15.04.2018 03:32 7,5 C 11,1 C 83 % 1014,2 hPa 0,0 l/m 3,4 km/h (1 Bft) O-SO 105 0 min 0,000 mm 0,0 UV-I 0 W/m 4,8 C 7,5 C 4,8 km/h (1 Bft) 95,83 %
15.04.2018 03:33 7,5 C 11,1 C 83 % 1014,2 hPa 0,0 l/m 2,7 km/h (1 Bft) O-SO 105 0 min 0,000 mm 0,0 UV-I 0 W/m 4,8 C 7,5 C 3,2 km/h (1 Bft) 100,00 %
15.04.2018 03:34 7,6 C 11,1 C 84 % 1014,2 hPa 0,0 l/m 1,9 km/h (1 Bft) O-SO 105 0 min 0,000 mm 0,0 UV-I 0 W/m 5,1 C 7,6 C 3,2 km/h (1 Bft) 95,65 %
15.04.2018 03:35 7,6 C 11,1 C 84 % 1014,2 hPa 0,0 l/m 2,8 km/h (1 Bft) O-SO 105 0 min 0,000 mm 0,0 UV-I 0 W/m 5,1 C 7,6 C 4,8 km/h (1 Bft) 100,00 %
15.04.2018 03:36 7,8 C 11,1 C 84 % 1014,1 hPa 0,0 l/m 2,0 km/h (1 Bft) O-SO 105 0 min 0,000 mm 0,0 UV-I 0 W/m 5,3 C 7,8 C 3,2 km/h (1 Bft) 91,30 %
15.04.2018 03:37 7,8 C 11,1 C 83 % 1014,1 hPa 0,0 l/m 3,2 km/h (1 Bft) O-SO 105 0 min 0,000 mm 0,0 UV-I 0 W/m 5,1 C 7,8 C 4,8 km/h (1 Bft) 100,00 %
15.04.2018 03:38 7,7 C 11,1 C 83 % 1014,1 hPa 0,0 l/m 1,6 km/h (1 Bft) O-SO 105 0 min 0,000 mm 0,0 UV-I 0 W/m 5,0 C 7,7 C 3,2 km/h (1 Bft) 95,65 %
15.04.2018 03:39 7,6 C 11,1 C 83 % 1014,1 hPa 0,0 l/m 0,1 km/h (0 Bft) O-SO 105 0 min 0,000 mm 0,0 UV-I 0 W/m 4,9 C 7,6 C 1,6 km/h (1 Bft) 95,83 %
15.04.2018 03:40 7,5 C 11,1 C 83 % 1014,1 hPa 0,0 l/m 0,0 km/h (0 Bft) O-SO 105 0 min 0,000 mm 0,0 UV-I 0 W/m 4,8 C 7,5 C 0,0 km/h (0 Bft) 95,65 %
15.04.2018 03:41 7,3 C 11,1 C 84 % 1014,0 hPa 0,0 l/m 0,0 km/h (0 Bft) O-SO 105 0 min 0,000 mm 0,0 UV-I 0 W/m 4,8 C 7,3 C 0,0 km/h (0 Bft) 95,83 %
15.04.2018 03:42 7,2 C 11,1 C 84 % 1014,0 hPa 0,0 l/m 0,1 km/h (0 Bft) O-SO 105 0 min 0,000 mm 0,0 UV-I 0 W/m 4,7 C 7,2 C 1,6 km/h (1 Bft) 95,65 %
15.04.2018 03:43 7,2 C 11,1 C 85 % 1014,0 hPa 0,0 l/m 2,0 km/h (1 Bft) O-SO 107 0 min 0,000 mm 0,0 UV-I 0 W/m 4,9 C 7,2 C 3,2 km/h (1 Bft) 95,83 %
15.04.2018 03:44 7,2 C 11,1 C 85 % 1014,0 hPa 0,0 l/m 2,6 km/h (1 Bft) O-SO 107 0 min 0,000 mm 0,0 UV-I 0 W/m 4,9 C 7,2 C 3,2 km/h (1 Bft) 100,00 %
15.04.2018 03:45 7,2 C 11,1 C 85 % 1014,0 hPa 0,0 l/m 1,7 km/h (1 Bft) O-SO 107 0 min 0,000 mm 0,0 UV-I 0 W/m 4,9 C 7,2 C 3,2 km/h (1 Bft) 95,83 %
15.04.2018 03:46 7,2 C 11,1 C 85 % 1013,9 hPa 0,0 l/m 1,0 km/h (0 Bft) O-SO 107 0 min 0,000 mm 0,0 UV-I 0 W/m 4,9 C 7,2 C 1,6 km/h (1 Bft) 100,00 %
15.04.2018 03:47 7,2 C 11,1 C 85 % 1013,9 hPa 0,0 l/m 0,0 km/h (0 Bft) O-SO 107 0 min 0,000 mm 0,0 UV-I 0 W/m 4,9 C 7,2 C 0,0 km/h (0 Bft) 95,83 %
15.04.2018 03:48 7,2 C 11,1 C 85 % 1013,9 hPa 0,0 l/m 0,0 km/h (0 Bft) O-SO 107 0 min 0,000 mm 0,0 UV-I 0 W/m 4,9 C 7,2 C 0,0 km/h (0 Bft) 100,00 %
15.04.2018 03:49 7,2 C 11,1 C 85 % 1013,9 hPa 0,0 l/m 0,0 km/h (0 Bft) O-SO 107 0 min 0,000 mm 0,0 UV-I 0 W/m 4,9 C 7,2 C 0,0 km/h (0 Bft) 95,83 %
15.04.2018 03:50 7,3 C 11,1 C 85 % 1013,9 hPa 0,0 l/m 0,0 km/h (0 Bft) O-SO 107 0 min 0,000 mm 0,0 UV-I 0 W/m 4,9 C 7,3 C 0,0 km/h (0 Bft) 95,65 %
15.04.2018 03:51 7,3 C 11,1 C 85 % 1013,9 hPa 0,0 l/m 0,0 km/h (0 Bft) O-SO 107 0 min 0,000 mm 0,0 UV-I 0 W/m 4,9 C 7,3 C 0,0 km/h (0 Bft) 100,00 %
15.04.2018 03:52 7,2 C 11,1 C 84 % 1013,9 hPa 0,0 l/m 0,0 km/h (0 Bft) O-SO 107 0 min 0,000 mm 0,0 UV-I 0 W/m 4,7 C 7,2 C 0,0 km/h (0 Bft) 95,65 %
15.04.2018 03:53 6,9 C 11,1 C 85 % 1013,9 hPa 0,0 l/m 2,1 km/h (1 Bft) O-SO 107 0 min 0,000 mm 0,0 UV-I 0 W/m 4,6 C 6,9 C 3,2 km/h (1 Bft) 100,00 %
15.04.2018 03:54 6,8 C 11,1 C 85 % 1013,9 hPa 0,0 l/m 2,1 km/h (1 Bft) O-SO 107 0 min 0,000 mm 0,0 UV-I 0 W/m 4,5 C 6,8 C 3,2 km/h (1 Bft) 95,65 %
15.04.2018 03:55 6,8 C 11,1 C 86 % 1013,9 hPa 0,0 l/m 1,8 km/h (1 Bft) O-SO 107 0 min 0,000 mm 0,0 UV-I 0 W/m 4,6 C 6,8 C 3,2 km/h (1 Bft) 100,00 %
15.04.2018 03:56 6,8 C 11,1 C 86 % 1013,9 hPa 0,0 l/m 1,9 km/h (1 Bft) O-SO 107 0 min 0,000 mm 0,0 UV-I 0 W/m 4,6 C 6,8 C 3,2 km/h (1 Bft) 95,83 %
15.04.2018 03:57 6,8 C 11,1 C 86 % 1013,9 hPa 0,0 l/m 2,0 km/h (1 Bft) O-SO 107 0 min 0,000 mm 0,0 UV-I 0 W/m 4,6 C 6,8 C 3,2 km/h (1 Bft) 95,65 %
15.04.2018 03:58 6,8 C 11,1 C 87 % 1013,9 hPa 0,0 l/m 1,8 km/h (1 Bft) O-SO 107 0 min 0,000 mm 0,0 UV-I 0 W/m 4,8 C 6,8 C 3,2 km/h (1 Bft) 100,00 %
15.04.2018 03:59 6,9 C 11,1 C 87 % 1013,9 hPa 0,0 l/m 1,9 km/h (1 Bft) O-SO 107 0 min 0,000 mm 0,0 UV-I 0 W/m 4,9 C 6,9 C 3,2 km/h (1 Bft) 95,65 %
15.04.2018 04:00 7,0 C 11,1 C 86 % 1013,9 hPa 0,0 l/m 3,0 km/h (1 Bft) S-SW 195 0 min 0,000 mm 0,0 UV-I 0 W/m 4,8 C 7,0 C 4,8 km/h (1 Bft) 100,00 %
15.04.2018 04:01 7,1 C 11,1 C 86 % 1013,9 hPa 0,0 l/m 4,3 km/h (1 Bft) S-SW 195 0 min 0,000 mm 0,0 UV-I 0 W/m 4,9 C 7,1 C 4,8 km/h (1 Bft) 80,00 %
15.04.2018 04:02 7,1 C 11,1 C 86 % 1013,9 hPa 0,0 l/m 3,2 km/h (1 Bft) S-SW 195 0 min 0,000 mm 0,0 UV-I 0 W/m 4,9 C 7,1 C 3,2 km/h (1 Bft) 100,00 %
15.04.2018 04:03 7,1 C 11,1 C 86 % 1013,9 hPa 0,0 l/m 2,3 km/h (1 Bft) S-SW 195 0 min 0,000 mm 0,0 UV-I 0 W/m 4,9 C 7,1 C 3,2 km/h (1 Bft) 95,65 %
15.04.2018 04:04 7,0 C 11,1 C 85 % 1013,9 hPa 0,0 l/m 2,1 km/h (1 Bft) S-SW 195 0 min 0,000 mm 0,0 UV-I 0 W/m 4,7 C 7,0 C 3,2 km/h (1 Bft) 91,67 %
15.04.2018 04:05 6,8 C 11,1 C 85 % 1014,0 hPa 0,0 l/m 2,9 km/h (1 Bft) S-SW 194 0 min 0,000 mm 0,0 UV-I 0 W/m 4,5 C 6,8 C 3,2 km/h (1 Bft) 100,00 %
15.04.2018 04:06 6,7 C 11,1 C 86 % 1014,0 hPa 0,0 l/m 3,2 km/h (1 Bft) S-SW 194 0 min 0,000 mm 0,0 UV-I 0 W/m 4,5 C 6,7 C 4,8 km/h (1 Bft) 100,00 %
15.04.2018 04:07 6,5 C 11,1 C 86 % 1013,9 hPa 0,0 l/m 2,1 km/h (1 Bft) S-SW 194 0 min 0,000 mm 0,0 UV-I 0 W/m 4,3 C 6,5 C 3,2 km/h (1 Bft) 100,00 %
15.04.2018 04:08 6,3 C 11,1 C 86 % 1013,9 hPa 0,0 l/m 1,8 km/h (1 Bft) S-SW 194 0 min 0,000 mm 0,0 UV-I 0 W/m 4,1 C 6,3 C 3,2 km/h (1 Bft) 95,83 %
15.04.2018 04:09 6,3 C 11,1 C 87 % 1014,0 hPa 0,0 l/m 1,9 km/h (1 Bft) S-SW 194 0 min 0,000 mm 0,0 UV-I 0 W/m 4,3 C 6,3 C 3,2 km/h (1 Bft) 95,65 %
15.04.2018 04:10 6,4 C 11,1 C 88 % 1013,9 hPa 0,0 l/m 2,0 km/h (1 Bft) S-SW 194 0 min 0,000 mm 0,0 UV-I 0 W/m 4,6 C 6,4 C 3,2 km/h (1 Bft) 100,00 %
15.04.2018 04:11 6,5 C 11,1 C 88 % 1013,9 hPa 0,0 l/m 2,0 km/h (1 Bft) S-SW 194 0 min 0,000 mm 0,0 UV-I 0 W/m 4,7 C 6,5 C 3,2 km/h (1 Bft) 95,65 %
15.04.2018 04:12 6,7 C 11,1 C 88 % 1013,9 hPa 0,0 l/m 2,5 km/h (1 Bft) S-SW 195 0 min 0,000 mm 0,0 UV-I 0 W/m 4,9 C 6,7 C 3,2 km/h (1 Bft) 93,33 %
15.04.2018 04:13 6,8 C 11,1 C 88 % 1013,8 hPa 0,0 l/m 4,5 km/h (1 Bft) S-SW 209 0 min 0,000 mm 0,0 UV-I 0 W/m 5,0 C 6,8 C 6,4 km/h (2 Bft) 100,00 %
15.04.2018 04:14 7,0 C 11,1 C 88 % 1013,8 hPa 0,0 l/m 3,0 km/h (1 Bft) S-SW 209 0 min 0,000 mm 0,0 UV-I 0 W/m 5,2 C 7,0 C 4,8 km/h (1 Bft) 95,65 %
15.04.2018 04:15 7,1 C 11,1 C 87 % 1013,8 hPa 0,0 l/m 3,7 km/h (1 Bft) S-SW 209 0 min 0,000 mm 0,0 UV-I 0 W/m 5,1 C 7,1 C 4,8 km/h (1 Bft) 100,00 %
15.04.2018 04:16 7,2 C 11,1 C 87 % 1013,8 hPa 0,0 l/m 4,5 km/h (1 Bft) S-SW 209 0 min 0,000 mm 0,0 UV-I 0 W/m 5,2 C 7,2 C 4,8 km/h (1 Bft) 100,00 %
15.04.2018 04:17 7,2 C 11,1 C 86 % 1013,8 hPa 0,0 l/m 3,2 km/h (1 Bft) S-SW 209 0 min 0,000 mm 0,0 UV-I 0 W/m 5,0 C 7,2 C 3,2 km/h (1 Bft) 95,83 %
15.04.2018 04:18 7,2 C 11,1 C 86 % 1013,8 hPa 0,0 l/m 1,7 km/h (1 Bft) S-SW 209 0 min 0,000 mm 0,0 UV-I 0 W/m 5,0 C 7,2 C 3,2 km/h (1 Bft) 100,00 %
15.04.2018 04:19 7,2 C 11,1 C 86 % 1013,7 hPa 0,0 l/m 1,4 km/h (1 Bft) S-SW 209 0 min 0,000 mm 0,0 UV-I 0 W/m 5,0 C 7,2 C 1,6 km/h (1 Bft) 100,00 %
15.04.2018 04:20 7,2 C 11,1 C 86 % 1013,7 hPa 0,0 l/m 1,5 km/h (1 Bft) S-SW 209 0 min 0,000 mm 0,0 UV-I 0 W/m 5,0 C 7,2 C 3,2 km/h (1 Bft) 100,00 %
15.04.2018 04:21 7,2 C 11,1 C 86 % 1013,7 hPa 0,0 l/m 2,6 km/h (1 Bft) S-SW 209 0 min 0,000 mm 0,0 UV-I 0 W/m 5,0 C 7,2 C 3,2 km/h (1 Bft) 100,00 %
15.04.2018 04:22 7,1 C 11,1 C 85 % 1013,6 hPa 0,0 l/m 0,1 km/h (0 Bft) S-SW 209 0 min 0,000 mm 0,0 UV-I 0 W/m 4,8 C 7,1 C 1,6 km/h (1 Bft) 95,65 %
15.04.2018 04:23 6,9 C 11,1 C 85 % 1013,6 hPa 0,0 l/m 0,0 km/h (0 Bft) S-SW 209 0 min 0,000 mm 0,0 UV-I 0 W/m 4,6 C 6,9 C 0,0 km/h (0 Bft) 100,00 %
15.04.2018 04:24 6,8 C 11,1 C 85 % 1013,6 hPa 0,0 l/m 0,0 km/h (0 Bft) S-SW 209 0 min 0,000 mm 0,0 UV-I 0 W/m 4,5 C 6,8 C 0,0 km/h (0 Bft) 95,65 %
15.04.2018 04:25 6,7 C 11,1 C 86 % 1013,6 hPa 0,0 l/m 0,0 km/h (0 Bft) S-SW 209 0 min 0,000 mm 0,0 UV-I 0 W/m 4,5 C 6,7 C 0,0 km/h (0 Bft) 100,00 %
15.04.2018 04:26 6,6 C 11,1 C 86 % 1013,7 hPa 0,0 l/m 0,0 km/h (0 Bft) S-SW 209 0 min 0,000 mm 0,0 UV-I 0 W/m 4,4 C 6,6 C 0,0 km/h (0 Bft) 95,65 %
15.04.2018 04:27 6,6 C 11,1 C 87 % 1013,7 hPa 0,0 l/m 0,0 km/h (0 Bft) S-SW 209 0 min 0,000 mm 0,0 UV-I 0 W/m 4,6 C 6,6 C 0,0 km/h (0 Bft) 95,83 %
15.04.2018 04:28 6,6 C 11,1 C 87 % 1013,7 hPa 0,0 l/m 0,0 km/h (0 Bft) S-SW 209 0 min 0,000 mm 0,0 UV-I 0 W/m 4,6 C 6,6 C 0,0 km/h (0 Bft) 100,00 %
15.04.2018 04:29 6,6 C 11,1 C 87 % 1013,6 hPa 0,0 l/m 1,5 km/h (1 Bft) S-SW 209 0 min 0,000 mm 0,0 UV-I 0 W/m 4,6 C 6,6 C 3,2 km/h (1 Bft) 100,00 %
15.04.2018 04:30 6,7 C 11,1 C 87 % 1013,6 hPa 0,0 l/m 3,0 km/h (1 Bft) S-SW 209 0 min 0,000 mm 0,0 UV-I 0 W/m 4,7 C 6,7 C 4,8 km/h (1 Bft) 100,00 %
15.04.2018 04:31 6,7 C 11,1 C 87 % 1013,6 hPa 0,0 l/m 3,8 km/h (1 Bft) S-SW 209 0 min 0,000 mm 0,0 UV-I 0 W/m 4,7 C 6,7 C 4,8 km/h (1 Bft) 100,00 %
15.04.2018 04:32 6,7 C 11,1 C 87 % 1013,6 hPa 0,0 l/m 4,1 km/h (1 Bft) S-SW 209 0 min 0,000 mm 0,0 UV-I 0 W/m 4,7 C 6,7 C 4,8 km/h (1 Bft) 100,00 %
15.04.2018 04:33 6,8 C 11,1 C 87 % 1013,6 hPa 0,0 l/m 3,7 km/h (1 Bft) S-SW 209 0 min 0,000 mm 0,0 UV-I 0 W/m 4,8 C 6,8 C 4,8 km/h (1 Bft) 100,00 %
15.04.2018 04:34 6,8 C 11,1 C 87 % 1013,6 hPa 0,0 l/m 4,1 km/h (1 Bft) S-SW 209 0 min 0,000 mm 0,0 UV-I 0 W/m 4,8 C 6,8 C 4,8 km/h (1 Bft) 100,00 %
15.04.2018 04:35 6,9 C 11,1 C 87 % 1013,6 hPa 0,0 l/m 4,1 km/h (1 Bft) S-SW 209 0 min 0,000 mm 0,0 UV-I 0 W/m 4,9 C 6,9 C 4,8 km/h (1 Bft) 95,65 %
15.04.2018 04:36 6,8 C 11,1 C 86 % 1013,6 hPa 0,0 l/m 3,6 km/h (1 Bft) S-SW 209 0 min 0,000 mm 0,0 UV-I 0 W/m 4,6 C 6,8 C 4,8 km/h (1 Bft) 100,00 %
15.04.2018 04:37 6,7 C 11,1 C 86 % 1013,5 hPa 0,0 l/m 2,9 km/h (1 Bft) S-SW 209 0 min 0,000 mm 0,0 UV-I 0 W/m 4,5 C 6,7 C 3,2 km/h (1 Bft) 100,00 %
15.04.2018 04:38 6,7 C 11,1 C 87 % 1013,5 hPa 0,0 l/m 0,7 km/h (0 Bft) S-SW 209 0 min 0,000 mm 0,0 UV-I 0 W/m 4,7 C 6,7 C 1,6 km/h (1 Bft) 95,83 %
15.04.2018 04:39 6,7 C 11,1 C 87 % 1013,5 hPa 0,0 l/m 0,0 km/h (0 Bft) S-SW 209 0 min 0,000 mm 0,0 UV-I 0 W/m 4,7 C 6,7 C 0,0 km/h (0 Bft) 100,00 %
15.04.2018 04:40 6,6 C 11,1 C 87 % 1013,5 hPa 0,0 l/m 0,0 km/h (0 Bft) S-SW 209 0 min 0,000 mm 0,0 UV-I 0 W/m 4,6 C 6,6 C 0,0 km/h (0 Bft) 100,00 %
15.04.2018 04:41 6,4 C 11,1 C 87 % 1013,6 hPa 0,0 l/m 0,0 km/h (0 Bft) S-SW 209 0 min 0,000 mm 0,0 UV-I 0 W/m 4,4 C 6,4 C 0,0 km/h (0 Bft) 96,15 %
15.04.2018 04:42 6,3 C 11,1 C 87 % 1013,6 hPa 0,0 l/m 0,6 km/h (0 Bft) S-SW 209 0 min 0,000 mm 0,0 UV-I 0 W/m 4,3 C 6,3 C 3,2 km/h (1 Bft) 100,00 %
15.04.2018 04:43 6,3 C 11,1 C 87 % 1013,6 hPa 0,0 l/m 2,5 km/h (1 Bft) S-SW 209 0 min 0,000 mm 0,0 UV-I 0 W/m 4,3 C 6,3 C 3,2 km/h (1 Bft) 95,65 %
15.04.2018 04:44 6,3 C 11,1 C 88 % 1013,6 hPa 0,0 l/m 2,4 km/h (1 Bft) S-SW 209 0 min 0,000 mm 0,0 UV-I 0 W/m 4,5 C 6,3 C 3,2 km/h (1 Bft) 100,00 %
15.04.2018 04:45 6,3 C 11,1 C 88 % 1013,6 hPa 0,0 l/m 4,0 km/h (1 Bft) S-SW 208 0 min 0,000 mm 0,0 UV-I 0 W/m 4,5 C 6,3 C 4,8 km/h (1 Bft) 100,00 %
15.04.2018 04:46 6,1 C 11,1 C 87 % 1013,5 hPa 0,0 l/m 2,8 km/h (1 Bft) S-SW 208 0 min 0,000 mm 0,0 UV-I 0 W/m 4,1 C 6,1 C 3,2 km/h (1 Bft) 100,00 %
15.04.2018 04:47 6,1 C 11,1 C 88 % 1013,4 hPa 0,0 l/m 3,6 km/h (1 Bft) S-SW 208 0 min 0,000 mm 0,0 UV-I 0 W/m 4,3 C 6,1 C 4,8 km/h (1 Bft) 100,00 %
15.04.2018 04:48 6,2 C 11,1 C 89 % 1013,4 hPa 0,0 l/m 4,4 km/h (1 Bft) S-SW 208 0 min 0,000 mm 0,0 UV-I 0 W/m 4,5 C 6,2 C 4,8 km/h (1 Bft) 100,00 %
15.04.2018 04:49 6,3 C 11,1 C 89 % 1013,3 hPa 0,0 l/m 3,8 km/h (1 Bft) S-SW 208 0 min 0,000 mm 0,0 UV-I 0 W/m 4,6 C 6,3 C 4,8 km/h (1 Bft) 100,00 %
15.04.2018 04:50 6,3 C 11,1 C 89 % 1013,3 hPa 0,0 l/m 2,4 km/h (1 Bft) S-SW 208 0 min 0,000 mm 0,0 UV-I 0 W/m 4,6 C 6,3 C 3,2 km/h (1 Bft) 100,00 %
15.04.2018 04:51 6,3 C 11,1 C 88 % 1013,3 hPa 0,0 l/m 1,7 km/h (1 Bft) S-SW 208 0 min 0,000 mm 0,0 UV-I 0 W/m 4,5 C 6,3 C 3,2 km/h (1 Bft) 100,00 %
15.04.2018 04:52 6,3 C 11,1 C 88 % 1013,4 hPa 0,0 l/m 2,3 km/h (1 Bft) S-SW 208 0 min 0,000 mm 0,0 UV-I 0 W/m 4,5 C 6,3 C 3,2 km/h (1 Bft) 100,00 %
15.04.2018 04:53 6,2 C 11,1 C 88 % 1013,4 hPa 0,0 l/m 2,3 km/h (1 Bft) S-SW 208 0 min 0,000 mm 0,0 UV-I 0 W/m 4,4 C 6,2 C 3,2 km/h (1 Bft) 100,00 %
15.04.2018 04:54 6,2 C 11,1 C 88 % 1013,4 hPa 0,0 l/m 2,5 km/h (1 Bft) S-SW 208 0 min 0,000 mm 0,0 UV-I 0 W/m 4,4 C 6,2 C 4,8 km/h (1 Bft) 100,00 %
15.04.2018 04:55 6,2 C 11,1 C 88 % 1013,4 hPa 0,0 l/m 3,4 km/h (1 Bft) S-SW 208 0 min 0,000 mm 0,0 UV-I 0 W/m 4,4 C 6,2 C 4,8 km/h (1 Bft) 98,56 %
15.04.2018 04:56 6,2 C 11,1 C 89 % 1013,5 hPa 0,0 l/m 3,8 km/h (1 Bft) S-SW 208 0 min 0,000 mm 0,0 UV-I 0 W/m 4,5 C 6,2 C 4,8 km/h (1 Bft) 94,74 %
15.04.2018 04:57 6,2 C 11,1 C 89 % 1013,5 hPa 0,0 l/m 4,6 km/h (1 Bft) S-SW 208 0 min 0,000 mm 0,0 UV-I 0 W/m 4,5 C 6,2 C 4,8 km/h (1 Bft) 95,83 %
15.04.2018 04:58 6,3 C 11,1 C 89 % 1013,5 hPa 0,0 l/m 4,8 km/h (1 Bft) S-SW 208 0 min 0,000 mm 0,0 UV-I 0 W/m 4,6 C 6,3 C 6,4 km/h (2 Bft) 96,15 %
15.04.2018 04:59 6,4 C 11,1 C 89 % 1013,5 hPa 0,0 l/m 5,2 km/h (1 Bft) S-SW 208 0 min 0,000 mm 0,0 UV-I 0 W/m 4,7 C 6,4 C 6,4 km/h (2 Bft) 95,83 %
15.04.2018 05:00 6,4 C 11,1 C 89 % 1013,4 hPa 0,0 l/m 5,8 km/h (2 Bft) S-SW 209 0 min 0,000 mm 0,0 UV-I 0 W/m 4,7 C 6,4 C 6,4 km/h (2 Bft) 100,00 %
15.04.2018 05:01 6,4 C 11,1 C 88 % 1013,4 hPa 0,0 l/m 5,0 km/h (1 Bft) S-SW 210 0 min 0,000 mm 0,0 UV-I 0 W/m 4,6 C 6,4 C 6,4 km/h (2 Bft) 95,83 %
15.04.2018 05:02 6,4 C 11,1 C 88 % 1013,4 hPa 0,0 l/m 3,9 km/h (1 Bft) S-SW 210 0 min 0,000 mm 0,0 UV-I 0 W/m 4,6 C 6,4 C 4,8 km/h (1 Bft) 100,00 %
15.04.2018 05:03 6,3 C 11,1 C 88 % 1013,4 hPa 0,0 l/m 4,1 km/h (1 Bft) S-SW 210 0 min 0,000 mm 0,0 UV-I 0 W/m 4,5 C 6,3 C 4,8 km/h (1 Bft) 91,67 %
15.04.2018 05:04 6,3 C 11,1 C 88 % 1013,3 hPa 0,0 l/m 3,5 km/h (1 Bft) S-SW 210 0 min 0,000 mm 0,0 UV-I 0 W/m 4,5 C 6,3 C 4,8 km/h (1 Bft) 95,65 %
15.04.2018 05:05 6,2 C 11,1 C 88 % 1013,3 hPa 0,0 l/m 2,2 km/h (1 Bft) S-SW 210 0 min 0,000 mm 0,0 UV-I 0 W/m 4,4 C 6,2 C 3,2 km/h (1 Bft) 95,83 %
15.04.2018 05:06 6,2 C 11,1 C 88 % 1013,2 hPa 0,0 l/m 1,7 km/h (1 Bft) S-SW 210 0 min 0,000 mm 0,0 UV-I 0 W/m 4,4 C 6,2 C 3,2 km/h (1 Bft) 95,65 %
15.04.2018 05:07 6,2 C 11,1 C 89 % 1013,2 hPa 0,0 l/m 2,8 km/h (1 Bft) S-SW 210 0 min 0,000 mm 0,0 UV-I 0 W/m 4,5 C 6,2 C 3,2 km/h (1 Bft) 100,00 %
15.04.2018 05:08 6,2 C 11,1 C 89 % 1013,2 hPa 0,0 l/m 2,6 km/h (1 Bft) S-SW 210 0 min 0,000 mm 0,0 UV-I 0 W/m 4,5 C 6,2 C 3,2 km/h (1 Bft) 95,65 %
15.04.2018 05:09 6,2 C 11,1 C 89 % 1013,2 hPa 0,0 l/m 3,2 km/h (1 Bft) S-SW 210 0 min 0,000 mm 0,0 UV-I 0 W/m 4,5 C 6,2 C 3,2 km/h (1 Bft) 100,00 %
15.04.2018 05:10 6,3 C 11,1 C 89 % 1013,1 hPa 0,0 l/m 2,2 km/h (1 Bft) S-SW 210 0 min 0,000 mm 0,0 UV-I 0 W/m 4,6 C 6,3 C 3,2 km/h (1 Bft) 86,67 %
15.04.2018 05:11 6,3 C 11,1 C 89 % 1013,1 hPa 0,0 l/m 1,7 km/h (1 Bft) S-SW 210 0 min 0,000 mm 0,0 UV-I 0 W/m 4,6 C 6,3 C 3,2 km/h (1 Bft) 95,65 %
15.04.2018 05:12 6,4 C 11,1 C 89 % 1013,0 hPa 0,0 l/m 1,5 km/h (1 Bft) S-SW 210 0 min 0,000 mm 0,0 UV-I 0 W/m 4,7 C 6,4 C 1,6 km/h (1 Bft) 95,83 %
15.04.2018 05:13 6,4 C 11,1 C 89 % 1013,0 hPa 0,0 l/m 0,8 km/h (0 Bft) S-SW 210 0 min 0,000 mm 0,0 UV-I 0 W/m 4,7 C 6,4 C 1,6 km/h (1 Bft) 100,00 %
15.04.2018 05:14 6,6 C 11,1 C 89 % 1013,1 hPa 0,0 l/m 0,3 km/h (0 Bft) S-SW 210 0 min 0,000 mm 0,0 UV-I 0 W/m 4,9 C 6,6 C 1,6 km/h (1 Bft) 96,30 %
15.04.2018 05:15 6,5 C 11,1 C 87 % 1013,1 hPa 0,0 l/m 2,1 km/h (1 Bft) S-SW 210 0 min 0,000 mm 0,0 UV-I 0 W/m 4,5 C 6,5 C 3,2 km/h (1 Bft) 100,00 %
15.04.2018 05:16 6,5 C 11,1 C 88 % 1013,1 hPa 0,0 l/m 2,6 km/h (1 Bft) S-SW 210 0 min 0,000 mm 0,0 UV-I 0 W/m 4,7 C 6,5 C 3,2 km/h (1 Bft) 95,83 %
15.04.2018 05:17 6,5 C 11,1 C 88 % 1013,1 hPa 0,0 l/m 3,7 km/h (1 Bft) S-SW 210 0 min 0,000 mm 0,0 UV-I 0 W/m 4,7 C 6,5 C 4,8 km/h (1 Bft) 100,00 %
15.04.2018 05:18 6,6 C 11,1 C 88 % 1013,1 hPa 0,0 l/m 3,8 km/h (1 Bft) S-SW 210 0 min 0,000 mm 0,0 UV-I 0 W/m 4,8 C 6,6 C 4,8 km/h (1 Bft) 95,83 %
15.04.2018 05:19 6,6 C 11,1 C 88 % 1013,1 hPa 0,0 l/m 3,8 km/h (1 Bft) S-SW 210 0 min 0,000 mm 0,0 UV-I 0 W/m 4,8 C 6,6 C 4,8 km/h (1 Bft) 91,30 %
15.04.2018 05:20 6,6 C 11,1 C 88 % 1013,0 hPa 0,0 l/m 3,4 km/h (1 Bft) S-SW 210 0 min 0,000 mm 0,0 UV-I 0 W/m 4,8 C 6,6 C 4,8 km/h (1 Bft) 100,00 %
15.04.2018 05:21 6,6 C 11,1 C 87 % 1013,1 hPa 0,0 l/m 3,7 km/h (1 Bft) S-SW 210 0 min 0,000 mm 0,0 UV-I 0 W/m 4,6 C 6,6 C 4,8 km/h (1 Bft) 91,30 %
15.04.2018 05:22 6,3 C 11,1 C 86 % 1013,0 hPa 0,0 l/m 3,0 km/h (1 Bft) S-SW 210 0 min 0,000 mm 0,0 UV-I 0 W/m 4,1 C 6,3 C 3,2 km/h (1 Bft) 100,00 %
15.04.2018 05:23 6,2 C 11,1 C 87 % 1013,1 hPa 0,0 l/m 4,3 km/h (1 Bft) S-SW 209 0 min 0,000 mm 0,0 UV-I 0 W/m 4,2 C 6,2 C 4,8 km/h (1 Bft) 96,15 %
15.04.2018 05:24 6,1 C 11,1 C 87 % 1013,2 hPa 0,0 l/m 4,6 km/h (1 Bft) S-SW 209 0 min 0,000 mm 0,0 UV-I 0 W/m 4,1 C 6,1 C 6,4 km/h (2 Bft) 100,00 %
15.04.2018 05:25 6,1 C 11,1 C 88 % 1013,2 hPa 0,0 l/m 6,5 km/h (2 Bft) S-SW 209 0 min 0,000 mm 0,0 UV-I 0 W/m 4,3 C 6,0 C 8,0 km/h (2 Bft) 91,30 %
15.04.2018 05:26 6,1 C 11,1 C 88 % 1013,2 hPa 0,0 l/m 5,9 km/h (2 Bft) S-SW 209 0 min 0,000 mm 0,0 UV-I 0 W/m 4,3 C 6,1 C 6,4 km/h (2 Bft) 100,00 %
15.04.2018 05:27 6,1 C 11,1 C 89 % 1013,2 hPa 0,0 l/m 5,7 km/h (1 Bft) S-SW 209 0 min 0,000 mm 0,0 UV-I 0 W/m 4,4 C 6,1 C 6,4 km/h (2 Bft) 95,65 %
15.04.2018 05:28 6,2 C 11,1 C 89 % 1013,2 hPa 0,0 l/m 4,6 km/h (1 Bft) S-SW 209 0 min 0,000 mm 0,0 UV-I 0 W/m 4,5 C 6,2 C 4,8 km/h (1 Bft) 96,30 %
15.04.2018 05:29 6,3 C 11,1 C 89 % 1013,2 hPa 0,0 l/m 4,3 km/h (1 Bft) S-SW 209 0 min 0,000 mm 0,0 UV-I 0 W/m 4,6 C 6,3 C 4,8 km/h (1 Bft) 100,00 %
15.04.2018 05:30 6,3 C 11,1 C 88 % 1013,2 hPa 0,0 l/m 3,7 km/h (1 Bft) S-SW 209 0 min 0,000 mm 0,0 UV-I 0 W/m 4,5 C 6,3 C 4,8 km/h (1 Bft) 92,31 %
15.04.2018 05:31 6,2 C 11,1 C 88 % 1013,2 hPa 0,0 l/m 4,4 km/h (1 Bft) S-SW 209 0 min 0,000 mm 0,0 UV-I 0 W/m 4,4 C 6,2 C 4,8 km/h (1 Bft) 100,00 %
15.04.2018 05:32 6,1 C 11,1 C 88 % 1013,1 hPa 0,0 l/m 4,4 km/h (1 Bft) S-SW 209 0 min 0,000 mm 0,0 UV-I 0 W/m 4,3 C 6,1 C 4,8 km/h (1 Bft) 95,65 %
15.04.2018 05:33 6,1 C 11,1 C 89 % 1013,1 hPa 0,0 l/m 4,0 km/h (1 Bft) S-SW 209 0 min 0,000 mm 0,0 UV-I 0 W/m 4,4 C 6,1 C 4,8 km/h (1 Bft) 100,00 %
15.04.2018 05:34 6,1 C 11,1 C 89 % 1013,1 hPa 0,0 l/m 4,0 km/h (1 Bft) S-SW 202 0 min 0,000 mm 0,0 UV-I 0 W/m 4,4 C 6,1 C 4,8 km/h (1 Bft) 95,65 %
15.04.2018 05:35 6,3 C 11,1 C 90 % 1013,0 hPa 0,0 l/m 4,8 km/h (1 Bft) O-SO 113 0 min 0,000 mm 0,0 UV-I 0 W/m 4,8 C 6,3 C 4,8 km/h (1 Bft) 100,00 %
15.04.2018 05:36 6,4 C 11,1 C 90 % 1013,0 hPa 0,0 l/m 4,1 km/h (1 Bft) O-SO 113 0 min 0,000 mm 0,0 UV-I 0 W/m 4,9 C 6,4 C 4,8 km/h (1 Bft) 95,65 %
15.04.2018 05:37 6,7 C 11,1 C 89 % 1013,0 hPa 0,0 l/m 1,0 km/h (0 Bft) O-SO 113 0 min 0,000 mm 0,0 UV-I 0 W/m 5,0 C 6,7 C 3,2 km/h (1 Bft) 96,30 %
15.04.2018 05:38 6,8 C 11,1 C 89 % 1013,0 hPa 0,0 l/m 0,0 km/h (0 Bft) O-SO 113 0 min 0,000 mm 0,0 UV-I 0 W/m 5,1 C 6,8 C 0,0 km/h (0 Bft) 100,00 %
15.04.2018 05:39 6,8 C 11,1 C 87 % 1013,1 hPa 0,0 l/m 2,9 km/h (1 Bft) SW 231 0 min 0,000 mm 0,0 UV-I 0 W/m 4,8 C 6,8 C 6,4 km/h (2 Bft) 91,67 %
15.04.2018 05:40 6,7 C 11,1 C 87 % 1013,2 hPa 0,0 l/m 5,9 km/h (2 Bft) W-SW 244 0 min 0,000 mm 0,0 UV-I 0 W/m 4,7 C 6,7 C 6,4 km/h (2 Bft) 100,00 %
15.04.2018 05:41 6,5 C 11,1 C 86 % 1013,2 hPa 0,0 l/m 5,1 km/h (1 Bft) W-SW 244 0 min 0,000 mm 0,0 UV-I 0 W/m 4,3 C 6,5 C 6,4 km/h (2 Bft) 95,83 %
15.04.2018 05:42 6,2 C 11,1 C 86 % 1013,2 hPa 0,0 l/m 4,6 km/h (1 Bft) W-SW 244 0 min 0,000 mm 0,0 UV-I 0 W/m 4,0 C 6,2 C 6,4 km/h (2 Bft) 100,00 %
15.04.2018 05:43 6,1 C 11,1 C 87 % 1013,2 hPa 0,0 l/m 4,0 km/h (1 Bft) W-SW 244 0 min 0,000 mm 0,0 UV-I 0 W/m 4,1 C 6,1 C 6,4 km/h (2 Bft) 95,83 %
15.04.2018 05:44 6,0 C 11,1 C 88 % 1013,1 hPa 0,0 l/m 4,3 km/h (1 Bft) W-SW 244 0 min 0,000 mm 0,0 UV-I 0 W/m 4,2 C 6,0 C 4,8 km/h (1 Bft) 100,00 %
15.04.2018 05:45 5,9 C 11,1 C 89 % 1013,1 hPa 0,0 l/m 2,2 km/h (1 Bft) W-SW 244 0 min 0,000 mm 0,0 UV-I 0 W/m 4,2 C 5,9 C 3,2 km/h (1 Bft) 100,00 %
15.04.2018 05:46 6,0 C 11,1 C 89 % 1013,1 hPa 0,0 l/m 1,9 km/h (1 Bft) W-SW 244 0 min 0,000 mm 0,0 UV-I 0 W/m 4,3 C 6,0 C 3,2 km/h (1 Bft) 100,00 %
15.04.2018 05:47 6,0 C 11,1 C 89 % 1013,1 hPa 0,0 l/m 2,2 km/h (1 Bft) W-SW 244 0 min 0,000 mm 0,0 UV-I 0 W/m 4,3 C 6,0 C 3,2 km/h (1 Bft) 91,67 %
15.04.2018 05:48 6,1 C 11,1 C 89 % 1013,0 hPa 0,0 l/m 1,3 km/h (1 Bft) W-SW 244 0 min 0,000 mm 0,0 UV-I 0 W/m 4,4 C 6,1 C 3,2 km/h (1 Bft) 95,65 %
15.04.2018 05:49 6,1 C 11,1 C 89 % 1013,1 hPa 0,0 l/m 1,9 km/h (1 Bft) W-SW 244 0 min 0,000 mm 0,0 UV-I 0 W/m 4,4 C 6,1 C 3,2 km/h (1 Bft) 100,00 %
15.04.2018 05:50 6,1 C 11,1 C 89 % 1013,0 hPa 0,0 l/m 2,3 km/h (1 Bft) W-SW 244 0 min 0,000 mm 0,0 UV-I 0 W/m 4,4 C 6,1 C 3,2 km/h (1 Bft) 95,65 %
15.04.2018 05:51 6,1 C 11,1 C 89 % 1013,1 hPa 0,0 l/m 3,4 km/h (1 Bft) W-SW 243 0 min 0,000 mm 0,0 UV-I 0 W/m 4,4 C 6,1 C 4,8 km/h (1 Bft) 100,00 %
15.04.2018 05:52 6,0 C 11,1 C 88 % 1013,1 hPa 0,0 l/m 3,8 km/h (1 Bft) W-SW 243 0 min 0,000 mm 0,0 UV-I 0 W/m 4,2 C 6,0 C 4,8 km/h (1 Bft) 95,83 %
15.04.2018 05:53 5,9 C 11,1 C 89 % 1013,1 hPa 0,0 l/m 4,9 km/h (1 Bft) W-SW 243 0 min 0,000 mm 0,0 UV-I 0 W/m 4,2 C 5,9 C 6,4 km/h (2 Bft) 95,65 %
15.04.2018 05:54 5,9 C 11,1 C 89 % 1013,0 hPa 0,0 l/m 4,1 km/h (1 Bft) W-SW 243 0 min 0,000 mm 0,0 UV-I 0 W/m 4,2 C 5,9 C 6,4 km/h (2 Bft) 91,67 %
15.04.2018 05:55 5,9 C 11,1 C 89 % 1013,0 hPa 0,0 l/m 3,3 km/h (1 Bft) W-SW 243 0 min 0,000 mm 0,0 UV-I 0 W/m 4,2 C 5,9 C 4,8 km/h (1 Bft) 95,65 %
15.04.2018 05:56 5,9 C 11,1 C 89 % 1013,0 hPa 0,0 l/m 2,4 km/h (1 Bft) W-SW 243 0 min 0,000 mm 0,0 UV-I 0 W/m 4,2 C 5,9 C 3,2 km/h (1 Bft) 95,83 %
15.04.2018 05:57 5,8 C 11,1 C 89 % 1013,0 hPa 0,0 l/m 2,2 km/h (1 Bft) W-SW 243 0 min 0,000 mm 0,0 UV-I 0 W/m 4,1 C 5,8 C 3,2 km/h (1 Bft) 95,65 %
15.04.2018 05:58 5,8 C 11,1 C 89 % 1012,9 hPa 0,0 l/m 2,0 km/h (1 Bft) W-SW 243 0 min 0,000 mm 0,0 UV-I 0 W/m 4,1 C 5,8 C 3,2 km/h (1 Bft) 100,00 %
15.04.2018 05:59 5,7 C 11,1 C 89 % 1012,8 hPa 0,0 l/m 0,4 km/h (0 Bft) W-SW 243 0 min 0,000 mm 0,0 UV-I 0 W/m 4,0 C 5,7 C 1,6 km/h (1 Bft) 95,65 %
15.04.2018 06:00 5,7 C 11,1 C 90 % 1012,8 hPa 0,0 l/m 0,0 km/h (0 Bft) W-SW 243 0 min 0,000 mm 0,0 UV-I 2 W/m 4,2 C 5,7 C 0,0 km/h (0 Bft) 100,00 %
15.04.2018 06:01 5,8 C 11,1 C 90 % 1012,8 hPa 0,0 l/m 0,0 km/h (0 Bft) W-SW 243 0 min 0,000 mm 0,0 UV-I 5 W/m 4,3 C 5,8 C 0,0 km/h (0 Bft) 91,30 %
15.04.2018 06:02 5,9 C 11,1 C 90 % 1012,8 hPa 0,0 l/m 2,0 km/h (1 Bft) W-SW 243 0 min 0,000 mm 0,0 UV-I 5 W/m 4,4 C 5,9 C 3,2 km/h (1 Bft) 100,00 %
15.04.2018 06:03 6,1 C 11,1 C 90 % 1012,8 hPa 0,0 l/m 2,8 km/h (1 Bft) W-SW 244 0 min 0,000 mm 0,0 UV-I 5 W/m 4,6 C 6,1 C 3,2 km/h (1 Bft) 95,83 %
15.04.2018 06:04 6,2 C 11,1 C 90 % 1012,8 hPa 0,0 l/m 3,0 km/h (1 Bft) W-SW 244 0 min 0,000 mm 0,0 UV-I 5 W/m 4,7 C 6,2 C 3,2 km/h (1 Bft) 100,00 %
15.04.2018 06:05 6,3 C 11,1 C 89 % 1012,8 hPa 0,0 l/m 1,9 km/h (1 Bft) W-SW 244 0 min 0,000 mm 0,0 UV-I 5 W/m 4,6 C 6,3 C 3,2 km/h (1 Bft) 95,83 %
15.04.2018 06:06 6,3 C 11,1 C 89 % 1012,9 hPa 0,0 l/m 3,2 km/h (1 Bft) SO 135 0 min 0,000 mm 0,0 UV-I 7 W/m 4,6 C 6,3 C 6,4 km/h (2 Bft) 100,00 %
15.04.2018 06:07 6,4 C 11,1 C 89 % 1012,9 hPa 0,0 l/m 2,9 km/h (1 Bft) SO 134 0 min 0,000 mm 0,0 UV-I 7 W/m 4,7 C 6,4 C 4,8 km/h (1 Bft) 96,30 %
15.04.2018 06:08 6,6 C 11,1 C 89 % 1012,8 hPa 0,0 l/m 3,0 km/h (1 Bft) SO 134 0 min 0,000 mm 0,0 UV-I 7 W/m 4,9 C 6,6 C 4,8 km/h (1 Bft) 95,65 %
15.04.2018 06:09 6,7 C 11,1 C 88 % 1012,7 hPa 0,0 l/m 3,2 km/h (1 Bft) SO 134 0 min 0,000 mm 0,0 UV-I 5 W/m 4,9 C 6,7 C 4,8 km/h (1 Bft) 95,83 %
15.04.2018 06:10 6,9 C 11,1 C 88 % 1012,7 hPa 0,0 l/m 4,5 km/h (1 Bft) O 86 0 min 0,000 mm 0,0 UV-I 5 W/m 5,1 C 6,9 C 4,8 km/h (1 Bft) 95,65 %
15.04.2018 06:11 7,2 C 11,1 C 88 % 1012,7 hPa 0,0 l/m 5,2 km/h (1 Bft) O 82 0 min 0,000 mm 0,0 UV-I 5 W/m 5,3 C 7,2 C 6,4 km/h (2 Bft) 100,00 %
15.04.2018 06:12 7,3 C 11,1 C 87 % 1012,7 hPa 0,0 l/m 5,0 km/h (1 Bft) O-NO 69 0 min 0,000 mm 0,0 UV-I 5 W/m 5,3 C 7,3 C 6,4 km/h (2 Bft) 96,15 %
15.04.2018 06:13 7,5 C 11,1 C 86 % 1012,7 hPa 0,0 l/m 5,1 km/h (1 Bft) O-NO 68 0 min 0,000 mm 0,0 UV-I 5 W/m 5,3 C 7,5 C 8,0 km/h (2 Bft) 100,00 %
15.04.2018 06:14 7,6 C 11,1 C 85 % 1012,7 hPa 0,0 l/m 6,0 km/h (2 Bft) O-NO 68 0 min 0,000 mm 0,0 UV-I 5 W/m 5,2 C 7,6 C 6,4 km/h (2 Bft) 95,65 %
15.04.2018 06:15 7,6 C 11,1 C 84 % 1012,7 hPa 0,0 l/m 4,9 km/h (1 Bft) O-NO 69 0 min 0,000 mm 0,0 UV-I 5 W/m 5,1 C 7,6 C 6,4 km/h (2 Bft) 95,83 %
15.04.2018 06:16 7,6 C 11,1 C 84 % 1012,7 hPa 0,0 l/m 4,5 km/h (1 Bft) O 84 0 min 0,000 mm 0,0 UV-I 5 W/m 5,1 C 7,6 C 6,4 km/h (2 Bft) 100,00 %
15.04.2018 06:17 7,6 C 11,1 C 84 % 1012,7 hPa 0,0 l/m 5,6 km/h (1 Bft) O 88 0 min 0,000 mm 0,0 UV-I 5 W/m 5,1 C 7,6 C 6,4 km/h (2 Bft) 95,83 %
15.04.2018 06:18 7,4 C 11,1 C 84 % 1012,7 hPa 0,0 l/m 5,0 km/h (1 Bft) O 101 0 min 0,000 mm 0,0 UV-I 5 W/m 4,9 C 7,4 C 6,4 km/h (2 Bft) 100,00 %
15.04.2018 06:19 7,2 C 11,1 C 84 % 1012,7 hPa 0,0 l/m 4,9 km/h (1 Bft) O-SO 123 0 min 0,000 mm 0,0 UV-I 5 W/m 4,7 C 7,2 C 8,0 km/h (2 Bft) 95,83 %
15.04.2018 06:20 6,9 C 11,1 C 85 % 1012,7 hPa 0,0 l/m 4,9 km/h (1 Bft) O 99 0 min 0,000 mm 0,0 UV-I 5 W/m 4,6 C 6,9 C 6,4 km/h (2 Bft) 100,00 %
15.04.2018 06:21 6,8 C 11,1 C 86 % 1012,7 hPa 0,0 l/m 5,5 km/h (1 Bft) O 92 0 min 0,000 mm 0,0 UV-I 5 W/m 4,6 C 6,8 C 9,7 km/h (2 Bft) 91,67 %
15.04.2018 06:22 6,8 C 11,1 C 86 % 1012,7 hPa 0,0 l/m 6,7 km/h (2 Bft) O-SO 109 0 min 0,000 mm 0,0 UV-I 5 W/m 4,6 C 6,6 C 9,7 km/h (2 Bft) 100,00 %
15.04.2018 06:23 6,9 C 11,1 C 86 % 1012,7 hPa 0,0 l/m 7,6 km/h (2 Bft) O 97 0 min 0,000 mm 0,0 UV-I 6 W/m 4,7 C 5,9 C 11,3 km/h (2 Bft) 96,15 %
15.04.2018 06:24 7,1 C 11,1 C 86 % 1012,7 hPa 0,0 l/m 7,3 km/h (2 Bft) O 96 0 min 0,000 mm 0,0 UV-I 7 W/m 4,9 C 6,4 C 9,7 km/h (2 Bft) 100,00 %
15.04.2018 06:25 7,3 C 11,1 C 86 % 1012,7 hPa 0,0 l/m 7,0 km/h (2 Bft) O 98 0 min 0,000 mm 0,0 UV-I 7 W/m 5,1 C 6,8 C 11,3 km/h (2 Bft) 96,15 %
15.04.2018 06:26 7,6 C 11,1 C 85 % 1012,7 hPa 0,0 l/m 9,2 km/h (2 Bft) O 90 0 min 0,000 mm 0,0 UV-I 7 W/m 5,2 C 5,5 C 12,9 km/h (3 Bft) 96,55 %
15.04.2018 06:27 7,7 C 11,1 C 84 % 1012,7 hPa 0,0 l/m 9,9 km/h (2 Bft) O 90 0 min 0,000 mm 0,0 UV-I 9 W/m 5,2 C 5,1 C 12,9 km/h (3 Bft) 100,00 %
15.04.2018 06:28 7,9 C 11,1 C 83 % 1012,7 hPa 0,0 l/m 8,4 km/h (2 Bft) O 98 0 min 0,000 mm 0,0 UV-I 9 W/m 5,2 C 6,4 C 11,3 km/h (2 Bft) 95,83 %
15.04.2018 06:29 8,1 C 11,1 C 83 % 1012,7 hPa 0,0 l/m 9,3 km/h (2 Bft) O-SO 106 0 min 0,000 mm 0,0 UV-I 9 W/m 5,4 C 5,9 C 11,3 km/h (2 Bft) 100,00 %
15.04.2018 06:30 8,2 C 11,1 C 82 % 1012,7 hPa 0,0 l/m 7,1 km/h (2 Bft) O 87 0 min 0,000 mm 0,0 UV-I 10 W/m 5,3 C 7,7 C 11,3 km/h (2 Bft) 95,83 %
15.04.2018 06:31 8,3 C 11,1 C 81 % 1012,6 hPa 0,0 l/m 11,5 km/h (2 Bft) O 95 0 min 0,000 mm 0,0 UV-I 11 W/m 5,2 C 4,8 C 14,5 km/h (3 Bft) 91,30 %
15.04.2018 06:32 8,4 C 11,1 C 81 % 1012,7 hPa 0,0 l/m 12,5 km/h (3 Bft) O-SO 103 0 min 0,000 mm 0,0 UV-I 11 W/m 5,3 C 4,4 C 17,7 km/h (3 Bft) 100,00 %
15.04.2018 06:33 8,6 C 11,1 C 80 % 1012,7 hPa 0,0 l/m 12,3 km/h (3 Bft) O-SO 118 0 min 0,000 mm 0,0 UV-I 11 W/m 5,3 C 4,7 C 17,7 km/h (3 Bft) 100,00 %
15.04.2018 06:34 8,7 C 11,1 C 80 % 1012,7 hPa 0,0 l/m 6,8 km/h (2 Bft) O 92 0 min 0,000 mm 0,0 UV-I 12 W/m 5,4 C 8,4 C 11,3 km/h (2 Bft) 95,83 %
15.04.2018 06:35 8,8 C 11,1 C 79 % 1012,7 hPa 0,0 l/m 5,0 km/h (1 Bft) O 88 0 min 0,000 mm 0,0 UV-I 12 W/m 5,4 C 8,8 C 9,7 km/h (2 Bft) 91,30 %
15.04.2018 06:36 8,8 C 11,1 C 79 % 1012,7 hPa 0,0 l/m 3,7 km/h (1 Bft) SO 126 0 min 0,000 mm 0,0 UV-I 12 W/m 5,4 C 8,8 C 4,8 km/h (1 Bft) 100,00 %
15.04.2018 06:37 8,7 C 11,1 C 78 % 1012,7 hPa 0,0 l/m 3,8 km/h (1 Bft) O 94 0 min 0,000 mm 0,0 UV-I 13 W/m 5,1 C 8,7 C 6,4 km/h (2 Bft) 100,00 %
15.04.2018 06:38 8,3 C 11,1 C 78 % 1012,7 hPa 0,0 l/m 2,4 km/h (1 Bft) S-SW 206 0 min 0,000 mm 0,0 UV-I 14 W/m 4,7 C 8,3 C 3,2 km/h (1 Bft) 100,00 %
15.04.2018 06:39 7,7 C 11,1 C 79 % 1012,7 hPa 0,0 l/m 2,1 km/h (1 Bft) S-SW 206 0 min 0,000 mm 0,0 UV-I 14 W/m 4,3 C 7,7 C 3,2 km/h (1 Bft) 96,15 %
15.04.2018 06:40 7,2 C 11,1 C 81 % 1012,7 hPa 0,0 l/m 0,3 km/h (0 Bft) S-SW 206 0 min 0,000 mm 0,0 UV-I 14 W/m 4,2 C 7,2 C 1,6 km/h (1 Bft) 100,00 %
15.04.2018 06:41 6,8 C 11,1 C 82 % 1012,7 hPa 0,0 l/m 2,1 km/h (1 Bft) S-SW 206 0 min 0,000 mm 0,0 UV-I 15 W/m 3,9 C 6,8 C 3,2 km/h (1 Bft) 91,30 %
15.04.2018 06:42 6,6 C 11,1 C 84 % 1012,8 hPa 0,0 l/m 2,1 km/h (1 Bft) S-SW 206 0 min 0,000 mm 0,0 UV-I 16 W/m 4,1 C 6,6 C 3,2 km/h (1 Bft) 100,00 %
15.04.2018 06:43 6,5 C 11,1 C 86 % 1012,8 hPa 0,0 l/m 1,7 km/h (1 Bft) S-SW 206 0 min 0,000 mm 0,0 UV-I 17 W/m 4,3 C 6,5 C 3,2 km/h (1 Bft) 100,00 %
15.04.2018 06:44 6,4 C 11,1 C 86 % 1012,8 hPa 0,0 l/m 1,1 km/h (1 Bft) S-SW 206 0 min 0,000 mm 0,0 UV-I 18 W/m 4,2 C 6,4 C 3,2 km/h (1 Bft) 100,00 %
15.04.2018 06:45 6,5 C 11,1 C 87 % 1012,8 hPa 0,0 l/m 0,0 km/h (0 Bft) S-SW 206 0 min 0,000 mm 0,0 UV-I 18 W/m 4,5 C 6,5 C 0,0 km/h (0 Bft) 100,00 %
15.04.2018 06:46 6,5 C 11,1 C 87 % 1012,8 hPa 0,0 l/m 0,0 km/h (0 Bft) S-SW 206 0 min 0,000 mm 0,0 UV-I 19 W/m 4,5 C 6,5 C 0,0 km/h (0 Bft) 100,00 %
15.04.2018 06:47 6,6 C 11,1 C 87 % 1012,8 hPa 0,0 l/m 0,0 km/h (0 Bft) S-SW 206 0 min 0,000 mm 0,0 UV-I 19 W/m 4,6 C 6,6 C 0,0 km/h (0 Bft) 100,00 %
15.04.2018 06:48 6,7 C 11,1 C 87 % 1012,8 hPa 0,0 l/m 0,0 km/h (0 Bft) S-SW 206 0 min 0,000 mm 0,0 UV-I 20 W/m 4,7 C 6,7 C 0,0 km/h (0 Bft) 95,65 %
15.04.2018 06:49 6,8 C 11,1 C 87 % 1012,8 hPa 0,0 l/m 0,6 km/h (0 Bft) S-SW 206 0 min 0,000 mm 0,0 UV-I 21 W/m 4,8 C 6,8 C 1,6 km/h (1 Bft) 96,30 %
15.04.2018 06:50 6,8 C 11,1 C 87 % 1012,8 hPa 0,0 l/m 0,7 km/h (0 Bft) S-SW 206 0 min 0,000 mm 0,0 UV-I 22 W/m 4,8 C 6,8 C 1,6 km/h (1 Bft) 100,00 %
15.04.2018 06:51 6,9 C 11,1 C 87 % 1012,8 hPa 0,0 l/m 1,5 km/h (1 Bft) S-SW 199 0 min 0,000 mm 0,0 UV-I 23 W/m 4,9 C 6,9 C 3,2 km/h (1 Bft) 100,00 %
15.04.2018 06:52 7,0 C 11,1 C 86 % 1012,7 hPa 0,0 l/m 3,2 km/h (1 Bft) O 87 0 min 0,000 mm 0,0 UV-I 23 W/m 4,8 C 7,0 C 6,4 km/h (2 Bft) 90,91 %
15.04.2018 06:53 7,1 C 11,1 C 86 % 1012,8 hPa 0,0 l/m 3,2 km/h (1 Bft) O 86 0 min 0,000 mm 0,0 UV-I 25 W/m 4,9 C 7,1 C 4,8 km/h (1 Bft) 100,00 %
15.04.2018 06:54 7,2 C 11,1 C 86 % 1012,9 hPa 0,0 l/m 3,0 km/h (1 Bft) O 88 0 min 0,000 mm 0,0 UV-I 26 W/m 5,0 C 7,2 C 4,8 km/h (1 Bft) 100,00 %
15.04.2018 06:55 7,3 C 11,1 C 85 % 1012,9 hPa 0,0 l/m 2,8 km/h (1 Bft) O 88 0 min 0,000 mm 0,0 UV-I 26 W/m 4,9 C 7,3 C 4,8 km/h (1 Bft) 100,00 %
15.04.2018 06:56 7,4 C 11,1 C 85 % 1012,9 hPa 0,0 l/m 1,4 km/h (1 Bft) O 88 0 min 0,000 mm 0,0 UV-I 26 W/m 5,0 C 7,4 C 1,6 km/h (1 Bft) 100,00 %
15.04.2018 06:57 7,4 C 11,1 C 85 % 1012,9 hPa 0,0 l/m 0,3 km/h (0 Bft) O 88 0 min 0,000 mm 0,0 UV-I 28 W/m 5,0 C 7,4 C 1,6 km/h (1 Bft) 100,00 %
15.04.2018 06:58 7,5 C 11,1 C 84 % 1012,9 hPa 0,0 l/m 0,0 km/h (0 Bft) O 88 0 min 0,000 mm 0,0 UV-I 28 W/m 5,0 C 7,5 C 0,0 km/h (0 Bft) 95,65 %
15.04.2018 06:59 7,5 C 11,1 C 84 % 1012,9 hPa 0,0 l/m 0,0 km/h (0 Bft) O 88 0 min 0,000 mm 0,0 UV-I 28 W/m 5,0 C 7,5 C 0,0 km/h (0 Bft) 95,83 %
15.04.2018 07:00 7,4 C 11,1 C 84 % 1012,8 hPa 0,0 l/m 1,3 km/h (1 Bft) O 88 0 min 0,025 mm 0,0 UV-I 29 W/m 4,9 C 7,4 C 3,2 km/h (1 Bft) 100,00 %
15.04.2018 07:01 7,3 C 11,1 C 84 % 1012,8 hPa 0,0 l/m 1,5 km/h (1 Bft) O 88 0 min 0,000 mm 0,0 UV-I 30 W/m 4,8 C 7,3 C 3,2 km/h (1 Bft) 100,00 %
15.04.2018 07:02 7,2 C 11,1 C 85 % 1012,8 hPa 0,0 l/m 1,0 km/h (0 Bft) O 88 0 min 0,000 mm 0,0 UV-I 30 W/m 4,9 C 7,2 C 1,6 km/h (1 Bft) 100,00 %
15.04.2018 07:03 7,1 C 11,1 C 85 % 1012,8 hPa 0,0 l/m 2,3 km/h (1 Bft) O 88 0 min 0,000 mm 0,0 UV-I 32 W/m 4,8 C 7,1 C 3,2 km/h (1 Bft) 100,00 %
15.04.2018 07:04 7,1 C 11,1 C 85 % 1012,9 hPa 0,0 l/m 4,0 km/h (1 Bft) W-SW 248 0 min 0,000 mm 0,0 UV-I 32 W/m 4,8 C 7,1 C 4,8 km/h (1 Bft) 100,00 %
15.04.2018 07:05 7,0 C 11,1 C 85 % 1012,9 hPa 0,0 l/m 5,1 km/h (1 Bft) W-SW 248 0 min 0,000 mm 0,0 UV-I 32 W/m 4,7 C 7,0 C 6,4 km/h (2 Bft) 100,00 %
15.04.2018 07:06 6,9 C 11,1 C 85 % 1012,9 hPa 0,0 l/m 9,7 km/h (2 Bft) W-SW 251 0 min 0,000 mm 0,0 UV-I 33 W/m 4,6 C 4,4 C 12,9 km/h (3 Bft) 100,00 %
15.04.2018 07:07 6,8 C 11,1 C 85 % 1012,9 hPa 0,0 l/m 12,0 km/h (2 Bft) SW 233 0 min 0,000 mm 0,0 UV-I 33 W/m 4,5 C 2,8 C 14,5 km/h (3 Bft) 100,00 %
15.04.2018 07:08 6,7 C 11,1 C 85 % 1012,9 hPa 0,0 l/m 8,0 km/h (2 Bft) W-SW 238 0 min 0,000 mm 0,0 UV-I 33 W/m 4,4 C 5,4 C 11,3 km/h (2 Bft) 100,00 %
15.04.2018 07:09 6,7 C 11,1 C 86 % 1012,9 hPa 0,0 l/m 6,5 km/h (2 Bft) SW 228 0 min 0,000 mm 0,0 UV-I 35 W/m 4,5 C 6,6 C 8,0 km/h (2 Bft) 100,00 %
15.04.2018 07:10 6,7 C 11,1 C 87 % 1012,9 hPa 0,0 l/m 5,5 km/h (1 Bft) S-SW 213 0 min 0,000 mm 0,0 UV-I 35 W/m 4,7 C 6,7 C 8,0 km/h (2 Bft) 100,00 %
15.04.2018 07:11 6,7 C 11,1 C 87 % 1012,8 hPa 0,0 l/m 2,4 km/h (1 Bft) S-SW 213 0 min 0,000 mm 0,0 UV-I 36 W/m 4,7 C 6,7 C 4,8 km/h (1 Bft) 100,00 %
15.04.2018 07:12 6,7 C 11,1 C 87 % 1012,8 hPa 0,0 l/m 0,9 km/h (0 Bft) S-SW 213 0 min 0,000 mm 0,0 UV-I 37 W/m 4,7 C 6,7 C 1,6 km/h (1 Bft) 100,00 %
15.04.2018 07:13 6,7 C 11,1 C 87 % 1012,8 hPa 0,0 l/m 0,8 km/h (0 Bft) S-SW 213 0 min 0,000 mm 0,0 UV-I 38 W/m 4,7 C 6,7 C 1,6 km/h (1 Bft) 100,00 %
15.04.2018 07:14 6,7 C 11,1 C 87 % 1012,8 hPa 0,0 l/m 0,3 km/h (0 Bft) S-SW 213 0 min 0,000 mm 0,0 UV-I 39 W/m 4,7 C 6,7 C 1,6 km/h (1 Bft) 100,00 %
15.04.2018 07:15 6,7 C 11,1 C 87 % 1012,8 hPa 0,0 l/m 0,2 km/h (0 Bft) S-SW 213 0 min 0,000 mm 0,0 UV-I 39 W/m 4,7 C 6,7 C 1,6 km/h (1 Bft) 100,00 %
15.04.2018 07:16 6,7 C 11,1 C 87 % 1012,8 hPa 0,0 l/m 1,0 km/h (0 Bft) S-SW 213 0 min 0,000 mm 0,0 UV-I 40 W/m 4,7 C 6,7 C 1,6 km/h (1 Bft) 100,00 %
15.04.2018 07:17 6,7 C 11,1 C 87 % 1012,8 hPa 0,0 l/m 0,0 km/h (0 Bft) S-SW 213 0 min 0,000 mm 0,0 UV-I 41 W/m 4,7 C 6,7 C 0,0 km/h (0 Bft) 95,65 %
15.04.2018 07:18 6,7 C 11,1 C 87 % 1012,9 hPa 0,0 l/m 0,0 km/h (0 Bft) S-SW 213 0 min 0,000 mm 0,0 UV-I 42 W/m 4,7 C 6,7 C 0,0 km/h (0 Bft) 100,00 %
15.04.2018 07:19 6,7 C 11,1 C 88 % 1012,8 hPa 0,0 l/m 0,0 km/h (0 Bft) S-SW 213 0 min 0,000 mm 0,0 UV-I 42 W/m 4,9 C 6,7 C 0,0 km/h (0 Bft) 100,00 %
15.04.2018 07:20 6,6 C 11,1 C 88 % 1012,8 hPa 0,0 l/m 0,0 km/h (0 Bft) S-SW 213 0 min 0,000 mm 0,0 UV-I 42 W/m 4,8 C 6,6 C 0,0 km/h (0 Bft) 100,00 %
15.04.2018 07:21 6,6 C 11,1 C 88 % 1012,7 hPa 0,0 l/m 0,0 km/h (0 Bft) S-SW 213 0 min 0,000 mm 0,0 UV-I 44 W/m 4,8 C 6,6 C 0,0 km/h (0 Bft) 100,00 %
15.04.2018 07:22 6,7 C 11,1 C 88 % 1012,7 hPa 0,0 l/m 0,0 km/h (0 Bft) S-SW 213 0 min 0,000 mm 0,0 UV-I 44 W/m 4,9 C 6,7 C 0,0 km/h (0 Bft) 100,00 %
15.04.2018 07:23 6,7 C 11,1 C 88 % 1012,7 hPa 0,0 l/m 0,0 km/h (0 Bft) S-SW 213 0 min 0,000 mm 0,0 UV-I 44 W/m 4,9 C 6,7 C 0,0 km/h (0 Bft) 100,00 %
15.04.2018 07:24 6,8 C 11,1 C 88 % 1012,7 hPa 0,0 l/m 0,0 km/h (0 Bft) S-SW 213 0 min 0,000 mm 0,0 UV-I 44 W/m 5,0 C 6,8 C 0,0 km/h (0 Bft) 100,00 %
15.04.2018 07:25 6,8 C 11,1 C 88 % 1012,7 hPa 0,0 l/m 0,0 km/h (0 Bft) S-SW 213 0 min 0,000 mm 0,0 UV-I 44 W/m 5,0 C 6,8 C 0,0 km/h (0 Bft) 100,00 %
15.04.2018 07:26 6,8 C 11,1 C 88 % 1012,7 hPa 0,0 l/m 0,0 km/h (0 Bft) S-SW 213 0 min 0,000 mm 0,0 UV-I 46 W/m 5,0 C 6,8 C 0,0 km/h (0 Bft) 100,00 %
15.04.2018 07:27 6,8 C 11,1 C 88 % 1012,7 hPa 0,0 l/m 0,0 km/h (0 Bft) S-SW 213 0 min 0,000 mm 0,0 UV-I 46 W/m 5,0 C 6,8 C 0,0 km/h (0 Bft) 100,00 %
15.04.2018 07:28 6,8 C 11,1 C 88 % 1012,6 hPa 0,0 l/m 0,5 km/h (0 Bft) S-SW 213 0 min 0,000 mm 0,0 UV-I 46 W/m 5,0 C 6,8 C 3,2 km/h (1 Bft) 100,00 %
15.04.2018 07:29 6,9 C 11,1 C 88 % 1012,6 hPa 0,0 l/m 3,1 km/h (1 Bft) S-SW 213 0 min 0,000 mm 0,0 UV-I 46 W/m 5,1 C 6,9 C 4,8 km/h (1 Bft) 100,00 %
15.04.2018 07:30 6,9 C 11,1 C 87 % 1012,6 hPa 0,0 l/m 3,5 km/h (1 Bft) S-SW 213 0 min 0,000 mm 0,0 UV-I 46 W/m 4,9 C 6,9 C 4,8 km/h (1 Bft) 100,00 %
15.04.2018 07:31 6,9 C 11,1 C 88 % 1012,7 hPa 0,0 l/m 3,4 km/h (1 Bft) S-SW 213 0 min 0,000 mm 0,0 UV-I 47 W/m 5,1 C 6,9 C 4,8 km/h (1 Bft) 100,00 %
15.04.2018 07:32 7,0 C 11,1 C 87 % 1012,7 hPa 0,0 l/m 3,0 km/h (1 Bft) S-SW 213 0 min 0,000 mm 0,0 UV-I 47 W/m 5,0 C 7,0 C 3,2 km/h (1 Bft) 95,65 %
15.04.2018 07:33 7,1 C 11,1 C 87 % 1012,7 hPa 0,0 l/m 1,7 km/h (1 Bft) S-SW 213 0 min 0,000 mm 0,0 UV-I 47 W/m 5,1 C 7,1 C 3,2 km/h (1 Bft) 100,00 %
15.04.2018 07:34 7,1 C 11,1 C 87 % 1012,7 hPa 0,0 l/m 0,8 km/h (0 Bft) S-SW 213 0 min 0,000 mm 0,0 UV-I 48 W/m 5,1 C 7,1 C 1,6 km/h (1 Bft) 100,00 %
15.04.2018 07:35 7,1 C 11,1 C 87 % 1012,7 hPa 0,0 l/m 2,3 km/h (1 Bft) S-SW 213 0 min 0,000 mm 0,0 UV-I 49 W/m 5,1 C 7,1 C 3,2 km/h (1 Bft) 100,00 %
15.04.2018 07:36 7,2 C 11,1 C 87 % 1012,7 hPa 0,0 l/m 2,9 km/h (1 Bft) S-SW 213 0 min 0,000 mm 0,0 UV-I 49 W/m 5,2 C 7,2 C 4,8 km/h (1 Bft) 100,00 %
15.04.2018 07:37 7,2 C 11,1 C 87 % 1012,7 hPa 0,0 l/m 0,2 km/h (0 Bft) S-SW 213 0 min 0,000 mm 0,0 UV-I 49 W/m 5,2 C 7,2 C 1,6 km/h (1 Bft) 100,00 %
15.04.2018 07:38 7,2 C 11,1 C 87 % 1012,6 hPa 0,0 l/m 0,1 km/h (0 Bft) S-SW 213 0 min 0,000 mm 0,0 UV-I 49 W/m 5,2 C 7,2 C 1,6 km/h (1 Bft) 86,96 %
15.04.2018 07:39 7,3 C 11,1 C 87 % 1012,6 hPa 0,0 l/m 1,2 km/h (1 Bft) S-SW 213 0 min 0,000 mm 0,0 UV-I 49 W/m 5,3 C 7,3 C 1,6 km/h (1 Bft) 100,00 %
15.04.2018 07:40 7,3 C 11,1 C 87 % 1012,6 hPa 0,0 l/m 0,3 km/h (0 Bft) S-SW 213 0 min 0,000 mm 0,0 UV-I 49 W/m 5,3 C 7,3 C 3,2 km/h (1 Bft) 100,00 %
15.04.2018 07:41 7,3 C 11,1 C 87 % 1012,6 hPa 0,0 l/m 4,0 km/h (1 Bft) S-SW 213 0 min 0,000 mm 0,0 UV-I 49 W/m 5,3 C 7,3 C 4,8 km/h (1 Bft) 100,00 %
15.04.2018 07:42 7,3 C 11,1 C 87 % 1012,6 hPa 0,0 l/m 3,6 km/h (1 Bft) S-SW 213 0 min 0,000 mm 0,0 UV-I 49 W/m 5,3 C 7,3 C 4,8 km/h (1 Bft) 100,00 %
15.04.2018 07:43 7,3 C 11,1 C 87 % 1012,7 hPa 0,0 l/m 2,6 km/h (1 Bft) S-SW 213 0 min 0,000 mm 0,0 UV-I 49 W/m 5,3 C 7,3 C 3,2 km/h (1 Bft) 100,00 %
15.04.2018 07:44 7,3 C 11,1 C 87 % 1012,7 hPa 0,0 l/m 3,1 km/h (1 Bft) S-SW 213 0 min 0,000 mm 0,0 UV-I 49 W/m 5,3 C 7,3 C 3,2 km/h (1 Bft) 95,83 %
15.04.2018 07:45 7,2 C 11,1 C 87 % 1012,6 hPa 0,0 l/m 1,9 km/h (1 Bft) S-SW 213 0 min 0,000 mm 0,0 UV-I 49 W/m 5,2 C 7,2 C 3,2 km/h (1 Bft) 95,65 %
15.04.2018 07:46 7,1 C 11,1 C 88 % 1012,6 hPa 0,0 l/m 2,1 km/h (1 Bft) S-SW 213 0 min 0,000 mm 0,0 UV-I 49 W/m 5,2 C 7,1 C 3,2 km/h (1 Bft) 100,00 %
15.04.2018 07:47 7,1 C 11,1 C 88 % 1012,6 hPa 0,0 l/m 3,4 km/h (1 Bft) S-SW 213 0 min 0,000 mm 0,0 UV-I 49 W/m 5,2 C 7,1 C 4,8 km/h (1 Bft) 95,65 %
15.04.2018 07:48 7,1 C 11,1 C 88 % 1012,7 hPa 0,0 l/m 2,4 km/h (1 Bft) S-SW 213 0 min 0,000 mm 0,0 UV-I 49 W/m 5,2 C 7,1 C 3,2 km/h (1 Bft) 100,00 %
15.04.2018 07:49 7,2 C 11,1 C 87 % 1012,7 hPa 0,0 l/m 1,4 km/h (1 Bft) S-SW 213 0 min 0,000 mm 0,0 UV-I 51 W/m 5,2 C 7,2 C 3,2 km/h (1 Bft) 95,65 %
15.04.2018 07:50 7,3 C 11,1 C 87 % 1012,7 hPa 0,0 l/m 2,2 km/h (1 Bft) S-SW 213 0 min 0,000 mm 0,0 UV-I 51 W/m 5,3 C 7,3 C 3,2 km/h (1 Bft) 100,00 %
15.04.2018 07:51 7,3 C 11,1 C 87 % 1012,7 hPa 0,0 l/m 4,1 km/h (1 Bft) S-SW 213 0 min 0,000 mm 0,0 UV-I 53 W/m 5,3 C 7,3 C 4,8 km/h (1 Bft) 95,65 %
15.04.2018 07:52 7,3 C 11,1 C 87 % 1012,6 hPa 0,0 l/m 0,8 km/h (0 Bft) S-SW 213 0 min 0,000 mm 0,0 UV-I 54 W/m 5,3 C 7,3 C 3,2 km/h (1 Bft) 100,00 %
15.04.2018 07:53 7,3 C 11,1 C 87 % 1012,6 hPa 0,0 l/m 0,0 km/h (0 Bft) S-SW 213 0 min 0,000 mm 0,0 UV-I 54 W/m 5,3 C 7,3 C 0,0 km/h (0 Bft) 95,65 %
15.04.2018 07:54 7,3 C 11,1 C 87 % 1012,7 hPa 0,0 l/m 0,8 km/h (0 Bft) S-SW 213 0 min 0,000 mm 0,0 UV-I 55 W/m 5,3 C 7,3 C 1,6 km/h (1 Bft) 100,00 %
15.04.2018 07:55 7,3 C 11,1 C 87 % 1012,7 hPa 0,0 l/m 2,3 km/h (1 Bft) S-SW 213 0 min 0,000 mm 0,0 UV-I 58 W/m 5,3 C 7,3 C 3,2 km/h (1 Bft) 100,00 %
15.04.2018 07:56 7,3 C 11,1 C 88 % 1012,7 hPa 0,0 l/m 3,6 km/h (1 Bft) S-SW 213 0 min 0,000 mm 0,0 UV-I 60 W/m 5,4 C 7,3 C 4,8 km/h (1 Bft) 100,00 %
15.04.2018 07:57 7,3 C 11,1 C 87 % 1012,7 hPa 0,0 l/m 4,6 km/h (1 Bft) SW 214 0 min 0,000 mm 0,0 UV-I 61 W/m 5,3 C 7,3 C 6,4 km/h (2 Bft) 91,30 %
15.04.2018 07:58 7,3 C 11,1 C 87 % 1012,7 hPa 0,0 l/m 5,1 km/h (1 Bft) SW 224 0 min 0,000 mm 0,0 UV-I 62 W/m 5,3 C 7,3 C 6,4 km/h (2 Bft) 100,00 %
15.04.2018 07:59 7,2 C 11,1 C 87 % 1012,7 hPa 0,0 l/m 6,5 km/h (2 Bft) SW 234 0 min 0,000 mm 0,0 UV-I 62 W/m 5,2 C 7,1 C 8,0 km/h (2 Bft) 100,00 %
15.04.2018 08:00 7,1 C 11,1 C 87 % 1012,7 hPa 0,0 l/m 5,2 km/h (1 Bft) SW 236 0 min 0,026 mm 0,0 UV-I 63 W/m 5,1 C 7,1 C 6,4 km/h (2 Bft) 100,00 %
15.04.2018 08:01 7,0 C 11,1 C 88 % 1012,7 hPa 0,0 l/m 6,7 km/h (2 Bft) W-SW 240 0 min 0,000 mm 0,0 UV-I 63 W/m 5,2 C 6,8 C 8,0 km/h (2 Bft) 100,00 %
15.04.2018 08:02 6,9 C 11,1 C 88 % 1012,6 hPa 0,0 l/m 6,2 km/h (2 Bft) W-SW 240 0 min 0,000 mm 0,0 UV-I 65 W/m 5,1 C 6,9 C 8,0 km/h (2 Bft) 95,65 %
15.04.2018 08:03 6,9 C 11,1 C 88 % 1012,6 hPa 0,0 l/m 5,6 km/h (1 Bft) W-SW 240 0 min 0,000 mm 0,0 UV-I 67 W/m 5,1 C 6,9 C 6,4 km/h (2 Bft) 100,00 %
15.04.2018 08:04 6,9 C 11,1 C 88 % 1012,6 hPa 0,0 l/m 5,2 km/h (1 Bft) W-SW 240 0 min 0,000 mm 0,0 UV-I 68 W/m 5,1 C 6,9 C 6,4 km/h (2 Bft) 100,00 %
15.04.2018 08:05 7,0 C 11,1 C 88 % 1012,6 hPa 0,0 l/m 5,6 km/h (1 Bft) W-SW 240 0 min 0,000 mm 0,0 UV-I 70 W/m 5,2 C 7,0 C 6,4 km/h (2 Bft) 100,00 %
15.04.2018 08:06 7,1 C 11,1 C 88 % 1012,7 hPa 0,0 l/m 5,0 km/h (1 Bft) W-SW 240 0 min 0,000 mm 0,0 UV-I 72 W/m 5,2 C 7,1 C 6,4 km/h (2 Bft) 95,65 %
15.04.2018 08:07 7,1 C 11,1 C 88 % 1012,7 hPa 0,0 l/m 5,0 km/h (1 Bft) W-SW 240 0 min 0,000 mm 0,0 UV-I 74 W/m 5,2 C 7,1 C 6,4 km/h (2 Bft) 100,00 %
15.04.2018 08:08 7,2 C 11,1 C 88 % 1012,6 hPa 0,0 l/m 3,8 km/h (1 Bft) W-SW 240 0 min 0,000 mm 0,0 UV-I 76 W/m 5,3 C 7,2 C 4,8 km/h (1 Bft) 95,65 %
15.04.2018 08:09 7,2 C 11,1 C 87 % 1012,6 hPa 0,0 l/m 4,1 km/h (1 Bft) W-SW 240 0 min 0,000 mm 0,0 UV-I 78 W/m 5,2 C 7,2 C 4,8 km/h (1 Bft) 100,00 %
15.04.2018 08:10 7,2 C 11,1 C 87 % 1012,6 hPa 0,0 l/m 3,3 km/h (1 Bft) SW 234 0 min 0,000 mm 0,0 UV-I 80 W/m 5,2 C 7,2 C 4,8 km/h (1 Bft) 95,65 %
15.04.2018 08:11 7,2 C 11,1 C 87 % 1012,6 hPa 0,0 l/m 2,7 km/h (1 Bft) SW 234 0 min 0,000 mm 0,0 UV-I 82 W/m 5,2 C 7,2 C 3,2 km/h (1 Bft) 100,00 %
15.04.2018 08:12 7,3 C 11,1 C 87 % 1012,5 hPa 0,0 l/m 3,1 km/h (1 Bft) SW 233 0 min 0,000 mm 0,0 UV-I 84 W/m 5,3 C 7,3 C 3,2 km/h (1 Bft) 95,65 %
15.04.2018 08:13 7,3 C 11,1 C 87 % 1012,6 hPa 0,0 l/m 3,4 km/h (1 Bft) SW 232 0 min 0,000 mm 0,0 UV-I 86 W/m 5,3 C 7,3 C 4,8 km/h (1 Bft) 100,00 %
15.04.2018 08:14 7,4 C 11,1 C 87 % 1012,6 hPa 0,0 l/m 2,5 km/h (1 Bft) SW 232 0 min 0,000 mm 0,0 UV-I 88 W/m 5,4 C 7,4 C 3,2 km/h (1 Bft) 95,65 %
15.04.2018 08:15 7,4 C 11,1 C 87 % 1012,6 hPa 0,0 l/m 2,0 km/h (1 Bft) SW 232 0 min 0,000 mm 0,0 UV-I 91 W/m 5,4 C 7,4 C 3,2 km/h (1 Bft) 95,83 %
15.04.2018 08:16 7,6 C 11,1 C 87 % 1012,6 hPa 0,0 l/m 2,5 km/h (1 Bft) SW 232 0 min 0,000 mm 0,0 UV-I 94 W/m 5,6 C 7,6 C 3,2 km/h (1 Bft) 100,00 %
15.04.2018 08:17 7,6 C 11,1 C 87 % 1012,6 hPa 0,0 l/m 1,6 km/h (1 Bft) SW 232 0 min 0,000 mm 0,0 UV-I 96 W/m 5,6 C 7,6 C 3,2 km/h (1 Bft) 96,15 %
15.04.2018 08:18 7,7 C 11,1 C 86 % 1012,6 hPa 0,0 l/m 0,3 km/h (0 Bft) SW 232 0 min 0,000 mm 0,0 UV-I 99 W/m 5,5 C 7,7 C 1,6 km/h (1 Bft) 95,83 %
15.04.2018 08:19 7,7 C 11,1 C 86 % 1012,5 hPa 0,0 l/m 1,7 km/h (1 Bft) SW 232 0 min 0,000 mm 0,0 UV-I 102 W/m 5,5 C 7,7 C 3,2 km/h (1 Bft) 96,15 %
15.04.2018 08:20 7,7 C 11,1 C 86 % 1012,6 hPa 0,0 l/m 2,7 km/h (1 Bft) SW 232 0 min 0,000 mm 0,0 UV-I 106 W/m 5,5 C 7,7 C 3,2 km/h (1 Bft) 100,00 %
15.04.2018 08:21 7,7 C 11,1 C 85 % 1012,6 hPa 0,0 l/m 3,1 km/h (1 Bft) SW 232 0 min 0,000 mm 0,0 UV-I 110 W/m 5,3 C 7,7 C 3,2 km/h (1 Bft) 95,65 %
15.04.2018 08:22 7,8 C 11,1 C 85 % 1012,6 hPa 0,0 l/m 3,6 km/h (1 Bft) SW 231 0 min 0,000 mm 0,0 UV-I 113 W/m 5,4 C 7,8 C 4,8 km/h (1 Bft) 100,00 %
15.04.2018 08:23 7,8 C 11,1 C 86 % 1012,6 hPa 0,0 l/m 3,8 km/h (1 Bft) SW 231 0 min 0,000 mm 0,0 UV-I 117 W/m 5,6 C 7,8 C 4,8 km/h (1 Bft) 91,30 %
15.04.2018 08:24 7,8 C 11,1 C 86 % 1012,6 hPa 0,0 l/m 2,9 km/h (1 Bft) SW 231 0 min 0,000 mm 0,0 UV-I 120 W/m 5,6 C 7,8 C 4,8 km/h (1 Bft) 100,00 %
15.04.2018 08:25 7,8 C 11,1 C 86 % 1012,6 hPa 0,0 l/m 2,1 km/h (1 Bft) SW 231 0 min 0,000 mm 0,0 UV-I 123 W/m 5,6 C 7,8 C 3,2 km/h (1 Bft) 96,15 %
15.04.2018 08:26 7,9 C 11,1 C 87 % 1012,6 hPa 0,0 l/m 3,0 km/h (1 Bft) SW 231 0 min 0,000 mm 0,0 UV-I 126 W/m 5,9 C 7,9 C 3,2 km/h (1 Bft) 95,83 %
15.04.2018 08:27 7,9 C 11,1 C 87 % 1012,6 hPa 0,0 l/m 2,8 km/h (1 Bft) SW 231 0 min 0,000 mm 0,0 UV-I 129 W/m 5,9 C 7,9 C 3,2 km/h (1 Bft) 100,00 %
15.04.2018 08:28 8,1 C 11,1 C 86 % 1012,6 hPa 0,0 l/m 3,3 km/h (1 Bft) W-SW 241 0 min 0,000 mm 0,0 UV-I 132 W/m 5,9 C 8,1 C 4,8 km/h (1 Bft) 95,83 %
15.04.2018 08:29 8,1 C 11,1 C 86 % 1012,7 hPa 0,0 l/m 4,7 km/h (1 Bft) W-SW 242 0 min 0,000 mm 0,0 UV-I 134 W/m 5,9 C 8,1 C 6,4 km/h (2 Bft) 95,65 %
15.04.2018 08:30 8,2 C 11,1 C 85 % 1012,7 hPa 0,0 l/m 5,3 km/h (1 Bft) W-SW 257 0 min 0,000 mm 0,0 UV-I 138 W/m 5,8 C 8,2 C 6,4 km/h (2 Bft) 91,67 %
15.04.2018 08:31 8,2 C 11,1 C 85 % 1012,7 hPa 0,0 l/m 5,0 km/h (1 Bft) W-SW 258 0 min 0,000 mm 0,0 UV-I 141 W/m 5,8 C 8,2 C 6,4 km/h (2 Bft) 100,00 %
15.04.2018 08:32 8,1 C 11,1 C 85 % 1012,6 hPa 0,0 l/m 3,7 km/h (1 Bft) W-SW 250 0 min 0,000 mm 0,0 UV-I 142 W/m 5,7 C 8,1 C 4,8 km/h (1 Bft) 95,83 %
15.04.2018 08:33 8,1 C 11,1 C 86 % 1012,6 hPa 0,0 l/m 4,6 km/h (1 Bft) W-SW 246 0 min 0,000 mm 0,0 UV-I 143 W/m 5,9 C 8,1 C 6,4 km/h (2 Bft) 100,00 %
15.04.2018 08:34 8,1 C 11,1 C 86 % 1012,6 hPa 0,0 l/m 4,6 km/h (1 Bft) W-SW 241 0 min 0,000 mm 0,0 UV-I 145 W/m 5,9 C 8,1 C 6,4 km/h (2 Bft) 95,83 %
15.04.2018 08:35 8,1 C 11,1 C 86 % 1012,6 hPa 0,0 l/m 4,5 km/h (1 Bft) S-SW 207 0 min 0,000 mm 0,0 UV-I 146 W/m 5,9 C 8,1 C 6,4 km/h (2 Bft) 100,00 %
15.04.2018 08:36 8,2 C 11,1 C 86 % 1012,6 hPa 0,0 l/m 3,4 km/h (1 Bft) S-SW 207 0 min 0,000 mm 0,3 UV-I 146 W/m 6,0 C 8,2 C 4,8 km/h (1 Bft) 91,30 %
15.04.2018 08:37 8,2 C 11,1 C 86 % 1012,6 hPa 0,0 l/m 5,2 km/h (1 Bft) S-SW 205 0 min 0,000 mm 0,5 UV-I 148 W/m 6,0 C 8,2 C 6,4 km/h (2 Bft) 91,67 %
15.04.2018 08:38 8,2 C 11,1 C 86 % 1012,6 hPa 0,0 l/m 4,1 km/h (1 Bft) S-SW 205 0 min 0,000 mm 0,5 UV-I 148 W/m 6,0 C 8,2 C 4,8 km/h (1 Bft) 96,15 %
15.04.2018 08:39 8,3 C 11,1 C 86 % 1012,6 hPa 0,0 l/m 3,1 km/h (1 Bft) S-SW 205 0 min 0,000 mm 0,5 UV-I 149 W/m 6,1 C 8,3 C 4,8 km/h (1 Bft) 96,55 %
15.04.2018 08:40 8,3 C 11,1 C 87 % 1012,6 hPa 0,0 l/m 2,7 km/h (1 Bft) S-SW 205 0 min 0,000 mm 0,5 UV-I 151 W/m 6,3 C 8,3 C 4,8 km/h (1 Bft) 100,00 %
15.04.2018 08:41 8,3 C 11,1 C 86 % 1012,6 hPa 0,0 l/m 2,5 km/h (1 Bft) S-SW 205 0 min 0,000 mm 0,5 UV-I 158 W/m 6,1 C 8,3 C 4,8 km/h (1 Bft) 95,65 %
15.04.2018 08:42 8,4 C 11,1 C 85 % 1012,6 hPa 0,0 l/m 5,2 km/h (1 Bft) SW 222 0 min 0,000 mm 0,5 UV-I 152 W/m 6,0 C 8,4 C 6,4 km/h (2 Bft) 95,83 %
15.04.2018 08:43 8,5 C 11,1 C 85 % 1012,6 hPa 0,0 l/m 5,6 km/h (1 Bft) SW 230 0 min 0,000 mm 0,5 UV-I 142 W/m 6,1 C 8,5 C 8,0 km/h (2 Bft) 100,00 %
15.04.2018 08:44 8,6 C 11,1 C 85 % 1012,6 hPa 0,0 l/m 6,2 km/h (2 Bft) W-SW 240 0 min 0,000 mm 0,5 UV-I 170 W/m 6,2 C 8,6 C 8,0 km/h (2 Bft) 95,65 %
15.04.2018 08:45 8,6 C 11,1 C 85 % 1012,6 hPa 0,0 l/m 6,8 km/h (2 Bft) SW 236 1 min 0,000 mm 0,7 UV-I 237 W/m 6,2 C 8,3 C 8,0 km/h (2 Bft) 100,00 %
15.04.2018 08:46 8,7 C 11,1 C 85 % 1012,6 hPa 0,0 l/m 4,6 km/h (1 Bft) W-SW 240 1 min 0,000 mm 0,7 UV-I 325 W/m 6,3 C 8,7 C 6,4 km/h (2 Bft) 85,71 %
15.04.2018 08:47 8,8 C 11,1 C 85 % 1012,7 hPa 0,0 l/m 4,7 km/h (1 Bft) SW 220 1 min 0,000 mm 0,7 UV-I 366 W/m 6,4 C 8,8 C 6,4 km/h (2 Bft) 100,00 %
15.04.2018 08:48 8,8 C 11,1 C 85 % 1012,7 hPa 0,0 l/m 5,4 km/h (1 Bft) SW 221 1 min 0,000 mm 0,6 UV-I 354 W/m 6,4 C 8,8 C 8,0 km/h (2 Bft) 91,30 %
15.04.2018 08:49 8,9 C 11,1 C 84 % 1012,7 hPa 0,0 l/m 6,0 km/h (2 Bft) SW 223 0 min 0,000 mm 0,6 UV-I 158 W/m 6,3 C 8,9 C 6,4 km/h (2 Bft) 96,30 %
15.04.2018 08:50 8,9 C 11,1 C 84 % 1012,7 hPa 0,0 l/m 5,6 km/h (1 Bft) W-SW 238 0 min 0,000 mm 0,6 UV-I 154 W/m 6,3 C 8,9 C 8,0 km/h (2 Bft) 100,00 %
15.04.2018 08:51 9,0 C 11,1 C 84 % 1012,7 hPa 0,0 l/m 5,2 km/h (1 Bft) W-SW 237 0 min 0,000 mm 0,6 UV-I 192 W/m 6,4 C 9,0 C 6,4 km/h (2 Bft) 95,83 %
15.04.2018 08:52 9,1 C 11,1 C 83 % 1012,7 hPa 0,0 l/m 5,1 km/h (1 Bft) S-SW 212 1 min 0,000 mm 0,7 UV-I 239 W/m 6,4 C 9,1 C 6,4 km/h (2 Bft) 100,00 %
15.04.2018 08:53 9,1 C 11,1 C 83 % 1012,6 hPa 0,0 l/m 5,4 km/h (1 Bft) SW 230 1 min 0,000 mm 0,7 UV-I 302 W/m 6,4 C 9,1 C 8,0 km/h (2 Bft) 95,83 %
15.04.2018 08:54 9,2 C 11,1 C 83 % 1012,6 hPa 0,0 l/m 5,2 km/h (1 Bft) W-SW 238 1 min 0,000 mm 0,7 UV-I 317 W/m 6,5 C 9,2 C 6,4 km/h (2 Bft) 100,00 %
15.04.2018 08:55 9,2 C 11,1 C 83 % 1012,6 hPa 0,0 l/m 4,3 km/h (1 Bft) W-SW 241 0 min 0,000 mm 0,7 UV-I 167 W/m 6,5 C 9,2 C 6,4 km/h (2 Bft) 95,83 %
15.04.2018 08:56 9,2 C 11,1 C 83 % 1012,6 hPa 0,0 l/m 3,5 km/h (1 Bft) W-SW 240 0 min 0,000 mm 0,7 UV-I 149 W/m 6,5 C 9,2 C 4,8 km/h (1 Bft) 95,65 %
15.04.2018 08:57 9,3 C 11,1 C 83 % 1012,6 hPa 0,0 l/m 3,4 km/h (1 Bft) S-SW 210 0 min 0,000 mm 0,6 UV-I 135 W/m 6,6 C 9,3 C 4,8 km/h (1 Bft) 95,83 %
15.04.2018 08:58 9,2 C 11,1 C 83 % 1012,6 hPa 0,0 l/m 2,0 km/h (1 Bft) S-SW 210 0 min 0,000 mm 0,6 UV-I 127 W/m 6,5 C 9,2 C 3,2 km/h (1 Bft) 100,00 %
15.04.2018 08:59 9,2 C 11,1 C 83 % 1012,6 hPa 0,0 l/m 2,3 km/h (1 Bft) S-SW 209 0 min 0,000 mm 0,7 UV-I 127 W/m 6,5 C 9,2 C 4,8 km/h (1 Bft) 95,65 %
15.04.2018 09:00 9,1 C 11,1 C 83 % 1012,6 hPa 0,0 l/m 3,2 km/h (1 Bft) S-SW 209 0 min 0,076 mm 0,7 UV-I 141 W/m 6,4 C 9,1 C 4,8 km/h (1 Bft) 95,83 %
15.04.2018 09:01 9,1 C 11,1 C 84 % 1012,5 hPa 0,0 l/m 3,1 km/h (1 Bft) S-SW 209 0 min 0,000 mm 0,7 UV-I 147 W/m 6,5 C 9,1 C 4,8 km/h (1 Bft) 100,00 %
15.04.2018 09:02 9,2 C 11,1 C 84 % 1012,5 hPa 0,0 l/m 2,2 km/h (1 Bft) S-SW 209 0 min 0,000 mm 0,7 UV-I 178 W/m 6,6 C 9,2 C 3,2 km/h (1 Bft) 95,83 %
15.04.2018 09:03 9,3 C 11,1 C 85 % 1012,5 hPa 0,0 l/m 1,5 km/h (1 Bft) S-SW 209 0 min 0,000 mm 0,8 UV-I 213 W/m 6,9 C 9,3 C 3,2 km/h (1 Bft) 95,65 %
15.04.2018 09:04 9,4 C 11,1 C 85 % 1012,5 hPa 0,0 l/m 0,3 km/h (0 Bft) S-SW 209 0 min 0,000 mm 0,8 UV-I 206 W/m 7,0 C 9,4 C 1,6 km/h (1 Bft) 95,83 %
15.04.2018 09:05 9,3 C 11,1 C 83 % 1012,5 hPa 0,0 l/m 1,2 km/h (1 Bft) S-SW 209 0 min 0,000 mm 0,8 UV-I 222 W/m 6,6 C 9,3 C 3,2 km/h (1 Bft) 100,00 %
15.04.2018 09:06 9,3 C 11,1 C 83 % 1012,5 hPa 0,0 l/m 1,5 km/h (1 Bft) S-SW 209 1 min 0,000 mm 0,9 UV-I 312 W/m 6,6 C 9,3 C 3,2 km/h (1 Bft) 95,83 %
15.04.2018 09:07 9,4 C 11,1 C 83 % 1012,5 hPa 0,0 l/m 1,2 km/h (1 Bft) S-SW 209 1 min 0,000 mm 0,9 UV-I 360 W/m 6,7 C 9,4 C 1,6 km/h (1 Bft) 100,00 %
15.04.2018 09:08 9,4 C 11,1 C 82 % 1012,5 hPa 0,0 l/m 1,5 km/h (1 Bft) S-SW 209 1 min 0,000 mm 0,8 UV-I 325 W/m 6,5 C 9,4 C 3,2 km/h (1 Bft) 91,67 %
15.04.2018 09:09 9,4 C 11,1 C 82 % 1012,5 hPa 0,0 l/m 2,5 km/h (1 Bft) S-SW 209 1 min 0,000 mm 0,9 UV-I 276 W/m 6,5 C 9,4 C 3,2 km/h (1 Bft) 100,00 %
15.04.2018 09:10 9,6 C 11,1 C 82 % 1012,5 hPa 0,0 l/m 3,4 km/h (1 Bft) S-SW 209 1 min 0,000 mm 1,0 UV-I 367 W/m 6,7 C 9,6 C 4,8 km/h (1 Bft) 93,33 %
15.04.2018 09:11 9,7 C 11,1 C 83 % 1012,6 hPa 0,0 l/m 5,9 km/h (2 Bft) S-SW 211 1 min 0,000 mm 1,0 UV-I 410 W/m 7,0 C 9,7 C 6,4 km/h (2 Bft) 100,00 %
15.04.2018 09:12 9,9 C 11,1 C 83 % 1012,6 hPa 0,0 l/m 5,7 km/h (1 Bft) W-SW 242 1 min 0,000 mm 1,0 UV-I 402 W/m 7,2 C 9,9 C 8,0 km/h (2 Bft) 95,65 %
15.04.2018 09:13 10,0 C 11,1 C 82 % 1012,7 hPa 0,0 l/m 8,0 km/h (2 Bft) W-SW 244 1 min 0,000 mm 1,0 UV-I 420 W/m 7,1 C 8,9 C 11,3 km/h (2 Bft) 95,83 %
15.04.2018 09:14 10,1 C 11,1 C 81 % 1012,7 hPa 0,0 l/m 6,5 km/h (2 Bft) W-SW 248 1 min 0,000 mm 1,1 UV-I 417 W/m 7,0 C 10,1 C 8,0 km/h (2 Bft) 95,65 %
15.04.2018 09:15 10,1 C 11,1 C 81 % 1012,7 hPa 0,0 l/m 5,9 km/h (2 Bft) SW 226 1 min 0,000 mm 1,1 UV-I 412 W/m 7,0 C 10,1 C 8,0 km/h (2 Bft) 95,83 %
15.04.2018 09:16 10,1 C 11,1 C 81 % 1012,7 hPa 0,0 l/m 4,2 km/h (1 Bft) SW 234 1 min 0,000 mm 1,1 UV-I 405 W/m 7,0 C 10,1 C 6,4 km/h (2 Bft) 91,30 %
15.04.2018 09:17 10,1 C 11,1 C 82 % 1012,6 hPa 0,0 l/m 2,8 km/h (1 Bft) SW 234 1 min 0,000 mm 1,1 UV-I 405 W/m 7,2 C 10,1 C 3,2 km/h (1 Bft) 95,83 %
15.04.2018 09:18 10,1 C 11,1 C 82 % 1012,6 hPa 0,0 l/m 1,9 km/h (1 Bft) SW 234 1 min 0,000 mm 1,0 UV-I 379 W/m 7,2 C 10,1 C 3,2 km/h (1 Bft) 95,65 %
15.04.2018 09:19 10,2 C 11,1 C 82 % 1012,6 hPa 0,0 l/m 1,7 km/h (1 Bft) SW 234 1 min 0,000 mm 1,1 UV-I 367 W/m 7,3 C 10,2 C 3,2 km/h (1 Bft) 95,83 %
15.04.2018 09:20 10,3 C 11,1 C 82 % 1012,5 hPa 0,0 l/m 2,2 km/h (1 Bft) SW 234 1 min 0,000 mm 1,1 UV-I 355 W/m 7,4 C 10,3 C 3,2 km/h (1 Bft) 92,31 %
15.04.2018 09:21 10,3 C 11,1 C 80 % 1012,5 hPa 0,0 l/m 2,4 km/h (1 Bft) SW 234 1 min 0,000 mm 1,1 UV-I 362 W/m 7,0 C 10,3 C 3,2 km/h (1 Bft) 95,83 %
15.04.2018 09:22 10,4 C 11,1 C 79 % 1012,5 hPa 0,0 l/m 2,2 km/h (1 Bft) SW 234 1 min 0,000 mm 1,1 UV-I 362 W/m 6,9 C 10,4 C 3,2 km/h (1 Bft) 95,65 %
15.04.2018 09:23 10,6 C 11,1 C 79 % 1012,6 hPa 0,0 l/m 2,3 km/h (1 Bft) SW 234 0 min 0,000 mm 1,0 UV-I 275 W/m 7,1 C 10,6 C 3,2 km/h (1 Bft) 95,83 %
15.04.2018 09:24 10,7 C 11,1 C 79 % 1012,6 hPa 0,0 l/m 2,6 km/h (1 Bft) SW 234 0 min 0,000 mm 1,0 UV-I 269 W/m 7,2 C 10,7 C 4,8 km/h (1 Bft) 95,65 %
15.04.2018 09:25 10,7 C 11,1 C 77 % 1012,6 hPa 0,0 l/m 3,6 km/h (1 Bft) SW 234 1 min 0,000 mm 1,2 UV-I 336 W/m 6,8 C 10,7 C 4,8 km/h (1 Bft) 100,00 %
15.04.2018 09:26 10,7 C 11,1 C 77 % 1012,6 hPa 0,0 l/m 3,2 km/h (1 Bft) SW 234 1 min 0,000 mm 1,2 UV-I 469 W/m 6,8 C 10,7 C 4,8 km/h (1 Bft) 86,96 %
15.04.2018 09:27 10,8 C 11,1 C 77 % 1012,5 hPa 0,0 l/m 2,8 km/h (1 Bft) SW 234 1 min 0,000 mm 1,1 UV-I 469 W/m 6,9 C 10,8 C 4,8 km/h (1 Bft) 95,83 %
15.04.2018 09:28 10,9 C 11,1 C 79 % 1012,6 hPa 0,0 l/m 3,7 km/h (1 Bft) SW 234 1 min 0,000 mm 1,1 UV-I 420 W/m 7,4 C 10,9 C 6,4 km/h (2 Bft) 95,65 %
15.04.2018 09:29 11,1 C 11,1 C 78 % 1012,6 hPa 0,0 l/m 2,7 km/h (1 Bft) SW 234 1 min 0,000 mm 1,0 UV-I 395 W/m 7,4 C 11,1 C 4,8 km/h (1 Bft) 100,00 %
15.04.2018 09:30 11,2 C 11,1 C 77 % 1012,5 hPa 0,0 l/m 5,0 km/h (1 Bft) SW 217 0 min 0,000 mm 0,9 UV-I 198 W/m 7,3 C 11,2 C 6,4 km/h (2 Bft) 96,15 %
15.04.2018 09:31 11,2 C 11,1 C 76 % 1012,6 hPa 0,0 l/m 3,4 km/h (1 Bft) SW 218 0 min 0,000 mm 1,0 UV-I 226 W/m 7,1 C 11,2 C 4,8 km/h (1 Bft) 100,00 %
15.04.2018 09:32 11,1 C 11,1 C 77 % 1012,6 hPa 0,0 l/m 3,2 km/h (1 Bft) SW 218 0 min 0,000 mm 1,0 UV-I 229 W/m 7,2 C 11,1 C 4,8 km/h (1 Bft) 95,65 %
15.04.2018 09:33 11,0 C 11,1 C 77 % 1012,5 hPa 0,0 l/m 3,4 km/h (1 Bft) SW 218 0 min 0,000 mm 1,0 UV-I 232 W/m 7,1 C 11,0 C 4,8 km/h (1 Bft) 100,00 %
15.04.2018 09:34 10,9 C 11,1 C 76 % 1012,5 hPa 0,0 l/m 2,7 km/h (1 Bft) SW 218 0 min 0,000 mm 1,0 UV-I 253 W/m 6,8 C 10,9 C 3,2 km/h (1 Bft) 95,83 %
15.04.2018 09:35 10,9 C 11,1 C 77 % 1012,6 hPa 0,0 l/m 2,1 km/h (1 Bft) SW 218 1 min 0,000 mm 1,1 UV-I 332 W/m 7,0 C 10,9 C 3,2 km/h (1 Bft) 100,00 %
15.04.2018 09:36 10,9 C 11,1 C 77 % 1012,6 hPa 0,0 l/m 2,9 km/h (1 Bft) SW 218 1 min 0,000 mm 1,1 UV-I 311 W/m 7,0 C 10,9 C 4,8 km/h (1 Bft) 95,83 %
15.04.2018 09:37 11,0 C 11,1 C 78 % 1012,6 hPa 0,0 l/m 2,0 km/h (1 Bft) SW 218 1 min 0,000 mm 1,1 UV-I 366 W/m 7,3 C 11,0 C 3,2 km/h (1 Bft) 95,65 %
15.04.2018 09:38 11,1 C 11,1 C 78 % 1012,6 hPa 0,0 l/m 2,8 km/h (1 Bft) SW 218 1 min 0,000 mm 1,1 UV-I 413 W/m 7,4 C 11,1 C 4,8 km/h (1 Bft) 100,00 %
15.04.2018 09:39 11,1 C 11,1 C 77 % 1012,6 hPa 0,0 l/m 1,0 km/h (0 Bft) SW 218 1 min 0,000 mm 1,0 UV-I 306 W/m 7,2 C 11,1 C 3,2 km/h (1 Bft) 95,65 %
15.04.2018 09:40 11,1 C 11,1 C 78 % 1012,6 hPa 0,0 l/m 1,7 km/h (1 Bft) SW 218 0 min 0,000 mm 1,0 UV-I 205 W/m 7,4 C 11,1 C 3,2 km/h (1 Bft) 100,00 %
15.04.2018 09:41 11,2 C 11,1 C 78 % 1012,5 hPa 0,0 l/m 0,3 km/h (0 Bft) SW 218 0 min 0,000 mm 1,0 UV-I 230 W/m 7,5 C 11,2 C 1,6 km/h (1 Bft) 95,65 %
15.04.2018 09:42 11,2 C 11,1 C 77 % 1012,5 hPa 0,0 l/m 0,9 km/h (0 Bft) SW 218 0 min 0,000 mm 1,0 UV-I 229 W/m 7,3 C 11,2 C 3,2 km/h (1 Bft) 100,00 %
15.04.2018 09:43 11,2 C 11,1 C 77 % 1012,4 hPa 0,0 l/m 0,7 km/h (0 Bft) SW 218 0 min 0,000 mm 1,1 UV-I 248 W/m 7,3 C 11,2 C 3,2 km/h (1 Bft) 95,65 %
15.04.2018 09:44 11,2 C 11,1 C 78 % 1012,4 hPa 0,0 l/m 1,7 km/h (1 Bft) SW 218 0 min 0,000 mm 1,3 UV-I 267 W/m 7,5 C 11,2 C 3,2 km/h (1 Bft) 100,00 %
15.04.2018 09:45 11,2 C 11,1 C 77 % 1012,4 hPa 0,0 l/m 0,6 km/h (0 Bft) SW 218 1 min 0,000 mm 1,4 UV-I 396 W/m 7,3 C 11,2 C 1,6 km/h (1 Bft) 96,15 %
15.04.2018 09:46 11,4 C 11,1 C 78 % 1012,4 hPa 0,0 l/m 1,8 km/h (1 Bft) SW 218 1 min 0,000 mm 1,4 UV-I 427 W/m 7,7 C 11,4 C 3,2 km/h (1 Bft) 95,83 %
15.04.2018 09:47 11,6 C 11,1 C 78 % 1012,4 hPa 0,0 l/m 2,9 km/h (1 Bft) SW 218 1 min 0,000 mm 1,3 UV-I 406 W/m 7,9 C 11,6 C 3,2 km/h (1 Bft) 100,00 %
15.04.2018 09:48 11,6 C 11,1 C 76 % 1012,4 hPa 0,0 l/m 3,5 km/h (1 Bft) SW 218 1 min 0,000 mm 1,2 UV-I 378 W/m 7,5 C 11,6 C 4,8 km/h (1 Bft) 95,83 %
15.04.2018 09:49 11,7 C 11,1 C 76 % 1012,4 hPa 0,0 l/m 3,4 km/h (1 Bft) SW 218 1 min 0,000 mm 1,3 UV-I 309 W/m 7,6 C 11,7 C 4,8 km/h (1 Bft) 100,00 %
15.04.2018 09:50 11,7 C 11,1 C 75 % 1012,4 hPa 0,0 l/m 2,7 km/h (1 Bft) SW 218 1 min 0,000 mm 1,3 UV-I 342 W/m 7,4 C 11,7 C 4,8 km/h (1 Bft) 95,83 %
15.04.2018 09:51 11,7 C 11,1 C 75 % 1012,4 hPa 0,0 l/m 4,7 km/h (1 Bft) SW 236 1 min 0,000 mm 1,3 UV-I 378 W/m 7,4 C 11,7 C 6,4 km/h (2 Bft) 100,00 %
15.04.2018 09:52 11,8 C 11,1 C 75 % 1012,4 hPa 0,0 l/m 5,1 km/h (1 Bft) W-SW 237 1 min 0,000 mm 1,4 UV-I 418 W/m 7,5 C 11,8 C 6,4 km/h (2 Bft) 100,00 %
15.04.2018 09:53 11,8 C 11,1 C 75 % 1012,5 hPa 0,0 l/m 3,8 km/h (1 Bft) W-SW 238 1 min 0,000 mm 1,4 UV-I 390 W/m 7,5 C 11,8 C 4,8 km/h (1 Bft) 100,00 %
15.04.2018 09:54 11,8 C 11,1 C 75 % 1012,4 hPa 0,0 l/m 3,5 km/h (1 Bft) W-SW 238 1 min 0,000 mm 1,4 UV-I 368 W/m 7,5 C 11,8 C 4,8 km/h (1 Bft) 100,00 %
15.04.2018 09:55 11,9 C 11,1 C 76 % 1012,4 hPa 0,0 l/m 1,6 km/h (1 Bft) W-SW 238 1 min 0,000 mm 1,4 UV-I 417 W/m 7,8 C 11,9 C 3,2 km/h (1 Bft) 95,65 %
15.04.2018 09:56 12,1 C 11,1 C 75 % 1012,3 hPa 0,0 l/m 3,1 km/h (1 Bft) W 272 1 min 0,000 mm 1,4 UV-I 471 W/m 7,8 C 12,1 C 4,8 km/h (1 Bft) 100,00 %
15.04.2018 09:57 12,2 C 11,1 C 75 % 1012,3 hPa 0,0 l/m 3,0 km/h (1 Bft) W 273 0 min 0,000 mm 1,3 UV-I 308 W/m 7,9 C 12,2 C 4,8 km/h (1 Bft) 100,00 %
15.04.2018 09:58 12,3 C 11,1 C 75 % 1012,3 hPa 0,0 l/m 2,5 km/h (1 Bft) W 273 0 min 0,000 mm 1,4 UV-I 251 W/m 8,0 C 12,3 C 3,2 km/h (1 Bft) 95,65 %
15.04.2018 09:59 12,4 C 11,1 C 75 % 1012,4 hPa 0,0 l/m 1,9 km/h (1 Bft) W 273 1 min 0,000 mm 1,6 UV-I 493 W/m 8,1 C 12,4 C 3,2 km/h (1 Bft) 100,00 %
15.04.2018 10:00 12,6 C 11,1 C 76 % 1012,3 hPa 0,0 l/m 3,6 km/h (1 Bft) NW 318 1 min 0,178 mm 1,6 UV-I 489 W/m 8,5 C 12,6 C 4,8 km/h (1 Bft) 95,65 %
15.04.2018 10:01 12,7 C 11,1 C 75 % 1012,2 hPa 0,0 l/m 2,0 km/h (1 Bft) NW 318 1 min 0,000 mm 1,6 UV-I 465 W/m 8,4 C 12,7 C 4,8 km/h (1 Bft) 100,00 %
15.04.2018 10:02 12,7 C 11,1 C 73 % 1012,3 hPa 0,0 l/m 0,1 km/h (0 Bft) NW 318 1 min 0,000 mm 1,6 UV-I 479 W/m 8,0 C 12,7 C 1,6 km/h (1 Bft) 100,00 %
15.04.2018 10:03 12,8 C 11,1 C 72 % 1012,3 hPa 0,0 l/m 0,9 km/h (0 Bft) NW 318 1 min 0,000 mm 1,7 UV-I 532 W/m 7,9 C 12,8 C 1,6 km/h (1 Bft) 93,33 %
15.04.2018 10:04 12,8 C 11,1 C 73 % 1012,3 hPa 0,0 l/m 1,1 km/h (1 Bft) NW 318 1 min 0,000 mm 1,8 UV-I 543 W/m 8,1 C 12,8 C 3,2 km/h (1 Bft) 100,00 %
15.04.2018 10:05 12,9 C 11,1 C 74 % 1012,3 hPa 0,0 l/m 3,0 km/h (1 Bft) NO 43 1 min 0,000 mm 1,8 UV-I 528 W/m 8,4 C 12,9 C 4,8 km/h (1 Bft) 91,67 %
15.04.2018 10:06 13,1 C 11,1 C 73 % 1012,3 hPa 0,0 l/m 2,6 km/h (1 Bft) NO 44 1 min 0,000 mm 1,7 UV-I 470 W/m 8,4 C 13,1 C 4,8 km/h (1 Bft) 95,65 %
15.04.2018 10:07 13,2 C 11,1 C 73 % 1012,3 hPa 0,0 l/m 2,6 km/h (1 Bft) NO 44 1 min 0,000 mm 1,7 UV-I 459 W/m 8,5 C 13,2 C 4,8 km/h (1 Bft) 95,83 %
15.04.2018 10:08 13,3 C 11,1 C 71 % 1012,3 hPa 0,0 l/m 1,9 km/h (1 Bft) NO 44 1 min 0,000 mm 1,6 UV-I 394 W/m 8,2 C 13,3 C 3,2 km/h (1 Bft) 100,00 %
15.04.2018 10:09 13,3 C 11,1 C 71 % 1012,3 hPa 0,0 l/m 3,1 km/h (1 Bft) O-NO 57 1 min 0,000 mm 1,5 UV-I 336 W/m 8,2 C 13,3 C 4,8 km/h (1 Bft) 95,83 %
15.04.2018 10:10 13,3 C 11,1 C 71 % 1012,3 hPa 0,0 l/m 2,7 km/h (1 Bft) N-NO 21 1 min 0,000 mm 1,6 UV-I 379 W/m 8,2 C 13,3 C 4,8 km/h (1 Bft) 100,00 %
15.04.2018 10:11 13,2 C 11,1 C 72 % 1012,3 hPa 0,0 l/m 5,2 km/h (1 Bft) N-NO 28 1 min 0,000 mm 1,7 UV-I 442 W/m 8,3 C 13,2 C 6,4 km/h (2 Bft) 100,00 %
15.04.2018 10:12 13,2 C 11,1 C 72 % 1012,3 hPa 0,0 l/m 4,4 km/h (1 Bft) N-NO 28 1 min 0,000 mm 1,6 UV-I 396 W/m 8,3 C 13,2 C 6,4 km/h (2 Bft) 95,83 %
15.04.2018 10:13 13,3 C 11,1 C 72 % 1012,3 hPa 0,0 l/m 3,2 km/h (1 Bft) N-NO 28 1 min 0,000 mm 1,6 UV-I 417 W/m 8,4 C 13,3 C 4,8 km/h (1 Bft) 100,00 %
15.04.2018 10:14 13,4 C 11,1 C 73 % 1012,2 hPa 0,0 l/m 2,0 km/h (1 Bft) N-NO 30 1 min 0,000 mm 1,7 UV-I 469 W/m 8,7 C 13,4 C 3,2 km/h (1 Bft) 95,83 %
15.04.2018 10:15 13,5 C 11,1 C 72 % 1012,2 hPa 0,0 l/m 1,5 km/h (1 Bft) O-NO 68 1 min 0,000 mm 1,8 UV-I 469 W/m 8,6 C 13,5 C 4,8 km/h (1 Bft) 100,00 %
15.04.2018 10:16 13,5 C 11,1 C 72 % 1012,3 hPa 0,0 l/m 3,8 km/h (1 Bft) O-NO 74 1 min 0,000 mm 1,8 UV-I 488 W/m 8,6 C 13,5 C 4,8 km/h (1 Bft) 95,83 %
15.04.2018 10:17 13,5 C 11,1 C 72 % 1012,2 hPa 0,0 l/m 3,1 km/h (1 Bft) O-SO 107 1 min 0,000 mm 1,9 UV-I 499 W/m 8,6 C 13,5 C 4,8 km/h (1 Bft) 100,00 %
15.04.2018 10:18 13,5 C 11,1 C 72 % 1012,2 hPa 0,0 l/m 3,2 km/h (1 Bft) O-SO 107 1 min 0,000 mm 1,9 UV-I 508 W/m 8,6 C 13,5 C 4,8 km/h (1 Bft) 95,83 %
15.04.2018 10:19 13,7 C 11,1 C 71 % 1012,2 hPa 0,0 l/m 2,7 km/h (1 Bft) O-SO 107 1 min 0,000 mm 2,0 UV-I 534 W/m 8,5 C 13,7 C 3,2 km/h (1 Bft) 91,30 %
15.04.2018 10:20 13,8 C 11,1 C 71 % 1012,2 hPa 0,0 l/m 1,0 km/h (0 Bft) O-SO 107 1 min 0,000 mm 2,0 UV-I 566 W/m 8,6 C 13,8 C 1,6 km/h (1 Bft) 100,00 %
15.04.2018 10:21 13,9 C 11,1 C 71 % 1012,2 hPa 0,0 l/m 2,7 km/h (1 Bft) NO 36 1 min 0,000 mm 2,1 UV-I 566 W/m 8,7 C 13,9 C 4,8 km/h (1 Bft) 95,65 %
15.04.2018 10:22 14,2 C 11,1 C 73 % 1012,2 hPa 0,0 l/m 3,6 km/h (1 Bft) NO 36 1 min 0,000 mm 2,2 UV-I 597 W/m 9,4 C 14,2 C 4,8 km/h (1 Bft) 100,00 %
15.04.2018 10:23 14,3 C 11,1 C 71 % 1012,2 hPa 0,0 l/m 3,0 km/h (1 Bft) NO 37 1 min 0,000 mm 2,3 UV-I 613 W/m 9,1 C 14,3 C 4,8 km/h (1 Bft) 95,65 %
15.04.2018 10:24 14,4 C 11,1 C 70 % 1012,3 hPa 0,0 l/m 3,8 km/h (1 Bft) NO 36 1 min 0,000 mm 2,3 UV-I 612 W/m 9,0 C 14,4 C 4,8 km/h (1 Bft) 100,00 %
15.04.2018 10:25 14,5 C 11,1 C 70 % 1012,2 hPa 0,0 l/m 3,0 km/h (1 Bft) NO 36 1 min 0,000 mm 2,3 UV-I 609 W/m 9,1 C 14,5 C 3,2 km/h (1 Bft) 91,30 %
15.04.2018 10:26 14,6 C 11,1 C 70 % 1012,2 hPa 0,0 l/m 1,0 km/h (0 Bft) NO 36 1 min 0,000 mm 2,3 UV-I 603 W/m 9,2 C 14,6 C 1,6 km/h (1 Bft) 95,83 %
15.04.2018 10:27 14,7 C 11,1 C 69 % 1012,2 hPa 0,0 l/m 1,5 km/h (1 Bft) NO 36 1 min 0,000 mm 2,4 UV-I 618 W/m 9,1 C 14,7 C 3,2 km/h (1 Bft) 100,00 %
15.04.2018 10:28 14,6 C 11,1 C 69 % 1012,2 hPa 0,0 l/m 0,5 km/h (0 Bft) NO 36 1 min 0,000 mm 2,4 UV-I 636 W/m 9,0 C 14,6 C 1,6 km/h (1 Bft) 95,83 %
15.04.2018 10:29 14,6 C 11,1 C 69 % 1012,2 hPa 0,0 l/m 0,8 km/h (0 Bft) NO 36 1 min 0,000 mm 2,4 UV-I 640 W/m 9,0 C 14,6 C 3,2 km/h (1 Bft) 95,65 %
15.04.2018 10:30 14,6 C 11,1 C 71 % 1012,2 hPa 0,0 l/m 2,5 km/h (1 Bft) NO 40 1 min 0,000 mm 2,5 UV-I 651 W/m 9,4 C 14,6 C 4,8 km/h (1 Bft) 95,83 %
15.04.2018 10:31 14,7 C 11,1 C 70 % 1012,2 hPa 0,0 l/m 2,2 km/h (1 Bft) SO 138 1 min 0,000 mm 2,5 UV-I 658 W/m 9,3 C 14,7 C 4,8 km/h (1 Bft) 96,15 %
15.04.2018 10:32 14,8 C 11,1 C 69 % 1012,2 hPa 0,0 l/m 3,5 km/h (1 Bft) SO 133 1 min 0,000 mm 2,5 UV-I 658 W/m 9,2 C 14,8 C 4,8 km/h (1 Bft) 100,00 %
15.04.2018 10:33 14,9 C 11,1 C 69 % 1012,1 hPa 0,0 l/m 6,0 km/h (2 Bft) O 90 1 min 0,000 mm 2,6 UV-I 672 W/m 9,3 C 14,9 C 11,3 km/h (2 Bft) 91,67 %
15.04.2018 10:34 15,0 C 11,1 C 70 % 1012,1 hPa 0,0 l/m 6,8 km/h (2 Bft) O-SO 110 1 min 0,000 mm 2,6 UV-I 678 W/m 9,6 C 14,8 C 11,3 km/h (2 Bft) 100,00 %
15.04.2018 10:35 15,1 C 11,1 C 69 % 1012,1 hPa 0,0 l/m 6,6 km/h (2 Bft) O 85 1 min 0,000 mm 2,6 UV-I 682 W/m 9,5 C 15,0 C 8,0 km/h (2 Bft) 100,00 %
15.04.2018 10:36 15,2 C 11,1 C 69 % 1012,1 hPa 0,0 l/m 8,3 km/h (2 Bft) O-SO 105 1 min 0,000 mm 2,6 UV-I 692 W/m 9,6 C 14,2 C 11,3 km/h (2 Bft) 100,00 %
15.04.2018 10:37 15,4 C 11,1 C 70 % 1012,1 hPa 0,0 l/m 9,9 km/h (2 Bft) O-SO 104 1 min 0,000 mm 2,6 UV-I 682 W/m 10,0 C 13,6 C 12,9 km/h (3 Bft) 100,00 %
15.04.2018 10:38 15,6 C 11,1 C 68 % 1012,0 hPa 0,0 l/m 9,7 km/h (2 Bft) O 100 1 min 0,000 mm 2,7 UV-I 694 W/m 9,7 C 13,9 C 12,9 km/h (3 Bft) 100,00 %
15.04.2018 10:39 15,6 C 11,1 C 68 % 1012,0 hPa 0,0 l/m 8,5 km/h (2 Bft) O-SO 112 1 min 0,000 mm 2,7 UV-I 710 W/m 9,7 C 14,5 C 12,9 km/h (3 Bft) 95,83 %
15.04.2018 10:40 15,6 C 11,1 C 68 % 1012,0 hPa 0,0 l/m 9,0 km/h (2 Bft) O-SO 109 1 min 0,000 mm 2,6 UV-I 651 W/m 9,7 C 14,2 C 12,9 km/h (3 Bft) 100,00 %
15.04.2018 10:41 15,5 C 11,1 C 68 % 1012,0 hPa 0,0 l/m 7,4 km/h (2 Bft) O-SO 114 1 min 0,000 mm 2,6 UV-I 643 W/m 9,6 C 14,9 C 11,3 km/h (2 Bft) 100,00 %
15.04.2018 10:42 15,6 C 11,1 C 70 % 1012,0 hPa 0,0 l/m 6,2 km/h (2 Bft) O 100 1 min 0,000 mm 2,7 UV-I 682 W/m 10,1 C 15,6 C 11,3 km/h (2 Bft) 95,65 %
15.04.2018 10:43 15,7 C 11,1 C 69 % 1011,9 hPa 0,0 l/m 8,7 km/h (2 Bft) O-SO 103 1 min 0,000 mm 2,8 UV-I 712 W/m 10,0 C 14,5 C 11,3 km/h (2 Bft) 100,00 %
15.04.2018 10:44 15,8 C 11,1 C 69 % 1012,0 hPa 0,0 l/m 5,8 km/h (2 Bft) O-SO 103 1 min 0,000 mm 2,9 UV-I 727 W/m 10,1 C 15,8 C 11,3 km/h (2 Bft) 95,65 %
15.04.2018 10:45 15,9 C 11,1 C 68 % 1011,9 hPa 0,0 l/m 7,2 km/h (2 Bft) O 100 1 min 0,000 mm 2,9 UV-I 737 W/m 10,0 C 15,5 C 9,7 km/h (2 Bft) 95,83 %
15.04.2018 10:46 16,1 C 11,1 C 67 % 1011,9 hPa 0,0 l/m 6,8 km/h (2 Bft) O-SO 112 1 min 0,000 mm 2,9 UV-I 740 W/m 10,0 C 15,9 C 11,3 km/h (2 Bft) 96,15 %
15.04.2018 10:47 16,1 C 11,1 C 68 % 1012,0 hPa 0,0 l/m 9,7 km/h (2 Bft) O-SO 113 1 min 0,000 mm 2,9 UV-I 725 W/m 10,2 C 14,5 C 12,9 km/h (3 Bft) 95,83 %
15.04.2018 10:48 16,2 C 11,1 C 68 % 1012,0 hPa 0,0 l/m 6,1 km/h (2 Bft) NO 52 1 min 0,000 mm 2,9 UV-I 720 W/m 10,3 C 16,2 C 9,7 km/h (2 Bft) 95,83 %
15.04.2018 10:49 16,2 C 11,1 C 68 % 1012,0 hPa 0,0 l/m 6,4 km/h (2 Bft) O-NO 67 1 min 0,000 mm 2,9 UV-I 715 W/m 10,3 C 16,2 C 8,0 km/h (2 Bft) 95,65 %
15.04.2018 10:50 16,3 C 11,1 C 68 % 1011,9 hPa 0,0 l/m 6,6 km/h (2 Bft) O-NO 76 1 min 0,000 mm 2,9 UV-I 724 W/m 10,4 C 16,2 C 11,3 km/h (2 Bft) 100,00 %
15.04.2018 10:51 16,5 C 11,1 C 69 % 1012,0 hPa 0,0 l/m 7,8 km/h (2 Bft) O-NO 60 1 min 0,000 mm 2,9 UV-I 724 W/m 10,8 C 15,8 C 9,7 km/h (2 Bft) 100,00 %
15.04.2018 10:52 16,6 C 11,1 C 66 % 1012,0 hPa 0,0 l/m 5,8 km/h (2 Bft) NO 45 1 min 0,000 mm 2,8 UV-I 672 W/m 10,2 C 16,6 C 8,0 km/h (2 Bft) 100,00 %
15.04.2018 10:53 16,8 C 11,1 C 67 % 1012,0 hPa 0,0 l/m 6,4 km/h (2 Bft) O 85 1 min 0,000 mm 2,7 UV-I 661 W/m 10,6 C 16,8 C 9,7 km/h (2 Bft) 100,00 %
15.04.2018 10:54 16,8 C 11,1 C 66 % 1012,0 hPa 0,0 l/m 7,1 km/h (2 Bft) O-SO 113 1 min 0,000 mm 2,8 UV-I 632 W/m 10,4 C 16,4 C 11,3 km/h (2 Bft) 100,00 %
15.04.2018 10:55 16,8 C 11,1 C 65 % 1012,0 hPa 0,0 l/m 6,4 km/h (2 Bft) O-SO 108 1 min 0,000 mm 2,7 UV-I 624 W/m 10,2 C 16,8 C 11,3 km/h (2 Bft) 100,00 %
15.04.2018 10:56 16,7 C 11,1 C 66 % 1012,0 hPa 0,0 l/m 7,0 km/h (2 Bft) O-NO 61 1 min 0,000 mm 2,5 UV-I 577 W/m 10,3 C 16,4 C 9,7 km/h (2 Bft) 95,83 %
15.04.2018 10:57 16,7 C 11,1 C 67 % 1011,9 hPa 0,0 l/m 3,6 km/h (1 Bft) O 88 1 min 0,000 mm 2,6 UV-I 635 W/m 10,5 C 16,7 C 4,8 km/h (1 Bft) 100,00 %
15.04.2018 10:58 16,8 C 11,1 C 66 % 1012,0 hPa 0,0 l/m 7,6 km/h (2 Bft) O-NO 65 1 min 0,000 mm 2,6 UV-I 626 W/m 10,4 C 16,2 C 8,0 km/h (2 Bft) 100,00 %
15.04.2018 10:59 17,0 C 11,1 C 68 % 1012,0 hPa 0,0 l/m 6,0 km/h (2 Bft) O-SO 110 1 min 0,000 mm 2,5 UV-I 587 W/m 11,0 C 17,0 C 9,7 km/h (2 Bft) 100,00 %
15.04.2018 11:00 17,1 C 11,1 C 67 % 1012,0 hPa 0,0 l/m 5,0 km/h (1 Bft) O-NO 66 1 min 0,330 mm 2,4 UV-I 526 W/m 10,9 C 17,1 C 8,0 km/h (2 Bft) 100,00 %
15.04.2018 11:01 17,2 C 11,1 C 66 % 1012,0 hPa 0,0 l/m 3,7 km/h (1 Bft) NO 45 1 min 0,000 mm 2,4 UV-I 507 W/m 10,8 C 17,2 C 6,4 km/h (2 Bft) 100,00 %
15.04.2018 11:02 17,3 C 11,1 C 67 % 1012,0 hPa 0,0 l/m 7,7 km/h (2 Bft) NO 40 1 min 0,000 mm 2,3 UV-I 496 W/m 11,1 C 16,7 C 9,7 km/h (2 Bft) 100,00 %
15.04.2018 11:03 17,3 C 11,1 C 69 % 1012,0 hPa 0,0 l/m 5,4 km/h (1 Bft) NO 34 1 min 0,000 mm 2,3 UV-I 501 W/m 11,6 C 17,3 C 6,4 km/h (2 Bft) 95,65 %
15.04.2018 11:04 17,4 C 11,1 C 68 % 1012,0 hPa 0,0 l/m 4,6 km/h (1 Bft) NO 36 1 min 0,000 mm 2,2 UV-I 468 W/m 11,4 C 17,4 C 6,4 km/h (2 Bft) 100,00 %
15.04.2018 11:05 17,4 C 11,1 C 66 % 1012,0 hPa 0,0 l/m 3,4 km/h (1 Bft) NO 42 1 min 0,000 mm 2,2 UV-I 457 W/m 11,0 C 17,4 C 4,8 km/h (1 Bft) 100,00 %
15.04.2018 11:06 17,3 C 11,1 C 64 % 1011,9 hPa 0,0 l/m 1,6 km/h (1 Bft) NO 42 1 min 0,000 mm 2,2 UV-I 452 W/m 10,4 C 17,3 C 3,2 km/h (1 Bft) 100,00 %
15.04.2018 11:07 17,1 C 11,1 C 66 % 1011,9 hPa 0,0 l/m 3,4 km/h (1 Bft) O 89 1 min 0,000 mm 2,3 UV-I 483 W/m 10,7 C 17,1 C 6,4 km/h (2 Bft) 100,00 %
15.04.2018 11:08 17,1 C 11,1 C 67 % 1011,9 hPa 0,0 l/m 3,8 km/h (1 Bft) O 96 1 min 0,000 mm 2,3 UV-I 489 W/m 10,9 C 17,1 C 6,4 km/h (2 Bft) 100,00 %
15.04.2018 11:09 17,1 C 11,1 C 66 % 1011,9 hPa 0,0 l/m 4,9 km/h (1 Bft) O-NO 70 1 min 0,000 mm 2,3 UV-I 482 W/m 10,7 C 17,1 C 9,7 km/h (2 Bft) 100,00 %
15.04.2018 11:10 17,1 C 11,1 C 65 % 1011,9 hPa 0,0 l/m 2,3 km/h (1 Bft) O-SO 118 1 min 0,000 mm 2,3 UV-I 479 W/m 10,5 C 17,1 C 4,8 km/h (1 Bft) 95,65 %
15.04.2018 11:11 17,1 C 11,1 C 65 % 1012,0 hPa 0,0 l/m 4,3 km/h (1 Bft) O-SO 121 1 min 0,000 mm 2,3 UV-I 501 W/m 10,5 C 17,1 C 6,4 km/h (2 Bft) 95,83 %
15.04.2018 11:12 17,1 C 11,1 C 65 % 1012,0 hPa 0,0 l/m 3,8 km/h (1 Bft) O-SO 103 1 min 0,000 mm 2,2 UV-I 476 W/m 10,5 C 17,1 C 6,4 km/h (2 Bft) 100,00 %
15.04.2018 11:13 17,1 C 11,1 C 65 % 1012,0 hPa 0,0 l/m 6,3 km/h (2 Bft) O-SO 104 1 min 0,000 mm 2,1 UV-I 405 W/m 10,5 C 17,1 C 11,3 km/h (2 Bft) 100,00 %
15.04.2018 11:14 17,1 C 11,1 C 65 % 1012,0 hPa 0,0 l/m 9,2 km/h (2 Bft) O-SO 108 0 min 0,000 mm 1,9 UV-I 343 W/m 10,5 C 15,8 C 11,3 km/h (2 Bft) 100,00 %
15.04.2018 11:15 17,1 C 11,1 C 65 % 1012,0 hPa 0,0 l/m 4,7 km/h (1 Bft) O 96 0 min 0,000 mm 1,8 UV-I 304 W/m 10,5 C 17,1 C 6,4 km/h (2 Bft) 100,00 %
15.04.2018 11:16 17,1 C 11,1 C 65 % 1011,9 hPa 0,0 l/m 4,9 km/h (1 Bft) N-NO 22 0 min 0,000 mm 1,7 UV-I 291 W/m 10,5 C 17,1 C 6,4 km/h (2 Bft) 95,65 %
15.04.2018 11:17 17,1 C 11,1 C 66 % 1011,9 hPa 0,0 l/m 4,2 km/h (1 Bft) N-NO 26 0 min 0,000 mm 1,7 UV-I 281 W/m 10,7 C 17,1 C 4,8 km/h (1 Bft) 100,00 %
15.04.2018 11:18 17,1 C 11,1 C 66 % 1011,9 hPa 0,0 l/m 3,0 km/h (1 Bft) N-NO 26 0 min 0,000 mm 1,7 UV-I 263 W/m 10,7 C 17,1 C 4,8 km/h (1 Bft) 100,00 %
15.04.2018 11:19 17,1 C 11,1 C 66 % 1011,9 hPa 0,0 l/m 2,7 km/h (1 Bft) N-NO 30 0 min 0,000 mm 1,5 UV-I 237 W/m 10,7 C 17,1 C 4,8 km/h (1 Bft) 100,00 %
15.04.2018 11:20 17,1 C 11,1 C 66 % 1011,8 hPa 0,0 l/m 2,5 km/h (1 Bft) N-NO 32 0 min 0,000 mm 1,4 UV-I 218 W/m 10,7 C 17,1 C 4,8 km/h (1 Bft) 100,00 %
15.04.2018 11:21 17,1 C 11,1 C 67 % 1011,9 hPa 0,0 l/m 3,4 km/h (1 Bft) N-NO 32 0 min 0,000 mm 1,3 UV-I 206 W/m 10,9 C 17,1 C 4,8 km/h (1 Bft) 100,00 %
15.04.2018 11:22 17,1 C 11,1 C 66 % 1011,9 hPa 0,0 l/m 2,5 km/h (1 Bft) N-NO 32 0 min 0,000 mm 1,3 UV-I 202 W/m 10,7 C 17,1 C 3,2 km/h (1 Bft) 100,00 %
15.04.2018 11:23 17,2 C 11,1 C 67 % 1011,9 hPa 0,0 l/m 1,9 km/h (1 Bft) N-NO 32 0 min 0,000 mm 1,3 UV-I 202 W/m 11,0 C 17,2 C 3,2 km/h (1 Bft) 100,00 %
15.04.2018 11:24 17,2 C 11,1 C 66 % 1011,8 hPa 0,0 l/m 1,7 km/h (1 Bft) O-NO 65 0 min 0,000 mm 1,3 UV-I 202 W/m 10,8 C 17,2 C 3,2 km/h (1 Bft) 100,00 %
15.04.2018 11:25 17,1 C 11,1 C 65 % 1011,9 hPa 0,0 l/m 3,2 km/h (1 Bft) O 100 0 min 0,000 mm 1,3 UV-I 202 W/m 10,5 C 17,1 C 6,4 km/h (2 Bft) 100,00 %
15.04.2018 11:26 17,0 C 11,1 C 65 % 1011,8 hPa 0,0 l/m 5,1 km/h (1 Bft) O 101 0 min 0,000 mm 1,2 UV-I 202 W/m 10,4 C 17,0 C 6,4 km/h (2 Bft) 100,00 %
15.04.2018 11:27 16,9 C 11,1 C 66 % 1011,8 hPa 0,0 l/m 5,1 km/h (1 Bft) O-NO 71 0 min 0,000 mm 1,2 UV-I 200 W/m 10,5 C 16,9 C 6,4 km/h (2 Bft) 100,00 %
15.04.2018 11:28 16,8 C 11,1 C 65 % 1011,8 hPa 0,0 l/m 4,2 km/h (1 Bft) O-NO 74 0 min 0,000 mm 1,2 UV-I 200 W/m 10,2 C 16,8 C 4,8 km/h (1 Bft) 100,00 %
15.04.2018 11:29 16,9 C 11,1 C 66 % 1011,8 hPa 0,0 l/m 2,0 km/h (1 Bft) O-NO 74 0 min 0,000 mm 1,2 UV-I 200 W/m 10,5 C 16,9 C 3,2 km/h (1 Bft) 100,00 %
15.04.2018 11:30 16,9 C 11,1 C 66 % 1011,8 hPa 0,0 l/m 0,3 km/h (0 Bft) O-NO 74 0 min 0,000 mm 1,2 UV-I 198 W/m 10,5 C 16,9 C 1,6 km/h (1 Bft) 100,00 %
15.04.2018 11:31 17,0 C 11,1 C 66 % 1011,8 hPa 0,0 l/m 2,4 km/h (1 Bft) O-NO 74 0 min 0,000 mm 1,1 UV-I 194 W/m 10,6 C 17,0 C 4,8 km/h (1 Bft) 100,00 %
15.04.2018 11:32 17,1 C 11,1 C 66 % 1011,8 hPa 0,0 l/m 2,3 km/h (1 Bft) O-NO 74 0 min 0,000 mm 1,1 UV-I 190 W/m 10,7 C 17,1 C 4,8 km/h (1 Bft) 100,00 %
15.04.2018 11:33 17,1 C 11,1 C 66 % 1011,8 hPa 0,0 l/m 2,4 km/h (1 Bft) O-NO 74 0 min 0,000 mm 1,0 UV-I 184 W/m 10,7 C 17,1 C 4,8 km/h (1 Bft) 95,65 %
15.04.2018 11:34 17,1 C 11,1 C 66 % 1011,8 hPa 0,0 l/m 1,8 km/h (1 Bft) O-NO 74 0 min 0,000 mm 1,0 UV-I 180 W/m 10,7 C 17,1 C 3,2 km/h (1 Bft) 100,00 %
15.04.2018 11:35 17,1 C 11,1 C 66 % 1011,8 hPa 0,0 l/m 0,5 km/h (0 Bft) O-NO 74 0 min 0,000 mm 1,0 UV-I 177 W/m 10,7 C 17,1 C 1,6 km/h (1 Bft) 100,00 %
15.04.2018 11:36 17,0 C 11,1 C 67 % 1011,8 hPa 0,0 l/m 1,7 km/h (1 Bft) O-NO 74 0 min 0,000 mm 1,0 UV-I 175 W/m 10,8 C 17,0 C 3,2 km/h (1 Bft) 100,00 %
15.04.2018 11:37 17,0 C 11,1 C 66 % 1011,8 hPa 0,0 l/m 2,0 km/h (1 Bft) O-NO 75 0 min 0,000 mm 0,9 UV-I 172 W/m 10,6 C 17,0 C 3,2 km/h (1 Bft) 100,00 %
15.04.2018 11:38 16,9 C 11,1 C 66 % 1011,8 hPa 0,0 l/m 2,9 km/h (1 Bft) O-NO 74 0 min 0,000 mm 0,9 UV-I 163 W/m 10,5 C 16,9 C 4,8 km/h (1 Bft) 100,00 %
15.04.2018 11:39 16,9 C 11,1 C 66 % 1011,7 hPa 0,0 l/m 3,1 km/h (1 Bft) O-NO 74 0 min 0,000 mm 0,8 UV-I 161 W/m 10,5 C 16,9 C 4,8 km/h (1 Bft) 100,00 %
15.04.2018 11:40 16,9 C 11,1 C 66 % 1011,6 hPa 0,0 l/m 3,7 km/h (1 Bft) O-NO 74 0 min 0,000 mm 0,8 UV-I 156 W/m 10,5 C 16,9 C 4,8 km/h (1 Bft) 95,83 %
15.04.2018 11:41 17,0 C 11,1 C 67 % 1011,6 hPa 0,0 l/m 4,2 km/h (1 Bft) O-NO 74 0 min 0,000 mm 0,8 UV-I 151 W/m 10,8 C 17,0 C 6,4 km/h (2 Bft) 100,00 %
15.04.2018 11:42 17,1 C 11,1 C 68 % 1011,6 hPa 0,0 l/m 4,5 km/h (1 Bft) O-NO 70 0 min 0,000 mm 0,8 UV-I 147 W/m 11,1 C 17,1 C 4,8 km/h (1 Bft) 100,00 %
15.04.2018 11:43 17,1 C 11,1 C 69 % 1011,6 hPa 0,0 l/m 4,3 km/h (1 Bft) O-NO 71 0 min 0,000 mm 0,7 UV-I 143 W/m 11,4 C 17,1 C 4,8 km/h (1 Bft) 100,00 %
15.04.2018 11:44 17,1 C 11,1 C 67 % 1011,6 hPa 0,0 l/m 3,2 km/h (1 Bft) O-NO 77 0 min 0,000 mm 0,7 UV-I 141 W/m 10,9 C 17,1 C 4,8 km/h (1 Bft) 100,00 %
15.04.2018 11:45 17,0 C 11,1 C 67 % 1011,7 hPa 0,0 l/m 4,8 km/h (1 Bft) O 94 0 min 0,000 mm 0,7 UV-I 139 W/m 10,8 C 17,0 C 6,4 km/h (2 Bft) 100,00 %
15.04.2018 11:46 17,0 C 11,1 C 68 % 1011,5 hPa 0,0 l/m 5,6 km/h (1 Bft) O 86 0 min 0,000 mm 0,7 UV-I 139 W/m 11,0 C 17,0 C 6,4 km/h (2 Bft) 100,00 %
15.04.2018 11:47 16,9 C 11,1 C 68 % 1011,5 hPa 0,0 l/m 8,0 km/h (2 Bft) O 79 0 min 0,000 mm 0,7 UV-I 139 W/m 11,0 C 16,1 C 11,3 km/h (2 Bft) 100,00 %
15.04.2018 11:48 16,9 C 11,1 C 68 % 1011,4 hPa 0,0 l/m 5,6 km/h (1 Bft) O 82 0 min 0,000 mm 0,7 UV-I 139 W/m 11,0 C 16,9 C 8,0 km/h (2 Bft) 100,00 %
15.04.2018 11:49 16,9 C 11,1 C 69 % 1011,4 hPa 0,0 l/m 4,2 km/h (1 Bft) O-SO 113 0 min 0,000 mm 0,7 UV-I 139 W/m 11,2 C 16,9 C 6,4 km/h (2 Bft) 96,30 %
15.04.2018 11:50 16,9 C 11,1 C 69 % 1011,5 hPa 0,0 l/m 0,7 km/h (0 Bft) O-SO 113 0 min 0,000 mm 0,7 UV-I 139 W/m 11,2 C 16,9 C 3,2 km/h (1 Bft) 95,65 %
15.04.2018 11:51 17,0 C 11,1 C 69 % 1011,6 hPa 0,0 l/m 0,0 km/h (0 Bft) O-SO 113 0 min 0,000 mm 0,7 UV-I 137 W/m 11,3 C 17,0 C 0,0 km/h (0 Bft) 92,59 %
15.04.2018 11:52 17,0 C 11,1 C 69 % 1011,6 hPa 0,0 l/m 0,0 km/h (0 Bft) O-SO 113 0 min 0,000 mm 0,7 UV-I 137 W/m 11,3 C 17,0 C 0,0 km/h (0 Bft) 91,30 %
15.04.2018 11:53 17,1 C 11,1 C 69 % 1011,6 hPa 0,0 l/m 0,0 km/h (0 Bft) O-SO 113 0 min 0,000 mm 0,7 UV-I 138 W/m 11,4 C 17,1 C 0,0 km/h (0 Bft) 100,00 %
15.04.2018 11:54 17,1 C 11,1 C 68 % 1011,5 hPa 0,0 l/m 0,0 km/h (0 Bft) O-SO 113 0 min 0,000 mm 0,7 UV-I 140 W/m 11,1 C 17,1 C 0,0 km/h (0 Bft) 95,65 %
15.04.2018 11:55 17,0 C 11,1 C 67 % 1011,5 hPa 0,0 l/m 0,0 km/h (0 Bft) O-SO 118 0 min 0,000 mm 0,7 UV-I 142 W/m 10,8 C 17,0 C 0,0 km/h (0 Bft) 100,00 %
15.04.2018 11:56 17,0 C 11,1 C 68 % 1011,5 hPa 0,0 l/m 0,0 km/h (0 Bft) O 100 0 min 0,000 mm 0,7 UV-I 146 W/m 11,0 C 17,0 C 0,0 km/h (0 Bft) 95,65 %
15.04.2018 11:57 17,0 C 11,1 C 68 % 1011,5 hPa 0,0 l/m 1,1 km/h (1 Bft) N-NO 32 0 min 0,000 mm 0,7 UV-I 149 W/m 11,0 C 17,0 C 4,8 km/h (1 Bft) 95,83 %
15.04.2018 11:58 17,1 C 11,1 C 69 % 1011,5 hPa 0,0 l/m 1,3 km/h (1 Bft) N-NO 32 0 min 0,000 mm 0,8 UV-I 154 W/m 11,4 C 17,1 C 3,2 km/h (1 Bft) 95,65 %
15.04.2018 11:59 17,1 C 11,1 C 69 % 1011,5 hPa 0,0 l/m 0,6 km/h (0 Bft) N-NO 32 0 min 0,000 mm 0,8 UV-I 158 W/m 11,4 C 17,1 C 1,6 km/h (1 Bft) 100,00 %
15.04.2018 12:00 17,1 C 11,1 C 69 % 1011,5 hPa 0,0 l/m 0,1 km/h (0 Bft) N-NO 32 0 min 0,152 mm 0,8 UV-I 164 W/m 11,4 C 17,1 C 1,6 km/h (1 Bft) 91,30 %
15.04.2018 12:01 17,0 C 11,1 C 70 % 1011,5 hPa 0,0 l/m 0,1 km/h (0 Bft) N-NO 32 0 min 0,000 mm 0,9 UV-I 170 W/m 11,5 C 17,0 C 1,6 km/h (1 Bft) 95,83 %
15.04.2018 12:02 17,0 C 11,1 C 68 % 1011,6 hPa 0,0 l/m 1,3 km/h (1 Bft) N-NO 32 0 min 0,000 mm 0,9 UV-I 177 W/m 11,0 C 17,0 C 3,2 km/h (1 Bft) 100,00 %
15.04.2018 12:03 17,0 C 11,1 C 68 % 1011,6 hPa 0,0 l/m 0,9 km/h (0 Bft) N-NO 32 0 min 0,000 mm 0,9 UV-I 185 W/m 11,0 C 17,0 C 1,6 km/h (1 Bft) 91,67 %
15.04.2018 12:04 17,0 C 11,1 C 68 % 1011,5 hPa 0,0 l/m 1,3 km/h (1 Bft) N-NO 32 0 min 0,000 mm 0,9 UV-I 193 W/m 11,0 C 17,0 C 1,6 km/h (1 Bft) 100,00 %
15.04.2018 12:05 17,1 C 11,1 C 68 % 1011,5 hPa 0,0 l/m 0,0 km/h (0 Bft) N-NO 32 0 min 0,000 mm 1,0 UV-I 201 W/m 11,1 C 17,1 C 0,0 km/h (0 Bft) 91,67 %
15.04.2018 12:06 17,1 C 11,1 C 68 % 1011,5 hPa 0,0 l/m 0,0 km/h (0 Bft) N-NO 32 0 min 0,000 mm 0,4 UV-I 211 W/m 11,1 C 17,1 C 0,0 km/h (0 Bft) 95,83 %
15.04.2018 12:07 17,1 C 11,1 C 68 % 1011,5 hPa 0,0 l/m 0,8 km/h (0 Bft) N-NO 32 0 min 0,000 mm 0,8 UV-I 222 W/m 11,1 C 17,1 C 3,2 km/h (1 Bft) 91,30 %
15.04.2018 12:08 17,1 C 11,1 C 68 % 1011,5 hPa 0,0 l/m 1,9 km/h (1 Bft) N-NO 32 0 min 0,000 mm 1,2 UV-I 239 W/m 11,1 C 17,1 C 3,2 km/h (1 Bft) 100,00 %
15.04.2018 12:09 17,2 C 11,1 C 69 % 1011,5 hPa 0,0 l/m 2,4 km/h (1 Bft) N-NO 32 0 min 0,000 mm 1,3 UV-I 255 W/m 11,5 C 17,2 C 3,2 km/h (1 Bft) 95,65 %
15.04.2018 12:10 17,2 C 11,1 C 68 % 1011,5 hPa 0,0 l/m 3,0 km/h (1 Bft) N-NO 32 0 min 0,000 mm 1,3 UV-I 269 W/m 11,2 C 17,2 C 4,8 km/h (1 Bft) 95,83 %
15.04.2018 12:11 17,3 C 11,1 C 67 % 1011,6 hPa 0,0 l/m 3,0 km/h (1 Bft) W-NW 294 0 min 0,000 mm 1,4 UV-I 282 W/m 11,1 C 17,3 C 4,8 km/h (1 Bft) 95,65 %
15.04.2018 12:12 17,3 C 11,1 C 67 % 1011,5 hPa 0,0 l/m 2,3 km/h (1 Bft) W-NW 294 0 min 0,000 mm 1,5 UV-I 293 W/m 11,1 C 17,3 C 3,2 km/h (1 Bft) 95,83 %
15.04.2018 12:13 17,3 C 11,1 C 68 % 1011,4 hPa 0,0 l/m 3,1 km/h (1 Bft) W-NW 291 0 min 0,000 mm 1,5 UV-I 303 W/m 11,3 C 17,3 C 4,8 km/h (1 Bft) 90,91 %
15.04.2018 12:14 17,3 C 11,1 C 68 % 1011,4 hPa 0,0 l/m 4,0 km/h (1 Bft) W-NW 290 0 min 0,000 mm 1,6 UV-I 315 W/m 11,3 C 17,3 C 4,8 km/h (1 Bft) 96,30 %
15.04.2018 12:15 17,4 C 11,1 C 67 % 1011,4 hPa 0,0 l/m 3,5 km/h (1 Bft) W-NW 290 0 min 0,000 mm 1,6 UV-I 314 W/m 11,2 C 17,4 C 4,8 km/h (1 Bft) 100,00 %
15.04.2018 12:16 17,4 C 11,1 C 68 % 1011,4 hPa 0,0 l/m 3,4 km/h (1 Bft) W-NW 290 0 min 0,000 mm 1,6 UV-I 310 W/m 11,4 C 17,4 C 4,8 km/h (1 Bft) 95,83 %
15.04.2018 12:17 17,4 C 11,1 C 67 % 1011,4 hPa 0,0 l/m 1,5 km/h (1 Bft) W-NW 290 0 min 0,000 mm 1,6 UV-I 300 W/m 11,2 C 17,4 C 3,2 km/h (1 Bft) 100,00 %
15.04.2018 12:18 17,5 C 11,1 C 68 % 1011,5 hPa 0,0 l/m 1,9 km/h (1 Bft) W-NW 291 0 min 0,000 mm 1,5 UV-I 278 W/m 11,5 C 17,5 C 3,2 km/h (1 Bft) 95,83 %
15.04.2018 12:19 17,6 C 11,1 C 68 % 1011,4 hPa 0,0 l/m 1,7 km/h (1 Bft) W-NW 291 0 min 0,000 mm 1,4 UV-I 258 W/m 11,6 C 17,6 C 3,2 km/h (1 Bft) 100,00 %
15.04.2018 12:20 17,6 C 11,1 C 67 % 1011,4 hPa 0,0 l/m 0,9 km/h (0 Bft) W-NW 292 0 min 0,000 mm 1,3 UV-I 242 W/m 11,4 C 17,6 C 1,6 km/h (1 Bft) 91,67 %
15.04.2018 12:21 17,6 C 11,1 C 67 % 1011,3 hPa 0,0 l/m 3,5 km/h (1 Bft) W-NW 302 0 min 0,000 mm 1,3 UV-I 233 W/m 11,4 C 17,6 C 4,8 km/h (1 Bft) 95,83 %
15.04.2018 12:22 17,6 C 11,1 C 67 % 1011,3 hPa 0,0 l/m 2,5 km/h (1 Bft) W-NW 302 0 min 0,000 mm 1,3 UV-I 226 W/m 11,4 C 17,6 C 3,2 km/h (1 Bft) 100,00 %
15.04.2018 12:23 17,6 C 11,1 C 67 % 1011,3 hPa 0,0 l/m 2,4 km/h (1 Bft) W-NW 302 0 min 0,000 mm 1,2 UV-I 221 W/m 11,4 C 17,6 C 3,2 km/h (1 Bft) 100,00 %
15.04.2018 12:24 17,7 C 11,1 C 67 % 1011,3 hPa 0,0 l/m 2,2 km/h (1 Bft) W-NW 302 0 min 0,000 mm 1,2 UV-I 218 W/m 11,5 C 17,7 C 3,2 km/h (1 Bft) 100,00 %
15.04.2018 12:25 17,7 C 11,1 C 67 % 1011,2 hPa 0,0 l/m 1,7 km/h (1 Bft) W-NW 302 0 min 0,000 mm 1,2 UV-I 218 W/m 11,5 C 17,7 C 3,2 km/h (1 Bft) 100,00 %
15.04.2018 12:26 17,7 C 11,1 C 66 % 1011,2 hPa 0,0 l/m 1,8 km/h (1 Bft) W-NW 302 0 min 0,000 mm 1,1 UV-I 221 W/m 11,3 C 17,7 C 3,2 km/h (1 Bft) 100,00 %
15.04.2018 12:27 17,7 C 11,1 C 66 % 1011,1 hPa 0,0 l/m 1,4 km/h (1 Bft) W-NW 302 0 min 0,000 mm 1,1 UV-I 225 W/m 11,3 C 17,7 C 1,6 km/h (1 Bft) 100,00 %
15.04.2018 12:28 17,7 C 11,1 C 67 % 1011,1 hPa 0,0 l/m 0,2 km/h (0 Bft) W-NW 302 0 min 0,000 mm 1,2 UV-I 229 W/m 11,5 C 17,7 C 1,6 km/h (1 Bft) 100,00 %
15.04.2018 12:29 17,8 C 11,1 C 66 % 1011,1 hPa 0,0 l/m 0,2 km/h (0 Bft) W-NW 302 0 min 0,000 mm 1,2 UV-I 234 W/m 11,4 C 17,8 C 1,6 km/h (1 Bft) 100,00 %
15.04.2018 12:30 17,8 C 11,1 C 66 % 1011,1 hPa 0,0 l/m 3,0 km/h (1 Bft) W-NW 303 0 min 0,000 mm 1,2 UV-I 242 W/m 11,4 C 17,8 C 4,8 km/h (1 Bft) 88,46 %
15.04.2018 12:31 17,9 C 11,1 C 68 % 1011,2 hPa 0,0 l/m 2,6 km/h (1 Bft) W-NW 303 0 min 0,000 mm 1,3 UV-I 257 W/m 11,9 C 17,9 C 3,2 km/h (1 Bft) 100,00 %
15.04.2018 12:32 18,0 C 11,1 C 69 % 1011,1 hPa 0,0 l/m 2,5 km/h (1 Bft) W-NW 303 0 min 0,000 mm 1,3 UV-I 278 W/m 12,2 C 18,0 C 3,2 km/h (1 Bft) 100,00 %
15.04.2018 12:33 18,1 C 11,1 C 67 % 1011,2 hPa 0,0 l/m 3,2 km/h (1 Bft) N-NW 338 0 min 0,000 mm 1,4 UV-I 309 W/m 11,9 C 18,1 C 4,8 km/h (1 Bft) 100,00 %
15.04.2018 12:34 18,1 C 11,1 C 68 % 1011,2 hPa 0,0 l/m 1,0 km/h (0 Bft) N-NW 338 0 min 0,000 mm 1,7 UV-I 345 W/m 12,1 C 18,1 C 1,6 km/h (1 Bft) 95,65 %
15.04.2018 12:35 18,2 C 11,1 C 67 % 1011,2 hPa 0,0 l/m 0,9 km/h (0 Bft) N-NW 338 0 min 0,000 mm 1,9 UV-I 380 W/m 12,0 C 18,2 C 3,2 km/h (1 Bft) 100,00 %
15.04.2018 12:36 18,2 C 11,1 C 66 % 1011,2 hPa 0,0 l/m 0,0 km/h (0 Bft) N-NW 338 0 min 0,000 mm 2,0 UV-I 409 W/m 11,7 C 18,2 C 0,0 km/h (0 Bft) 100,00 %
15.04.2018 12:37 18,2 C 11,1 C 66 % 1011,3 hPa 0,0 l/m 0,2 km/h (0 Bft) N-NW 338 0 min 0,000 mm 2,1 UV-I 427 W/m 11,7 C 18,2 C 1,6 km/h (1 Bft) 100,00 %
15.04.2018 12:38 18,2 C 11,1 C 66 % 1011,2 hPa 0,0 l/m 1,3 km/h (1 Bft) N-NW 338 1 min 0,000 mm 2,2 UV-I 444 W/m 11,7 C 18,2 C 3,2 km/h (1 Bft) 100,00 %
15.04.2018 12:39 18,2 C 11,1 C 66 % 1011,2 hPa 0,0 l/m 1,9 km/h (1 Bft) N-NW 339 1 min 0,000 mm 2,3 UV-I 457 W/m 11,7 C 18,2 C 3,2 km/h (1 Bft) 100,00 %
15.04.2018 12:40 18,3 C 11,1 C 65 % 1011,2 hPa 0,0 l/m 1,9 km/h (1 Bft) N-NW 338 1 min 0,000 mm 2,3 UV-I 454 W/m 11,6 C 18,3 C 3,2 km/h (1 Bft) 100,00 %
15.04.2018 12:41 18,4 C 11,1 C 66 % 1011,2 hPa 0,0 l/m 2,0 km/h (1 Bft) N-NW 338 1 min 0,000 mm 2,3 UV-I 440 W/m 11,9 C 18,4 C 3,2 km/h (1 Bft) 100,00 %
15.04.2018 12:42 18,5 C 11,1 C 65 % 1011,2 hPa 0,0 l/m 2,0 km/h (1 Bft) N-NW 339 1 min 0,000 mm 2,2 UV-I 434 W/m 11,8 C 18,5 C 3,2 km/h (1 Bft) 100,00 %
15.04.2018 12:43 18,6 C 11,1 C 67 % 1011,2 hPa 0,0 l/m 3,3 km/h (1 Bft) N-NW 339 0 min 0,000 mm 2,2 UV-I 425 W/m 12,3 C 18,6 C 4,8 km/h (1 Bft) 95,83 %
15.04.2018 12:44 18,7 C 11,1 C 66 % 1011,2 hPa 0,0 l/m 4,1 km/h (1 Bft) N 11 0 min 0,000 mm 2,2 UV-I 417 W/m 12,2 C 18,7 C 4,8 km/h (1 Bft) 100,00 %
15.04.2018 12:45 18,8 C 11,1 C 64 % 1011,1 hPa 0,0 l/m 3,0 km/h (1 Bft) N 11 1 min 0,000 mm 2,2 UV-I 435 W/m 11,8 C 18,8 C 4,8 km/h (1 Bft) 96,15 %
15.04.2018 12:46 18,8 C 11,1 C 65 % 1011,2 hPa 0,0 l/m 1,5 km/h (1 Bft) N 11 1 min 0,000 mm 2,3 UV-I 472 W/m 12,1 C 18,8 C 3,2 km/h (1 Bft) 100,00 %
15.04.2018 12:47 18,8 C 11,1 C 63 % 1011,2 hPa 0,0 l/m 1,6 km/h (1 Bft) N 5 1 min 0,000 mm 2,5 UV-I 525 W/m 11,6 C 18,8 C 3,2 km/h (1 Bft) 100,00 %
15.04.2018 12:48 18,9 C 11,1 C 63 % 1011,2 hPa 0,0 l/m 2,9 km/h (1 Bft) W-NW 286 1 min 0,000 mm 2,7 UV-I 559 W/m 11,7 C 18,9 C 4,8 km/h (1 Bft) 100,00 %
15.04.2018 12:49 18,9 C 11,1 C 64 % 1011,2 hPa 0,0 l/m 2,2 km/h (1 Bft) W-NW 286 1 min 0,000 mm 2,6 UV-I 535 W/m 11,9 C 18,9 C 3,2 km/h (1 Bft) 95,65 %
15.04.2018 12:50 19,1 C 11,1 C 65 % 1011,2 hPa 0,0 l/m 1,9 km/h (1 Bft) W-NW 303 1 min 0,000 mm 2,6 UV-I 529 W/m 12,4 C 19,1 C 3,2 km/h (1 Bft) 100,00 %
15.04.2018 12:51 19,1 C 11,1 C 63 % 1011,2 hPa 0,0 l/m 0,8 km/h (0 Bft) NW 319 1 min 0,000 mm 2,4 UV-I 491 W/m 11,9 C 19,1 C 3,2 km/h (1 Bft) 100,00 %
15.04.2018 12:52 19,2 C 11,1 C 64 % 1011,2 hPa 0,0 l/m 3,8 km/h (1 Bft) N-NO 31 1 min 0,000 mm 2,2 UV-I 430 W/m 12,2 C 19,2 C 6,4 km/h (2 Bft) 100,00 %
15.04.2018 12:53 19,2 C 11,1 C 62 % 1011,2 hPa 0,0 l/m 4,5 km/h (1 Bft) N-NO 31 0 min 0,000 mm 2,0 UV-I 365 W/m 11,7 C 19,2 C 4,8 km/h (1 Bft) 100,00 %
15.04.2018 12:54 19,1 C 11,1 C 62 % 1011,2 hPa 0,0 l/m 3,5 km/h (1 Bft) N-NO 31 0 min 0,000 mm 1,8 UV-I 327 W/m 11,6 C 19,1 C 4,8 km/h (1 Bft) 100,00 %
15.04.2018 12:55 19,0 C 11,1 C 64 % 1011,2 hPa 0,0 l/m 2,1 km/h (1 Bft) N-NO 31 0 min 0,000 mm 1,7 UV-I 306 W/m 12,0 C 19,0 C 3,2 km/h (1 Bft) 100,00 %
15.04.2018 12:56 19,1 C 11,1 C 65 % 1011,1 hPa 0,0 l/m 2,0 km/h (1 Bft) N-NO 31 0 min 0,000 mm 1,7 UV-I 292 W/m 12,4 C 19,1 C 3,2 km/h (1 Bft) 100,00 %
15.04.2018 12:57 19,1 C 11,1 C 63 % 1011,1 hPa 0,0 l/m 0,8 km/h (0 Bft) N-NO 31 0 min 0,000 mm 1,6 UV-I 284 W/m 11,9 C 19,1 C 3,2 km/h (1 Bft) 100,00 %
15.04.2018 12:58 19,1 C 11,1 C 64 % 1011,1 hPa 0,0 l/m 4,2 km/h (1 Bft) N-NO 31 0 min 0,000 mm 1,5 UV-I 279 W/m 12,1 C 19,1 C 6,4 km/h (2 Bft) 100,00 %
15.04.2018 12:59 19,2 C 11,1 C 62 % 1011,1 hPa 0,0 l/m 4,6 km/h (1 Bft) NO 42 0 min 0,000 mm 1,5 UV-I 278 W/m 11,7 C 19,2 C 6,4 km/h (2 Bft) 100,00 %
15.04.2018 13:00 19,2 C 11,1 C 63 % 1011,0 hPa 0,0 l/m 2,5 km/h (1 Bft) NO 42 0 min 0,000 mm 1,5 UV-I 281 W/m 12,0 C 19,2 C 4,8 km/h (1 Bft) 100,00 %
15.04.2018 13:01 19,3 C 11,1 C 64 % 1011,0 hPa 0,0 l/m 3,4 km/h (1 Bft) NO 44 0 min 0,178 mm 1,5 UV-I 290 W/m 12,3 C 19,3 C 4,8 km/h (1 Bft) 100,00 %
15.04.2018 13:02 19,2 C 11,1 C 64 % 1010,9 hPa 0,0 l/m 2,2 km/h (1 Bft) NO 45 0 min 0,000 mm 1,5 UV-I 304 W/m 12,2 C 19,2 C 3,2 km/h (1 Bft) 95,65 %
15.04.2018 13:03 19,2 C 11,1 C 63 % 1010,9 hPa 0,0 l/m 3,0 km/h (1 Bft) NO 44 0 min 0,000 mm 1,7 UV-I 336 W/m 12,0 C 19,2 C 4,8 km/h (1 Bft) 100,00 %
15.04.2018 13:04 19,2 C 11,1 C 65 % 1010,9 hPa 0,0 l/m 4,7 km/h (1 Bft) NO 45 0 min 0,000 mm 1,9 UV-I 404 W/m 12,5 C 19,2 C 6,4 km/h (2 Bft) 100,00 %
15.04.2018 13:05 19,3 C 11,1 C 66 % 1010,8 hPa 0,0 l/m 4,4 km/h (1 Bft) NO 46 1 min 0,000 mm 2,5 UV-I 432 W/m 12,8 C 19,3 C 4,8 km/h (1 Bft) 100,00 %
15.04.2018 13:06 19,5 C 11,1 C 67 % 1010,8 hPa 0,0 l/m 3,4 km/h (1 Bft) NO 46 1 min 0,000 mm 2,9 UV-I 454 W/m 13,2 C 19,5 C 4,8 km/h (1 Bft) 100,00 %
15.04.2018 13:07 19,7 C 11,1 C 68 % 1010,8 hPa 0,0 l/m 3,0 km/h (1 Bft) NO 46 1 min 0,000 mm 3,2 UV-I 703 W/m 13,6 C 19,7 C 4,8 km/h (1 Bft) 100,00 %
15.04.2018 13:08 19,8 C 11,1 C 63 % 1010,8 hPa 0,0 l/m 3,6 km/h (1 Bft) NO 45 1 min 0,000 mm 3,2 UV-I 694 W/m 12,5 C 19,8 C 4,8 km/h (1 Bft) 100,00 %
15.04.2018 13:09 19,9 C 11,1 C 64 % 1010,8 hPa 0,0 l/m 4,2 km/h (1 Bft) NO 45 1 min 0,000 mm 3,2 UV-I 705 W/m 12,9 C 19,9 C 6,4 km/h (2 Bft) 100,00 %
15.04.2018 13:10 20,1 C 11,1 C 65 % 1010,7 hPa 0,0 l/m 4,8 km/h (1 Bft) O-SO 113 1 min 0,000 mm 3,2 UV-I 706 W/m 13,3 C 20,1 C 8,0 km/h (2 Bft) 100,00 %
15.04.2018 13:11 20,3 C 11,1 C 64 % 1010,7 hPa 0,0 l/m 7,3 km/h (2 Bft) N-NO 32 1 min 0,000 mm 3,1 UV-I 691 W/m 13,3 C 19,9 C 12,9 km/h (3 Bft) 95,83 %
15.04.2018 13:12 20,4 C 11,1 C 62 % 1010,7 hPa 0,0 l/m 8,5 km/h (2 Bft) N 5 1 min 0,000 mm 3,2 UV-I 693 W/m 12,9 C 19,6 C 14,5 km/h (3 Bft) 95,65 %
15.04.2018 13:13 20,5 C 11,1 C 62 % 1010,7 hPa 0,0 l/m 10,5 km/h (2 Bft) O-NO 65 1 min 0,000 mm 3,4 UV-I 710 W/m 13,0 C 19,0 C 14,5 km/h (3 Bft) 100,00 %
15.04.2018 13:14 20,7 C 11,1 C 64 % 1010,7 hPa 0,0 l/m 8,9 km/h (2 Bft) O-NO 57 1 min 0,000 mm 3,2 UV-I 667 W/m 13,6 C 19,8 C 12,9 km/h (3 Bft) 100,00 %
15.04.2018 13:15 20,6 C 11,1 C 58 % 1010,7 hPa 0,0 l/m 11,4 km/h (2 Bft) O-NO 71 1 min 0,000 mm 3,1 UV-I 635 W/m 12,0 C 18,9 C 16,1 km/h (3 Bft) 100,00 %
15.04.2018 13:16 20,6 C 11,1 C 59 % 1010,7 hPa 0,0 l/m 11,0 km/h (2 Bft) O-NO 62 1 min 0,000 mm 3,0 UV-I 654 W/m 12,3 C 19,0 C 16,1 km/h (3 Bft) 95,65 %
15.04.2018 13:17 20,4 C 11,1 C 59 % 1010,6 hPa 0,0 l/m 10,2 km/h (2 Bft) O-NO 71 1 min 0,000 mm 2,8 UV-I 481 W/m 12,1 C 19,0 C 14,5 km/h (3 Bft) 100,00 %
15.04.2018 13:18 20,4 C 11,1 C 59 % 1010,6 hPa 0,0 l/m 12,4 km/h (3 Bft) O 82 1 min 0,000 mm 3,0 UV-I 494 W/m 12,1 C 18,4 C 17,7 km/h (3 Bft) 95,65 %
15.04.2018 13:19 20,3 C 11,1 C 59 % 1010,6 hPa 0,0 l/m 10,2 km/h (2 Bft) O 98 1 min 0,000 mm 3,4 UV-I 494 W/m 12,0 C 18,9 C 16,1 km/h (3 Bft) 100,00 %
15.04.2018 13:20 20,4 C 11,1 C 60 % 1010,6 hPa 0,0 l/m 8,5 km/h (2 Bft) O-SO 105 1 min 0,000 mm 3,5 UV-I 598 W/m 12,4 C 19,6 C 12,9 km/h (3 Bft) 95,83 %
15.04.2018 13:21 20,4 C 11,1 C 60 % 1010,5 hPa 0,0 l/m 9,3 km/h (2 Bft) O-NO 62 1 min 0,000 mm 3,5 UV-I 736 W/m 12,4 C 19,3 C 12,9 km/h (3 Bft) 95,65 %
15.04.2018 13:22 20,6 C 11,1 C 62 % 1010,5 hPa 0,0 l/m 8,0 km/h (2 Bft) O-NO 74 1 min 0,000 mm 3,5 UV-I 737 W/m 13,1 C 20,0 C 11,3 km/h (2 Bft) 100,00 %
15.04.2018 13:23 20,7 C 11,1 C 60 % 1010,5 hPa 0,0 l/m 13,5 km/h (3 Bft) O 93 1 min 0,000 mm 3,5 UV-I 737 W/m 12,7 C 18,5 C 17,7 km/h (3 Bft) 96,15 %
15.04.2018 13:24 20,7 C 11,1 C 59 % 1010,5 hPa 0,0 l/m 11,6 km/h (2 Bft) O 89 1 min 0,000 mm 3,5 UV-I 730 W/m 12,4 C 18,9 C 20,9 km/h (4 Bft) 95,83 %
15.04.2018 13:25 20,7 C 11,1 C 58 % 1010,5 hPa 0,0 l/m 15,8 km/h (3 Bft) O-NO 77 1 min 0,000 mm 3,4 UV-I 720 W/m 12,1 C 17,9 C 20,9 km/h (4 Bft) 100,00 %
15.04.2018 13:26 20,6 C 11,1 C 58 % 1010,5 hPa 0,0 l/m 12,7 km/h (3 Bft) O-NO 77 1 min 0,000 mm 3,4 UV-I 695 W/m 12,0 C 18,5 C 17,7 km/h (3 Bft) 95,83 %
15.04.2018 13:27 20,6 C 11,1 C 59 % 1010,4 hPa 0,0 l/m 14,3 km/h (3 Bft) O-NO 58 1 min 0,000 mm 3,3 UV-I 692 W/m 12,3 C 18,1 C 19,3 km/h (3 Bft) 100,00 %
15.04.2018 13:28 20,6 C 11,1 C 60 % 1010,4 hPa 0,0 l/m 11,3 km/h (2 Bft) O 98 1 min 0,000 mm 3,2 UV-I 684 W/m 12,6 C 18,9 C 16,1 km/h (3 Bft) 94,74 %
15.04.2018 13:29 20,6 C 11,1 C 59 % 1010,4 hPa 0,0 l/m 12,3 km/h (3 Bft) O-NO 65 1 min 0,000 mm 3,3 UV-I 701 W/m 12,3 C 18,6 C 16,1 km/h (3 Bft) 100,00 %
15.04.2018 13:30 20,7 C 11,1 C 61 % 1010,4 hPa 0,0 l/m 9,5 km/h (2 Bft) O 101 1 min 0,000 mm 3,4 UV-I 721 W/m 12,9 C 19,6 C 14,5 km/h (3 Bft) 95,83 %
15.04.2018 13:31 20,7 C 11,1 C 59 % 1010,4 hPa 0,0 l/m 12,9 km/h (3 Bft) O 92 1 min 0,000 mm 3,3 UV-I 710 W/m 12,4 C 18,6 C 16,1 km/h (3 Bft) 95,65 %
15.04.2018 13:32 20,8 C 11,1 C 59 % 1010,4 hPa 0,0 l/m 14,5 km/h (3 Bft) O 101 1 min 0,000 mm 3,3 UV-I 696 W/m 12,5 C 18,3 C 17,7 km/h (3 Bft) 95,83 %
15.04.2018 13:33 20,8 C 11,1 C 57 % 1010,4 hPa 0,0 l/m 8,6 km/h (2 Bft) O 92 1 min 0,000 mm 3,3 UV-I 688 W/m 12,0 C 20,0 C 14,5 km/h (3 Bft) 95,65 %
15.04.2018 13:34 20,9 C 11,1 C 59 % 1010,4 hPa 0,0 l/m 11,7 km/h (2 Bft) O-NO 63 1 min 0,000 mm 3,2 UV-I 678 W/m 12,6 C 19,1 C 16,1 km/h (3 Bft) 100,00 %
15.04.2018 13:35 20,9 C 11,1 C 58 % 1010,4 hPa 0,0 l/m 12,4 km/h (3 Bft) O-NO 70 1 min 0,000 mm 3,2 UV-I 678 W/m 12,3 C 19,0 C 17,7 km/h (3 Bft) 95,83 %
15.04.2018 13:36 20,9 C 11,1 C 59 % 1010,3 hPa 0,0 l/m 9,6 km/h (2 Bft) O-NO 61 1 min 0,000 mm 3,1 UV-I 650 W/m 12,6 C 19,8 C 14,5 km/h (3 Bft) 100,00 %
15.04.2018 13:37 21,1 C 11,1 C 60 % 1010,3 hPa 0,0 l/m 6,1 km/h (2 Bft) NO 54 1 min 0,000 mm 3,1 UV-I 635 W/m 13,0 C 21,1 C 9,7 km/h (2 Bft) 96,15 %
15.04.2018 13:38 21,1 C 11,1 C 59 % 1010,2 hPa 0,0 l/m 13,7 km/h (3 Bft) O-SO 109 1 min 0,000 mm 3,1 UV-I 650 W/m 12,8 C 18,9 C 19,3 km/h (3 Bft) 100,00 %
15.04.2018 13:39 21,1 C 11,1 C 58 % 1010,2 hPa 0,0 l/m 9,2 km/h (2 Bft) O 87 1 min 0,000 mm 3,1 UV-I 654 W/m 12,5 C 20,1 C 16,1 km/h (3 Bft) 95,83 %
15.04.2018 13:40 21,2 C 11,1 C 58 % 1010,3 hPa 0,0 l/m 9,1 km/h (2 Bft) O-SO 106 1 min 0,000 mm 3,1 UV-I 656 W/m 12,6 C 20,2 C 12,9 km/h (3 Bft) 95,65 %
15.04.2018 13:41 21,2 C 11,1 C 57 % 1010,2 hPa 0,0 l/m 9,2 km/h (2 Bft) O 96 1 min 0,000 mm 3,1 UV-I 655 W/m 12,3 C 20,2 C 11,3 km/h (2 Bft) 95,83 %
15.04.2018 13:42 21,2 C 11,1 C 58 % 1010,2 hPa 0,0 l/m 11,5 km/h (2 Bft) O 88 1 min 0,000 mm 3,1 UV-I 636 W/m 12,6 C 19,5 C 20,9 km/h (4 Bft) 91,30 %
15.04.2018 13:43 21,2 C 11,1 C 57 % 1010,2 hPa 0,0 l/m 12,1 km/h (2 Bft) O 98 1 min 0,000 mm 3,1 UV-I 638 W/m 12,3 C 19,4 C 17,7 km/h (3 Bft) 100,00 %
15.04.2018 13:44 21,3 C 11,1 C 58 % 1010,2 hPa 0,0 l/m 15,5 km/h (3 Bft) O 92 1 min 0,000 mm 3,1 UV-I 632 W/m 12,7 C 18,7 C 22,5 km/h (4 Bft) 91,30 %
15.04.2018 13:45 21,4 C 11,1 C 56 % 1010,2 hPa 0,0 l/m 16,4 km/h (3 Bft) O-SO 108 1 min 0,000 mm 3,0 UV-I 629 W/m 12,3 C 18,7 C 22,5 km/h (4 Bft) 95,83 %
15.04.2018 13:46 21,4 C 11,1 C 57 % 1010,2 hPa 0,0 l/m 15,6 km/h (3 Bft) O 91 1 min 0,000 mm 3,0 UV-I 611 W/m 12,5 C 18,8 C 19,3 km/h (3 Bft) 78,57 %
15.04.2018 13:47 21,3 C 11,1 C 55 % 1010,2 hPa 0,0 l/m 18,5 km/h (3 Bft) O-SO 119 1 min 0,000 mm 3,1 UV-I 631 W/m 11,9 C 18,1 C 24,1 km/h (4 Bft) 100,00 %
15.04.2018 13:48 21,3 C 11,1 C 55 % 1010,2 hPa 0,0 l/m 17,0 km/h (3 Bft) O-SO 110 1 min 0,000 mm 3,2 UV-I 683 W/m 11,9 C 18,4 C 22,5 km/h (4 Bft) 86,96 %
15.04.2018 13:49 21,3 C 11,1 C 54 % 1010,2 hPa 0,0 l/m 16,2 km/h (3 Bft) SO 128 1 min 0,000 mm 3,2 UV-I 684 W/m 11,6 C 18,6 C 20,9 km/h (4 Bft) 92,59 %
15.04.2018 13:50 21,4 C 11,1 C 55 % 1010,2 hPa 0,0 l/m 15,8 km/h (3 Bft) SO 126 1 min 0,000 mm 3,2 UV-I 683 W/m 12,0 C 18,8 C 25,7 km/h (4 Bft) 95,65 %
15.04.2018 13:51 21,4 C 11,1 C 55 % 1010,1 hPa 0,0 l/m 17,0 km/h (3 Bft) O-NO 69 1 min 0,000 mm 3,1 UV-I 683 W/m 12,0 C 18,5 C 22,5 km/h (4 Bft) 95,83 %
15.04.2018 13:52 21,5 C 11,1 C 56 % 1010,1 hPa 0,0 l/m 14,8 km/h (3 Bft) O 92 1 min 0,000 mm 3,1 UV-I 676 W/m 12,3 C 19,1 C 20,9 km/h (4 Bft) 95,65 %
15.04.2018 13:53 21,6 C 11,1 C 57 % 1010,1 hPa 0,0 l/m 14,9 km/h (3 Bft) O-SO 121 1 min 0,000 mm 3,1 UV-I 668 W/m 12,7 C 19,2 C 17,7 km/h (3 Bft) 92,59 %
15.04.2018 13:54 21,7 C 11,1 C 57 % 1010,1 hPa 0,0 l/m 18,5 km/h (3 Bft) O-NO 78 1 min 0,000 mm 2,9 UV-I 650 W/m 12,8 C 18,7 C 25,7 km/h (4 Bft) 95,65 %
15.04.2018 13:55 21,7 C 11,1 C 54 % 1010,0 hPa 0,0 l/m 21,9 km/h (4 Bft) O-SO 105 1 min 0,000 mm 2,8 UV-I 650 W/m 12,0 C 18,1 C 27,4 km/h (4 Bft) 95,83 %
15.04.2018 13:56 21,7 C 11,1 C 53 % 1010,1 hPa 0,0 l/m 19,9 km/h (4 Bft) O 96 1 min 0,000 mm 2,7 UV-I 623 W/m 11,7 C 18,4 C 24,1 km/h (4 Bft) 95,65 %
15.04.2018 13:57 21,6 C 11,1 C 53 % 1010,1 hPa 0,0 l/m 15,1 km/h (3 Bft) O-SO 103 1 min 0,000 mm 2,7 UV-I 576 W/m 11,6 C 19,2 C 19,3 km/h (3 Bft) 91,67 %
15.04.2018 13:58 21,6 C 11,1 C 54 % 1010,0 hPa 0,0 l/m 15,9 km/h (3 Bft) O-SO 109 1 min 0,000 mm 2,7 UV-I 595 W/m 11,9 C 19,0 C 22,5 km/h (4 Bft) 95,83 %
15.04.2018 13:59 21,7 C 11,1 C 54 % 1010,0 hPa 0,0 l/m 14,8 km/h (3 Bft) O-SO 117 1 min 0,000 mm 2,5 UV-I 578 W/m 12,0 C 19,4 C 19,3 km/h (3 Bft) 95,65 %
15.04.2018 14:00 21,6 C 11,1 C 54 % 1010,0 hPa 0,0 l/m 17,9 km/h (3 Bft) O 92 1 min 0,432 mm 2,4 UV-I 451 W/m 11,9 C 18,6 C 27,4 km/h (4 Bft) 96,30 %
15.04.2018 14:01 21,6 C 11,7 C 54 % 1010,0 hPa 0,0 l/m 18,8 km/h (3 Bft) O-SO 123 1 min 0,000 mm 2,6 UV-I 512 W/m 11,9 C 18,5 C 27,4 km/h (4 Bft) 90,91 %
15.04.2018 14:02 21,6 C 11,1 C 54 % 1010,0 hPa 0,0 l/m 19,8 km/h (3 Bft) O 95 1 min 0,000 mm 2,9 UV-I 581 W/m 11,9 C 18,3 C 25,7 km/h (4 Bft) 94,44 %
15.04.2018 14:03 21,7 C 11,1 C 54 % 1009,9 hPa 0,0 l/m 19,9 km/h (4 Bft) O 100 1 min 0,000 mm 3,1 UV-I 665 W/m 12,0 C 18,4 C 27,4 km/h (4 Bft) 95,65 %
15.04.2018 14:04 21,7 C 11,1 C 53 % 1009,9 hPa 0,0 l/m 18,8 km/h (3 Bft) O-NO 65 1 min 0,000 mm 3,0 UV-I 671 W/m 11,7 C 18,6 C 27,4 km/h (4 Bft) 95,83 %
15.04.2018 14:05 21,8 C 11,1 C 54 % 1009,9 hPa 0,0 l/m 16,7 km/h (3 Bft) O 96 1 min 0,000 mm 3,0 UV-I 635 W/m 12,1 C 19,1 C 19,3 km/h (3 Bft) 92,86 %
15.04.2018 14:06 21,8 C 11,1 C 55 % 1009,9 hPa 0,0 l/m 14,2 km/h (3 Bft) O-NO 63 1 min 0,000 mm 2,7 UV-I 612 W/m 12,4 C 19,6 C 19,3 km/h (3 Bft) 95,83 %
15.04.2018 14:07 21,8 C 11,1 C 53 % 1009,9 hPa 0,0 l/m 18,6 km/h (3 Bft) O 84 1 min 0,000 mm 2,9 UV-I 639 W/m 11,8 C 18,8 C 22,5 km/h (4 Bft) 96,15 %
15.04.2018 14:08 21,8 C 11,1 C 53 % 1009,9 hPa 0,0 l/m 16,3 km/h (3 Bft) O-NO 62 1 min 0,000 mm 3,0 UV-I 652 W/m 11,8 C 19,2 C 22,5 km/h (4 Bft) 95,83 %
15.04.2018 14:09 21,9 C 11,1 C 54 % 1009,9 hPa 0,0 l/m 16,1 km/h (3 Bft) O-NO 66 1 min 0,000 mm 2,9 UV-I 659 W/m 12,2 C 19,3 C 22,5 km/h (4 Bft) 91,30 %
15.04.2018 14:10 21,9 C 11,7 C 55 % 1009,9 hPa 0,0 l/m 15,6 km/h (3 Bft) NO 53 1 min 0,000 mm 2,9 UV-I 659 W/m 12,4 C 19,4 C 20,9 km/h (4 Bft) 92,59 %
15.04.2018 14:11 21,9 C 11,1 C 53 % 1009,8 hPa 0,0 l/m 19,4 km/h (3 Bft) O-NO 67 1 min 0,000 mm 2,9 UV-I 593 W/m 11,9 C 18,8 C 22,5 km/h (4 Bft) 100,00 %
15.04.2018 14:12 22,0 C 11,1 C 52 % 1009,9 hPa 0,0 l/m 16,9 km/h (3 Bft) O-NO 60 1 min 0,000 mm 2,8 UV-I 615 W/m 11,7 C 19,3 C 20,9 km/h (4 Bft) 95,65 %
15.04.2018 14:13 22,0 C 11,1 C 52 % 1009,8 hPa 0,0 l/m 19,4 km/h (3 Bft) O-NO 67 1 min 0,000 mm 2,7 UV-I 574 W/m 11,7 C 18,9 C 25,7 km/h (4 Bft) 91,67 %
15.04.2018 14:14 22,0 C 11,1 C 52 % 1009,8 hPa 0,0 l/m 22,2 km/h (4 Bft) O-NO 70 1 min 0,000 mm 2,7 UV-I 563 W/m 11,7 C 18,5 C 29,0 km/h (5 Bft) 91,30 %
15.04.2018 14:15 21,9 C 11,1 C 51 % 1009,8 hPa 0,0 l/m 20,5 km/h (4 Bft) O-SO 103 1 min 0,000 mm 2,8 UV-I 607 W/m 11,3 C 18,6 C 24,1 km/h (4 Bft) 96,88 %
15.04.2018 14:16 21,9 C 11,1 C 52 % 1009,9 hPa 0,0 l/m 20,9 km/h (4 Bft) O-NO 78 1 min 0,000 mm 2,8 UV-I 559 W/m 11,6 C 18,5 C 25,7 km/h (4 Bft) 95,83 %
15.04.2018 14:17 21,9 C 11,1 C 51 % 1009,9 hPa 0,0 l/m 20,7 km/h (4 Bft) O-NO 73 1 min 0,000 mm 2,6 UV-I 581 W/m 11,3 C 18,6 C 25,7 km/h (4 Bft) 95,83 %
15.04.2018 14:18 21,8 C 11,1 C 50 % 1009,8 hPa 0,0 l/m 15,8 km/h (3 Bft) O-NO 59 1 min 0,000 mm 2,3 UV-I 541 W/m 10,9 C 19,3 C 19,3 km/h (3 Bft) 85,71 %
15.04.2018 14:19 21,8 C 11,1 C 51 % 1009,8 hPa 0,0 l/m 16,0 km/h (3 Bft) O 96 1 min 0,000 mm 2,4 UV-I 504 W/m 11,2 C 19,2 C 19,3 km/h (3 Bft) 91,67 %
15.04.2018 14:20 21,7 C 11,1 C 52 % 1009,8 hPa 0,0 l/m 14,1 km/h (3 Bft) NO 51 1 min 0,000 mm 2,5 UV-I 489 W/m 11,4 C 19,5 C 17,7 km/h (3 Bft) 100,00 %
15.04.2018 14:21 21,8 C 11,1 C 54 % 1009,7 hPa 0,0 l/m 18,3 km/h (3 Bft) NO 39 1 min 0,000 mm 2,6 UV-I 503 W/m 12,1 C 18,8 C 29,0 km/h (5 Bft) 95,83 %
15.04.2018 14:23 21,9 C 11,1 C 52 % 1009,7 hPa 0,0 l/m 17,2 km/h (3 Bft) O-NO 63 2 min 0,000 mm 2,5 UV-I 676 W/m 11,6 C 19,1 C 25,7 km/h (4 Bft) 98,00 %
15.04.2018 14:24 21,9 C 11,1 C 51 % 1009,7 hPa 0,0 l/m 18,4 km/h (3 Bft) O 96 1 min 0,000 mm 1,9 UV-I 531 W/m 11,3 C 18,9 C 24,1 km/h (4 Bft) 95,65 %
15.04.2018 14:25 21,9 C 11,1 C 52 % 1009,7 hPa 0,0 l/m 17,8 km/h (3 Bft) O-SO 102 0 min 0,000 mm 1,8 UV-I 292 W/m 11,6 C 19,0 C 25,7 km/h (4 Bft) 95,83 %
15.04.2018 14:26 21,8 C 11,1 C 50 % 1009,7 hPa 0,0 l/m 19,6 km/h (3 Bft) O-SO 102 0 min 0,000 mm 1,8 UV-I 316 W/m 10,9 C 18,6 C 27,4 km/h (4 Bft) 100,00 %
15.04.2018 14:27 21,8 C 11,1 C 50 % 1009,7 hPa 0,0 l/m 16,8 km/h (3 Bft) O-NO 69 0 min 0,000 mm 2,0 UV-I 350 W/m 10,9 C 19,1 C 22,5 km/h (4 Bft) 92,59 %
15.04.2018 14:28 21,7 C 11,1 C 51 % 1009,6 hPa 0,0 l/m 15,6 km/h (3 Bft) O 90 0 min 0,000 mm 2,3 UV-I 367 W/m 11,1 C 19,2 C 19,3 km/h (3 Bft) 95,65 %
15.04.2018 14:29 21,7 C 11,1 C 52 % 1009,7 hPa 0,0 l/m 16,2 km/h (3 Bft) O-NO 63 1 min 0,000 mm 2,2 UV-I 473 W/m 11,4 C 19,1 C 19,3 km/h (3 Bft) 95,83 %
15.04.2018 14:30 21,7 C 11,7 C 51 % 1009,6 hPa 0,0 l/m 11,7 km/h (2 Bft) O-SO 106 0 min 0,000 mm 2,1 UV-I 385 W/m 11,1 C 20,1 C 14,5 km/h (3 Bft) 95,65 %
15.04.2018 14:31 21,7 C 11,1 C 51 % 1009,6 hPa 0,0 l/m 12,3 km/h (3 Bft) O 92 0 min 0,000 mm 1,9 UV-I 368 W/m 11,1 C 19,9 C 19,3 km/h (3 Bft) 100,00 %
15.04.2018 14:32 21,7 C 11,1 C 54 % 1009,6 hPa 0,0 l/m 16,1 km/h (3 Bft) O-NO 57 0 min 0,000 mm 2,1 UV-I 378 W/m 12,0 C 19,1 C 20,9 km/h (4 Bft) 93,33 %
15.04.2018 14:33 21,7 C 11,1 C 52 % 1009,5 hPa 0,0 l/m 16,5 km/h (3 Bft) NO 55 1 min 0,000 mm 2,1 UV-I 432 W/m 11,4 C 19,0 C 20,9 km/h (4 Bft) 100,00 %
15.04.2018 14:34 21,8 C 11,1 C 53 % 1009,5 hPa 0,0 l/m 17,8 km/h (3 Bft) NO 55 1 min 0,000 mm 2,4 UV-I 470 W/m 11,8 C 18,9 C 20,9 km/h (4 Bft) 95,83 %
15.04.2018 14:35 21,9 C 11,1 C 52 % 1009,5 hPa 0,0 l/m 19,6 km/h (3 Bft) O-SO 115 1 min 0,000 mm 2,6 UV-I 625 W/m 11,6 C 18,7 C 25,7 km/h (4 Bft) 100,00 %
15.04.2018 14:36 22,1 C 11,1 C 52 % 1009,5 hPa 0,0 l/m 16,2 km/h (3 Bft) O-NO 67 1 min 0,000 mm 2,5 UV-I 598 W/m 11,8 C 19,6 C 22,5 km/h (4 Bft) 95,83 %
15.04.2018 14:37 22,2 C 11,1 C 51 % 1009,5 hPa 0,0 l/m 16,2 km/h (3 Bft) O-NO 58 1 min 0,000 mm 2,6 UV-I 644 W/m 11,6 C 19,7 C 20,9 km/h (4 Bft) 100,00 %
15.04.2018 14:38 22,2 C 11,1 C 50 % 1009,5 hPa 0,0 l/m 17,0 km/h (3 Bft) O-NO 67 1 min 0,000 mm 2,6 UV-I 664 W/m 11,3 C 19,5 C 22,5 km/h (4 Bft) 100,00 %
15.04.2018 14:39 22,3 C 11,7 C 51 % 1009,5 hPa 0,0 l/m 14,3 km/h (3 Bft) O-NO 63 1 min 0,000 mm 2,5 UV-I 626 W/m 11,7 C 20,2 C 16,1 km/h (3 Bft) 100,00 %
15.04.2018 14:40 22,3 C 11,1 C 50 % 1009,5 hPa 0,0 l/m 17,1 km/h (3 Bft) O-NO 59 1 min 0,000 mm 2,7 UV-I 657 W/m 11,4 C 19,6 C 22,5 km/h (4 Bft) 100,00 %
15.04.2018 14:41 22,3 C 11,1 C 51 % 1009,5 hPa 0,0 l/m 14,9 km/h (3 Bft) O 92 1 min 0,000 mm 2,7 UV-I 684 W/m 11,7 C 20,1 C 20,9 km/h (4 Bft) 100,00 %
15.04.2018 14:42 22,3 C 11,1 C 49 % 1009,5 hPa 0,0 l/m 16,8 km/h (3 Bft) O-SO 113 1 min 0,000 mm 2,6 UV-I 652 W/m 11,1 C 19,7 C 19,3 km/h (3 Bft) 100,00 %
15.04.2018 14:43 22,3 C 11,1 C 49 % 1009,5 hPa 0,0 l/m 15,0 km/h (3 Bft) O-NO 63 1 min 0,000 mm 2,5 UV-I 623 W/m 11,1 C 20,0 C 19,3 km/h (3 Bft) 100,00 %
15.04.2018 14:44 22,3 C 11,1 C 49 % 1009,5 hPa 0,0 l/m 18,8 km/h (3 Bft) NO 55 1 min 0,000 mm 2,3 UV-I 577 W/m 11,1 C 19,4 C 24,1 km/h (4 Bft) 100,00 %
15.04.2018 14:45 22,2 C 11,1 C 50 % 1009,5 hPa 0,0 l/m 18,0 km/h (3 Bft) NO 39 1 min 0,000 mm 2,2 UV-I 520 W/m 11,3 C 19,4 C 22,5 km/h (4 Bft) 100,00 %
15.04.2018 14:46 22,3 C 11,1 C 51 % 1009,4 hPa 0,0 l/m 15,3 km/h (3 Bft) NO 45 1 min 0,000 mm 2,2 UV-I 550 W/m 11,7 C 20,0 C 20,9 km/h (4 Bft) 100,00 %
15.04.2018 14:47 22,3 C 11,1 C 50 % 1009,4 hPa 0,0 l/m 15,3 km/h (3 Bft) O-NO 64 1 min 0,000 mm 2,3 UV-I 567 W/m 11,4 C 20,0 C 19,3 km/h (3 Bft) 91,30 %
15.04.2018 14:48 22,3 C 11,1 C 51 % 1009,4 hPa 0,0 l/m 20,0 km/h (4 Bft) O-NO 67 1 min 0,000 mm 2,1 UV-I 493 W/m 11,7 C 19,2 C 24,1 km/h (4 Bft) 100,00 %
15.04.2018 14:49 22,3 C 11,1 C 50 % 1009,4 hPa 0,0 l/m 18,9 km/h (3 Bft) O-NO 71 1 min 0,000 mm 2,1 UV-I 520 W/m 11,4 C 19,3 C 22,5 km/h (4 Bft) 100,00 %
15.04.2018 14:50 22,4 C 11,7 C 52 % 1009,3 hPa 0,0 l/m 21,3 km/h (4 Bft) NO 45 1 min 0,000 mm 2,2 UV-I 574 W/m 12,1 C 19,1 C 27,4 km/h (4 Bft) 100,00 %
15.04.2018 14:51 22,5 C 11,1 C 52 % 1009,3 hPa 0,0 l/m 18,2 km/h (3 Bft) NO 40 1 min 0,000 mm 2,2 UV-I 622 W/m 12,1 C 19,7 C 22,5 km/h (4 Bft) 100,00 %
15.04.2018 14:52 22,5 C 11,1 C 50 % 1009,3 hPa 0,0 l/m 14,0 km/h (3 Bft) N-NO 24 1 min 0,000 mm 2,2 UV-I 571 W/m 11,5 C 20,5 C 19,3 km/h (3 Bft) 95,65 %
15.04.2018 14:53 22,6 C 11,1 C 51 % 1009,3 hPa 0,0 l/m 15,4 km/h (3 Bft) O-NO 63 1 min 0,000 mm 2,1 UV-I 476 W/m 11,9 C 20,3 C 19,3 km/h (3 Bft) 100,00 %
15.04.2018 14:54 22,6 C 11,1 C 51 % 1009,3 hPa 0,0 l/m 15,3 km/h (3 Bft) O-NO 57 1 min 0,000 mm 2,0 UV-I 484 W/m 11,9 C 20,3 C 19,3 km/h (3 Bft) 100,00 %
15.04.2018 14:55 22,6 C 11,7 C 48 % 1009,3 hPa 0,0 l/m 13,6 km/h (3 Bft) O 82 1 min 0,000 mm 2,1 UV-I 523 W/m 11,0 C 20,7 C 17,7 km/h (3 Bft) 100,00 %
15.04.2018 14:56 22,5 C 11,7 C 50 % 1009,3 hPa 0,0 l/m 14,5 km/h (3 Bft) O-NO 73 1 min 0,000 mm 1,9 UV-I 520 W/m 11,5 C 20,4 C 19,3 km/h (3 Bft) 100,00 %
15.04.2018 14:57 22,4 C 11,1 C 51 % 1009,3 hPa 0,0 l/m 18,3 km/h (3 Bft) NO 55 1 min 0,000 mm 1,8 UV-I 394 W/m 11,8 C 19,6 C 20,9 km/h (4 Bft) 100,00 %
15.04.2018 14:58 22,4 C 11,1 C 51 % 1009,3 hPa 0,0 l/m 16,8 km/h (3 Bft) N-NO 32 0 min 0,000 mm 1,6 UV-I 363 W/m 11,8 C 19,8 C 19,3 km/h (3 Bft) 100,00 %
15.04.2018 14:59 22,4 C 11,1 C 50 % 1009,3 hPa 0,0 l/m 17,2 km/h (3 Bft) O-NO 78 0 min 0,000 mm 1,6 UV-I 380 W/m 11,5 C 19,8 C 24,1 km/h (4 Bft) 100,00 %
15.04.2018 15:00 22,3 C 11,1 C 49 % 1009,3 hPa 0,0 l/m 15,4 km/h (3 Bft) NO 55 1 min 0,000 mm 1,7 UV-I 392 W/m 11,1 C 20,0 C 19,3 km/h (3 Bft) 100,00 %
15.04.2018 15:02 22,3 C 11,1 C 51 % 1009,3 hPa 0,0 l/m 13,8 km/h (3 Bft) O 84 0 min 0,432 mm 1,6 UV-I 361 W/m 11,7 C 20,3 C 22,5 km/h (4 Bft) 100,00 %
15.04.2018 15:03 22,2 C 11,1 C 50 % 1009,2 hPa 0,0 l/m 12,1 km/h (2 Bft) NO 55 1 min 0,000 mm 1,7 UV-I 399 W/m 11,3 C 20,5 C 14,5 km/h (3 Bft) 95,83 %
15.04.2018 15:04 22,2 C 11,1 C 50 % 1009,2 hPa 0,0 l/m 12,6 km/h (3 Bft) NO 53 1 min 0,000 mm 1,8 UV-I 461 W/m 11,3 C 20,4 C 17,7 km/h (3 Bft) 100,00 %
15.04.2018 15:05 22,2 C 11,7 C 50 % 1009,1 hPa 0,0 l/m 15,3 km/h (3 Bft) N-NO 16 1 min 0,000 mm 1,9 UV-I 480 W/m 11,3 C 19,9 C 20,9 km/h (4 Bft) 100,00 %
15.04.2018 15:06 22,3 C 11,7 C 53 % 1009,1 hPa 0,0 l/m 14,3 km/h (3 Bft) NO 53 1 min 0,000 mm 1,9 UV-I 515 W/m 12,2 C 20,2 C 19,3 km/h (3 Bft) 100,00 %
15.04.2018 15:07 22,4 C 11,1 C 51 % 1009,1 hPa 0,0 l/m 16,4 km/h (3 Bft) O-NO 65 1 min 0,000 mm 2,0 UV-I 527 W/m 11,8 C 19,9 C 19,3 km/h (3 Bft) 100,00 %
15.04.2018 15:08 22,6 C 11,1 C 52 % 1009,0 hPa 0,0 l/m 15,3 km/h (3 Bft) N-NO 30 1 min 0,000 mm 1,8 UV-I 524 W/m 12,2 C 20,3 C 17,7 km/h (3 Bft) 100,00 %
15.04.2018 15:09 22,6 C 11,1 C 51 % 1009,0 hPa 0,0 l/m 16,0 km/h (3 Bft) NO 38 1 min 0,000 mm 1,9 UV-I 485 W/m 11,9 C 20,2 C 20,9 km/h (4 Bft) 100,00 %
15.04.2018 15:10 22,7 C 11,1 C 50 % 1009,0 hPa 0,0 l/m 13,8 km/h (3 Bft) NO 49 1 min 0,000 mm 1,9 UV-I 432 W/m 11,7 C 20,8 C 17,7 km/h (3 Bft) 96,15 %
15.04.2018 15:11 22,7 C 11,1 C 52 % 1009,0 hPa 0,0 l/m 14,3 km/h (3 Bft) NO 49 1 min 0,000 mm 1,9 UV-I 455 W/m 12,3 C 20,7 C 17,7 km/h (3 Bft) 95,83 %
15.04.2018 15:12 22,7 C 11,1 C 51 % 1009,0 hPa 0,0 l/m 10,7 km/h (2 Bft) N-NO 32 1 min 0,000 mm 1,9 UV-I 489 W/m 12,0 C 21,4 C 14,5 km/h (3 Bft) 95,65 %
15.04.2018 15:13 22,8 C 11,1 C 52 % 1008,9 hPa 0,0 l/m 14,3 km/h (3 Bft) O-NO 67 1 min 0,000 mm 1,8 UV-I 476 W/m 12,4 C 20,8 C 19,3 km/h (3 Bft) 95,83 %
15.04.2018 15:14 22,8 C 11,7 C 50 % 1009,0 hPa 0,0 l/m 12,6 km/h (3 Bft) NO 49 1 min 0,000 mm 1,7 UV-I 481 W/m 11,8 C 21,1 C 16,1 km/h (3 Bft) 100,00 %
15.04.2018 15:15 22,8 C 11,7 C 51 % 1009,0 hPa 0,0 l/m 10,6 km/h (2 Bft) O-NO 67 1 min 0,000 mm 1,8 UV-I 472 W/m 12,1 C 21,6 C 19,3 km/h (3 Bft) 100,00 %
15.04.2018 15:16 22,8 C 11,1 C 51 % 1009,0 hPa 0,0 l/m 15,4 km/h (3 Bft) NO 51 1 min 0,000 mm 1,6 UV-I 423 W/m 12,1 C 20,6 C 20,9 km/h (4 Bft) 100,00 %
15.04.2018 15:17 22,8 C 11,1 C 51 % 1008,9 hPa 0,0 l/m 14,9 km/h (3 Bft) NO 36 1 min 0,000 mm 1,6 UV-I 387 W/m 12,1 C 20,7 C 17,7 km/h (3 Bft) 100,00 %
15.04.2018 15:18 22,7 C 11,1 C 51 % 1008,9 hPa 0,0 l/m 10,9 km/h (2 Bft) O-NO 60 0 min 0,000 mm 1,5 UV-I 342 W/m 12,0 C 21,4 C 14,5 km/h (3 Bft) 100,00 %
15.04.2018 15:19 22,6 C 11,1 C 51 % 1008,9 hPa 0,0 l/m 16,0 km/h (3 Bft) NO 55 0 min 0,000 mm 1,4 UV-I 327 W/m 11,9 C 20,2 C 19,3 km/h (3 Bft) 100,00 %
15.04.2018 15:20 22,6 C 11,1 C 51 % 1008,9 hPa 0,0 l/m 13,8 km/h (3 Bft) O-NO 58 0 min 0,000 mm 1,3 UV-I 319 W/m 11,9 C 20,6 C 16,1 km/h (3 Bft) 100,00 %
15.04.2018 15:21 22,6 C 11,1 C 50 % 1008,9 hPa 0,0 l/m 11,7 km/h (2 Bft) O-NO 67 0 min 0,000 mm 1,4 UV-I 317 W/m 11,6 C 21,1 C 16,1 km/h (3 Bft) 95,65 %
15.04.2018 15:22 22,4 C 11,1 C 50 % 1008,9 hPa 0,0 l/m 12,3 km/h (3 Bft) O-NO 57 0 min 0,000 mm 1,3 UV-I 300 W/m 11,5 C 20,7 C 17,7 km/h (3 Bft) 100,00 %
15.04.2018 15:23 22,4 C 11,1 C 52 % 1008,9 hPa 0,0 l/m 19,1 km/h (3 Bft) O-NO 58 0 min 0,000 mm 1,3 UV-I 299 W/m 12,1 C 19,4 C 24,1 km/h (4 Bft) 100,00 %
15.04.2018 15:24 22,4 C 11,7 C 51 % 1008,9 hPa 0,0 l/m 14,5 km/h (3 Bft) O-NO 76 0 min 0,000 mm 1,3 UV-I 313 W/m 11,8 C 20,3 C 19,3 km/h (3 Bft) 91,67 %
15.04.2018 15:25 22,4 C 11,1 C 52 % 1008,9 hPa 0,0 l/m 13,5 km/h (3 Bft) O-SO 104 0 min 0,000 mm 1,3 UV-I 323 W/m 12,1 C 20,5 C 17,7 km/h (3 Bft) 100,00 %
15.04.2018 15:26 22,3 C 11,1 C 51 % 1008,8 hPa 0,0 l/m 17,7 km/h (3 Bft) O-NO 65 0 min 0,000 mm 1,3 UV-I 316 W/m 11,7 C 19,5 C 20,9 km/h (4 Bft) 100,00 %
15.04.2018 15:27 22,3 C 11,1 C 51 % 1008,9 hPa 0,0 l/m 9,1 km/h (2 Bft) NO 55 0 min 0,000 mm 1,3 UV-I 328 W/m 11,7 C 21,4 C 17,7 km/h (3 Bft) 95,65 %
15.04.2018 15:28 22,2 C 11,1 C 51 % 1008,8 hPa 0,0 l/m 8,7 km/h (2 Bft) O-NO 63 0 min 0,000 mm 1,3 UV-I 331 W/m 11,6 C 21,4 C 12,9 km/h (3 Bft) 95,83 %
15.04.2018 15:29 22,2 C 11,1 C 51 % 1008,8 hPa 0,0 l/m 13,9 km/h (3 Bft) O-NO 59 0 min 0,000 mm 1,3 UV-I 327 W/m 11,6 C 20,1 C 19,3 km/h (3 Bft) 100,00 %
15.04.2018 15:30 22,2 C 11,7 C 51 % 1008,8 hPa 0,0 l/m 15,4 km/h (3 Bft) O 80 0 min 0,000 mm 1,2 UV-I 318 W/m 11,6 C 19,8 C 19,3 km/h (3 Bft) 100,00 %
15.04.2018 15:31 22,2 C 11,7 C 52 % 1008,8 hPa 0,0 l/m 13,2 km/h (3 Bft) O-NO 77 0 min 0,000 mm 1,3 UV-I 326 W/m 11,9 C 20,3 C 14,5 km/h (3 Bft) 100,00 %
15.04.2018 15:32 22,2 C 11,1 C 51 % 1008,8 hPa 0,0 l/m 12,3 km/h (3 Bft) O 81 0 min 0,000 mm 1,3 UV-I 335 W/m 11,6 C 20,5 C 19,3 km/h (3 Bft) 100,00 %
15.04.2018 15:33 22,2 C 11,1 C 51 % 1008,8 hPa 0,0 l/m 15,4 km/h (3 Bft) O-NO 57 0 min 0,000 mm 1,3 UV-I 338 W/m 11,6 C 19,8 C 20,9 km/h (4 Bft) 100,00 %
15.04.2018 15:34 22,2 C 11,1 C 52 % 1008,8 hPa 0,0 l/m 19,4 km/h (3 Bft) NO 51 0 min 0,000 mm 1,3 UV-I 348 W/m 11,9 C 19,1 C 24,1 km/h (4 Bft) 100,00 %
15.04.2018 15:35 22,2 C 11,1 C 52 % 1008,7 hPa 0,0 l/m 17,2 km/h (3 Bft) O 86 0 min 0,000 mm 1,3 UV-I 353 W/m 11,9 C 19,5 C 22,5 km/h (4 Bft) 100,00 %
15.04.2018 15:36 22,2 C 11,1 C 51 % 1008,7 hPa 0,0 l/m 15,3 km/h (3 Bft) O 88 0 min 0,000 mm 1,3 UV-I 348 W/m 11,6 C 19,9 C 20,9 km/h (4 Bft) 100,00 %
15.04.2018 15:37 22,2 C 11,1 C 50 % 1008,7 hPa 0,0 l/m 17,2 km/h (3 Bft) O-NO 65 0 min 0,000 mm 1,3 UV-I 351 W/m 11,3 C 19,5 C 20,9 km/h (4 Bft) 100,00 %
15.04.2018 15:38 22,1 C 11,1 C 50 % 1008,7 hPa 0,0 l/m 14,8 km/h (3 Bft) O-NO 69 1 min 0,000 mm 1,3 UV-I 352 W/m 11,2 C 19,8 C 19,3 km/h (3 Bft) 100,00 %
15.04.2018 15:39 22,1 C 11,1 C 51 % 1008,6 hPa 0,0 l/m 13,7 km/h (3 Bft) O-NO 76 0 min 0,000 mm 1,3 UV-I 346 W/m 11,5 C 20,1 C 19,3 km/h (3 Bft) 100,00 %
15.04.2018 15:40 22,2 C 11,1 C 52 % 1008,6 hPa 0,0 l/m 16,2 km/h (3 Bft) O 96 0 min 0,000 mm 1,3 UV-I 348 W/m 11,9 C 19,7 C 20,9 km/h (4 Bft) 95,65 %
15.04.2018 15:41 22,2 C 11,7 C 51 % 1008,6 hPa 0,0 l/m 15,5 km/h (3 Bft) O-NO 65 1 min 0,000 mm 1,3 UV-I 350 W/m 11,6 C 19,8 C 19,3 km/h (3 Bft) 100,00 %
15.04.2018 15:42 22,2 C 11,1 C 51 % 1008,6 hPa 0,0 l/m 17,7 km/h (3 Bft) O-NO 60 1 min 0,000 mm 1,3 UV-I 353 W/m 11,6 C 19,4 C 22,5 km/h (4 Bft) 95,65 %
15.04.2018 15:43 22,2 C 11,1 C 51 % 1008,6 hPa 0,0 l/m 14,6 km/h (3 Bft) O 95 1 min 0,000 mm 1,3 UV-I 353 W/m 11,6 C 20,0 C 19,3 km/h (3 Bft) 95,83 %
15.04.2018 15:44 22,2 C 11,1 C 51 % 1008,7 hPa 0,0 l/m 13,9 km/h (3 Bft) O-NO 67 0 min 0,000 mm 1,2 UV-I 332 W/m 11,6 C 20,1 C 20,9 km/h (4 Bft) 91,30 %
15.04.2018 15:45 22,2 C 11,1 C 51 % 1008,7 hPa 0,0 l/m 16,1 km/h (3 Bft) NO 51 0 min 0,000 mm 1,2 UV-I 335 W/m 11,6 C 19,7 C 20,9 km/h (4 Bft) 95,83 %
15.04.2018 15:46 22,2 C 11,1 C 51 % 1008,7 hPa 0,0 l/m 13,8 km/h (3 Bft) O 84 1 min 0,000 mm 1,3 UV-I 347 W/m 11,6 C 20,2 C 19,3 km/h (3 Bft) 100,00 %
15.04.2018 15:47 22,2 C 11,1 C 51 % 1008,7 hPa 0,0 l/m 10,7 km/h (2 Bft) O-NO 63 1 min 0,000 mm 1,3 UV-I 352 W/m 11,6 C 20,9 C 14,5 km/h (3 Bft) 100,00 %
15.04.2018 15:48 22,2 C 11,1 C 51 % 1008,7 hPa 0,0 l/m 15,4 km/h (3 Bft) O 87 1 min 0,000 mm 1,3 UV-I 374 W/m 11,6 C 19,8 C 19,3 km/h (3 Bft) 95,83 %
15.04.2018 15:49 22,2 C 11,1 C 52 % 1008,6 hPa 0,0 l/m 13,8 km/h (3 Bft) O-NO 58 1 min 0,000 mm 1,3 UV-I 395 W/m 11,9 C 20,2 C 17,7 km/h (3 Bft) 96,15 %
15.04.2018 15:50 22,2 C 11,7 C 52 % 1008,7 hPa 0,0 l/m 9,0 km/h (2 Bft) O-NO 60 1 min 0,000 mm 1,3 UV-I 380 W/m 11,9 C 21,4 C 14,5 km/h (3 Bft) 100,00 %
15.04.2018 15:51 22,2 C 11,1 C 52 % 1008,7 hPa 0,0 l/m 10,9 km/h (2 Bft) NO 35 0 min 0,000 mm 1,2 UV-I 336 W/m 11,9 C 20,8 C 12,9 km/h (3 Bft) 96,15 %
15.04.2018 15:52 22,3 C 11,1 C 52 % 1008,6 hPa 0,0 l/m 8,2 km/h (2 Bft) O-NO 71 0 min 0,000 mm 1,2 UV-I 326 W/m 12,0 C 21,7 C 11,3 km/h (2 Bft) 95,83 %
15.04.2018 15:53 22,3 C 11,1 C 53 % 1008,7 hPa 0,0 l/m 9,7 km/h (2 Bft) O-NO 75 0 min 0,000 mm 1,2 UV-I 313 W/m 12,2 C 21,3 C 16,1 km/h (3 Bft) 95,65 %
15.04.2018 15:54 22,3 C 11,1 C 53 % 1008,7 hPa 0,0 l/m 10,9 km/h (2 Bft) O-NO 78 0 min 0,000 mm 1,1 UV-I 299 W/m 12,2 C 20,9 C 16,1 km/h (3 Bft) 95,83 %
15.04.2018 15:55 22,3 C 11,1 C 52 % 1008,6 hPa 0,0 l/m 14,6 km/h (3 Bft) O-NO 78 0 min 0,000 mm 1,1 UV-I 283 W/m 12,0 C 20,1 C 16,1 km/h (3 Bft) 100,00 %
15.04.2018 15:56 22,2 C 11,1 C 52 % 1008,6 hPa 0,0 l/m 10,5 km/h (2 Bft) O 86 0 min 0,000 mm 1,0 UV-I 276 W/m 11,9 C 20,9 C 16,1 km/h (3 Bft) 96,30 %
15.04.2018 15:57 22,2 C 11,1 C 52 % 1008,6 hPa 0,0 l/m 16,0 km/h (3 Bft) O 90 0 min 0,000 mm 1,0 UV-I 270 W/m 11,9 C 19,7 C 20,9 km/h (4 Bft) 100,00 %
15.04.2018 15:58 22,1 C 11,1 C 52 % 1008,6 hPa 0,0 l/m 11,9 km/h (2 Bft) O 91 0 min 0,000 mm 1,0 UV-I 266 W/m 11,8 C 20,5 C 17,7 km/h (3 Bft) 95,83 %
15.04.2018 15:59 22,1 C 11,1 C 51 % 1008,6 hPa 0,0 l/m 14,5 km/h (3 Bft) O 95 0 min 0,000 mm 1,0 UV-I 263 W/m 11,5 C 19,9 C 19,3 km/h (3 Bft) 100,00 %
15.04.2018 16:00 22,1 C 11,1 C 52 % 1008,6 hPa 0,0 l/m 13,4 km/h (3 Bft) O-NO 66 0 min 0,000 mm 1,0 UV-I 263 W/m 11,8 C 20,1 C 16,1 km/h (3 Bft) 95,83 %
15.04.2018 16:01 22,1 C 11,1 C 52 % 1008,6 hPa 0,0 l/m 14,6 km/h (3 Bft) O 80 0 min 0,330 mm 1,0 UV-I 265 W/m 11,8 C 19,9 C 17,7 km/h (3 Bft) 100,00 %
15.04.2018 16:02 22,1 C 11,7 C 52 % 1008,6 hPa 0,0 l/m 13,4 km/h (3 Bft) O-NO 65 0 min 0,000 mm 0,9 UV-I 268 W/m 11,8 C 20,1 C 16,1 km/h (3 Bft) 95,83 %
15.04.2018 16:03 22,1 C 11,1 C 53 % 1008,6 hPa 0,0 l/m 12,9 km/h (3 Bft) O 90 0 min 0,000 mm 0,9 UV-I 266 W/m 12,1 C 20,2 C 19,3 km/h (3 Bft) 100,00 %
15.04.2018 16:04 22,1 C 11,1 C 53 % 1008,5 hPa 0,0 l/m 12,5 km/h (3 Bft) O-SO 103 0 min 0,000 mm 0,9 UV-I 266 W/m 12,1 C 20,3 C 17,7 km/h (3 Bft) 96,15 %
15.04.2018 16:05 22,1 C 11,7 C 53 % 1008,5 hPa 0,0 l/m 11,8 km/h (2 Bft) O-NO 73 0 min 0,000 mm 0,9 UV-I 267 W/m 12,1 C 20,5 C 14,5 km/h (3 Bft) 100,00 %
15.04.2018 16:06 22,1 C 11,1 C 54 % 1008,5 hPa 0,0 l/m 10,9 km/h (2 Bft) O 86 0 min 0,000 mm 0,9 UV-I 273 W/m 12,3 C 20,7 C 16,1 km/h (3 Bft) 95,65 %
15.04.2018 16:07 22,1 C 11,1 C 52 % 1008,4 hPa 0,0 l/m 15,0 km/h (3 Bft) O-NO 66 0 min 0,000 mm 0,9 UV-I 272 W/m 11,8 C 19,8 C 17,7 km/h (3 Bft) 95,83 %
15.04.2018 16:08 22,1 C 11,1 C 52 % 1008,5 hPa 0,0 l/m 16,3 km/h (3 Bft) O 85 0 min 0,000 mm 0,9 UV-I 271 W/m 11,8 C 19,5 C 20,9 km/h (4 Bft) 100,00 %
15.04.2018 16:09 22,1 C 11,1 C 51 % 1008,4 hPa 0,0 l/m 17,0 km/h (3 Bft) O 90 0 min 0,000 mm 0,9 UV-I 270 W/m 11,5 C 19,4 C 20,9 km/h (4 Bft) 96,30 %
15.04.2018 16:10 22,1 C 11,1 C 51 % 1008,4 hPa 0,0 l/m 15,2 km/h (3 Bft) O-NO 73 0 min 0,000 mm 0,9 UV-I 268 W/m 11,5 C 19,8 C 19,3 km/h (3 Bft) 100,00 %
15.04.2018 16:11 22,2 C 11,1 C 51 % 1008,4 hPa 0,0 l/m 13,6 km/h (3 Bft) O-NO 65 0 min 0,000 mm 0,9 UV-I 266 W/m 11,6 C 20,2 C 17,7 km/h (3 Bft) 95,83 %
15.04.2018 16:12 22,2 C 11,1 C 51 % 1008,3 hPa 0,0 l/m 13,7 km/h (3 Bft) O-NO 71 0 min 0,000 mm 0,9 UV-I 265 W/m 11,6 C 20,2 C 17,7 km/h (3 Bft) 100,00 %
15.04.2018 16:13 22,2 C 11,1 C 51 % 1008,3 hPa 0,0 l/m 16,8 km/h (3 Bft) O-NO 59 0 min 0,000 mm 0,9 UV-I 267 W/m 11,6 C 19,6 C 25,7 km/h (4 Bft) 95,83 %
15.04.2018 16:14 22,2 C 11,1 C 52 % 1008,3 hPa 0,0 l/m 14,5 km/h (3 Bft) NO 56 0 min 0,000 mm 0,8 UV-I 264 W/m 11,9 C 20,0 C 20,9 km/h (4 Bft) 96,15 %
15.04.2018 16:15 22,2 C 11,7 C 51 % 1008,2 hPa 0,0 l/m 15,4 km/h (3 Bft) NO 55 0 min 0,000 mm 0,8 UV-I 259 W/m 11,6 C 19,8 C 17,7 km/h (3 Bft) 100,00 %
15.04.2018 16:16 22,2 C 11,1 C 52 % 1008,2 hPa 0,0 l/m 11,5 km/h (2 Bft) O-NO 78 0 min 0,000 mm 0,8 UV-I 254 W/m 11,9 C 20,7 C 16,1 km/h (3 Bft) 100,00 %
15.04.2018 16:17 22,2 C 11,1 C 52 % 1008,1 hPa 0,0 l/m 11,2 km/h (2 Bft) NO 49 0 min 0,000 mm 0,8 UV-I 248 W/m 11,9 C 20,8 C 16,1 km/h (3 Bft) 97,72 %
15.04.2018 16:18 22,2 C 11,1 C 51 % 1008,1 hPa 0,0 l/m 13,5 km/h (3 Bft) NO 49 0 min 0,000 mm 0,8 UV-I 240 W/m 11,6 C 20,2 C 16,1 km/h (3 Bft) 97,56 %
15.04.2018 16:19 22,2 C 11,1 C 51 % 1008,1 hPa 0,0 l/m 11,1 km/h (2 Bft) NO 53 0 min 0,000 mm 0,8 UV-I 232 W/m 11,6 C 20,8 C 14,5 km/h (3 Bft) 100,00 %
15.04.2018 16:20 22,1 C 11,1 C 52 % 1008,1 hPa 0,0 l/m 10,7 km/h (2 Bft) O-NO 61 0 min 0,000 mm 0,7 UV-I 226 W/m 11,8 C 20,8 C 14,5 km/h (3 Bft) 100,00 %
15.04.2018 16:21 22,1 C 11,1 C 51 % 1008,1 hPa 0,0 l/m 11,5 km/h (2 Bft) NO 42 0 min 0,000 mm 0,7 UV-I 220 W/m 11,5 C 20,6 C 16,1 km/h (3 Bft) 100,00 %
15.04.2018 16:22 22,1 C 11,1 C 52 % 1008,2 hPa 0,0 l/m 17,2 km/h (3 Bft) NO 36 0 min 0,000 mm 0,7 UV-I 216 W/m 11,8 C 19,4 C 24,1 km/h (4 Bft) 100,00 %
15.04.2018 16:23 22,1 C 11,1 C 51 % 1008,1 hPa 0,0 l/m 15,2 km/h (3 Bft) O-NO 76 0 min 0,000 mm 0,7 UV-I 212 W/m 11,5 C 19,8 C 20,9 km/h (4 Bft) 100,00 %
15.04.2018 16:24 22,1 C 11,1 C 50 % 1008,1 hPa 0,0 l/m 15,9 km/h (3 Bft) O-NO 57 0 min 0,000 mm 0,7 UV-I 208 W/m 11,2 C 19,6 C 22,5 km/h (4 Bft) 100,00 %
15.04.2018 16:25 22,0 C 11,1 C 50 % 1008,1 hPa 0,0 l/m 13,8 km/h (3 Bft) NO 52 0 min 0,000 mm 0,7 UV-I 202 W/m 11,1 C 19,9 C 16,1 km/h (3 Bft) 100,00 %
15.04.2018 16:26 22,0 C 11,1 C 51 % 1008,1 hPa 0,0 l/m 10,4 km/h (2 Bft) O-NO 63 0 min 0,000 mm 0,7 UV-I 199 W/m 11,4 C 20,7 C 14,5 km/h (3 Bft) 100,00 %
15.04.2018 16:27 21,9 C 11,1 C 51 % 1008,1 hPa 0,0 l/m 14,6 km/h (3 Bft) NO 41 0 min 0,000 mm 0,6 UV-I 194 W/m 11,3 C 19,6 C 17,7 km/h (3 Bft) 100,00 %
15.04.2018 16:28 21,9 C 11,1 C 51 % 1008,0 hPa 0,0 l/m 11,3 km/h (2 Bft) NO 42 0 min 0,000 mm 0,6 UV-I 192 W/m 11,3 C 20,4 C 14,5 km/h (3 Bft) 100,00 %
15.04.2018 16:29 21,9 C 11,1 C 51 % 1008,0 hPa 0,0 l/m 8,7 km/h (2 Bft) O 85 0 min 0,000 mm 0,6 UV-I 190 W/m 11,3 C 21,1 C 14,5 km/h (3 Bft) 100,00 %
15.04.2018 16:30 21,8 C 11,7 C 52 % 1008,0 hPa 0,0 l/m 10,7 km/h (2 Bft) NO 36 0 min 0,000 mm 0,6 UV-I 186 W/m 11,5 C 20,4 C 16,1 km/h (3 Bft) 100,00 %
15.04.2018 16:31 21,8 C 11,1 C 52 % 1008,0 hPa 0,0 l/m 13,5 km/h (3 Bft) O-NO 76 0 min 0,000 mm 0,6 UV-I 185 W/m 11,5 C 19,8 C 17,7 km/h (3 Bft) 100,00 %
15.04.2018 16:32 21,8 C 11,1 C 51 % 1007,9 hPa 0,0 l/m 13,1 km/h (3 Bft) O 84 0 min 0,000 mm 0,6 UV-I 182 W/m 11,2 C 19,8 C 16,1 km/h (3 Bft) 100,00 %
15.04.2018 16:33 21,8 C 11,1 C 51 % 1008,0 hPa 0,0 l/m 14,8 km/h (3 Bft) NO 38 0 min 0,000 mm 0,6 UV-I 179 W/m 11,2 C 19,5 C 19,3 km/h (3 Bft) 100,00 %
15.04.2018 16:34 21,8 C 11,1 C 52 % 1007,9 hPa 0,0 l/m 16,2 km/h (3 Bft) O-NO 63 0 min 0,000 mm 0,6 UV-I 176 W/m 11,5 C 19,2 C 22,5 km/h (4 Bft) 100,00 %
15.04.2018 16:35 21,7 C 11,1 C 51 % 1007,9 hPa 0,0 l/m 13,6 km/h (3 Bft) O-NO 57 0 min 0,000 mm 0,5 UV-I 172 W/m 11,1 C 19,6 C 17,7 km/h (3 Bft) 100,00 %
15.04.2018 16:36 21,7 C 11,1 C 52 % 1007,9 hPa 0,0 l/m 14,3 km/h (3 Bft) O 100 0 min 0,000 mm 0,5 UV-I 168 W/m 11,4 C 19,5 C 22,5 km/h (4 Bft) 100,00 %
15.04.2018 16:37 21,6 C 11,1 C 51 % 1007,9 hPa 0,0 l/m 15,1 km/h (3 Bft) O-NO 66 0 min 0,000 mm 0,5 UV-I 162 W/m 11,0 C 19,2 C 19,3 km/h (3 Bft) 100,00 %
15.04.2018 16:38 21,6 C 11,1 C 51 % 1007,9 hPa 0,0 l/m 14,7 km/h (3 Bft) O-NO 76 0 min 0,000 mm 0,5 UV-I 157 W/m 11,0 C 19,3 C 17,7 km/h (3 Bft) 100,00 %
15.04.2018 16:39 21,6 C 11,1 C 51 % 1008,0 hPa 0,0 l/m 17,2 km/h (3 Bft) O 83 0 min 0,000 mm 0,5 UV-I 153 W/m 11,0 C 18,8 C 22,5 km/h (4 Bft) 97,78 %
15.04.2018 16:40 21,6 C 11,1 C 51 % 1008,0 hPa 0,0 l/m 18,7 km/h (3 Bft) O-NO 68 0 min 0,000 mm 0,5 UV-I 150 W/m 11,0 C 18,5 C 24,1 km/h (4 Bft) 100,00 %
15.04.2018 16:41 21,6 C 11,1 C 52 % 1008,0 hPa 0,0 l/m 16,6 km/h (3 Bft) O-NO 71 0 min 0,000 mm 0,5 UV-I 149 W/m 11,3 C 18,9 C 20,9 km/h (4 Bft) 95,83 %
15.04.2018 16:42 21,5 C 11,1 C 52 % 1008,1 hPa 0,0 l/m 16,3 km/h (3 Bft) O-NO 65 0 min 0,000 mm 0,5 UV-I 149 W/m 11,2 C 18,8 C 22,5 km/h (4 Bft) 100,00 %
15.04.2018 16:43 21,4 C 11,1 C 53 % 1008,0 hPa 0,0 l/m 15,2 km/h (3 Bft) O 88 0 min 0,000 mm 0,5 UV-I 149 W/m 11,4 C 18,9 C 19,3 km/h (3 Bft) 100,00 %
15.04.2018 16:44 21,3 C 11,1 C 54 % 1008,0 hPa 0,0 l/m 14,0 km/h (3 Bft) O 82 0 min 0,000 mm 0,5 UV-I 149 W/m 11,6 C 19,0 C 17,7 km/h (3 Bft) 100,00 %
15.04.2018 16:45 21,3 C 11,1 C 54 % 1008,0 hPa 0,0 l/m 14,1 km/h (3 Bft) O 96 0 min 0,000 mm 0,5 UV-I 149 W/m 11,6 C 19,0 C 17,7 km/h (3 Bft) 100,00 %
15.04.2018 16:46 21,3 C 11,1 C 54 % 1008,0 hPa 0,0 l/m 14,7 km/h (3 Bft) O 85 0 min 0,000 mm 0,5 UV-I 150 W/m 11,6 C 18,9 C 17,7 km/h (3 Bft) 100,00 %
15.04.2018 16:47 21,2 C 11,1 C 54 % 1008,0 hPa 0,0 l/m 14,8 km/h (3 Bft) O 93 0 min 0,000 mm 0,5 UV-I 152 W/m 11,5 C 18,7 C 19,3 km/h (3 Bft) 100,00 %
15.04.2018 16:48 21,2 C 11,7 C 54 % 1007,9 hPa 0,0 l/m 14,9 km/h (3 Bft) O 89 0 min 0,000 mm 0,5 UV-I 156 W/m 11,5 C 18,7 C 17,7 km/h (3 Bft) 100,00 %
15.04.2018 16:49 21,2 C 11,1 C 53 % 1007,9 hPa 0,0 l/m 15,3 km/h (3 Bft) O 81 0 min 0,000 mm 0,5 UV-I 160 W/m 11,2 C 18,6 C 17,7 km/h (3 Bft) 100,00 %
15.04.2018 16:50 21,2 C 11,1 C 54 % 1007,9 hPa 0,0 l/m 17,0 km/h (3 Bft) O-NO 71 0 min 0,000 mm 0,5 UV-I 157 W/m 11,5 C 18,3 C 20,9 km/h (4 Bft) 100,00 %
15.04.2018 16:51 21,2 C 11,1 C 54 % 1007,9 hPa 0,0 l/m 17,0 km/h (3 Bft) O-NO 69 0 min 0,000 mm 0,5 UV-I 155 W/m 11,5 C 18,3 C 20,9 km/h (4 Bft) 100,00 %
15.04.2018 16:52 21,2 C 11,1 C 53 % 1007,8 hPa 0,0 l/m 18,8 km/h (3 Bft) O-NO 78 0 min 0,000 mm 0,5 UV-I 152 W/m 11,2 C 18,0 C 25,7 km/h (4 Bft) 95,65 %
15.04.2018 16:53 21,2 C 11,1 C 53 % 1007,8 hPa 0,0 l/m 18,0 km/h (3 Bft) O 93 0 min 0,000 mm 0,5 UV-I 150 W/m 11,2 C 18,1 C 20,9 km/h (4 Bft) 100,00 %
15.04.2018 16:54 21,2 C 11,1 C 54 % 1007,8 hPa 0,0 l/m 17,6 km/h (3 Bft) O-NO 78 0 min 0,000 mm 0,1 UV-I 146 W/m 11,5 C 18,2 C 22,5 km/h (4 Bft) 100,00 %
15.04.2018 16:55 21,2 C 11,1 C 53 % 1007,8 hPa 0,0 l/m 15,5 km/h (3 Bft) O 89 0 min 0,000 mm 0,0 UV-I 143 W/m 11,2 C 18,6 C 20,9 km/h (4 Bft) 100,00 %
15.04.2018 16:56 21,2 C 11,1 C 53 % 1007,8 hPa 0,0 l/m 19,1 km/h (3 Bft) O 81 0 min 0,000 mm 0,0 UV-I 140 W/m 11,2 C 17,9 C 24,1 km/h (4 Bft) 100,00 %
15.04.2018 16:57 21,2 C 11,7 C 53 % 1007,8 hPa 0,0 l/m 16,5 km/h (3 Bft) O-NO 76 0 min 0,000 mm 0,0 UV-I 136 W/m 11,2 C 18,4 C 22,5 km/h (4 Bft) 100,00 %
15.04.2018 16:58 21,2 C 11,1 C 53 % 1007,8 hPa 0,0 l/m 19,6 km/h (3 Bft) O 86 0 min 0,000 mm 0,0 UV-I 135 W/m 11,2 C 17,8 C 27,4 km/h (4 Bft) 100,00 %
15.04.2018 16:59 21,1 C 11,1 C 53 % 1007,8 hPa 0,0 l/m 18,7 km/h (3 Bft) O 87 0 min 0,000 mm 0,0 UV-I 135 W/m 11,1 C 17,9 C 22,5 km/h (4 Bft) 100,00 %
15.04.2018 17:00 21,1 C 11,1 C 52 % 1007,7 hPa 0,0 l/m 16,8 km/h (3 Bft) O 92 0 min 0,000 mm 0,0 UV-I 135 W/m 10,9 C 18,2 C 22,5 km/h (4 Bft) 100,00 %
15.04.2018 17:01 21,1 C 11,1 C 53 % 1007,7 hPa 0,0 l/m 16,5 km/h (3 Bft) O 94 0 min 0,228 mm 0,0 UV-I 135 W/m 11,1 C 18,3 C 22,5 km/h (4 Bft) 96,15 %
15.04.2018 17:02 21,1 C 11,1 C 53 % 1007,7 hPa 0,0 l/m 17,6 km/h (3 Bft) O 88 0 min 0,000 mm 0,0 UV-I 134 W/m 11,1 C 18,1 C 22,5 km/h (4 Bft) 100,00 %
15.04.2018 17:03 21,1 C 11,1 C 53 % 1007,8 hPa 0,0 l/m 16,2 km/h (3 Bft) O 100 0 min 0,000 mm 0,0 UV-I 131 W/m 11,1 C 18,3 C 22,5 km/h (4 Bft) 100,00 %
15.04.2018 17:04 21,0 C 11,1 C 53 % 1007,7 hPa 0,0 l/m 17,6 km/h (3 Bft) O 89 0 min 0,000 mm 0,0 UV-I 130 W/m 11,0 C 17,9 C 22,5 km/h (4 Bft) 100,00 %
15.04.2018 17:05 21,1 C 11,1 C 53 % 1007,8 hPa 0,0 l/m 16,1 km/h (3 Bft) O-NO 65 0 min 0,000 mm 0,0 UV-I 129 W/m 11,1 C 18,4 C 20,9 km/h (4 Bft) 100,00 %
15.04.2018 17:06 21,0 C 11,1 C 53 % 1007,7 hPa 0,0 l/m 17,2 km/h (3 Bft) O 86 0 min 0,000 mm 0,0 UV-I 127 W/m 11,0 C 18,0 C 25,7 km/h (4 Bft) 100,00 %
15.04.2018 17:07 21,0 C 11,1 C 53 % 1007,7 hPa 0,0 l/m 17,8 km/h (3 Bft) O-SO 112 0 min 0,000 mm 0,0 UV-I 127 W/m 11,0 C 17,9 C 22,5 km/h (4 Bft) 95,65 %
15.04.2018 17:08 21,0 C 11,1 C 53 % 1007,6 hPa 0,0 l/m 13,8 km/h (3 Bft) O 82 0 min 0,000 mm 0,0 UV-I 125 W/m 11,0 C 18,7 C 19,3 km/h (3 Bft) 100,00 %
15.04.2018 17:09 21,0 C 11,1 C 54 % 1007,6 hPa 0,0 l/m 14,5 km/h (3 Bft) O-NO 71 0 min 0,000 mm 0,0 UV-I 124 W/m 11,3 C 18,6 C 19,3 km/h (3 Bft) 95,65 %
15.04.2018 17:10 21,0 C 11,1 C 53 % 1007,6 hPa 0,0 l/m 16,1 km/h (3 Bft) O 92 0 min 0,000 mm 0,0 UV-I 121 W/m 11,0 C 18,2 C 22,5 km/h (4 Bft) 100,00 %
15.04.2018 17:11 21,1 C 11,1 C 53 % 1007,6 hPa 0,0 l/m 18,7 km/h (3 Bft) O-NO 76 0 min 0,000 mm 0,0 UV-I 118 W/m 11,1 C 17,9 C 25,7 km/h (4 Bft) 100,00 %
15.04.2018 17:12 21,1 C 11,7 C 53 % 1007,6 hPa 0,0 l/m 15,0 km/h (3 Bft) O-NO 77 0 min 0,000 mm 0,0 UV-I 118 W/m 11,1 C 18,6 C 19,3 km/h (3 Bft) 100,00 %
15.04.2018 17:13 21,0 C 11,1 C 54 % 1007,6 hPa 0,0 l/m 13,6 km/h (3 Bft) O 79 0 min 0,000 mm 0,0 UV-I 116 W/m 11,3 C 18,8 C 17,7 km/h (3 Bft) 100,00 %
15.04.2018 17:14 20,9 C 11,1 C 54 % 1007,6 hPa 0,0 l/m 14,4 km/h (3 Bft) O-NO 67 0 min 0,000 mm 0,0 UV-I 114 W/m 11,2 C 18,5 C 20,9 km/h (4 Bft) 100,00 %
15.04.2018 17:15 20,9 C 11,1 C 54 % 1007,6 hPa 0,0 l/m 15,0 km/h (3 Bft) O-SO 104 0 min 0,000 mm 0,0 UV-I 112 W/m 11,2 C 18,3 C 19,3 km/h (3 Bft) 100,00 %
15.04.2018 17:16 20,9 C 11,1 C 53 % 1007,7 hPa 0,0 l/m 12,2 km/h (2 Bft) O-NO 65 0 min 0,000 mm 0,0 UV-I 110 W/m 11,0 C 19,0 C 16,1 km/h (3 Bft) 100,00 %
15.04.2018 17:17 20,9 C 11,1 C 53 % 1007,7 hPa 0,0 l/m 12,1 km/h (2 Bft) O-NO 71 0 min 0,000 mm 0,0 UV-I 107 W/m 11,0 C 19,0 C 17,7 km/h (3 Bft) 100,00 %
15.04.2018 17:18 20,9 C 11,1 C 53 % 1007,7 hPa 0,0 l/m 14,0 km/h (3 Bft) O-SO 107 0 min 0,000 mm 0,0 UV-I 105 W/m 11,0 C 18,6 C 17,7 km/h (3 Bft) 100,00 %
15.04.2018 17:19 20,9 C 11,1 C 53 % 1007,7 hPa 0,0 l/m 18,5 km/h (3 Bft) O-SO 111 0 min 0,000 mm 0,0 UV-I 106 W/m 11,0 C 17,6 C 25,7 km/h (4 Bft) 100,00 %
15.04.2018 17:20 20,9 C 11,1 C 52 % 1007,6 hPa 0,0 l/m 17,9 km/h (3 Bft) O 80 0 min 0,000 mm 0,0 UV-I 109 W/m 10,7 C 17,7 C 24,1 km/h (4 Bft) 95,83 %
15.04.2018 17:21 21,0 C 11,1 C 52 % 1007,6 hPa 0,0 l/m 15,7 km/h (3 Bft) O-SO 109 0 min 0,000 mm 0,0 UV-I 114 W/m 10,8 C 18,3 C 19,3 km/h (3 Bft) 100,00 %
15.04.2018 17:22 20,9 C 11,1 C 53 % 1007,6 hPa 0,0 l/m 12,0 km/h (2 Bft) O 80 0 min 0,000 mm 0,0 UV-I 119 W/m 11,0 C 19,1 C 16,1 km/h (3 Bft) 100,00 %
15.04.2018 17:23 20,9 C 11,1 C 54 % 1007,7 hPa 0,0 l/m 13,0 km/h (3 Bft) O-SO 114 0 min 0,000 mm 0,0 UV-I 124 W/m 11,2 C 18,8 C 19,3 km/h (3 Bft) 100,00 %
15.04.2018 17:24 20,9 C 11,1 C 54 % 1007,6 hPa 0,0 l/m 13,6 km/h (3 Bft) O-NO 71 0 min 0,000 mm 0,0 UV-I 131 W/m 11,2 C 18,7 C 19,3 km/h (3 Bft) 100,00 %
15.04.2018 17:25 20,8 C 11,1 C 53 % 1007,6 hPa 0,0 l/m 15,4 km/h (3 Bft) O-NO 73 0 min 0,000 mm 0,0 UV-I 135 W/m 10,9 C 18,1 C 22,5 km/h (4 Bft) 100,00 %
15.04.2018 17:26 20,8 C 11,1 C 53 % 1007,6 hPa 0,0 l/m 14,6 km/h (3 Bft) O 94 0 min 0,000 mm 0,0 UV-I 138 W/m 10,9 C 18,3 C 20,9 km/h (4 Bft) 100,00 %
15.04.2018 17:27 20,8 C 11,1 C 54 % 1007,5 hPa 0,0 l/m 14,5 km/h (3 Bft) O 80 0 min 0,000 mm 0,0 UV-I 140 W/m 11,1 C 18,3 C 19,3 km/h (3 Bft) 100,00 %
15.04.2018 17:28 20,8 C 11,1 C 53 % 1007,6 hPa 0,0 l/m 15,8 km/h (3 Bft) O 97 0 min 0,000 mm 0,0 UV-I 141 W/m 10,9 C 18,0 C 24,1 km/h (4 Bft) 95,65 %
15.04.2018 17:29 20,8 C 11,1 C 53 % 1007,5 hPa 0,0 l/m 18,2 km/h (3 Bft) O-NO 57 0 min 0,000 mm 0,0 UV-I 141 W/m 10,9 C 17,6 C 24,1 km/h (4 Bft) 100,00 %
15.04.2018 17:30 20,9 C 11,1 C 53 % 1007,5 hPa 0,0 l/m 19,8 km/h (3 Bft) O 88 0 min 0,000 mm 0,0 UV-I 141 W/m 11,0 C 17,4 C 25,7 km/h (4 Bft) 100,00 %
15.04.2018 17:31 20,9 C 11,1 C 53 % 1007,5 hPa 0,0 l/m 18,7 km/h (3 Bft) O 84 0 min 0,000 mm 0,0 UV-I 138 W/m 11,0 C 17,6 C 22,5 km/h (4 Bft) 100,00 %
15.04.2018 17:32 20,9 C 11,1 C 53 % 1007,5 hPa 0,0 l/m 17,2 km/h (3 Bft) O 88 0 min 0,000 mm 0,0 UV-I 135 W/m 11,0 C 17,9 C 22,5 km/h (4 Bft) 100,00 %
15.04.2018 17:33 20,9 C 11,1 C 53 % 1007,5 hPa 0,0 l/m 19,2 km/h (3 Bft) O 90 0 min 0,000 mm 0,0 UV-I 132 W/m 11,0 C 17,5 C 22,5 km/h (4 Bft) 95,83 %
15.04.2018 17:34 20,9 C 11,1 C 53 % 1007,5 hPa 0,0 l/m 16,2 km/h (3 Bft) O-NO 78 0 min 0,000 mm 0,0 UV-I 128 W/m 11,0 C 18,1 C 22,5 km/h (4 Bft) 100,00 %
15.04.2018 17:35 20,9 C 11,1 C 53 % 1007,6 hPa 0,0 l/m 15,8 km/h (3 Bft) O 79 0 min 0,000 mm 0,0 UV-I 125 W/m 11,0 C 18,2 C 20,9 km/h (4 Bft) 94,44 %
15.04.2018 17:36 20,9 C 11,1 C 52 % 1007,6 hPa 0,0 l/m 19,1 km/h (3 Bft) O-SO 115 0 min 0,000 mm 0,0 UV-I 122 W/m 10,7 C 17,5 C 24,1 km/h (4 Bft) 100,00 %
15.04.2018 17:37 20,9 C 11,7 C 52 % 1007,5 hPa 0,0 l/m 17,2 km/h (3 Bft) O 84 0 min 0,000 mm 0,0 UV-I 118 W/m 10,7 C 17,9 C 22,5 km/h (4 Bft) 95,83 %
15.04.2018 17:38 20,9 C 11,1 C 52 % 1007,6 hPa 0,0 l/m 13,7 km/h (3 Bft) NO 53 0 min 0,000 mm 0,0 UV-I 113 W/m 10,7 C 18,6 C 17,7 km/h (3 Bft) 95,83 %
15.04.2018 17:39 20,9 C 11,1 C 52 % 1007,6 hPa 0,0 l/m 10,5 km/h (2 Bft) O 95 0 min 0,000 mm 0,0 UV-I 108 W/m 10,7 C 19,5 C 17,7 km/h (3 Bft) 95,65 %
15.04.2018 17:40 20,9 C 11,1 C 53 % 1007,6 hPa 0,0 l/m 15,0 km/h (3 Bft) O 80 0 min 0,000 mm 0,0 UV-I 102 W/m 11,0 C 18,3 C 19,3 km/h (3 Bft) 100,00 %
15.04.2018 17:41 20,8 C 11,1 C 53 % 1007,7 hPa 0,0 l/m 14,8 km/h (3 Bft) O-NO 65 0 min 0,000 mm 0,0 UV-I 97 W/m 10,9 C 18,3 C 22,5 km/h (4 Bft) 92,31 %
15.04.2018 17:42 20,8 C 11,1 C 52 % 1007,7 hPa 0,0 l/m 17,6 km/h (3 Bft) O-NO 69 0 min 0,000 mm 0,0 UV-I 92 W/m 10,6 C 17,7 C 25,7 km/h (4 Bft) 92,59 %
15.04.2018 17:43 20,8 C 11,7 C 51 % 1007,7 hPa 0,0 l/m 15,0 km/h (3 Bft) NO 55 0 min 0,000 mm 0,0 UV-I 91 W/m 10,3 C 18,2 C 22,5 km/h (4 Bft) 100,00 %
15.04.2018 17:44 20,8 C 11,1 C 51 % 1007,6 hPa 0,0 l/m 20,1 km/h (4 Bft) O-NO 74 0 min 0,000 mm 0,0 UV-I 89 W/m 10,3 C 17,2 C 22,5 km/h (4 Bft) 95,83 %
15.04.2018 17:45 20,8 C 11,1 C 52 % 1007,6 hPa 0,0 l/m 18,0 km/h (3 Bft) O-NO 65 0 min 0,000 mm 0,0 UV-I 88 W/m 10,6 C 17,6 C 20,9 km/h (4 Bft) 95,65 %
15.04.2018 17:46 20,8 C 11,1 C 51 % 1007,6 hPa 0,0 l/m 17,4 km/h (3 Bft) O 79 0 min 0,000 mm 0,0 UV-I 88 W/m 10,3 C 17,7 C 19,3 km/h (3 Bft) 86,67 %
15.04.2018 17:47 20,8 C 11,1 C 51 % 1007,5 hPa 0,0 l/m 15,2 km/h (3 Bft) O 81 0 min 0,000 mm 0,0 UV-I 88 W/m 10,3 C 18,2 C 20,9 km/h (4 Bft) 100,00 %
15.04.2018 17:48 20,8 C 11,1 C 52 % 1007,5 hPa 0,0 l/m 10,3 km/h (2 Bft) O-NO 74 0 min 0,000 mm 0,0 UV-I 88 W/m 10,6 C 19,4 C 12,9 km/h (3 Bft) 91,67 %
15.04.2018 17:49 20,8 C 11,1 C 52 % 1007,5 hPa 0,0 l/m 13,0 km/h (3 Bft) O-NO 71 0 min 0,000 mm 0,0 UV-I 86 W/m 10,6 C 18,7 C 17,7 km/h (3 Bft) 95,65 %
15.04.2018 17:50 20,7 C 11,7 C 52 % 1007,5 hPa 0,0 l/m 13,8 km/h (3 Bft) O 94 0 min 0,000 mm 0,0 UV-I 82 W/m 10,5 C 18,4 C 19,3 km/h (3 Bft) 95,83 %
15.04.2018 17:51 20,7 C 11,7 C 52 % 1007,5 hPa 0,0 l/m 13,8 km/h (3 Bft) NO 46 0 min 0,000 mm 0,0 UV-I 74 W/m 10,5 C 18,4 C 16,1 km/h (3 Bft) 86,96 %
15.04.2018 17:52 20,7 C 11,7 C 52 % 1007,5 hPa 0,0 l/m 14,2 km/h (3 Bft) O-NO 65 0 min 0,000 mm 0,0 UV-I 68 W/m 10,5 C 18,3 C 19,3 km/h (3 Bft) 100,00 %
15.04.2018 17:53 20,7 C 11,1 C 52 % 1007,5 hPa 0,0 l/m 13,5 km/h (3 Bft) O-NO 74 0 min 0,000 mm 0,0 UV-I 62 W/m 10,5 C 18,5 C 16,1 km/h (3 Bft) 91,30 %
15.04.2018 17:54 20,7 C 11,1 C 52 % 1007,5 hPa 0,0 l/m 13,3 km/h (3 Bft) O-NO 76 0 min 0,000 mm 0,0 UV-I 60 W/m 10,5 C 18,5 C 24,1 km/h (4 Bft) 100,00 %
15.04.2018 17:55 20,6 C 11,1 C 52 % 1007,5 hPa 0,0 l/m 16,1 km/h (3 Bft) O-NO 71 0 min 0,000 mm 0,0 UV-I 61 W/m 10,4 C 17,7 C 20,9 km/h (4 Bft) 89,66 %
15.04.2018 17:56 20,6 C 11,1 C 52 % 1007,4 hPa 0,0 l/m 15,5 km/h (3 Bft) O-NO 78 0 min 0,000 mm 0,0 UV-I 64 W/m 10,4 C 17,9 C 19,3 km/h (3 Bft) 95,83 %
15.04.2018 17:57 20,5 C 11,1 C 52 % 1007,3 hPa 0,0 l/m 15,9 km/h (3 Bft) O 90 0 min 0,000 mm 0,0 UV-I 67 W/m 10,3 C 17,7 C 19,3 km/h (3 Bft) 93,33 %
15.04.2018 17:58 20,5 C 11,1 C 52 % 1007,3 hPa 0,0 l/m 15,9 km/h (3 Bft) O-SO 107 0 min 0,000 mm 0,0 UV-I 67 W/m 10,3 C 17,7 C 19,3 km/h (3 Bft) 95,65 %
15.04.2018 17:59 20,4 C 11,1 C 52 % 1007,4 hPa 0,0 l/m 18,1 km/h (3 Bft) O-NO 63 0 min 0,000 mm 0,0 UV-I 63 W/m 10,2 C 17,1 C 24,1 km/h (4 Bft) 91,67 %
15.04.2018 18:00 20,4 C 11,1 C 53 % 1007,3 hPa 0,0 l/m 19,0 km/h (3 Bft) O-NO 69 0 min 0,000 mm 0,0 UV-I 59 W/m 10,5 C 16,9 C 22,5 km/h (4 Bft) 95,65 %
15.04.2018 18:01 20,4 C 11,7 C 52 % 1007,3 hPa 0,0 l/m 19,6 km/h (3 Bft) O-NO 77 0 min 0,178 mm 0,0 UV-I 56 W/m 10,2 C 16,8 C 27,4 km/h (4 Bft) 91,67 %
15.04.2018 18:02 20,4 C 11,1 C 53 % 1007,3 hPa 0,0 l/m 15,0 km/h (3 Bft) O-NO 63 0 min 0,000 mm 0,0 UV-I 56 W/m 10,5 C 17,7 C 19,3 km/h (3 Bft) 91,30 %
15.04.2018 18:03 20,3 C 11,1 C 53 % 1007,3 hPa 0,0 l/m 18,8 km/h (3 Bft) O-NO 78 0 min 0,000 mm 0,0 UV-I 57 W/m 10,4 C 16,8 C 24,1 km/h (4 Bft) 95,83 %
15.04.2018 18:04 20,3 C 11,1 C 53 % 1007,4 hPa 0,0 l/m 15,0 km/h (3 Bft) O 80 0 min 0,000 mm 0,0 UV-I 58 W/m 10,4 C 17,6 C 17,7 km/h (3 Bft) 86,96 %
15.04.2018 18:05 20,3 C 11,7 C 53 % 1007,3 hPa 0,0 l/m 13,6 km/h (3 Bft) NO 53 0 min 0,000 mm 0,0 UV-I 58 W/m 10,4 C 18,0 C 17,7 km/h (3 Bft) 100,00 %
15.04.2018 18:06 20,2 C 11,1 C 54 % 1007,3 hPa 0,0 l/m 12,3 km/h (3 Bft) O-NO 61 0 min 0,000 mm 0,0 UV-I 59 W/m 10,6 C 18,2 C 19,3 km/h (3 Bft) 92,31 %
15.04.2018 18:07 20,2 C 11,7 C 54 % 1007,3 hPa 0,0 l/m 15,2 km/h (3 Bft) O 90 0 min 0,000 mm 0,0 UV-I 63 W/m 10,6 C 17,4 C 19,3 km/h (3 Bft) 100,00 %
15.04.2018 18:08 20,2 C 11,1 C 54 % 1007,3 hPa 0,0 l/m 13,6 km/h (3 Bft) O 90 0 min 0,000 mm 0,0 UV-I 66 W/m 10,6 C 17,8 C 17,7 km/h (3 Bft) 95,65 %
15.04.2018 18:09 20,1 C 11,1 C 54 % 1007,3 hPa 0,0 l/m 13,4 km/h (3 Bft) O 97 0 min 0,000 mm 0,0 UV-I 68 W/m 10,5 C 17,8 C 16,1 km/h (3 Bft) 100,00 %
15.04.2018 18:10 20,1 C 11,1 C 55 % 1007,3 hPa 0,0 l/m 12,9 km/h (3 Bft) O-NO 78 0 min 0,000 mm 0,0 UV-I 69 W/m 10,8 C 17,9 C 16,1 km/h (3 Bft) 96,15 %
15.04.2018 18:11 20,1 C 11,1 C 54 % 1007,3 hPa 0,0 l/m 13,3 km/h (3 Bft) O-NO 76 0 min 0,000 mm 0,0 UV-I 65 W/m 10,5 C 17,8 C 17,7 km/h (3 Bft) 95,83 %
15.04.2018 18:12 20,1 C 11,1 C 54 % 1007,3 hPa 0,0 l/m 13,1 km/h (3 Bft) SO 132 0 min 0,000 mm 0,0 UV-I 64 W/m 10,5 C 17,8 C 16,1 km/h (3 Bft) 95,83 %
15.04.2018 18:13 20,1 C 11,1 C 54 % 1007,3 hPa 0,0 l/m 12,3 km/h (3 Bft) O-SO 103 0 min 0,000 mm 0,0 UV-I 65 W/m 10,5 C 18,1 C 16,1 km/h (3 Bft) 96,15 %
15.04.2018 18:14 20,0 C 11,1 C 54 % 1007,2 hPa 0,0 l/m 10,6 km/h (2 Bft) O 88 0 min 0,000 mm 0,0 UV-I 65 W/m 10,4 C 18,4 C 19,3 km/h (3 Bft) 100,00 %
15.04.2018 18:15 20,0 C 11,1 C 54 % 1007,2 hPa 0,0 l/m 15,1 km/h (3 Bft) O 84 0 min 0,000 mm 0,0 UV-I 65 W/m 10,4 C 17,2 C 20,9 km/h (4 Bft) 95,83 %
15.04.2018 18:16 20,1 C 11,1 C 54 % 1007,2 hPa 0,0 l/m 13,3 km/h (3 Bft) O 88 0 min 0,000 mm 0,0 UV-I 63 W/m 10,5 C 17,8 C 17,7 km/h (3 Bft) 100,00 %
15.04.2018 18:17 20,1 C 11,7 C 54 % 1007,2 hPa 0,0 l/m 16,8 km/h (3 Bft) O 94 0 min 0,000 mm 0,0 UV-I 63 W/m 10,5 C 17,0 C 22,5 km/h (4 Bft) 95,83 %
15.04.2018 18:18 20,1 C 11,1 C 54 % 1007,2 hPa 0,0 l/m 15,8 km/h (3 Bft) O 95 0 min 0,000 mm 0,0 UV-I 62 W/m 10,5 C 17,2 C 19,3 km/h (3 Bft) 100,00 %
15.04.2018 18:19 20,1 C 11,1 C 54 % 1007,2 hPa 0,0 l/m 15,4 km/h (3 Bft) O 100 0 min 0,000 mm 0,0 UV-I 62 W/m 10,5 C 17,3 C 19,3 km/h (3 Bft) 95,83 %
15.04.2018 18:20 20,1 C 11,1 C 54 % 1007,2 hPa 0,0 l/m 15,3 km/h (3 Bft) O 79 0 min 0,000 mm 0,0 UV-I 61 W/m 10,5 C 17,3 C 17,7 km/h (3 Bft) 100,00 %
15.04.2018 18:21 20,0 C 11,1 C 55 % 1007,2 hPa 0,0 l/m 15,4 km/h (3 Bft) O-SO 108 0 min 0,000 mm 0,0 UV-I 58 W/m 10,7 C 17,2 C 19,3 km/h (3 Bft) 96,67 %
15.04.2018 18:22 19,9 C 11,1 C 55 % 1007,2 hPa 0,0 l/m 14,4 km/h (3 Bft) O 85 0 min 0,000 mm 0,0 UV-I 58 W/m 10,6 C 17,3 C 24,1 km/h (4 Bft) 100,00 %
15.04.2018 18:23 19,9 C 11,1 C 55 % 1007,2 hPa 0,0 l/m 14,9 km/h (3 Bft) O 92 0 min 0,000 mm 0,0 UV-I 55 W/m 10,6 C 17,2 C 19,3 km/h (3 Bft) 95,65 %
15.04.2018 18:24 19,9 C 11,1 C 55 % 1007,2 hPa 0,0 l/m 16,9 km/h (3 Bft) O-SO 107 0 min 0,000 mm 0,0 UV-I 53 W/m 10,6 C 16,7 C 19,3 km/h (3 Bft) 95,83 %
15.04.2018 18:25 19,8 C 11,1 C 55 % 1007,2 hPa 0,0 l/m 11,7 km/h (2 Bft) O 84 0 min 0,000 mm 0,0 UV-I 53 W/m 10,5 C 17,9 C 14,5 km/h (3 Bft) 100,00 %
15.04.2018 18:26 19,8 C 11,1 C 55 % 1007,2 hPa 0,0 l/m 15,4 km/h (3 Bft) O 90 0 min 0,000 mm 0,0 UV-I 54 W/m 10,5 C 16,9 C 19,3 km/h (3 Bft) 95,83 %
15.04.2018 18:27 19,8 C 11,1 C 55 % 1007,2 hPa 0,0 l/m 14,5 km/h (3 Bft) O 87 0 min 0,000 mm 0,0 UV-I 53 W/m 10,5 C 17,1 C 17,7 km/h (3 Bft) 100,00 %
15.04.2018 18:28 19,8 C 11,1 C 55 % 1007,2 hPa 0,0 l/m 13,3 km/h (3 Bft) O-NO 65 0 min 0,000 mm 0,0 UV-I 53 W/m 10,5 C 17,4 C 17,7 km/h (3 Bft) 95,83 %
15.04.2018 18:29 19,8 C 11,1 C 56 % 1007,2 hPa 0,0 l/m 15,9 km/h (3 Bft) O-NO 77 0 min 0,000 mm 0,0 UV-I 54 W/m 10,8 C 16,8 C 27,4 km/h (4 Bft) 100,00 %
15.04.2018 18:30 19,8 C 11,1 C 55 % 1007,2 hPa 0,0 l/m 18,5 km/h (3 Bft) O-NO 60 0 min 0,000 mm 0,0 UV-I 55 W/m 10,5 C 16,2 C 24,1 km/h (4 Bft) 87,50 %
15.04.2018 18:31 19,8 C 11,7 C 55 % 1007,1 hPa 0,0 l/m 14,0 km/h (3 Bft) O 80 0 min 0,000 mm 0,0 UV-I 56 W/m 10,5 C 17,3 C 19,3 km/h (3 Bft) 100,00 %
15.04.2018 18:32 19,8 C 11,1 C 56 % 1007,1 hPa 0,0 l/m 13,2 km/h (3 Bft) O-NO 71 0 min 0,000 mm 0,0 UV-I 56 W/m 10,8 C 17,5 C 17,7 km/h (3 Bft) 91,67 %
15.04.2018 18:33 19,8 C 11,1 C 56 % 1007,1 hPa 0,0 l/m 14,8 km/h (3 Bft) O-NO 78 0 min 0,000 mm 0,0 UV-I 54 W/m 10,8 C 17,1 C 19,3 km/h (3 Bft) 95,65 %
15.04.2018 18:34 19,7 C 11,7 C 56 % 1007,1 hPa 0,0 l/m 16,2 km/h (3 Bft) O 87 0 min 0,000 mm 0,0 UV-I 54 W/m 10,7 C 16,6 C 19,3 km/h (3 Bft) 100,00 %
15.04.2018 18:35 19,7 C 11,1 C 56 % 1007,1 hPa 0,0 l/m 15,6 km/h (3 Bft) O 85 0 min 0,000 mm 0,0 UV-I 54 W/m 10,7 C 16,7 C 19,3 km/h (3 Bft) 95,65 %
15.04.2018 18:36 19,7 C 11,7 C 56 % 1007,1 hPa 0,0 l/m 12,7 km/h (3 Bft) O 89 0 min 0,000 mm 0,0 UV-I 54 W/m 10,7 C 17,5 C 17,7 km/h (3 Bft) 100,00 %
15.04.2018 18:37 19,7 C 11,1 C 56 % 1007,1 hPa 0,0 l/m 15,3 km/h (3 Bft) O 90 0 min 0,000 mm 0,0 UV-I 53 W/m 10,7 C 16,8 C 19,3 km/h (3 Bft) 95,83 %
15.04.2018 18:38 19,6 C 11,1 C 57 % 1007,1 hPa 0,0 l/m 15,6 km/h (3 Bft) O 92 0 min 0,000 mm 0,0 UV-I 52 W/m 10,8 C 16,6 C 19,3 km/h (3 Bft) 100,00 %
15.04.2018 18:39 19,6 C 11,1 C 57 % 1007,1 hPa 0,0 l/m 13,7 km/h (3 Bft) O 99 0 min 0,000 mm 0,0 UV-I 51 W/m 10,8 C 17,1 C 16,1 km/h (3 Bft) 91,67 %
15.04.2018 18:40 19,5 C 11,1 C 57 % 1007,1 hPa 0,0 l/m 13,2 km/h (3 Bft) O-NO 65 0 min 0,000 mm 0,0 UV-I 49 W/m 10,8 C 17,1 C 19,3 km/h (3 Bft) 100,00 %
15.04.2018 18:41 19,4 C 11,1 C 58 % 1007,1 hPa 0,0 l/m 12,5 km/h (3 Bft) O-NO 71 0 min 0,000 mm 0,0 UV-I 49 W/m 10,9 C 17,2 C 16,1 km/h (3 Bft) 91,67 %
15.04.2018 18:42 19,4 C 11,1 C 58 % 1007,1 hPa 0,0 l/m 13,2 km/h (3 Bft) O 88 0 min 0,000 mm 0,0 UV-I 47 W/m 10,9 C 17,0 C 16,1 km/h (3 Bft) 96,15 %
15.04.2018 18:43 19,4 C 11,1 C 58 % 1007,1 hPa 0,0 l/m 13,6 km/h (3 Bft) O-NO 61 0 min 0,000 mm 0,0 UV-I 46 W/m 10,9 C 16,9 C 19,3 km/h (3 Bft) 95,83 %
15.04.2018 18:44 19,3 C 11,7 C 59 % 1007,1 hPa 0,0 l/m 13,3 km/h (3 Bft) O 91 0 min 0,000 mm 0,0 UV-I 46 W/m 11,1 C 16,8 C 17,7 km/h (3 Bft) 95,65 %
15.04.2018 18:45 19,3 C 11,1 C 59 % 1007,1 hPa 0,0 l/m 13,6 km/h (3 Bft) O-NO 72 0 min 0,000 mm 0,0 UV-I 44 W/m 11,1 C 16,8 C 17,7 km/h (3 Bft) 95,83 %
15.04.2018 18:46 19,3 C 11,1 C 59 % 1007,1 hPa 0,0 l/m 12,9 km/h (3 Bft) O-NO 67 0 min 0,000 mm 0,0 UV-I 44 W/m 11,1 C 17,0 C 16,1 km/h (3 Bft) 95,65 %
15.04.2018 18:47 19,3 C 11,1 C 59 % 1007,1 hPa 0,0 l/m 13,1 km/h (3 Bft) O-NO 65 0 min 0,000 mm 0,0 UV-I 42 W/m 11,1 C 16,9 C 16,1 km/h (3 Bft) 95,83 %
15.04.2018 18:48 19,2 C 11,1 C 59 % 1007,1 hPa 0,0 l/m 11,7 km/h (2 Bft) O-SO 108 0 min 0,000 mm 0,0 UV-I 41 W/m 11,0 C 17,2 C 16,1 km/h (3 Bft) 96,15 %
15.04.2018 18:49 19,2 C 11,1 C 60 % 1007,2 hPa 0,0 l/m 9,3 km/h (2 Bft) O 96 0 min 0,000 mm 0,0 UV-I 40 W/m 11,2 C 18,0 C 12,9 km/h (3 Bft) 100,00 %
15.04.2018 18:50 19,2 C 11,1 C 60 % 1007,2 hPa 0,0 l/m 10,3 km/h (2 Bft) O 88 0 min 0,000 mm 0,0 UV-I 40 W/m 11,2 C 17,7 C 12,9 km/h (3 Bft) 100,00 %
15.04.2018 18:51 19,1 C 11,1 C 59 % 1007,2 hPa 0,0 l/m 10,1 km/h (2 Bft) O-NO 74 0 min 0,000 mm 0,0 UV-I 39 W/m 10,9 C 17,6 C 12,9 km/h (3 Bft) 97,14 %
15.04.2018 18:52 19,1 C 11,1 C 60 % 1007,2 hPa 0,0 l/m 9,7 km/h (2 Bft) O-NO 72 0 min 0,000 mm 0,0 UV-I 39 W/m 11,1 C 17,8 C 14,5 km/h (3 Bft) 95,65 %
15.04.2018 18:53 19,1 C 11,1 C 60 % 1007,2 hPa 0,0 l/m 11,3 km/h (2 Bft) O-NO 73 0 min 0,000 mm 0,0 UV-I 37 W/m 11,1 C 17,2 C 19,3 km/h (3 Bft) 100,00 %
15.04.2018 18:54 19,1 C 11,1 C 60 % 1007,2 hPa 0,0 l/m 11,1 km/h (2 Bft) O 80 0 min 0,000 mm 0,0 UV-I 36 W/m 11,1 C 17,3 C 14,5 km/h (3 Bft) 100,00 %
15.04.2018 18:55 19,1 C 11,1 C 60 % 1007,3 hPa 0,0 l/m 12,2 km/h (2 Bft) O-NO 71 0 min 0,000 mm 0,0 UV-I 35 W/m 11,1 C 16,9 C 16,1 km/h (3 Bft) 100,00 %
15.04.2018 18:56 19,1 C 11,1 C 60 % 1007,3 hPa 0,0 l/m 14,0 km/h (3 Bft) O-NO 73 0 min 0,000 mm 0,0 UV-I 34 W/m 11,1 C 16,4 C 17,7 km/h (3 Bft) 100,00 %
15.04.2018 18:58 19,1 C 11,1 C 60 % 1007,3 hPa 0,0 l/m 11,2 km/h (2 Bft) O 82 0 min 0,000 mm 0,0 UV-I 32 W/m 11,1 C 17,2 C 16,1 km/h (3 Bft) 98,28 %
15.04.2018 18:59 19,1 C 11,1 C 60 % 1007,3 hPa 0,0 l/m 10,8 km/h (2 Bft) O 84 0 min 0,000 mm 0,0 UV-I 32 W/m 11,1 C 17,4 C 12,9 km/h (3 Bft) 100,00 %
15.04.2018 19:00 19,1 C 11,1 C 60 % 1007,3 hPa 0,0 l/m 9,4 km/h (2 Bft) O 79 0 min 0,000 mm 0,0 UV-I 31 W/m 11,1 C 17,9 C 14,5 km/h (3 Bft) 100,00 %
15.04.2018 19:01 19,0 C 11,1 C 60 % 1007,3 hPa 0,0 l/m 13,5 km/h (3 Bft) O-NO 68 0 min 0,127 mm 0,0 UV-I 30 W/m 11,1 C 16,4 C 17,7 km/h (3 Bft) 100,00 %
15.04.2018 19:02 19,0 C 11,1 C 61 % 1007,3 hPa 0,0 l/m 11,5 km/h (2 Bft) O-NO 63 0 min 0,000 mm 0,0 UV-I 30 W/m 11,3 C 17,0 C 14,5 km/h (3 Bft) 100,00 %
15.04.2018 19:03 18,9 C 11,1 C 61 % 1007,2 hPa 0,0 l/m 15,2 km/h (3 Bft) O-NO 73 0 min 0,000 mm 0,0 UV-I 28 W/m 11,2 C 15,9 C 17,7 km/h (3 Bft) 96,15 %
15.04.2018 19:04 18,9 C 11,1 C 61 % 1007,3 hPa 0,0 l/m 14,1 km/h (3 Bft) O 92 0 min 0,000 mm 0,0 UV-I 28 W/m 11,2 C 16,2 C 17,7 km/h (3 Bft) 100,00 %
15.04.2018 19:05 18,9 C 11,1 C 61 % 1007,3 hPa 0,0 l/m 21,1 km/h (4 Bft) O-SO 113 0 min 0,000 mm 0,0 UV-I 26 W/m 11,2 C 14,6 C 27,4 km/h (4 Bft) 100,00 %
15.04.2018 19:06 18,9 C 11,1 C 61 % 1007,2 hPa 0,0 l/m 16,0 km/h (3 Bft) O-NO 78 0 min 0,000 mm 0,0 UV-I 26 W/m 11,2 C 15,7 C 19,3 km/h (3 Bft) 100,00 %
15.04.2018 19:07 18,9 C 11,7 C 62 % 1007,2 hPa 0,0 l/m 13,2 km/h (3 Bft) O 96 0 min 0,000 mm 0,0 UV-I 25 W/m 11,5 C 16,4 C 20,9 km/h (4 Bft) 95,65 %
15.04.2018 19:08 18,8 C 11,1 C 62 % 1007,3 hPa 0,0 l/m 12,6 km/h (3 Bft) O 87 0 min 0,000 mm 0,0 UV-I 24 W/m 11,4 C 16,5 C 16,1 km/h (3 Bft) 100,00 %
15.04.2018 19:09 18,8 C 11,1 C 62 % 1007,3 hPa 0,0 l/m 14,7 km/h (3 Bft) O-SO 109 0 min 0,000 mm 0,0 UV-I 23 W/m 11,4 C 15,9 C 19,3 km/h (3 Bft) 95,65 %
15.04.2018 19:10 18,7 C 11,1 C 62 % 1007,3 hPa 0,0 l/m 18,8 km/h (3 Bft) O-NO 75 0 min 0,000 mm 0,0 UV-I 23 W/m 11,3 C 14,8 C 20,9 km/h (4 Bft) 100,00 %
15.04.2018 19:11 18,7 C 11,1 C 62 % 1007,3 hPa 0,0 l/m 15,8 km/h (3 Bft) O-NO 66 0 min 0,000 mm 0,0 UV-I 21 W/m 11,3 C 15,5 C 19,3 km/h (3 Bft) 100,00 %
15.04.2018 19:12 18,7 C 11,1 C 62 % 1007,2 hPa 0,0 l/m 17,4 km/h (3 Bft) O 85 0 min 0,000 mm 0,0 UV-I 21 W/m 11,3 C 15,1 C 24,1 km/h (4 Bft) 100,00 %
15.04.2018 19:13 18,7 C 11,1 C 62 % 1007,2 hPa 0,0 l/m 14,0 km/h (3 Bft) O 90 0 min 0,000 mm 0,0 UV-I 20 W/m 11,3 C 15,9 C 17,7 km/h (3 Bft) 100,00 %
15.04.2018 19:14 18,7 C 11,1 C 62 % 1007,2 hPa 0,0 l/m 17,2 km/h (3 Bft) O-NO 73 0 min 0,000 mm 0,0 UV-I 18 W/m 11,3 C 15,1 C 22,5 km/h (4 Bft) 100,00 %
15.04.2018 19:15 18,7 C 11,1 C 62 % 1007,1 hPa 0,0 l/m 16,4 km/h (3 Bft) O 86 0 min 0,000 mm 0,0 UV-I 18 W/m 11,3 C 15,3 C 20,9 km/h (4 Bft) 100,00 %
15.04.2018 19:16 18,7 C 11,1 C 63 % 1007,2 hPa 0,0 l/m 16,4 km/h (3 Bft) O-NO 75 0 min 0,000 mm 0,0 UV-I 18 W/m 11,5 C 15,3 C 24,1 km/h (4 Bft) 92,31 %
15.04.2018 19:17 18,7 C 11,1 C 63 % 1007,1 hPa 0,0 l/m 18,3 km/h (3 Bft) O-NO 73 0 min 0,000 mm 0,0 UV-I 16 W/m 11,5 C 14,9 C 22,5 km/h (4 Bft) 100,00 %
15.04.2018 19:18 18,7 C 11,7 C 63 % 1007,1 hPa 0,0 l/m 15,4 km/h (3 Bft) O 96 0 min 0,000 mm 0,0 UV-I 16 W/m 11,5 C 15,6 C 20,9 km/h (4 Bft) 92,86 %
15.04.2018 19:19 18,6 C 11,1 C 63 % 1007,1 hPa 0,0 l/m 16,8 km/h (3 Bft) O 90 0 min 0,000 mm 0,0 UV-I 16 W/m 11,4 C 15,1 C 20,9 km/h (4 Bft) 100,00 %
15.04.2018 19:20 18,6 C 11,1 C 64 % 1007,2 hPa 0,0 l/m 14,6 km/h (3 Bft) O 100 0 min 0,000 mm 0,0 UV-I 16 W/m 11,7 C 15,7 C 17,7 km/h (3 Bft) 100,00 %
15.04.2018 19:21 18,5 C 11,1 C 64 % 1007,2 hPa 0,0 l/m 17,1 km/h (3 Bft) O-NO 65 0 min 0,000 mm 0,0 UV-I 14 W/m 11,6 C 14,9 C 22,5 km/h (4 Bft) 100,00 %
15.04.2018 19:22 18,5 C 11,1 C 64 % 1007,1 hPa 0,0 l/m 17,2 km/h (3 Bft) O 82 0 min 0,000 mm 0,0 UV-I 14 W/m 11,6 C 14,9 C 24,1 km/h (4 Bft) 100,00 %
15.04.2018 19:23 18,5 C 11,1 C 64 % 1007,2 hPa 0,0 l/m 17,8 km/h (3 Bft) O 95 0 min 0,000 mm 0,0 UV-I 14 W/m 11,6 C 14,7 C 25,7 km/h (4 Bft) 100,00 %
15.04.2018 19:24 18,5 C 11,1 C 64 % 1007,2 hPa 0,0 l/m 18,7 km/h (3 Bft) O-NO 76 0 min 0,000 mm 0,0 UV-I 14 W/m 11,6 C 14,5 C 27,4 km/h (4 Bft) 100,00 %
15.04.2018 19:25 18,5 C 11,1 C 64 % 1007,2 hPa 0,0 l/m 19,1 km/h (3 Bft) O-NO 63 0 min 0,000 mm 0,0 UV-I 13 W/m 11,6 C 14,5 C 20,9 km/h (4 Bft) 95,83 %
15.04.2018 19:26 18,5 C 11,1 C 64 % 1007,2 hPa 0,0 l/m 18,1 km/h (3 Bft) O-NO 73 0 min 0,000 mm 0,0 UV-I 12 W/m 11,6 C 14,7 C 20,9 km/h (4 Bft) 100,00 %
15.04.2018 19:28 18,4 C 11,1 C 64 % 1007,1 hPa 0,0 l/m 19,0 km/h (3 Bft) O 81 0 min 0,000 mm 0,0 UV-I 12 W/m 11,5 C 14,4 C 25,7 km/h (4 Bft) 100,00 %
15.04.2018 19:29 18,4 C 11,7 C 64 % 1007,1 hPa 0,0 l/m 20,9 km/h (4 Bft) O-NO 78 0 min 0,000 mm 0,0 UV-I 12 W/m 11,5 C 14,0 C 27,4 km/h (4 Bft) 100,00 %
15.04.2018 19:30 18,4 C 11,1 C 64 % 1007,1 hPa 0,0 l/m 22,9 km/h (4 Bft) O-NO 74 0 min 0,000 mm 0,0 UV-I 11 W/m 11,5 C 13,6 C 27,4 km/h (4 Bft) 100,00 %
15.04.2018 19:31 18,4 C 11,1 C 64 % 1007,0 hPa 0,0 l/m 20,8 km/h (4 Bft) O-NO 74 0 min 0,000 mm 0,0 UV-I 11 W/m 11,5 C 14,0 C 27,4 km/h (4 Bft) 95,65 %
15.04.2018 19:32 18,4 C 11,1 C 64 % 1007,1 hPa 0,0 l/m 19,2 km/h (3 Bft) O-NO 59 0 min 0,000 mm 0,0 UV-I 11 W/m 11,5 C 14,3 C 27,4 km/h (4 Bft) 100,00 %
15.04.2018 19:33 18,4 C 11,1 C 64 % 1007,1 hPa 0,0 l/m 16,9 km/h (3 Bft) O 90 0 min 0,000 mm 0,0 UV-I 11 W/m 11,5 C 14,8 C 22,5 km/h (4 Bft) 95,65 %
15.04.2018 19:34 18,3 C 11,1 C 64 % 1007,1 hPa 0,0 l/m 16,3 km/h (3 Bft) O 83 0 min 0,000 mm 0,0 UV-I 9 W/m 11,4 C 14,9 C 20,9 km/h (4 Bft) 100,00 %
15.04.2018 19:35 18,3 C 11,1 C 64 % 1007,0 hPa 0,0 l/m 16,2 km/h (3 Bft) O-NO 75 0 min 0,000 mm 0,0 UV-I 9 W/m 11,4 C 14,9 C 20,9 km/h (4 Bft) 95,65 %
15.04.2018 19:36 18,3 C 11,7 C 65 % 1007,0 hPa 0,0 l/m 16,0 km/h (3 Bft) O 98 0 min 0,000 mm 0,0 UV-I 9 W/m 11,6 C 14,9 C 19,3 km/h (3 Bft) 96,30 %
15.04.2018 19:37 18,3 C 11,7 C 65 % 1007,0 hPa 0,0 l/m 15,4 km/h (3 Bft) O-SO 104 0 min 0,000 mm 0,0 UV-I 9 W/m 11,6 C 15,1 C 20,9 km/h (4 Bft) 95,65 %
15.04.2018 19:38 18,2 C 11,1 C 65 % 1007,0 hPa 0,0 l/m 17,4 km/h (3 Bft) O-SO 103 0 min 0,000 mm 0,0 UV-I 7 W/m 11,5 C 14,5 C 20,9 km/h (4 Bft) 100,00 %
15.04.2018 19:39 18,2 C 11,1 C 65 % 1007,0 hPa 0,0 l/m 15,3 km/h (3 Bft) O 98 0 min 0,000 mm 0,0 UV-I 7 W/m 11,5 C 15,0 C 20,9 km/h (4 Bft) 95,65 %
15.04.2018 19:40 18,2 C 11,1 C 65 % 1007,0 hPa 0,0 l/m 17,9 km/h (3 Bft) O-SO 105 0 min 0,000 mm 0,0 UV-I 7 W/m 11,5 C 14,3 C 20,9 km/h (4 Bft) 95,83 %
15.04.2018 19:41 18,1 C 11,1 C 66 % 1007,0 hPa 0,0 l/m 18,3 km/h (3 Bft) O-NO 73 0 min 0,000 mm 0,0 UV-I 7 W/m 11,6 C 14,1 C 22,5 km/h (4 Bft) 100,00 %
15.04.2018 19:42 18,1 C 11,1 C 66 % 1007,0 hPa 0,0 l/m 19,2 km/h (3 Bft) O 97 0 min 0,000 mm 0,0 UV-I 7 W/m 11,6 C 13,9 C 22,5 km/h (4 Bft) 95,83 %
15.04.2018 19:43 18,1 C 11,1 C 66 % 1007,0 hPa 0,0 l/m 19,0 km/h (3 Bft) O 90 0 min 0,000 mm 0,0 UV-I 6 W/m 11,6 C 14,0 C 24,1 km/h (4 Bft) 95,65 %
15.04.2018 19:44 18,1 C 11,1 C 66 % 1007,0 hPa 0,0 l/m 17,8 km/h (3 Bft) O 83 0 min 0,000 mm 0,0 UV-I 5 W/m 11,6 C 14,2 C 24,1 km/h (4 Bft) 95,83 %
15.04.2018 19:45 18,1 C 11,1 C 66 % 1007,0 hPa 0,0 l/m 17,6 km/h (3 Bft) O-NO 72 0 min 0,000 mm 0,0 UV-I 5 W/m 11,6 C 14,3 C 24,1 km/h (4 Bft) 100,00 %
15.04.2018 19:46 18,1 C 11,7 C 66 % 1006,9 hPa 0,0 l/m 16,7 km/h (3 Bft) NO 54 0 min 0,000 mm 0,0 UV-I 5 W/m 11,6 C 14,5 C 22,5 km/h (4 Bft) 95,83 %
15.04.2018 19:47 18,1 C 11,1 C 66 % 1006,9 hPa 0,0 l/m 18,4 km/h (3 Bft) O-NO 76 0 min 0,000 mm 0,0 UV-I 5 W/m 11,6 C 14,1 C 20,9 km/h (4 Bft) 100,00 %
15.04.2018 19:48 18,1 C 11,1 C 66 % 1006,9 hPa 0,0 l/m 16,8 km/h (3 Bft) O 85 0 min 0,000 mm 0,0 UV-I 5 W/m 11,6 C 14,5 C 22,5 km/h (4 Bft) 91,67 %
15.04.2018 19:49 18,1 C 11,1 C 66 % 1006,9 hPa 0,0 l/m 16,7 km/h (3 Bft) O-NO 65 0 min 0,000 mm 0,0 UV-I 5 W/m 11,6 C 14,5 C 20,9 km/h (4 Bft) 96,15 %
15.04.2018 19:50 18,1 C 11,1 C 66 % 1006,9 hPa 0,0 l/m 17,8 km/h (3 Bft) O-NO 69 0 min 0,000 mm 0,0 UV-I 0 W/m 11,6 C 14,2 C 24,1 km/h (4 Bft) 100,00 %
15.04.2018 19:51 18,1 C 11,1 C 66 % 1006,9 hPa 0,0 l/m 15,0 km/h (3 Bft) O-NO 69 0 min 0,000 mm 0,0 UV-I 0 W/m 11,6 C 14,9 C 19,3 km/h (3 Bft) 91,30 %
15.04.2018 19:52 18,1 C 11,1 C 66 % 1006,8 hPa 0,0 l/m 15,6 km/h (3 Bft) O-NO 60 0 min 0,000 mm 0,0 UV-I 0 W/m 11,6 C 14,8 C 20,9 km/h (4 Bft) 95,83 %
15.04.2018 19:53 18,1 C 11,7 C 66 % 1006,8 hPa 0,0 l/m 15,2 km/h (3 Bft) O 91 0 min 0,000 mm 0,0 UV-I 0 W/m 11,6 C 14,9 C 20,9 km/h (4 Bft) 95,83 %
15.04.2018 19:54 18,1 C 11,7 C 66 % 1006,8 hPa 0,0 l/m 16,2 km/h (3 Bft) O-NO 66 0 min 0,000 mm 0,0 UV-I 0 W/m 11,6 C 14,6 C 19,3 km/h (3 Bft) 100,00 %
15.04.2018 19:55 18,0 C 11,1 C 66 % 1006,8 hPa 0,0 l/m 15,2 km/h (3 Bft) O-NO 67 0 min 0,000 mm 0,0 UV-I 0 W/m 11,6 C 14,8 C 19,3 km/h (3 Bft) 95,83 %
15.04.2018 19:56 18,0 C 11,7 C 66 % 1006,8 hPa 0,0 l/m 13,8 km/h (3 Bft) O 81 0 min 0,000 mm 0,0 UV-I 0 W/m 11,6 C 15,2 C 17,7 km/h (3 Bft) 100,00 %
15.04.2018 19:58 17,9 C 11,1 C 66 % 1006,8 hPa 0,0 l/m 16,4 km/h (3 Bft) O 101 0 min 0,000 mm 0,0 UV-I 0 W/m 11,5 C 14,3 C 22,5 km/h (4 Bft) 95,74 %
15.04.2018 19:59 17,9 C 11,1 C 66 % 1006,8 hPa 0,0 l/m 15,0 km/h (3 Bft) O 86 0 min 0,000 mm 0,0 UV-I 0 W/m 11,5 C 14,7 C 20,9 km/h (4 Bft) 100,00 %
15.04.2018 20:00 17,9 C 11,1 C 67 % 1006,9 hPa 0,0 l/m 13,4 km/h (3 Bft) O 93 0 min 0,000 mm 0,0 UV-I 0 W/m 11,7 C 15,2 C 16,1 km/h (3 Bft) 100,00 %
15.04.2018 20:01 17,9 C 11,1 C 67 % 1007,0 hPa 0,0 l/m 14,6 km/h (3 Bft) O-NO 78 0 min 0,102 mm 0,0 UV-I 0 W/m 11,7 C 14,8 C 17,7 km/h (3 Bft) 96,67 %
15.04.2018 20:02 17,9 C 11,1 C 67 % 1006,9 hPa 0,0 l/m 13,1 km/h (3 Bft) O-NO 71 0 min 0,000 mm 0,0 UV-I 0 W/m 11,7 C 15,3 C 16,1 km/h (3 Bft) 95,65 %
15.04.2018 20:03 17,9 C 11,7 C 67 % 1006,9 hPa 0,0 l/m 14,8 km/h (3 Bft) O 79 0 min 0,000 mm 0,0 UV-I 0 W/m 11,7 C 14,8 C 19,3 km/h (3 Bft) 100,00 %
15.04.2018 20:04 17,9 C 11,7 C 67 % 1006,9 hPa 0,0 l/m 13,5 km/h (3 Bft) O 90 0 min 0,000 mm 0,0 UV-I 0 W/m 11,7 C 15,1 C 16,1 km/h (3 Bft) 95,65 %
15.04.2018 20:05 17,9 C 11,1 C 67 % 1006,9 hPa 0,0 l/m 12,7 km/h (3 Bft) O-SO 105 0 min 0,000 mm 0,0 UV-I 0 W/m 11,7 C 15,4 C 17,7 km/h (3 Bft) 100,00 %
15.04.2018 20:06 17,9 C 11,1 C 67 % 1006,9 hPa 0,0 l/m 12,7 km/h (3 Bft) O-NO 78 0 min 0,000 mm 0,0 UV-I 0 W/m 11,7 C 15,4 C 17,7 km/h (3 Bft) 95,65 %
15.04.2018 20:07 17,8 C 11,1 C 67 % 1006,9 hPa 0,0 l/m 13,0 km/h (3 Bft) O 82 0 min 0,000 mm 0,0 UV-I 0 W/m 11,6 C 15,2 C 17,7 km/h (3 Bft) 95,83 %
15.04.2018 20:08 17,8 C 11,1 C 67 % 1006,9 hPa 0,0 l/m 10,6 km/h (2 Bft) O 82 0 min 0,000 mm 0,0 UV-I 0 W/m 11,6 C 16,0 C 14,5 km/h (3 Bft) 100,00 %
15.04.2018 20:09 17,8 C 11,7 C 67 % 1006,9 hPa 0,0 l/m 9,3 km/h (2 Bft) O 80 0 min 0,000 mm 0,0 UV-I 0 W/m 11,6 C 16,5 C 14,5 km/h (3 Bft) 100,00 %
15.04.2018 20:10 17,8 C 11,1 C 67 % 1006,9 hPa 0,0 l/m 12,2 km/h (2 Bft) O 88 0 min 0,000 mm 0,0 UV-I 0 W/m 11,6 C 15,4 C 16,1 km/h (3 Bft) 100,00 %
15.04.2018 20:11 17,8 C 11,7 C 67 % 1006,9 hPa 0,0 l/m 12,0 km/h (2 Bft) O-SO 105 0 min 0,000 mm 0,0 UV-I 0 W/m 11,6 C 15,5 C 16,1 km/h (3 Bft) 100,00 %
15.04.2018 20:12 17,8 C 11,7 C 67 % 1006,9 hPa 0,0 l/m 9,7 km/h (2 Bft) O-NO 65 0 min 0,000 mm 0,0 UV-I 0 W/m 11,6 C 16,3 C 12,9 km/h (3 Bft) 95,83 %
15.04.2018 20:13 17,8 C 11,7 C 67 % 1006,8 hPa 0,0 l/m 7,7 km/h (2 Bft) O 91 0 min 0,000 mm 0,0 UV-I 0 W/m 11,6 C 17,2 C 11,3 km/h (2 Bft) 100,00 %
15.04.2018 20:14 17,8 C 11,1 C 67 % 1006,8 hPa 0,0 l/m 9,1 km/h (2 Bft) O 94 0 min 0,000 mm 0,0 UV-I 0 W/m 11,6 C 16,6 C 11,3 km/h (2 Bft) 100,00 %
15.04.2018 20:15 17,7 C 11,1 C 67 % 1006,8 hPa 0,0 l/m 7,6 km/h (2 Bft) O 84 0 min 0,000 mm 0,0 UV-I 0 W/m 11,5 C 17,1 C 11,3 km/h (2 Bft) 100,00 %
15.04.2018 20:16 17,7 C 11,1 C 67 % 1006,8 hPa 0,0 l/m 9,9 km/h (2 Bft) O 80 0 min 0,000 mm 0,0 UV-I 0 W/m 11,5 C 16,1 C 14,5 km/h (3 Bft) 100,00 %
15.04.2018 20:17 17,8 C 11,7 C 67 % 1006,8 hPa 0,0 l/m 8,6 km/h (2 Bft) O-SO 103 0 min 0,000 mm 0,0 UV-I 0 W/m 11,6 C 16,8 C 11,3 km/h (2 Bft) 100,00 %
15.04.2018 20:18 17,7 C 11,1 C 68 % 1006,8 hPa 0,0 l/m 5,7 km/h (1 Bft) NO 51 0 min 0,000 mm 0,0 UV-I 0 W/m 11,7 C 17,7 C 9,7 km/h (2 Bft) 100,00 %
15.04.2018 20:19 17,7 C 11,1 C 68 % 1006,8 hPa 0,0 l/m 4,3 km/h (1 Bft) O-NO 72 0 min 0,000 mm 0,0 UV-I 0 W/m 11,7 C 17,7 C 6,4 km/h (2 Bft) 100,00 %
15.04.2018 20:20 17,7 C 11,7 C 68 % 1006,9 hPa 0,0 l/m 8,7 km/h (2 Bft) O-NO 73 0 min 0,000 mm 0,0 UV-I 0 W/m 11,7 C 16,6 C 12,9 km/h (3 Bft) 100,00 %
15.04.2018 20:21 17,6 C 11,7 C 68 % 1006,9 hPa 0,0 l/m 7,5 km/h (2 Bft) O-NO 66 0 min 0,000 mm 0,0 UV-I 0 W/m 11,6 C 17,1 C 11,3 km/h (2 Bft) 100,00 %
15.04.2018 20:22 17,6 C 11,1 C 68 % 1006,9 hPa 0,0 l/m 6,3 km/h (2 Bft) NO 55 0 min 0,000 mm 0,0 UV-I 0 W/m 11,6 C 17,6 C 9,7 km/h (2 Bft) 100,00 %
15.04.2018 20:23 17,6 C 11,1 C 68 % 1006,9 hPa 0,0 l/m 7,4 km/h (2 Bft) O-NO 58 0 min 0,000 mm 0,0 UV-I 0 W/m 11,6 C 17,1 C 9,7 km/h (2 Bft) 100,00 %
15.04.2018 20:24 17,6 C 11,1 C 68 % 1006,9 hPa 0,0 l/m 9,0 km/h (2 Bft) O-NO 73 0 min 0,000 mm 0,0 UV-I 0 W/m 11,6 C 16,4 C 12,9 km/h (3 Bft) 100,00 %
15.04.2018 20:25 17,6 C 11,1 C 68 % 1006,9 hPa 0,0 l/m 9,9 km/h (2 Bft) O-NO 59 0 min 0,000 mm 0,0 UV-I 0 W/m 11,6 C 16,0 C 12,9 km/h (3 Bft) 100,00 %
15.04.2018 20:26 17,6 C 11,1 C 68 % 1006,9 hPa 0,0 l/m 11,3 km/h (2 Bft) O-NO 74 0 min 0,000 mm 0,0 UV-I 0 W/m 11,6 C 15,5 C 16,1 km/h (3 Bft) 100,00 %
15.04.2018 20:27 17,6 C 11,1 C 68 % 1007,0 hPa 0,0 l/m 9,0 km/h (2 Bft) O-NO 70 0 min 0,000 mm 0,0 UV-I 0 W/m 11,6 C 16,4 C 14,5 km/h (3 Bft) 100,00 %
15.04.2018 20:28 17,7 C 11,1 C 68 % 1007,0 hPa 0,0 l/m 9,7 km/h (2 Bft) O-NO 65 0 min 0,000 mm 0,0 UV-I 0 W/m 11,7 C 16,2 C 12,9 km/h (3 Bft) 100,00 %
15.04.2018 20:29 17,7 C 11,1 C 68 % 1007,0 hPa 0,0 l/m 6,8 km/h (2 Bft) NO 49 0 min 0,000 mm 0,0 UV-I 0 W/m 11,7 C 17,5 C 11,3 km/h (2 Bft) 100,00 %
15.04.2018 20:30 17,6 C 11,1 C 68 % 1006,9 hPa 0,0 l/m 10,7 km/h (2 Bft) NO 51 0 min 0,000 mm 0,0 UV-I 0 W/m 11,6 C 15,7 C 16,1 km/h (3 Bft) 100,00 %
15.04.2018 20:31 17,6 C 11,1 C 68 % 1007,0 hPa 0,0 l/m 9,7 km/h (2 Bft) O-NO 71 0 min 0,000 mm 0,0 UV-I 0 W/m 11,6 C 16,1 C 14,5 km/h (3 Bft) 100,00 %
15.04.2018 20:32 17,6 C 11,1 C 68 % 1007,0 hPa 0,0 l/m 9,4 km/h (2 Bft) O-NO 61 0 min 0,000 mm 0,0 UV-I 0 W/m 11,6 C 16,2 C 12,9 km/h (3 Bft) 100,00 %
15.04.2018 20:33 17,6 C 11,1 C 68 % 1007,1 hPa 0,0 l/m 11,3 km/h (2 Bft) O 86 0 min 0,000 mm 0,0 UV-I 0 W/m 11,6 C 15,5 C 14,5 km/h (3 Bft) 100,00 %
15.04.2018 20:34 17,6 C 11,1 C 68 % 1007,2 hPa 0,0 l/m 9,1 km/h (2 Bft) O-SO 106 0 min 0,000 mm 0,0 UV-I 0 W/m 11,6 C 16,4 C 11,3 km/h (2 Bft) 95,65 %
15.04.2018 20:35 17,5 C 11,1 C 69 % 1007,2 hPa 0,0 l/m 9,7 km/h (2 Bft) O-SO 117 0 min 0,000 mm 0,0 UV-I 0 W/m 11,7 C 16,0 C 12,9 km/h (3 Bft) 100,00 %
15.04.2018 20:36 17,4 C 11,1 C 69 % 1007,2 hPa 0,0 l/m 6,1 km/h (2 Bft) O 83 0 min 0,000 mm 0,0 UV-I 0 W/m 11,7 C 17,4 C 8,0 km/h (2 Bft) 91,30 %
15.04.2018 20:37 17,4 C 11,7 C 69 % 1007,2 hPa 0,0 l/m 9,7 km/h (2 Bft) O-SO 103 0 min 0,000 mm 0,0 UV-I 0 W/m 11,7 C 15,9 C 14,5 km/h (3 Bft) 100,00 %
15.04.2018 20:38 17,4 C 11,1 C 69 % 1007,2 hPa 0,0 l/m 10,9 km/h (2 Bft) O 84 0 min 0,000 mm 0,0 UV-I 0 W/m 11,7 C 15,4 C 14,5 km/h (3 Bft) 95,65 %
15.04.2018 20:39 17,4 C 11,1 C 69 % 1007,2 hPa 0,0 l/m 10,9 km/h (2 Bft) O-SO 103 0 min 0,000 mm 0,0 UV-I 0 W/m 11,7 C 15,4 C 12,9 km/h (3 Bft) 100,00 %
15.04.2018 20:40 17,4 C 11,1 C 69 % 1007,2 hPa 0,0 l/m 10,6 km/h (2 Bft) O 101 0 min 0,000 mm 0,0 UV-I 0 W/m 11,7 C 15,5 C 14,5 km/h (3 Bft) 85,71 %
15.04.2018 20:41 17,4 C 11,1 C 69 % 1007,1 hPa 0,0 l/m 8,9 km/h (2 Bft) O-SO 113 0 min 0,000 mm 0,0 UV-I 0 W/m 11,7 C 16,2 C 12,9 km/h (3 Bft) 100,00 %
15.04.2018 20:42 17,5 C 11,1 C 69 % 1007,1 hPa 0,0 l/m 10,8 km/h (2 Bft) O 80 0 min 0,000 mm 0,0 UV-I 0 W/m 11,7 C 15,6 C 14,5 km/h (3 Bft) 100,00 %
15.04.2018 20:43 17,6 C 11,1 C 69 % 1007,1 hPa 0,0 l/m 10,4 km/h (2 Bft) O 100 0 min 0,000 mm 0,0 UV-I 0 W/m 11,8 C 15,8 C 16,1 km/h (3 Bft) 95,65 %
15.04.2018 20:44 17,6 C 11,1 C 68 % 1007,0 hPa 0,0 l/m 13,3 km/h (3 Bft) O 90 0 min 0,000 mm 0,0 UV-I 0 W/m 11,6 C 14,8 C 16,1 km/h (3 Bft) 100,00 %
15.04.2018 20:45 17,6 C 11,1 C 68 % 1006,9 hPa 0,0 l/m 9,8 km/h (2 Bft) O-SO 105 0 min 0,000 mm 0,0 UV-I 0 W/m 11,6 C 16,1 C 12,9 km/h (3 Bft) 100,00 %
15.04.2018 20:46 17,7 C 11,7 C 68 % 1007,0 hPa 0,0 l/m 12,3 km/h (3 Bft) O-SO 116 0 min 0,000 mm 0,0 UV-I 0 W/m 11,7 C 15,3 C 14,5 km/h (3 Bft) 100,00 %
15.04.2018 20:47 17,7 C 11,1 C 68 % 1007,0 hPa 0,0 l/m 8,6 km/h (2 Bft) SO 128 0 min 0,000 mm 0,0 UV-I 0 W/m 11,7 C 16,7 C 12,9 km/h (3 Bft) 100,00 %
15.04.2018 20:48 17,7 C 11,1 C 68 % 1007,0 hPa 0,0 l/m 8,0 km/h (2 Bft) SO 130 0 min 0,000 mm 0,0 UV-I 0 W/m 11,7 C 16,9 C 12,9 km/h (3 Bft) 100,00 %
15.04.2018 20:49 17,7 C 11,1 C 68 % 1007,0 hPa 0,0 l/m 7,7 km/h (2 Bft) O-SO 117 0 min 0,000 mm 0,0 UV-I 0 W/m 11,7 C 17,1 C 11,3 km/h (2 Bft) 95,65 %
15.04.2018 20:50 17,7 C 11,1 C 68 % 1007,0 hPa 0,0 l/m 6,6 km/h (2 Bft) O 99 0 min 0,000 mm 0,0 UV-I 0 W/m 11,7 C 17,6 C 9,7 km/h (2 Bft) 100,00 %
15.04.2018 20:51 17,6 C 11,1 C 68 % 1007,0 hPa 0,0 l/m 6,6 km/h (2 Bft) O-SO 121 0 min 0,000 mm 0,0 UV-I 0 W/m 11,6 C 17,5 C 9,7 km/h (2 Bft) 100,00 %
15.04.2018 20:52 17,6 C 11,1 C 68 % 1007,0 hPa 0,0 l/m 10,9 km/h (2 Bft) O-SO 108 0 min 0,000 mm 0,0 UV-I 0 W/m 11,6 C 15,7 C 14,5 km/h (3 Bft) 100,00 %
15.04.2018 20:53 17,6 C 11,1 C 68 % 1007,0 hPa 0,0 l/m 9,3 km/h (2 Bft) O-SO 106 0 min 0,000 mm 0,0 UV-I 0 W/m 11,6 C 16,3 C 12,9 km/h (3 Bft) 95,65 %
15.04.2018 20:54 17,7 C 11,7 C 68 % 1007,0 hPa 0,0 l/m 9,8 km/h (2 Bft) O 90 0 min 0,000 mm 0,0 UV-I 0 W/m 11,7 C 16,2 C 14,5 km/h (3 Bft) 100,00 %
15.04.2018 20:55 17,7 C 11,1 C 67 % 1007,0 hPa 0,0 l/m 9,9 km/h (2 Bft) O-SO 111 0 min 0,000 mm 0,0 UV-I 0 W/m 11,5 C 16,1 C 12,9 km/h (3 Bft) 100,00 %
15.04.2018 20:56 17,7 C 11,1 C 67 % 1007,0 hPa 0,0 l/m 11,4 km/h (2 Bft) O-SO 103 0 min 0,000 mm 0,0 UV-I 0 W/m 11,5 C 15,6 C 14,5 km/h (3 Bft) 100,00 %
15.04.2018 20:57 17,8 C 11,1 C 67 % 1007,0 hPa 0,0 l/m 12,2 km/h (2 Bft) O 88 0 min 0,000 mm 0,0 UV-I 0 W/m 11,6 C 15,4 C 14,5 km/h (3 Bft) 100,00 %
15.04.2018 20:58 17,8 C 11,1 C 67 % 1007,0 hPa 0,0 l/m 13,7 km/h (3 Bft) O 80 0 min 0,000 mm 0,0 UV-I 0 W/m 11,6 C 15,0 C 17,7 km/h (3 Bft) 100,00 %
15.04.2018 20:59 17,8 C 11,1 C 67 % 1007,0 hPa 0,0 l/m 11,0 km/h (2 Bft) O-SO 118 0 min 0,000 mm 0,0 UV-I 0 W/m 11,6 C 15,8 C 12,9 km/h (3 Bft) 100,00 %
15.04.2018 21:00 17,8 C 11,1 C 67 % 1007,0 hPa 0,0 l/m 12,4 km/h (3 Bft) O-SO 111 0 min 0,000 mm 0,0 UV-I 0 W/m 11,6 C 15,4 C 14,5 km/h (3 Bft) 100,00 %
15.04.2018 21:01 17,8 C 11,1 C 67 % 1007,0 hPa 0,0 l/m 10,4 km/h (2 Bft) O 81 0 min 0,051 mm 0,0 UV-I 0 W/m 11,6 C 16,1 C 12,9 km/h (3 Bft) 100,00 %
15.04.2018 21:02 17,8 C 11,1 C 67 % 1007,0 hPa 0,0 l/m 8,9 km/h (2 Bft) O 101 0 min 0,000 mm 0,0 UV-I 0 W/m 11,6 C 16,7 C 11,3 km/h (2 Bft) 100,00 %
15.04.2018 21:03 17,7 C 11,1 C 67 % 1007,1 hPa 0,0 l/m 9,7 km/h (2 Bft) O 94 0 min 0,000 mm 0,0 UV-I 0 W/m 11,5 C 16,2 C 12,9 km/h (3 Bft) 100,00 %
15.04.2018 21:04 17,7 C 11,1 C 68 % 1007,1 hPa 0,0 l/m 9,4 km/h (2 Bft) O 90 0 min 0,000 mm 0,0 UV-I 0 W/m 11,7 C 16,3 C 12,9 km/h (3 Bft) 100,00 %
15.04.2018 21:05 17,7 C 11,1 C 68 % 1007,0 hPa 0,0 l/m 8,9 km/h (2 Bft) O 85 0 min 0,000 mm 0,0 UV-I 0 W/m 11,7 C 16,5 C 11,3 km/h (2 Bft) 91,30 %
15.04.2018 21:06 17,6 C 11,1 C 68 % 1007,0 hPa 0,0 l/m 8,0 km/h (2 Bft) O 97 0 min 0,000 mm 0,0 UV-I 0 W/m 11,6 C 16,8 C 12,9 km/h (3 Bft) 91,67 %
15.04.2018 21:07 17,5 C 11,1 C 68 % 1007,0 hPa 0,0 l/m 8,6 km/h (2 Bft) O-NO 75 0 min 0,000 mm 0,0 UV-I 0 W/m 11,5 C 16,5 C 11,3 km/h (2 Bft) 96,30 %
15.04.2018 21:08 17,5 C 11,1 C 69 % 1007,0 hPa 0,0 l/m 9,1 km/h (2 Bft) O 91 0 min 0,000 mm 0,0 UV-I 0 W/m 11,7 C 16,2 C 12,9 km/h (3 Bft) 100,00 %
15.04.2018 21:09 17,4 C 11,1 C 69 % 1007,1 hPa 0,0 l/m 8,4 km/h (2 Bft) O 100 0 min 0,000 mm 0,0 UV-I 0 W/m 11,7 C 16,4 C 11,3 km/h (2 Bft) 100,00 %
15.04.2018 21:10 17,4 C 11,1 C 69 % 1007,1 hPa 0,0 l/m 8,2 km/h (2 Bft) O-SO 103 0 min 0,000 mm 0,0 UV-I 0 W/m 11,7 C 16,5 C 11,3 km/h (2 Bft) 100,00 %
15.04.2018 21:11 17,4 C 11,1 C 69 % 1007,1 hPa 0,0 l/m 7,0 km/h (2 Bft) O 100 0 min 0,000 mm 0,0 UV-I 0 W/m 11,7 C 17,1 C 9,7 km/h (2 Bft) 100,00 %
15.04.2018 21:12 17,4 C 11,1 C 69 % 1007,1 hPa 0,0 l/m 6,6 km/h (2 Bft) O 90 0 min 0,000 mm 0,0 UV-I 0 W/m 11,7 C 17,3 C 9,7 km/h (2 Bft) 100,00 %
15.04.2018 21:13 17,4 C 11,1 C 69 % 1007,2 hPa 0,0 l/m 6,2 km/h (2 Bft) O 99 0 min 0,000 mm 0,0 UV-I 0 W/m 11,7 C 17,4 C 9,7 km/h (2 Bft) 100,00 %
15.04.2018 21:14 17,4 C 11,1 C 69 % 1007,2 hPa 0,0 l/m 7,1 km/h (2 Bft) O-SO 102 0 min 0,000 mm 0,0 UV-I 0 W/m 11,7 C 17,1 C 9,7 km/h (2 Bft) 95,65 %
15.04.2018 21:15 17,3 C 11,1 C 69 % 1007,2 hPa 0,0 l/m 6,2 km/h (2 Bft) O-SO 102 0 min 0,000 mm 0,0 UV-I 0 W/m 11,6 C 17,3 C 9,7 km/h (2 Bft) 100,00 %
15.04.2018 21:16 17,3 C 11,1 C 70 % 1007,3 hPa 0,0 l/m 6,0 km/h (2 Bft) O-SO 105 0 min 0,000 mm 0,0 UV-I 0 W/m 11,8 C 17,3 C 9,7 km/h (2 Bft) 100,00 %
15.04.2018 21:17 17,3 C 11,1 C 70 % 1007,2 hPa 0,0 l/m 6,9 km/h (2 Bft) O-SO 107 0 min 0,000 mm 0,0 UV-I 0 W/m 11,8 C 17,1 C 9,7 km/h (2 Bft) 100,00 %
15.04.2018 21:18 17,2 C 11,1 C 70 % 1007,3 hPa 0,0 l/m 5,8 km/h (2 Bft) O-SO 104 0 min 0,000 mm 0,0 UV-I 0 W/m 11,7 C 17,2 C 9,7 km/h (2 Bft) 100,00 %
15.04.2018 21:19 17,2 C 11,1 C 70 % 1007,3 hPa 0,0 l/m 5,6 km/h (1 Bft) SO 124 0 min 0,000 mm 0,0 UV-I 0 W/m 11,7 C 17,2 C 9,7 km/h (2 Bft) 100,00 %
15.04.2018 21:20 17,2 C 11,1 C 70 % 1007,3 hPa 0,0 l/m 6,8 km/h (2 Bft) SO 135 0 min 0,000 mm 0,0 UV-I 0 W/m 11,7 C 17,0 C 8,0 km/h (2 Bft) 95,65 %
15.04.2018 21:21 17,2 C 11,1 C 70 % 1007,4 hPa 0,0 l/m 4,1 km/h (1 Bft) SO 134 0 min 0,000 mm 0,0 UV-I 0 W/m 11,7 C 17,2 C 4,8 km/h (1 Bft) 100,00 %
15.04.2018 21:22 17,3 C 11,1 C 69 % 1007,5 hPa 0,0 l/m 4,2 km/h (1 Bft) SO 127 0 min 0,000 mm 0,0 UV-I 0 W/m 11,6 C 17,3 C 6,4 km/h (2 Bft) 95,65 %
15.04.2018 21:23 17,3 C 11,1 C 69 % 1007,4 hPa 0,0 l/m 4,0 km/h (1 Bft) SO 129 0 min 0,000 mm 0,0 UV-I 0 W/m 11,6 C 17,3 C 4,8 km/h (1 Bft) 91,67 %
15.04.2018 21:24 17,3 C 11,1 C 69 % 1007,5 hPa 0,0 l/m 4,4 km/h (1 Bft) S-SO 155 0 min 0,000 mm 0,0 UV-I 0 W/m 11,6 C 17,3 C 4,8 km/h (1 Bft) 100,00 %
15.04.2018 21:25 17,2 C 11,1 C 69 % 1007,5 hPa 0,0 l/m 2,9 km/h (1 Bft) SO 126 0 min 0,000 mm 0,0 UV-I 0 W/m 11,5 C 17,2 C 4,8 km/h (1 Bft) 100,00 %
15.04.2018 21:26 17,2 C 11,1 C 70 % 1007,4 hPa 0,0 l/m 4,1 km/h (1 Bft) SO 125 0 min 0,000 mm 0,0 UV-I 0 W/m 11,7 C 17,2 C 4,8 km/h (1 Bft) 100,00 %
15.04.2018 21:27 17,1 C 11,1 C 70 % 1007,3 hPa 0,0 l/m 5,4 km/h (1 Bft) O-SO 119 0 min 0,000 mm 0,0 UV-I 0 W/m 11,6 C 17,1 C 6,4 km/h (2 Bft) 95,65 %
15.04.2018 21:28 17,1 C 11,1 C 70 % 1007,3 hPa 0,0 l/m 6,2 km/h (2 Bft) O 99 0 min 0,000 mm 0,0 UV-I 0 W/m 11,6 C 17,1 C 9,7 km/h (2 Bft) 100,00 %
15.04.2018 21:29 17,1 C 11,1 C 70 % 1007,4 hPa 0,0 l/m 6,4 km/h (2 Bft) O-SO 111 0 min 0,000 mm 0,0 UV-I 0 W/m 11,6 C 17,1 C 9,7 km/h (2 Bft) 95,65 %
15.04.2018 21:30 17,1 C 11,1 C 70 % 1007,4 hPa 0,0 l/m 7,1 km/h (2 Bft) O-SO 106 0 min 0,000 mm 0,0 UV-I 0 W/m 11,6 C 16,7 C 11,3 km/h (2 Bft) 100,00 %
15.04.2018 21:31 17,1 C 11,1 C 70 % 1007,4 hPa 0,0 l/m 8,8 km/h (2 Bft) O 101 0 min 0,000 mm 0,0 UV-I 0 W/m 11,6 C 15,9 C 11,3 km/h (2 Bft) 100,00 %
15.04.2018 21:32 17,2 C 11,1 C 70 % 1007,5 hPa 0,0 l/m 8,4 km/h (2 Bft) O-SO 111 0 min 0,000 mm 0,0 UV-I 0 W/m 11,7 C 16,2 C 11,3 km/h (2 Bft) 95,83 %
15.04.2018 21:33 17,2 C 11,1 C 70 % 1007,5 hPa 0,0 l/m 7,6 km/h (2 Bft) O-SO 109 0 min 0,000 mm 0,0 UV-I 0 W/m 11,7 C 16,6 C 11,3 km/h (2 Bft) 95,65 %
15.04.2018 21:34 17,2 C 11,1 C 70 % 1007,4 hPa 0,0 l/m 9,0 km/h (2 Bft) O 94 0 min 0,000 mm 0,0 UV-I 0 W/m 11,7 C 16,0 C 11,3 km/h (2 Bft) 100,00 %
15.04.2018 21:35 17,3 C 11,1 C 69 % 1007,5 hPa 0,0 l/m 8,6 km/h (2 Bft) O-SO 102 0 min 0,000 mm 0,0 UV-I 0 W/m 11,6 C 16,2 C 11,3 km/h (2 Bft) 91,30 %
15.04.2018 21:36 17,3 C 11,1 C 69 % 1007,5 hPa 0,0 l/m 8,6 km/h (2 Bft) O 98 0 min 0,000 mm 0,0 UV-I 0 W/m 11,6 C 16,2 C 12,9 km/h (3 Bft) 95,83 %
15.04.2018 21:37 17,3 C 11,1 C 69 % 1007,5 hPa 0,0 l/m 10,7 km/h (2 Bft) O 98 0 min 0,000 mm 0,0 UV-I 0 W/m 11,6 C 15,4 C 12,9 km/h (3 Bft) 96,15 %
15.04.2018 21:38 17,3 C 11,1 C 69 % 1007,5 hPa 0,0 l/m 8,6 km/h (2 Bft) O-SO 107 0 min 0,000 mm 0,0 UV-I 0 W/m 11,6 C 16,2 C 11,3 km/h (2 Bft) 100,00 %
15.04.2018 21:39 17,3 C 11,1 C 69 % 1007,5 hPa 0,0 l/m 6,0 km/h (2 Bft) O 100 0 min 0,000 mm 0,0 UV-I 0 W/m 11,6 C 17,3 C 9,7 km/h (2 Bft) 96,15 %
15.04.2018 21:40 17,3 C 11,1 C 69 % 1007,6 hPa 0,0 l/m 7,3 km/h (2 Bft) SO 125 0 min 0,000 mm 0,0 UV-I 0 W/m 11,6 C 16,9 C 11,3 km/h (2 Bft) 100,00 %
15.04.2018 21:41 17,3 C 11,1 C 69 % 1007,5 hPa 0,0 l/m 7,2 km/h (2 Bft) SO 129 0 min 0,000 mm 0,0 UV-I 0 W/m 11,6 C 16,9 C 8,0 km/h (2 Bft) 91,30 %
15.04.2018 21:42 17,3 C 11,1 C 69 % 1007,6 hPa 0,0 l/m 6,1 km/h (2 Bft) SO 133 0 min 0,000 mm 0,0 UV-I 0 W/m 11,6 C 17,3 C 8,0 km/h (2 Bft) 100,00 %
15.04.2018 21:43 17,3 C 11,1 C 69 % 1007,6 hPa 0,0 l/m 5,7 km/h (1 Bft) SO 137 0 min 0,000 mm 0,0 UV-I 0 W/m 11,6 C 17,3 C 8,0 km/h (2 Bft) 95,83 %
15.04.2018 21:44 17,2 C 11,1 C 70 % 1007,5 hPa 0,0 l/m 6,1 km/h (2 Bft) SO 128 0 min 0,000 mm 0,0 UV-I 0 W/m 11,7 C 17,2 C 8,0 km/h (2 Bft) 95,65 %
15.04.2018 21:45 17,1 C 11,1 C 70 % 1007,6 hPa 0,0 l/m 5,3 km/h (1 Bft) SO 127 0 min 0,000 mm 0,0 UV-I 0 W/m 11,6 C 17,1 C 8,0 km/h (2 Bft) 100,00 %
15.04.2018 21:46 17,0 C 11,1 C 70 % 1007,6 hPa 0,0 l/m 4,6 km/h (1 Bft) SO 126 0 min 0,000 mm 0,0 UV-I 0 W/m 11,5 C 17,0 C 6,4 km/h (2 Bft) 91,30 %
15.04.2018 21:47 17,0 C 11,1 C 70 % 1007,6 hPa 0,0 l/m 5,4 km/h (1 Bft) SO 130 0 min 0,000 mm 0,0 UV-I 0 W/m 11,5 C 17,0 C 8,0 km/h (2 Bft) 100,00 %
15.04.2018 21:48 17,0 C 11,1 C 70 % 1007,6 hPa 0,0 l/m 5,0 km/h (1 Bft) SO 128 0 min 0,000 mm 0,0 UV-I 0 W/m 11,5 C 17,0 C 6,4 km/h (2 Bft) 92,31 %
15.04.2018 21:49 17,0 C 11,1 C 70 % 1007,6 hPa 0,0 l/m 4,0 km/h (1 Bft) SO 128 0 min 0,000 mm 0,0 UV-I 0 W/m 11,5 C 17,0 C 6,4 km/h (2 Bft) 95,83 %
15.04.2018 21:50 17,1 C 11,1 C 70 % 1007,7 hPa 0,0 l/m 3,7 km/h (1 Bft) SO 130 0 min 0,000 mm 0,0 UV-I 0 W/m 11,6 C 17,1 C 6,4 km/h (2 Bft) 95,65 %
15.04.2018 21:51 17,0 C 11,1 C 70 % 1007,7 hPa 0,0 l/m 3,1 km/h (1 Bft) SO 130 0 min 0,000 mm 0,0 UV-I 0 W/m 11,5 C 17,0 C 3,2 km/h (1 Bft) 96,30 %
15.04.2018 21:52 17,0 C 11,1 C 70 % 1007,7 hPa 0,0 l/m 2,8 km/h (1 Bft) SO 130 0 min 0,000 mm 0,0 UV-I 0 W/m 11,5 C 17,0 C 3,2 km/h (1 Bft) 100,00 %
15.04.2018 21:53 17,0 C 11,1 C 70 % 1007,7 hPa 0,0 l/m 2,3 km/h (1 Bft) SO 130 0 min 0,000 mm 0,0 UV-I 0 W/m 11,5 C 17,0 C 3,2 km/h (1 Bft) 88,89 %
15.04.2018 21:54 17,0 C 11,1 C 70 % 1007,7 hPa 0,0 l/m 1,7 km/h (1 Bft) SO 130 0 min 0,000 mm 0,0 UV-I 0 W/m 11,5 C 17,0 C 3,2 km/h (1 Bft) 95,65 %
15.04.2018 21:55 16,9 C 11,1 C 71 % 1007,7 hPa 0,0 l/m 1,9 km/h (1 Bft) SO 130 0 min 0,000 mm 0,0 UV-I 0 W/m 11,6 C 16,9 C 3,2 km/h (1 Bft) 91,67 %
15.04.2018 21:56 16,9 C 11,1 C 71 % 1007,6 hPa 0,0 l/m 1,9 km/h (1 Bft) SO 130 0 min 0,000 mm 0,0 UV-I 0 W/m 11,6 C 16,9 C 3,2 km/h (1 Bft) 91,30 %
15.04.2018 21:57 16,8 C 11,1 C 71 % 1007,7 hPa 0,0 l/m 3,1 km/h (1 Bft) SO 129 0 min 0,000 mm 0,0 UV-I 0 W/m 11,5 C 16,8 C 4,8 km/h (1 Bft) 91,67 %
15.04.2018 21:58 16,8 C 11,1 C 71 % 1007,7 hPa 0,0 l/m 1,5 km/h (1 Bft) SO 129 0 min 0,000 mm 0,0 UV-I 0 W/m 11,5 C 16,8 C 3,2 km/h (1 Bft) 100,00 %
15.04.2018 21:59 16,8 C 11,1 C 71 % 1007,7 hPa 0,0 l/m 3,7 km/h (1 Bft) SO 129 0 min 0,000 mm 0,0 UV-I 0 W/m 11,5 C 16,8 C 4,8 km/h (1 Bft) 92,31 %
15.04.2018 22:00 16,8 C 11,1 C 70 % 1007,7 hPa 0,0 l/m 3,6 km/h (1 Bft) SO 129 0 min 0,000 mm 0,0 UV-I 0 W/m 11,3 C 16,8 C 4,8 km/h (1 Bft) 95,83 %
15.04.2018 22:01 16,9 C 11,1 C 70 % 1007,7 hPa 0,0 l/m 3,6 km/h (1 Bft) SO 129 0 min 0,025 mm 0,0 UV-I 0 W/m 11,4 C 16,9 C 4,8 km/h (1 Bft) 95,83 %
15.04.2018 22:02 17,1 C 11,1 C 70 % 1007,7 hPa 0,0 l/m 3,5 km/h (1 Bft) SO 129 0 min 0,000 mm 0,0 UV-I 0 W/m 11,6 C 17,1 C 4,8 km/h (1 Bft) 92,31 %
15.04.2018 22:03 17,2 C 11,1 C 69 % 1007,6 hPa 0,0 l/m 4,4 km/h (1 Bft) SO 128 0 min 0,000 mm 0,0 UV-I 0 W/m 11,5 C 17,2 C 6,4 km/h (2 Bft) 95,65 %
15.04.2018 22:04 17,2 C 11,1 C 68 % 1007,7 hPa 0,0 l/m 4,2 km/h (1 Bft) O-SO 123 0 min 0,000 mm 0,0 UV-I 0 W/m 11,2 C 17,2 C 6,4 km/h (2 Bft) 91,67 %
15.04.2018 22:05 17,3 C 11,1 C 68 % 1007,6 hPa 0,0 l/m 4,8 km/h (1 Bft) O 98 0 min 0,000 mm 0,0 UV-I 0 W/m 11,3 C 17,3 C 6,4 km/h (2 Bft) 100,00 %
15.04.2018 22:06 17,3 C 11,1 C 68 % 1007,7 hPa 0,0 l/m 5,2 km/h (1 Bft) O-SO 111 0 min 0,000 mm 0,0 UV-I 0 W/m 11,3 C 17,3 C 9,7 km/h (2 Bft) 95,83 %
15.04.2018 22:07 17,3 C 11,1 C 68 % 1007,7 hPa 0,0 l/m 7,0 km/h (2 Bft) O-SO 106 0 min 0,000 mm 0,0 UV-I 0 W/m 11,3 C 17,0 C 11,3 km/h (2 Bft) 95,65 %
15.04.2018 22:08 17,3 C 11,1 C 68 % 1007,7 hPa 0,0 l/m 6,2 km/h (2 Bft) O 80 0 min 0,000 mm 0,0 UV-I 0 W/m 11,3 C 17,3 C 9,7 km/h (2 Bft) 100,00 %
15.04.2018 22:09 17,2 C 11,1 C 69 % 1007,7 hPa 0,0 l/m 8,3 km/h (2 Bft) O 86 0 min 0,000 mm 0,0 UV-I 0 W/m 11,5 C 16,3 C 12,9 km/h (3 Bft) 100,00 %
15.04.2018 22:10 17,1 C 11,1 C 69 % 1007,7 hPa 0,0 l/m 5,8 km/h (2 Bft) O-SO 105 0 min 0,000 mm 0,0 UV-I 0 W/m 11,4 C 17,1 C 9,7 km/h (2 Bft) 95,83 %
15.04.2018 22:11 17,0 C 11,1 C 70 % 1007,7 hPa 0,0 l/m 6,4 km/h (2 Bft) O-SO 106 0 min 0,000 mm 0,0 UV-I 0 W/m 11,5 C 17,0 C 9,7 km/h (2 Bft) 95,65 %
15.04.2018 22:13 16,9 C 11,1 C 70 % 1007,7 hPa 0,0 l/m 5,4 km/h (1 Bft) O-SO 106 0 min 0,000 mm 0,0 UV-I 0 W/m 11,4 C 16,9 C 9,7 km/h (2 Bft) 92,00 %
15.04.2018 22:14 16,8 C 11,1 C 70 % 1007,7 hPa 0,0 l/m 6,7 km/h (2 Bft) O-SO 103 0 min 0,000 mm 0,0 UV-I 0 W/m 11,3 C 16,7 C 9,7 km/h (2 Bft) 100,00 %
15.04.2018 22:15 16,8 C 11,1 C 70 % 1007,7 hPa 0,0 l/m 5,9 km/h (2 Bft) O-SO 104 0 min 0,000 mm 0,0 UV-I 0 W/m 11,3 C 16,8 C 9,7 km/h (2 Bft) 95,65 %
15.04.2018 22:16 16,8 C 11,1 C 70 % 1007,7 hPa 0,0 l/m 6,1 km/h (2 Bft) O 98 0 min 0,000 mm 0,0 UV-I 0 W/m 11,3 C 16,8 C 9,7 km/h (2 Bft) 100,00 %
15.04.2018 22:17 16,9 C 11,1 C 69 % 1007,6 hPa 0,0 l/m 5,9 km/h (2 Bft) O-SO 111 0 min 0,000 mm 0,0 UV-I 0 W/m 11,2 C 16,9 C 9,7 km/h (2 Bft) 95,65 %
15.04.2018 22:18 16,9 C 11,1 C 69 % 1007,6 hPa 0,0 l/m 4,9 km/h (1 Bft) O-SO 107 0 min 0,000 mm 0,0 UV-I 0 W/m 11,2 C 16,9 C 6,4 km/h (2 Bft) 100,00 %
15.04.2018 22:19 17,0 C 11,1 C 69 % 1007,6 hPa 0,0 l/m 7,0 km/h (2 Bft) O 90 0 min 0,000 mm 0,0 UV-I 0 W/m 11,3 C 16,7 C 9,7 km/h (2 Bft) 91,67 %
15.04.2018 22:20 17,0 C 11,1 C 69 % 1007,6 hPa 0,0 l/m 4,8 km/h (1 Bft) O-SO 102 0 min 0,000 mm 0,0 UV-I 0 W/m 11,3 C 17,0 C 6,4 km/h (2 Bft) 95,65 %
15.04.2018 22:21 16,9 C 11,1 C 70 % 1007,6 hPa 0,0 l/m 3,8 km/h (1 Bft) O 101 0 min 0,000 mm 0,0 UV-I 0 W/m 11,4 C 16,9 C 4,8 km/h (1 Bft) 100,00 %
15.04.2018 22:22 16,9 C 11,1 C 70 % 1007,6 hPa 0,0 l/m 4,5 km/h (1 Bft) O 101 0 min 0,000 mm 0,0 UV-I 0 W/m 11,4 C 16,9 C 6,4 km/h (2 Bft) 95,65 %
15.04.2018 22:23 16,8 C 11,1 C 70 % 1007,6 hPa 0,0 l/m 3,7 km/h (1 Bft) O 101 0 min 0,000 mm 0,0 UV-I 0 W/m 11,3 C 16,8 C 4,8 km/h (1 Bft) 100,00 %
15.04.2018 22:24 16,9 C 11,1 C 70 % 1007,6 hPa 0,0 l/m 3,2 km/h (1 Bft) O 101 0 min 0,000 mm 0,0 UV-I 0 W/m 11,4 C 16,9 C 4,8 km/h (1 Bft) 96,15 %
15.04.2018 22:25 16,8 C 11,1 C 70 % 1007,6 hPa 0,0 l/m 3,1 km/h (1 Bft) O 101 0 min 0,000 mm 0,0 UV-I 0 W/m 11,3 C 16,8 C 4,8 km/h (1 Bft) 95,83 %
15.04.2018 22:26 16,8 C 11,1 C 70 % 1007,6 hPa 0,0 l/m 2,8 km/h (1 Bft) O 101 0 min 0,000 mm 0,0 UV-I 0 W/m 11,3 C 16,8 C 4,8 km/h (1 Bft) 95,65 %
15.04.2018 22:27 16,8 C 11,1 C 70 % 1007,6 hPa 0,0 l/m 3,8 km/h (1 Bft) O 101 0 min 0,000 mm 0,0 UV-I 0 W/m 11,3 C 16,8 C 4,8 km/h (1 Bft) 100,00 %
15.04.2018 22:28 16,9 C 11,1 C 69 % 1007,6 hPa 0,0 l/m 3,8 km/h (1 Bft) O 101 0 min 0,000 mm 0,0 UV-I 0 W/m 11,2 C 16,9 C 6,4 km/h (2 Bft) 95,65 %
15.04.2018 22:29 16,9 C 11,1 C 69 % 1007,6 hPa 0,0 l/m 6,3 km/h (2 Bft) O 82 0 min 0,000 mm 0,0 UV-I 0 W/m 11,2 C 16,9 C 9,7 km/h (2 Bft) 95,83 %
15.04.2018 22:30 17,1 C 11,1 C 69 % 1007,6 hPa 0,0 l/m 6,1 km/h (2 Bft) O-NO 76 0 min 0,000 mm 0,0 UV-I 0 W/m 11,4 C 17,1 C 9,7 km/h (2 Bft) 100,00 %
15.04.2018 22:31 17,1 C 11,1 C 69 % 1007,6 hPa 0,0 l/m 5,4 km/h (1 Bft) O-NO 66 0 min 0,000 mm 0,0 UV-I 0 W/m 11,4 C 17,1 C 6,4 km/h (2 Bft) 95,83 %
15.04.2018 22:32 17,0 C 11,1 C 69 % 1007,5 hPa 0,0 l/m 5,9 km/h (2 Bft) O-NO 66 0 min 0,000 mm 0,0 UV-I 0 W/m 11,3 C 17,0 C 6,4 km/h (2 Bft) 100,00 %
15.04.2018 22:33 17,0 C 11,1 C 69 % 1007,5 hPa 0,0 l/m 6,4 km/h (2 Bft) O-NO 66 0 min 0,000 mm 0,0 UV-I 0 W/m 11,3 C 17,0 C 8,0 km/h (2 Bft) 95,83 %
15.04.2018 22:34 17,0 C 11,1 C 69 % 1007,4 hPa 0,0 l/m 5,4 km/h (1 Bft) O-NO 69 0 min 0,000 mm 0,0 UV-I 0 W/m 11,3 C 17,0 C 6,4 km/h (2 Bft) 100,00 %
15.04.2018 22:35 16,9 C 11,1 C 69 % 1007,3 hPa 0,0 l/m 5,5 km/h (1 Bft) O-NO 78 0 min 0,000 mm 0,0 UV-I 0 W/m 11,2 C 16,9 C 8,0 km/h (2 Bft) 95,83 %
15.04.2018 22:36 16,9 C 11,1 C 69 % 1007,3 hPa 0,0 l/m 8,2 km/h (2 Bft) O-NO 62 0 min 0,000 mm 0,0 UV-I 0 W/m 11,2 C 16,0 C 11,3 km/h (2 Bft) 100,00 %
15.04.2018 22:37 16,8 C 11,1 C 70 % 1007,3 hPa 0,0 l/m 7,8 km/h (2 Bft) O 81 0 min 0,000 mm 0,0 UV-I 0 W/m 11,3 C 16,1 C 11,3 km/h (2 Bft) 95,83 %
15.04.2018 22:38 16,8 C 11,1 C 69 % 1007,3 hPa 0,0 l/m 6,8 km/h (2 Bft) O 92 0 min 0,000 mm 0,0 UV-I 0 W/m 11,1 C 16,6 C 9,7 km/h (2 Bft) 100,00 %
15.04.2018 22:39 16,8 C 11,1 C 70 % 1007,2 hPa 0,0 l/m 7,3 km/h (2 Bft) O 81 0 min 0,000 mm 0,0 UV-I 0 W/m 11,3 C 16,3 C 11,3 km/h (2 Bft) 97,75 %
15.04.2018 22:40 16,8 C 11,1 C 70 % 1007,2 hPa 0,0 l/m 7,2 km/h (2 Bft) O 82 0 min 0,000 mm 0,0 UV-I 0 W/m 11,3 C 16,4 C 11,3 km/h (2 Bft) 97,44 %
15.04.2018 22:41 16,8 C 11,1 C 70 % 1007,2 hPa 0,0 l/m 6,3 km/h (2 Bft) O 96 0 min 0,000 mm 0,0 UV-I 0 W/m 11,3 C 16,8 C 9,7 km/h (2 Bft) 95,65 %
15.04.2018 22:42 16,8 C 11,1 C 70 % 1007,2 hPa 0,0 l/m 5,6 km/h (1 Bft) O-NO 70 0 min 0,000 mm 0,0 UV-I 0 W/m 11,3 C 16,8 C 8,0 km/h (2 Bft) 100,00 %
15.04.2018 22:43 16,7 C 11,1 C 70 % 1007,2 hPa 0,0 l/m 5,5 km/h (1 Bft) O-NO 75 0 min 0,000 mm 0,0 UV-I 0 W/m 11,2 C 16,7 C 8,0 km/h (2 Bft) 91,30 %
15.04.2018 22:44 16,7 C 11,1 C 70 % 1007,2 hPa 0,0 l/m 6,2 km/h (2 Bft) O-NO 75 0 min 0,000 mm 0,0 UV-I 0 W/m 11,2 C 16,7 C 8,0 km/h (2 Bft) 95,83 %
15.04.2018 22:45 16,8 C 11,1 C 69 % 1007,2 hPa 0,0 l/m 6,1 km/h (2 Bft) O 87 0 min 0,000 mm 0,0 UV-I 0 W/m 11,1 C 16,8 C 9,7 km/h (2 Bft) 100,00 %
15.04.2018 22:46 16,8 C 11,1 C 69 % 1007,2 hPa 0,0 l/m 7,3 km/h (2 Bft) O 101 0 min 0,000 mm 0,0 UV-I 0 W/m 11,1 C 16,3 C 11,3 km/h (2 Bft) 95,83 %
15.04.2018 22:47 16,8 C 11,1 C 69 % 1007,2 hPa 0,0 l/m 8,3 km/h (2 Bft) O 93 0 min 0,000 mm 0,0 UV-I 0 W/m 11,1 C 15,8 C 11,3 km/h (2 Bft) 100,00 %
15.04.2018 22:48 16,8 C 11,1 C 69 % 1007,2 hPa 0,0 l/m 10,3 km/h (2 Bft) O 99 0 min 0,000 mm 0,0 UV-I 0 W/m 11,1 C 15,0 C 12,9 km/h (3 Bft) 91,67 %
15.04.2018 22:49 16,9 C 11,1 C 69 % 1007,2 hPa 0,0 l/m 8,0 km/h (2 Bft) O 92 0 min 0,000 mm 0,0 UV-I 0 W/m 11,2 C 16,1 C 11,3 km/h (2 Bft) 100,00 %
15.04.2018 22:50 16,9 C 11,1 C 69 % 1007,2 hPa 0,0 l/m 9,3 km/h (2 Bft) O 89 0 min 0,000 mm 0,0 UV-I 0 W/m 11,2 C 15,5 C 11,3 km/h (2 Bft) 95,83 %
15.04.2018 22:51 16,9 C 11,1 C 68 % 1007,1 hPa 0,0 l/m 7,6 km/h (2 Bft) O 97 0 min 0,000 mm 0,0 UV-I 0 W/m 11,0 C 16,3 C 12,9 km/h (3 Bft) 92,86 %
15.04.2018 22:52 16,9 C 11,1 C 68 % 1007,1 hPa 0,0 l/m 9,5 km/h (2 Bft) O 92 0 min 0,000 mm 0,0 UV-I 0 W/m 11,0 C 15,4 C 12,9 km/h (3 Bft) 95,83 %
15.04.2018 22:53 16,9 C 11,1 C 68 % 1007,1 hPa 0,0 l/m 10,7 km/h (2 Bft) O-NO 75 0 min 0,000 mm 0,0 UV-I 0 W/m 11,0 C 14,9 C 12,9 km/h (3 Bft) 96,67 %
15.04.2018 22:54 17,0 C 11,1 C 68 % 1007,2 hPa 0,0 l/m 10,9 km/h (2 Bft) O 91 0 min 0,000 mm 0,0 UV-I 0 W/m 11,0 C 15,0 C 12,9 km/h (3 Bft) 100,00 %
15.04.2018 22:55 17,0 C 11,1 C 68 % 1007,1 hPa 0,0 l/m 12,0 km/h (2 Bft) O 90 0 min 0,000 mm 0,0 UV-I 0 W/m 11,0 C 14,6 C 14,5 km/h (3 Bft) 95,65 %
15.04.2018 22:56 17,0 C 11,1 C 68 % 1007,1 hPa 0,0 l/m 10,2 km/h (2 Bft) O 83 0 min 0,000 mm 0,0 UV-I 0 W/m 11,0 C 15,2 C 12,9 km/h (3 Bft) 100,00 %
15.04.2018 22:57 17,0 C 11,1 C 68 % 1007,1 hPa 0,0 l/m 9,4 km/h (2 Bft) O 88 0 min 0,000 mm 0,0 UV-I 0 W/m 11,0 C 15,6 C 12,9 km/h (3 Bft) 95,65 %
15.04.2018 22:58 17,0 C 11,1 C 68 % 1007,1 hPa 0,0 l/m 7,4 km/h (2 Bft) O 90 0 min 0,000 mm 0,0 UV-I 0 W/m 11,0 C 16,5 C 11,3 km/h (2 Bft) 100,00 %
15.04.2018 22:59 17,0 C 11,1 C 68 % 1007,1 hPa 0,0 l/m 8,8 km/h (2 Bft) O-NO 76 0 min 0,000 mm 0,0 UV-I 0 W/m 11,0 C 15,8 C 12,9 km/h (3 Bft) 95,65 %
15.04.2018 23:00 17,0 C 11,1 C 68 % 1007,1 hPa 0,0 l/m 7,6 km/h (2 Bft) O 79 0 min 0,000 mm 0,0 UV-I 0 W/m 11,0 C 16,4 C 11,3 km/h (2 Bft) 100,00 %
15.04.2018 23:02 17,0 C 11,1 C 68 % 1007,1 hPa 0,0 l/m 9,6 km/h (2 Bft) O-NO 67 0 min 0,025 mm 0,0 UV-I 0 W/m 11,0 C 15,5 C 12,9 km/h (3 Bft) 97,87 %
15.04.2018 23:03 17,0 C 11,1 C 68 % 1007,1 hPa 0,0 l/m 10,3 km/h (2 Bft) O-NO 70 0 min 0,000 mm 0,0 UV-I 0 W/m 11,0 C 15,2 C 12,9 km/h (3 Bft) 100,00 %
15.04.2018 23:04 17,0 C 11,1 C 68 % 1007,1 hPa 0,0 l/m 11,6 km/h (2 Bft) O 79 0 min 0,000 mm 0,0 UV-I 0 W/m 11,0 C 14,7 C 14,5 km/h (3 Bft) 95,65 %
15.04.2018 23:05 16,9 C 11,1 C 69 % 1007,1 hPa 0,0 l/m 10,3 km/h (2 Bft) O 96 0 min 0,000 mm 0,0 UV-I 0 W/m 11,2 C 15,1 C 12,9 km/h (3 Bft) 100,00 %
15.04.2018 23:06 16,9 C 11,1 C 69 % 1007,1 hPa 0,0 l/m 11,4 km/h (2 Bft) O 90 0 min 0,000 mm 0,0 UV-I 0 W/m 11,2 C 14,7 C 14,5 km/h (3 Bft) 100,00 %
15.04.2018 23:07 16,9 C 11,1 C 69 % 1007,1 hPa 0,0 l/m 12,2 km/h (2 Bft) O 88 0 min 0,000 mm 0,0 UV-I 0 W/m 11,2 C 14,4 C 14,5 km/h (3 Bft) 96,30 %
15.04.2018 23:08 16,9 C 11,1 C 69 % 1007,1 hPa 0,0 l/m 13,6 km/h (3 Bft) O 97 0 min 0,000 mm 0,0 UV-I 0 W/m 11,2 C 13,9 C 16,1 km/h (3 Bft) 100,00 %
15.04.2018 23:09 16,9 C 11,1 C 69 % 1007,2 hPa 0,0 l/m 12,0 km/h (2 Bft) O 94 0 min 0,000 mm 0,0 UV-I 0 W/m 11,2 C 14,5 C 14,5 km/h (3 Bft) 100,00 %
15.04.2018 23:10 16,8 C 11,1 C 69 % 1007,2 hPa 0,0 l/m 13,6 km/h (3 Bft) O 97 0 min 0,000 mm 0,0 UV-I 0 W/m 11,1 C 13,8 C 16,1 km/h (3 Bft) 100,00 %
15.04.2018 23:11 16,8 C 11,1 C 69 % 1007,2 hPa 0,0 l/m 15,0 km/h (3 Bft) O-NO 76 0 min 0,000 mm 0,0 UV-I 0 W/m 11,1 C 13,4 C 22,5 km/h (4 Bft) 100,00 %
15.04.2018 23:12 16,8 C 11,1 C 69 % 1007,3 hPa 0,0 l/m 13,8 km/h (3 Bft) O 93 0 min 0,000 mm 0,0 UV-I 0 W/m 11,1 C 13,7 C 17,7 km/h (3 Bft) 100,00 %
15.04.2018 23:13 16,9 C 11,1 C 69 % 1007,4 hPa 0,0 l/m 14,5 km/h (3 Bft) O 100 0 min 0,000 mm 0,0 UV-I 0 W/m 11,2 C 13,6 C 20,9 km/h (4 Bft) 100,00 %
15.04.2018 23:14 16,9 C 11,1 C 69 % 1007,3 hPa 0,0 l/m 14,4 km/h (3 Bft) O-SO 114 0 min 0,000 mm 0,0 UV-I 0 W/m 11,2 C 13,7 C 17,7 km/h (3 Bft) 100,00 %
15.04.2018 23:15 17,0 C 11,1 C 69 % 1007,3 hPa 0,0 l/m 16,0 km/h (3 Bft) O 92 0 min 0,000 mm 0,0 UV-I 0 W/m 11,3 C 13,3 C 19,3 km/h (3 Bft) 100,00 %
15.04.2018 23:16 17,1 C 11,1 C 69 % 1007,4 hPa 0,0 l/m 13,2 km/h (3 Bft) O-SO 114 0 min 0,000 mm 0,0 UV-I 0 W/m 11,4 C 14,3 C 17,7 km/h (3 Bft) 100,00 %
15.04.2018 23:17 17,1 C 11,1 C 69 % 1007,3 hPa 0,0 l/m 13,8 km/h (3 Bft) O 86 0 min 0,000 mm 0,0 UV-I 0 W/m 11,4 C 14,1 C 17,7 km/h (3 Bft) 100,00 %
15.04.2018 23:18 17,1 C 11,1 C 69 % 1007,3 hPa 0,0 l/m 13,7 km/h (3 Bft) O-SO 108 0 min 0,000 mm 0,0 UV-I 0 W/m 11,4 C 14,1 C 17,7 km/h (3 Bft) 100,00 %
15.04.2018 23:19 17,1 C 11,1 C 69 % 1007,3 hPa 0,0 l/m 11,5 km/h (2 Bft) O 96 0 min 0,000 mm 0,0 UV-I 0 W/m 11,4 C 14,9 C 14,5 km/h (3 Bft) 100,00 %
15.04.2018 23:20 17,1 C 11,1 C 69 % 1007,4 hPa 0,0 l/m 13,9 km/h (3 Bft) O-SO 106 0 min 0,000 mm 0,0 UV-I 0 W/m 11,4 C 14,1 C 19,3 km/h (3 Bft) 100,00 %
15.04.2018 23:21 17,0 C 11,1 C 69 % 1007,5 hPa 0,0 l/m 13,1 km/h (3 Bft) O 100 0 min 0,000 mm 0,0 UV-I 0 W/m 11,3 C 14,2 C 16,1 km/h (3 Bft) 100,00 %
15.04.2018 23:22 17,0 C 11,1 C 69 % 1007,5 hPa 0,0 l/m 14,3 km/h (3 Bft) SO 136 0 min 0,000 mm 0,0 UV-I 0 W/m 11,3 C 13,8 C 17,7 km/h (3 Bft) 95,83 %
15.04.2018 23:23 17,0 C 11,1 C 69 % 1007,5 hPa 0,0 l/m 12,1 km/h (2 Bft) O 98 0 min 0,000 mm 0,0 UV-I 0 W/m 11,3 C 14,5 C 16,1 km/h (3 Bft) 95,65 %
15.04.2018 23:24 17,0 C 11,1 C 69 % 1007,5 hPa 0,0 l/m 13,5 km/h (3 Bft) O-SO 106 0 min 0,000 mm 0,0 UV-I 0 W/m 11,3 C 14,1 C 16,1 km/h (3 Bft) 100,00 %
15.04.2018 23:25 17,0 C 11,1 C 69 % 1007,5 hPa 0,0 l/m 11,5 km/h (2 Bft) O 89 0 min 0,000 mm 0,0 UV-I 0 W/m 11,3 C 14,8 C 16,1 km/h (3 Bft) 100,00 %
15.04.2018 23:26 17,0 C 11,1 C 69 % 1007,5 hPa 0,0 l/m 13,5 km/h (3 Bft) O-SO 115 0 min 0,000 mm 0,0 UV-I 0 W/m 11,3 C 14,1 C 19,3 km/h (3 Bft) 100,00 %
15.04.2018 23:27 17,0 C 11,1 C 69 % 1007,5 hPa 0,0 l/m 11,6 km/h (2 Bft) O-SO 109 0 min 0,000 mm 0,0 UV-I 0 W/m 11,3 C 14,7 C 14,5 km/h (3 Bft) 100,00 %
15.04.2018 23:28 16,9 C 11,1 C 69 % 1007,5 hPa 0,0 l/m 11,9 km/h (2 Bft) O-SO 106 0 min 0,000 mm 0,0 UV-I 0 W/m 11,2 C 14,5 C 16,1 km/h (3 Bft) 100,00 %
15.04.2018 23:29 16,9 C 11,1 C 69 % 1007,5 hPa 0,0 l/m 9,3 km/h (2 Bft) O-SO 106 0 min 0,000 mm 0,0 UV-I 0 W/m 11,2 C 15,5 C 14,5 km/h (3 Bft) 95,65 %
15.04.2018 23:30 16,9 C 11,1 C 70 % 1007,5 hPa 0,0 l/m 10,0 km/h (2 Bft) O 89 0 min 0,000 mm 0,0 UV-I 0 W/m 11,4 C 15,2 C 12,9 km/h (3 Bft) 100,00 %
15.04.2018 23:31 16,8 C 11,1 C 70 % 1007,5 hPa 0,0 l/m 7,9 km/h (2 Bft) O 84 0 min 0,000 mm 0,0 UV-I 0 W/m 11,3 C 16,0 C 11,3 km/h (2 Bft) 95,65 %
15.04.2018 23:32 16,8 C 11,1 C 70 % 1007,6 hPa 0,0 l/m 10,0 km/h (2 Bft) O-SO 104 0 min 0,000 mm 0,0 UV-I 0 W/m 11,3 C 15,1 C 12,9 km/h (3 Bft) 95,83 %
15.04.2018 23:33 16,7 C 11,1 C 70 % 1007,5 hPa 0,0 l/m 8,0 km/h (2 Bft) O 82 0 min 0,000 mm 0,0 UV-I 0 W/m 11,2 C 15,9 C 11,3 km/h (2 Bft) 91,67 %
15.04.2018 23:34 16,6 C 11,1 C 71 % 1007,6 hPa 0,0 l/m 7,6 km/h (2 Bft) O-NO 62 0 min 0,000 mm 0,0 UV-I 0 W/m 11,3 C 16,0 C 11,3 km/h (2 Bft) 96,15 %
15.04.2018 23:35 16,6 C 11,1 C 71 % 1007,6 hPa 0,0 l/m 5,7 km/h (1 Bft) O 86 0 min 0,000 mm 0,0 UV-I 0 W/m 11,3 C 16,6 C 11,3 km/h (2 Bft) 100,00 %
15.04.2018 23:36 16,6 C 11,1 C 71 % 1007,6 hPa 0,0 l/m 6,4 km/h (2 Bft) O 98 0 min 0,000 mm 0,0 UV-I 0 W/m 11,3 C 16,6 C 9,7 km/h (2 Bft) 86,96 %
15.04.2018 23:37 16,6 C 11,1 C 71 % 1007,6 hPa 0,0 l/m 5,4 km/h (1 Bft) O 93 0 min 0,000 mm 0,0 UV-I 0 W/m 11,3 C 16,6 C 6,4 km/h (2 Bft) 95,83 %
15.04.2018 23:38 16,5 C 11,1 C 71 % 1007,6 hPa 0,0 l/m 4,5 km/h (1 Bft) O 93 0 min 0,000 mm 0,0 UV-I 0 W/m 11,2 C 16,5 C 6,4 km/h (2 Bft) 100,00 %
15.04.2018 23:39 16,5 C 11,1 C 72 % 1007,7 hPa 0,0 l/m 5,4 km/h (1 Bft) O 94 0 min 0,000 mm 0,0 UV-I 0 W/m 11,4 C 16,5 C 6,4 km/h (2 Bft) 91,67 %
15.04.2018 23:40 16,5 C 11,1 C 72 % 1007,7 hPa 0,0 l/m 5,8 km/h (2 Bft) O 93 0 min 0,000 mm 0,0 UV-I 0 W/m 11,4 C 16,5 C 6,4 km/h (2 Bft) 100,00 %
15.04.2018 23:41 16,6 C 11,1 C 71 % 1007,6 hPa 0,0 l/m 5,0 km/h (1 Bft) O 92 0 min 0,000 mm 0,0 UV-I 0 W/m 11,3 C 16,6 C 6,4 km/h (2 Bft) 95,83 %
15.04.2018 23:42 16,6 C 11,1 C 71 % 1007,7 hPa 0,0 l/m 3,8 km/h (1 Bft) O 79 0 min 0,000 mm 0,0 UV-I 0 W/m 11,3 C 16,6 C 4,8 km/h (1 Bft) 91,30 %
15.04.2018 23:43 16,6 C 11,1 C 71 % 1007,7 hPa 0,0 l/m 5,1 km/h (1 Bft) O-NO 74 0 min 0,000 mm 0,0 UV-I 0 W/m 11,3 C 16,6 C 8,0 km/h (2 Bft) 95,83 %
15.04.2018 23:44 16,6 C 11,1 C 71 % 1007,7 hPa 0,0 l/m 5,8 km/h (2 Bft) O-NO 66 0 min 0,000 mm 0,0 UV-I 0 W/m 11,3 C 16,6 C 6,4 km/h (2 Bft) 96,15 %
15.04.2018 23:45 16,6 C 11,1 C 71 % 1007,7 hPa 0,0 l/m 6,2 km/h (2 Bft) NO 53 0 min 0,000 mm 0,0 UV-I 0 W/m 11,3 C 16,6 C 8,0 km/h (2 Bft) 100,00 %
15.04.2018 23:46 16,5 C 11,1 C 72 % 1007,7 hPa 0,0 l/m 6,0 km/h (2 Bft) O-NO 62 0 min 0,000 mm 0,0 UV-I 0 W/m 11,4 C 16,5 C 8,0 km/h (2 Bft) 92,86 %
15.04.2018 23:47 16,4 C 11,1 C 72 % 1007,7 hPa 0,0 l/m 6,8 km/h (2 Bft) O-NO 57 0 min 0,000 mm 0,0 UV-I 0 W/m 11,3 C 16,2 C 9,7 km/h (2 Bft) 100,00 %
15.04.2018 23:48 16,4 C 11,1 C 72 % 1007,7 hPa 0,0 l/m 7,3 km/h (2 Bft) NO 53 0 min 0,000 mm 0,0 UV-I 0 W/m 11,3 C 15,9 C 9,7 km/h (2 Bft) 95,65 %
15.04.2018 23:49 16,3 C 11,1 C 73 % 1007,7 hPa 0,0 l/m 9,1 km/h (2 Bft) NO 52 0 min 0,000 mm 0,0 UV-I 0 W/m 11,4 C 14,9 C 11,3 km/h (2 Bft) 100,00 %
15.04.2018 23:50 16,3 C 11,1 C 73 % 1007,7 hPa 0,0 l/m 11,2 km/h (2 Bft) O-NO 63 0 min 0,000 mm 0,0 UV-I 0 W/m 11,4 C 14,1 C 14,5 km/h (3 Bft) 95,83 %
15.04.2018 23:51 16,3 C 11,1 C 73 % 1007,7 hPa 0,0 l/m 9,2 km/h (2 Bft) NO 53 0 min 0,000 mm 0,0 UV-I 0 W/m 11,4 C 14,9 C 12,9 km/h (3 Bft) 95,65 %
15.04.2018 23:52 16,3 C 11,1 C 73 % 1007,7 hPa 0,0 l/m 7,8 km/h (2 Bft) O-NO 71 0 min 0,000 mm 0,0 UV-I 0 W/m 11,4 C 15,6 C 9,7 km/h (2 Bft) 95,83 %
15.04.2018 23:53 16,4 C 11,1 C 73 % 1007,7 hPa 0,0 l/m 5,3 km/h (1 Bft) O 86 0 min 0,000 mm 0,0 UV-I 0 W/m 11,5 C 16,4 C 8,0 km/h (2 Bft) 96,15 %
15.04.2018 23:54 16,4 C 11,1 C 72 % 1007,7 hPa 0,0 l/m 7,2 km/h (2 Bft) O 90 0 min 0,000 mm 0,0 UV-I 0 W/m 11,3 C 16,0 C 9,7 km/h (2 Bft) 100,00 %
15.04.2018 23:55 16,4 C 11,1 C 72 % 1007,7 hPa 0,0 l/m 7,9 km/h (2 Bft) O-SO 104 0 min 0,000 mm 0,0 UV-I 0 W/m 11,3 C 15,6 C 11,3 km/h (2 Bft) 95,65 %
15.04.2018 23:56 16,3 C 11,1 C 73 % 1007,7 hPa 0,0 l/m 4,8 km/h (1 Bft) O-SO 114 0 min 0,000 mm 0,0 UV-I 0 W/m 11,4 C 16,3 C 9,7 km/h (2 Bft) 100,00 %
15.04.2018 23:57 16,2 C 11,1 C 73 % 1007,7 hPa 0,0 l/m 4,2 km/h (1 Bft) O-SO 115 0 min 0,000 mm 0,0 UV-I 0 W/m 11,4 C 16,2 C 6,4 km/h (2 Bft) 95,65 %
15.04.2018 23:58 16,2 C 11,1 C 73 % 1007,7 hPa 0,0 l/m 5,2 km/h (1 Bft) O-SO 113 0 min 0,000 mm 0,0 UV-I 0 W/m 11,4 C 16,2 C 9,7 km/h (2 Bft) 100,00 %
15.04.2018 23:59 16,3 C 11,1 C 73 % 1007,7 hPa 0,0 l/m 6,1 km/h (2 Bft) O 100 0 min 0,000 mm 0,0 UV-I 0 W/m 11,4 C 16,3 C 9,7 km/h (2 Bft) 95,65 %
_ Min-Zeit 05:59 00:00 14:55 19:52 - 01:31 - - - - - - 06:41 07:07 01:31 13:46
Minimum _ 5,7 C 11,1 C 48 % 1006,8 hPa - 0,0 km/h (0 Bft) - - - - - - 3,9 C 2,8 C 0,0 km/h (0 Bft) 78,57 %
_ Max-Zeit 15:13 14:01 05:35 00:00 00:00 19:30 - - 14:23 14:00 13:20 10:46 13:14 15:52 14:14 00:00
Maximum _ 22,8 C 11,7 C 90 % 1016,1 hPa 0,0 l/m 22,9 km/h
O-NO (4 Bft)
- - 2 min 0,432 mm 3,5 UV-I 740 W/m 13,6 C 21,7 C 29,0 km/h
O-NO (5 Bft)
100,00 %
Durchschnitt _ 14,6 C 11,1 C 70 % 1010,9 hPa #0,0 l/m 7,4 km/h (2 Bft) O - #4:25 h #2,946 mm 1,7 UV-I 260 W/m 8,8 C 13,6 C 10,1 km/h (2 Bft) 97,75 %